<?xml version="1.0" encoding="UTF-8" standalone="no" ?>
<gpx xmlns="http://www.topografix.com/GPX/1/1" xmlns:xsi="http://www.w3.org/2001/XMLSchema-instance" xsi:schemaLocation="http://www.topografix.com/GPX/1/1 http://www.topografix.com/GPX/1/1/gpx.xsd" version="1.1" creator="VisuGPX - https://www.visugpx.com">
  <metadata>
    <name>Causswatts 2017</name>
  </metadata>
  <trk>
    <name><![CDATA[causwatts 02-dourbies-florac]]></name>
    <trkseg>
      <trkpt lat="44.06435" lon="3.44639">
        <ele>890</ele>
        <time>2017-02-27T14:42:46Z</time>
      </trkpt>
      <trkpt lat="44.06443" lon="3.44643">
        <ele>891</ele>
        <time>2017-02-27T14:44:46Z</time>
      </trkpt>
      <trkpt lat="44.06446" lon="3.44645">
        <ele>891</ele>
        <time>2017-02-27T14:46:46Z</time>
      </trkpt>
      <trkpt lat="44.06454" lon="3.44639">
        <ele>892</ele>
        <time>2017-02-27T14:48:46Z</time>
      </trkpt>
      <trkpt lat="44.06478" lon="3.44637">
        <ele>894</ele>
        <time>2017-02-27T14:50:46Z</time>
      </trkpt>
      <trkpt lat="44.06491" lon="3.44634">
        <ele>895</ele>
        <time>2017-02-27T14:52:46Z</time>
      </trkpt>
      <trkpt lat="44.06494" lon="3.44631">
        <ele>895</ele>
        <time>2017-02-27T14:54:46Z</time>
      </trkpt>
      <trkpt lat="44.06498" lon="3.44623">
        <ele>896</ele>
        <time>2017-02-27T14:56:46Z</time>
      </trkpt>
      <trkpt lat="44.06511" lon="3.44631">
        <ele>896</ele>
        <time>2017-02-27T14:58:46Z</time>
      </trkpt>
      <trkpt lat="44.06519" lon="3.44633">
        <ele>896</ele>
        <time>2017-02-27T15:00:46Z</time>
      </trkpt>
      <trkpt lat="44.06529" lon="3.44634">
        <ele>896</ele>
        <time>2017-02-27T15:02:46Z</time>
      </trkpt>
      <trkpt lat="44.06536" lon="3.44634">
        <ele>896</ele>
        <time>2017-02-27T15:04:46Z</time>
      </trkpt>
      <trkpt lat="44.06544" lon="3.44632">
        <ele>896</ele>
        <time>2017-02-27T15:06:46Z</time>
      </trkpt>
      <trkpt lat="44.0655" lon="3.4463">
        <ele>896</ele>
        <time>2017-02-27T15:08:46Z</time>
      </trkpt>
      <trkpt lat="44.0656" lon="3.44624">
        <ele>896</ele>
        <time>2017-02-27T15:10:46Z</time>
      </trkpt>
      <trkpt lat="44.0657" lon="3.44618">
        <ele>897</ele>
        <time>2017-02-27T15:12:46Z</time>
      </trkpt>
      <trkpt lat="44.06575" lon="3.44611">
        <ele>897</ele>
        <time>2017-02-27T15:14:46Z</time>
      </trkpt>
      <trkpt lat="44.06584" lon="3.446">
        <ele>897</ele>
        <time>2017-02-27T15:16:46Z</time>
      </trkpt>
      <trkpt lat="44.06586" lon="3.44612">
        <ele>897</ele>
        <time>2017-02-27T15:18:46Z</time>
      </trkpt>
      <trkpt lat="44.06587" lon="3.44619">
        <ele>897</ele>
        <time>2017-02-27T15:20:46Z</time>
      </trkpt>
      <trkpt lat="44.06588" lon="3.44624">
        <ele>897</ele>
        <time>2017-02-27T15:22:46Z</time>
      </trkpt>
      <trkpt lat="44.06597" lon="3.44626">
        <ele>898</ele>
        <time>2017-02-27T15:24:46Z</time>
      </trkpt>
      <trkpt lat="44.06651" lon="3.44642">
        <ele>902</ele>
        <time>2017-02-27T15:26:46Z</time>
      </trkpt>
      <trkpt lat="44.06668" lon="3.44647">
        <ele>903</ele>
        <time>2017-02-27T15:28:46Z</time>
      </trkpt>
      <trkpt lat="44.06712" lon="3.44649">
        <ele>907</ele>
        <time>2017-02-27T15:30:46Z</time>
      </trkpt>
      <trkpt lat="44.06726" lon="3.44648">
        <ele>909</ele>
        <time>2017-02-27T15:32:46Z</time>
      </trkpt>
      <trkpt lat="44.06736" lon="3.44649">
        <ele>910</ele>
        <time>2017-02-27T15:34:46Z</time>
      </trkpt>
      <trkpt lat="44.06742" lon="3.44651">
        <ele>910</ele>
        <time>2017-02-27T15:36:46Z</time>
      </trkpt>
      <trkpt lat="44.06749" lon="3.44654">
        <ele>911</ele>
        <time>2017-02-27T15:38:46Z</time>
      </trkpt>
      <trkpt lat="44.06767" lon="3.44665">
        <ele>913</ele>
        <time>2017-02-27T15:40:46Z</time>
      </trkpt>
      <trkpt lat="44.068" lon="3.4469">
        <ele>916</ele>
        <time>2017-02-27T15:42:46Z</time>
      </trkpt>
      <trkpt lat="44.06828" lon="3.44709">
        <ele>919</ele>
        <time>2017-02-27T15:44:46Z</time>
      </trkpt>
      <trkpt lat="44.06837" lon="3.44719">
        <ele>920</ele>
        <time>2017-02-27T15:46:46Z</time>
      </trkpt>
      <trkpt lat="44.06841" lon="3.44723">
        <ele>920</ele>
        <time>2017-02-27T15:48:46Z</time>
      </trkpt>
      <trkpt lat="44.06845" lon="3.44734">
        <ele>920</ele>
        <time>2017-02-27T15:50:46Z</time>
      </trkpt>
      <trkpt lat="44.06846" lon="3.44743">
        <ele>919</ele>
        <time>2017-02-27T15:52:46Z</time>
      </trkpt>
      <trkpt lat="44.06846" lon="3.44751">
        <ele>919</ele>
        <time>2017-02-27T15:54:46Z</time>
      </trkpt>
      <trkpt lat="44.06845" lon="3.44763">
        <ele>919</ele>
        <time>2017-02-27T15:56:46Z</time>
      </trkpt>
      <trkpt lat="44.0684" lon="3.44792">
        <ele>919</ele>
        <time>2017-02-27T15:58:46Z</time>
      </trkpt>
      <trkpt lat="44.06839" lon="3.44802">
        <ele>919</ele>
        <time>2017-02-27T16:00:46Z</time>
      </trkpt>
      <trkpt lat="44.06839" lon="3.44809">
        <ele>919</ele>
        <time>2017-02-27T16:02:46Z</time>
      </trkpt>
      <trkpt lat="44.06842" lon="3.44816">
        <ele>920</ele>
        <time>2017-02-27T16:04:46Z</time>
      </trkpt>
      <trkpt lat="44.06845" lon="3.44827">
        <ele>920</ele>
        <time>2017-02-27T16:06:46Z</time>
      </trkpt>
      <trkpt lat="44.06852" lon="3.44837">
        <ele>920</ele>
        <time>2017-02-27T16:08:46Z</time>
      </trkpt>
      <trkpt lat="44.06863" lon="3.44851">
        <ele>918</ele>
        <time>2017-02-27T16:10:46Z</time>
      </trkpt>
      <trkpt lat="44.06897" lon="3.44889">
        <ele>916</ele>
        <time>2017-02-27T16:12:46Z</time>
      </trkpt>
      <trkpt lat="44.06907" lon="3.44898">
        <ele>916</ele>
        <time>2017-02-27T16:14:46Z</time>
      </trkpt>
      <trkpt lat="44.06973" lon="3.44955">
        <ele>918</ele>
        <time>2017-02-27T16:16:46Z</time>
      </trkpt>
      <trkpt lat="44.07" lon="3.44966">
        <ele>920</ele>
        <time>2017-02-27T16:18:46Z</time>
      </trkpt>
      <trkpt lat="44.07012" lon="3.44969">
        <ele>921</ele>
        <time>2017-02-27T16:20:46Z</time>
      </trkpt>
      <trkpt lat="44.07019" lon="3.4497">
        <ele>922</ele>
        <time>2017-02-27T16:22:46Z</time>
      </trkpt>
      <trkpt lat="44.07027" lon="3.44969">
        <ele>923</ele>
        <time>2017-02-27T16:24:46Z</time>
      </trkpt>
      <trkpt lat="44.07034" lon="3.44968">
        <ele>924</ele>
        <time>2017-02-27T16:26:46Z</time>
      </trkpt>
      <trkpt lat="44.07046" lon="3.44965">
        <ele>926</ele>
        <time>2017-02-27T16:28:46Z</time>
      </trkpt>
      <trkpt lat="44.07073" lon="3.44956">
        <ele>932</ele>
        <time>2017-02-27T16:30:46Z</time>
      </trkpt>
      <trkpt lat="44.07112" lon="3.44944">
        <ele>938</ele>
        <time>2017-02-27T16:32:46Z</time>
      </trkpt>
      <trkpt lat="44.07129" lon="3.44941">
        <ele>940</ele>
        <time>2017-02-27T16:34:46Z</time>
      </trkpt>
      <trkpt lat="44.07135" lon="3.44942">
        <ele>941</ele>
        <time>2017-02-27T16:36:46Z</time>
      </trkpt>
      <trkpt lat="44.07139" lon="3.44943">
        <ele>941</ele>
        <time>2017-02-27T16:38:46Z</time>
      </trkpt>
      <trkpt lat="44.07142" lon="3.44946">
        <ele>941</ele>
        <time>2017-02-27T16:40:46Z</time>
      </trkpt>
      <trkpt lat="44.07146" lon="3.4495">
        <ele>942</ele>
        <time>2017-02-27T16:42:46Z</time>
      </trkpt>
      <trkpt lat="44.07148" lon="3.44956">
        <ele>942</ele>
        <time>2017-02-27T16:44:46Z</time>
      </trkpt>
      <trkpt lat="44.07149" lon="3.44962">
        <ele>942</ele>
        <time>2017-02-27T16:46:46Z</time>
      </trkpt>
      <trkpt lat="44.07149" lon="3.44968">
        <ele>942</ele>
        <time>2017-02-27T16:48:46Z</time>
      </trkpt>
      <trkpt lat="44.07148" lon="3.44976">
        <ele>942</ele>
        <time>2017-02-27T16:50:46Z</time>
      </trkpt>
      <trkpt lat="44.07142" lon="3.44986">
        <ele>940</ele>
        <time>2017-02-27T16:52:46Z</time>
      </trkpt>
      <trkpt lat="44.07125" lon="3.45011">
        <ele>937</ele>
        <time>2017-02-27T16:54:46Z</time>
      </trkpt>
      <trkpt lat="44.07116" lon="3.45021">
        <ele>936</ele>
        <time>2017-02-27T16:56:46Z</time>
      </trkpt>
      <trkpt lat="44.07101" lon="3.45035">
        <ele>933</ele>
        <time>2017-02-27T16:58:46Z</time>
      </trkpt>
      <trkpt lat="44.07087" lon="3.45049">
        <ele>930</ele>
        <time>2017-02-27T17:00:46Z</time>
      </trkpt>
      <trkpt lat="44.07082" lon="3.45054">
        <ele>929</ele>
        <time>2017-02-27T17:02:46Z</time>
      </trkpt>
      <trkpt lat="44.07077" lon="3.45061">
        <ele>929</ele>
        <time>2017-02-27T17:04:46Z</time>
      </trkpt>
      <trkpt lat="44.07068" lon="3.45079">
        <ele>929</ele>
        <time>2017-02-27T17:06:46Z</time>
      </trkpt>
      <trkpt lat="44.07058" lon="3.45095">
        <ele>929</ele>
        <time>2017-02-27T17:08:46Z</time>
      </trkpt>
      <trkpt lat="44.0705" lon="3.45105">
        <ele>928</ele>
        <time>2017-02-27T17:10:46Z</time>
      </trkpt>
      <trkpt lat="44.07038" lon="3.45116">
        <ele>927</ele>
        <time>2017-02-27T17:12:46Z</time>
      </trkpt>
      <trkpt lat="44.07021" lon="3.45128">
        <ele>925</ele>
        <time>2017-02-27T17:14:46Z</time>
      </trkpt>
      <trkpt lat="44.06998" lon="3.4514">
        <ele>922</ele>
        <time>2017-02-27T17:16:46Z</time>
      </trkpt>
      <trkpt lat="44.06984" lon="3.45148">
        <ele>920</ele>
        <time>2017-02-27T17:18:46Z</time>
      </trkpt>
      <trkpt lat="44.06976" lon="3.45156">
        <ele>919</ele>
        <time>2017-02-27T17:20:46Z</time>
      </trkpt>
      <trkpt lat="44.06972" lon="3.45163">
        <ele>920</ele>
        <time>2017-02-27T17:22:46Z</time>
      </trkpt>
      <trkpt lat="44.0697" lon="3.45168">
        <ele>920</ele>
        <time>2017-02-27T17:24:46Z</time>
      </trkpt>
      <trkpt lat="44.06969" lon="3.45176">
        <ele>919</ele>
        <time>2017-02-27T17:26:46Z</time>
      </trkpt>
      <trkpt lat="44.06969" lon="3.45183">
        <ele>918</ele>
        <time>2017-02-27T17:28:46Z</time>
      </trkpt>
      <trkpt lat="44.06971" lon="3.45191">
        <ele>918</ele>
        <time>2017-02-27T17:30:46Z</time>
      </trkpt>
      <trkpt lat="44.06975" lon="3.45196">
        <ele>918</ele>
        <time>2017-02-27T17:32:46Z</time>
      </trkpt>
      <trkpt lat="44.06979" lon="3.452">
        <ele>919</ele>
        <time>2017-02-27T17:34:46Z</time>
      </trkpt>
      <trkpt lat="44.06985" lon="3.45204">
        <ele>920</ele>
        <time>2017-02-27T17:36:46Z</time>
      </trkpt>
      <trkpt lat="44.06992" lon="3.45205">
        <ele>921</ele>
        <time>2017-02-27T17:38:46Z</time>
      </trkpt>
      <trkpt lat="44.0703" lon="3.45205">
        <ele>928</ele>
        <time>2017-02-27T17:40:46Z</time>
      </trkpt>
      <trkpt lat="44.07037" lon="3.45204">
        <ele>930</ele>
        <time>2017-02-27T17:42:46Z</time>
      </trkpt>
      <trkpt lat="44.07054" lon="3.45197">
        <ele>933</ele>
        <time>2017-02-27T17:44:46Z</time>
      </trkpt>
      <trkpt lat="44.07061" lon="3.45195">
        <ele>935</ele>
        <time>2017-02-27T17:46:46Z</time>
      </trkpt>
      <trkpt lat="44.07071" lon="3.45194">
        <ele>937</ele>
        <time>2017-02-27T17:48:46Z</time>
      </trkpt>
      <trkpt lat="44.07094" lon="3.45194">
        <ele>940</ele>
        <time>2017-02-27T17:50:46Z</time>
      </trkpt>
      <trkpt lat="44.07112" lon="3.45192">
        <ele>943</ele>
        <time>2017-02-27T17:52:46Z</time>
      </trkpt>
      <trkpt lat="44.07137" lon="3.45187">
        <ele>947</ele>
        <time>2017-02-27T17:54:46Z</time>
      </trkpt>
      <trkpt lat="44.07148" lon="3.45186">
        <ele>948</ele>
        <time>2017-02-27T17:56:46Z</time>
      </trkpt>
      <trkpt lat="44.07156" lon="3.45186">
        <ele>949</ele>
        <time>2017-02-27T17:58:46Z</time>
      </trkpt>
      <trkpt lat="44.07162" lon="3.45188">
        <ele>950</ele>
        <time>2017-02-27T18:00:46Z</time>
      </trkpt>
      <trkpt lat="44.07167" lon="3.45192">
        <ele>950</ele>
        <time>2017-02-27T18:02:46Z</time>
      </trkpt>
      <trkpt lat="44.07171" lon="3.45198">
        <ele>950</ele>
        <time>2017-02-27T18:04:46Z</time>
      </trkpt>
      <trkpt lat="44.07175" lon="3.45204">
        <ele>951</ele>
        <time>2017-02-27T18:06:46Z</time>
      </trkpt>
      <trkpt lat="44.07178" lon="3.45216">
        <ele>950</ele>
        <time>2017-02-27T18:08:46Z</time>
      </trkpt>
      <trkpt lat="44.07182" lon="3.4523">
        <ele>949</ele>
        <time>2017-02-27T18:10:46Z</time>
      </trkpt>
      <trkpt lat="44.07184" lon="3.45258">
        <ele>948</ele>
        <time>2017-02-27T18:12:46Z</time>
      </trkpt>
      <trkpt lat="44.07184" lon="3.45264">
        <ele>949</ele>
        <time>2017-02-27T18:14:46Z</time>
      </trkpt>
      <trkpt lat="44.07183" lon="3.45272">
        <ele>949</ele>
        <time>2017-02-27T18:16:46Z</time>
      </trkpt>
      <trkpt lat="44.07179" lon="3.45281">
        <ele>949</ele>
        <time>2017-02-27T18:18:46Z</time>
      </trkpt>
      <trkpt lat="44.07171" lon="3.453">
        <ele>949</ele>
        <time>2017-02-27T18:20:46Z</time>
      </trkpt>
      <trkpt lat="44.07157" lon="3.45327">
        <ele>948</ele>
        <time>2017-02-27T18:22:46Z</time>
      </trkpt>
      <trkpt lat="44.07133" lon="3.45377">
        <ele>948</ele>
        <time>2017-02-27T18:24:46Z</time>
      </trkpt>
      <trkpt lat="44.07111" lon="3.45425">
        <ele>949</ele>
        <time>2017-02-27T18:26:46Z</time>
      </trkpt>
      <trkpt lat="44.07101" lon="3.45446">
        <ele>948</ele>
        <time>2017-02-27T18:28:46Z</time>
      </trkpt>
      <trkpt lat="44.07097" lon="3.45454">
        <ele>948</ele>
        <time>2017-02-27T18:30:46Z</time>
      </trkpt>
      <trkpt lat="44.07096" lon="3.45459">
        <ele>948</ele>
        <time>2017-02-27T18:32:46Z</time>
      </trkpt>
      <trkpt lat="44.07091" lon="3.45477">
        <ele>949</ele>
        <time>2017-02-27T18:34:46Z</time>
      </trkpt>
      <trkpt lat="44.07085" lon="3.45515">
        <ele>951</ele>
        <time>2017-02-27T18:36:46Z</time>
      </trkpt>
      <trkpt lat="44.07082" lon="3.45525">
        <ele>952</ele>
        <time>2017-02-27T18:38:46Z</time>
      </trkpt>
      <trkpt lat="44.07077" lon="3.45539">
        <ele>953</ele>
        <time>2017-02-27T18:40:46Z</time>
      </trkpt>
      <trkpt lat="44.07067" lon="3.45561">
        <ele>953</ele>
        <time>2017-02-27T18:42:46Z</time>
      </trkpt>
      <trkpt lat="44.07059" lon="3.45581">
        <ele>953</ele>
        <time>2017-02-27T18:44:46Z</time>
      </trkpt>
      <trkpt lat="44.07055" lon="3.45591">
        <ele>954</ele>
        <time>2017-02-27T18:46:46Z</time>
      </trkpt>
      <trkpt lat="44.07053" lon="3.45598">
        <ele>954</ele>
        <time>2017-02-27T18:48:46Z</time>
      </trkpt>
      <trkpt lat="44.07051" lon="3.45615">
        <ele>957</ele>
        <time>2017-02-27T18:50:46Z</time>
      </trkpt>
      <trkpt lat="44.07047" lon="3.45632">
        <ele>960</ele>
        <time>2017-02-27T18:52:46Z</time>
      </trkpt>
      <trkpt lat="44.07044" lon="3.45642">
        <ele>961</ele>
        <time>2017-02-27T18:54:46Z</time>
      </trkpt>
      <trkpt lat="44.07039" lon="3.45649">
        <ele>961</ele>
        <time>2017-02-27T18:56:46Z</time>
      </trkpt>
      <trkpt lat="44.0703" lon="3.4566">
        <ele>962</ele>
        <time>2017-02-27T18:58:46Z</time>
      </trkpt>
      <trkpt lat="44.06999" lon="3.45686">
        <ele>963</ele>
        <time>2017-02-27T19:00:46Z</time>
      </trkpt>
      <trkpt lat="44.06989" lon="3.45692">
        <ele>965</ele>
        <time>2017-02-27T19:02:46Z</time>
      </trkpt>
      <trkpt lat="44.06982" lon="3.45694">
        <ele>965</ele>
        <time>2017-02-27T19:04:46Z</time>
      </trkpt>
      <trkpt lat="44.06974" lon="3.45693">
        <ele>965</ele>
        <time>2017-02-27T19:06:46Z</time>
      </trkpt>
      <trkpt lat="44.06967" lon="3.45692">
        <ele>964</ele>
        <time>2017-02-27T19:08:46Z</time>
      </trkpt>
      <trkpt lat="44.06944" lon="3.45683">
        <ele>961</ele>
        <time>2017-02-27T19:10:46Z</time>
      </trkpt>
      <trkpt lat="44.06936" lon="3.45681">
        <ele>960</ele>
        <time>2017-02-27T19:12:46Z</time>
      </trkpt>
      <trkpt lat="44.06923" lon="3.45679">
        <ele>959</ele>
        <time>2017-02-27T19:14:46Z</time>
      </trkpt>
      <trkpt lat="44.06892" lon="3.45677">
        <ele>954</ele>
        <time>2017-02-27T19:16:46Z</time>
      </trkpt>
      <trkpt lat="44.06886" lon="3.45677">
        <ele>953</ele>
        <time>2017-02-27T19:18:46Z</time>
      </trkpt>
      <trkpt lat="44.0688" lon="3.45678">
        <ele>952</ele>
        <time>2017-02-27T19:20:46Z</time>
      </trkpt>
      <trkpt lat="44.06874" lon="3.4568">
        <ele>952</ele>
        <time>2017-02-27T19:22:46Z</time>
      </trkpt>
      <trkpt lat="44.06867" lon="3.45685">
        <ele>952</ele>
        <time>2017-02-27T19:24:46Z</time>
      </trkpt>
      <trkpt lat="44.06857" lon="3.45694">
        <ele>954</ele>
        <time>2017-02-27T19:26:46Z</time>
      </trkpt>
      <trkpt lat="44.06819" lon="3.4574">
        <ele>959</ele>
        <time>2017-02-27T19:28:46Z</time>
      </trkpt>
      <trkpt lat="44.06776" lon="3.45799">
        <ele>964</ele>
        <time>2017-02-27T19:30:46Z</time>
      </trkpt>
      <trkpt lat="44.06726" lon="3.45861">
        <ele>965</ele>
        <time>2017-02-27T19:32:46Z</time>
      </trkpt>
      <trkpt lat="44.06709" lon="3.45884">
        <ele>964</ele>
        <time>2017-02-27T19:34:46Z</time>
      </trkpt>
      <trkpt lat="44.06704" lon="3.45892">
        <ele>963</ele>
        <time>2017-02-27T19:36:46Z</time>
      </trkpt>
      <trkpt lat="44.06701" lon="3.459">
        <ele>964</ele>
        <time>2017-02-27T19:38:46Z</time>
      </trkpt>
      <trkpt lat="44.06698" lon="3.45908">
        <ele>964</ele>
        <time>2017-02-27T19:40:46Z</time>
      </trkpt>
      <trkpt lat="44.06697" lon="3.45925">
        <ele>966</ele>
        <time>2017-02-27T19:42:46Z</time>
      </trkpt>
      <trkpt lat="44.06698" lon="3.45933">
        <ele>966</ele>
        <time>2017-02-27T19:44:46Z</time>
      </trkpt>
      <trkpt lat="44.06707" lon="3.45977">
        <ele>972</ele>
        <time>2017-02-27T19:46:46Z</time>
      </trkpt>
      <trkpt lat="44.06708" lon="3.45995">
        <ele>973</ele>
        <time>2017-02-27T19:48:46Z</time>
      </trkpt>
      <trkpt lat="44.06707" lon="3.46005">
        <ele>973</ele>
        <time>2017-02-27T19:50:46Z</time>
      </trkpt>
      <trkpt lat="44.06706" lon="3.46017">
        <ele>973</ele>
        <time>2017-02-27T19:52:46Z</time>
      </trkpt>
      <trkpt lat="44.06703" lon="3.46032">
        <ele>973</ele>
        <time>2017-02-27T19:54:46Z</time>
      </trkpt>
      <trkpt lat="44.06701" lon="3.46043">
        <ele>972</ele>
        <time>2017-02-27T19:56:46Z</time>
      </trkpt>
      <trkpt lat="44.067" lon="3.46053">
        <ele>972</ele>
        <time>2017-02-27T19:58:46Z</time>
      </trkpt>
      <trkpt lat="44.06699" lon="3.46068">
        <ele>973</ele>
        <time>2017-02-27T20:00:46Z</time>
      </trkpt>
      <trkpt lat="44.067" lon="3.46098">
        <ele>973</ele>
        <time>2017-02-27T20:02:46Z</time>
      </trkpt>
      <trkpt lat="44.067" lon="3.46105">
        <ele>973</ele>
        <time>2017-02-27T20:04:46Z</time>
      </trkpt>
      <trkpt lat="44.06699" lon="3.46115">
        <ele>972</ele>
        <time>2017-02-27T20:06:46Z</time>
      </trkpt>
      <trkpt lat="44.06693" lon="3.46143">
        <ele>969</ele>
        <time>2017-02-27T20:08:46Z</time>
      </trkpt>
      <trkpt lat="44.06691" lon="3.46158">
        <ele>968</ele>
        <time>2017-02-27T20:10:46Z</time>
      </trkpt>
      <trkpt lat="44.06691" lon="3.46169">
        <ele>968</ele>
        <time>2017-02-27T20:12:46Z</time>
      </trkpt>
      <trkpt lat="44.06692" lon="3.46177">
        <ele>967</ele>
        <time>2017-02-27T20:14:46Z</time>
      </trkpt>
      <trkpt lat="44.06693" lon="3.46183">
        <ele>966</ele>
        <time>2017-02-27T20:16:46Z</time>
      </trkpt>
      <trkpt lat="44.06697" lon="3.46191">
        <ele>966</ele>
        <time>2017-02-27T20:18:46Z</time>
      </trkpt>
      <trkpt lat="44.06702" lon="3.46198">
        <ele>966</ele>
        <time>2017-02-27T20:20:46Z</time>
      </trkpt>
      <trkpt lat="44.06708" lon="3.46201">
        <ele>967</ele>
        <time>2017-02-27T20:22:46Z</time>
      </trkpt>
      <trkpt lat="44.06714" lon="3.46203">
        <ele>969</ele>
        <time>2017-02-27T20:24:46Z</time>
      </trkpt>
      <trkpt lat="44.0672" lon="3.46202">
        <ele>970</ele>
        <time>2017-02-27T20:26:46Z</time>
      </trkpt>
      <trkpt lat="44.06732" lon="3.46199">
        <ele>974</ele>
        <time>2017-02-27T20:28:46Z</time>
      </trkpt>
      <trkpt lat="44.06738" lon="3.46199">
        <ele>975</ele>
        <time>2017-02-27T20:30:46Z</time>
      </trkpt>
      <trkpt lat="44.06743" lon="3.46199">
        <ele>976</ele>
        <time>2017-02-27T20:32:46Z</time>
      </trkpt>
      <trkpt lat="44.06748" lon="3.462">
        <ele>977</ele>
        <time>2017-02-27T20:34:46Z</time>
      </trkpt>
      <trkpt lat="44.06756" lon="3.462">
        <ele>979</ele>
        <time>2017-02-27T20:36:46Z</time>
      </trkpt>
      <trkpt lat="44.06766" lon="3.46201">
        <ele>981</ele>
        <time>2017-02-27T20:38:46Z</time>
      </trkpt>
      <trkpt lat="44.06778" lon="3.46206">
        <ele>982</ele>
        <time>2017-02-27T20:40:46Z</time>
      </trkpt>
      <trkpt lat="44.06794" lon="3.4621">
        <ele>984</ele>
        <time>2017-02-27T20:42:46Z</time>
      </trkpt>
      <trkpt lat="44.06806" lon="3.46214">
        <ele>986</ele>
        <time>2017-02-27T20:44:46Z</time>
      </trkpt>
      <trkpt lat="44.06821" lon="3.4622">
        <ele>987</ele>
        <time>2017-02-27T20:46:46Z</time>
      </trkpt>
      <trkpt lat="44.06852" lon="3.46238">
        <ele>990</ele>
        <time>2017-02-27T20:48:46Z</time>
      </trkpt>
      <trkpt lat="44.06857" lon="3.46242">
        <ele>990</ele>
        <time>2017-02-27T20:50:46Z</time>
      </trkpt>
      <trkpt lat="44.0686" lon="3.46245">
        <ele>991</ele>
        <time>2017-02-27T20:52:46Z</time>
      </trkpt>
      <trkpt lat="44.06861" lon="3.46252">
        <ele>989</ele>
        <time>2017-02-27T20:54:46Z</time>
      </trkpt>
      <trkpt lat="44.06864" lon="3.46265">
        <ele>989</ele>
        <time>2017-02-27T20:56:46Z</time>
      </trkpt>
      <trkpt lat="44.06864" lon="3.46278">
        <ele>988</ele>
        <time>2017-02-27T20:58:46Z</time>
      </trkpt>
      <trkpt lat="44.06865" lon="3.46286">
        <ele>987</ele>
        <time>2017-02-27T21:00:46Z</time>
      </trkpt>
      <trkpt lat="44.06868" lon="3.46294">
        <ele>988</ele>
        <time>2017-02-27T21:02:46Z</time>
      </trkpt>
      <trkpt lat="44.06874" lon="3.4631">
        <ele>988</ele>
        <time>2017-02-27T21:04:46Z</time>
      </trkpt>
      <trkpt lat="44.06879" lon="3.46321">
        <ele>989</ele>
        <time>2017-02-27T21:06:46Z</time>
      </trkpt>
      <trkpt lat="44.06881" lon="3.46331">
        <ele>989</ele>
        <time>2017-02-27T21:08:46Z</time>
      </trkpt>
      <trkpt lat="44.06881" lon="3.46338">
        <ele>989</ele>
        <time>2017-02-27T21:10:46Z</time>
      </trkpt>
      <trkpt lat="44.0688" lon="3.46348">
        <ele>987</ele>
        <time>2017-02-27T21:12:46Z</time>
      </trkpt>
      <trkpt lat="44.06876" lon="3.46367">
        <ele>984</ele>
        <time>2017-02-27T21:14:46Z</time>
      </trkpt>
      <trkpt lat="44.06875" lon="3.46375">
        <ele>984</ele>
        <time>2017-02-27T21:16:46Z</time>
      </trkpt>
      <trkpt lat="44.06875" lon="3.46385">
        <ele>983</ele>
        <time>2017-02-27T21:18:46Z</time>
      </trkpt>
      <trkpt lat="44.06876" lon="3.46393">
        <ele>983</ele>
        <time>2017-02-27T21:20:46Z</time>
      </trkpt>
      <trkpt lat="44.06879" lon="3.46401">
        <ele>983</ele>
        <time>2017-02-27T21:22:46Z</time>
      </trkpt>
      <trkpt lat="44.06882" lon="3.46409">
        <ele>983</ele>
        <time>2017-02-27T21:24:46Z</time>
      </trkpt>
      <trkpt lat="44.06886" lon="3.46416">
        <ele>984</ele>
        <time>2017-02-27T21:26:46Z</time>
      </trkpt>
      <trkpt lat="44.06891" lon="3.46422">
        <ele>985</ele>
        <time>2017-02-27T21:28:46Z</time>
      </trkpt>
      <trkpt lat="44.06905" lon="3.46429">
        <ele>988</ele>
        <time>2017-02-27T21:30:46Z</time>
      </trkpt>
      <trkpt lat="44.06921" lon="3.46438">
        <ele>991</ele>
        <time>2017-02-27T21:32:46Z</time>
      </trkpt>
      <trkpt lat="44.06927" lon="3.46444">
        <ele>991</ele>
        <time>2017-02-27T21:34:46Z</time>
      </trkpt>
      <trkpt lat="44.06934" lon="3.46453">
        <ele>992</ele>
        <time>2017-02-27T21:36:46Z</time>
      </trkpt>
      <trkpt lat="44.06939" lon="3.46461">
        <ele>991</ele>
        <time>2017-02-27T21:38:46Z</time>
      </trkpt>
      <trkpt lat="44.06943" lon="3.46471">
        <ele>991</ele>
        <time>2017-02-27T21:40:46Z</time>
      </trkpt>
      <trkpt lat="44.06947" lon="3.46484">
        <ele>990</ele>
        <time>2017-02-27T21:42:46Z</time>
      </trkpt>
      <trkpt lat="44.06949" lon="3.46497">
        <ele>988</ele>
        <time>2017-02-27T21:44:46Z</time>
      </trkpt>
      <trkpt lat="44.06954" lon="3.46509">
        <ele>987</ele>
        <time>2017-02-27T21:46:46Z</time>
      </trkpt>
      <trkpt lat="44.06962" lon="3.46523">
        <ele>986</ele>
        <time>2017-02-27T21:48:46Z</time>
      </trkpt>
      <trkpt lat="44.0697" lon="3.46534">
        <ele>985</ele>
        <time>2017-02-27T21:50:46Z</time>
      </trkpt>
      <trkpt lat="44.06978" lon="3.46539">
        <ele>985</ele>
        <time>2017-02-27T21:52:46Z</time>
      </trkpt>
      <trkpt lat="44.06986" lon="3.46541">
        <ele>986</ele>
        <time>2017-02-27T21:54:46Z</time>
      </trkpt>
      <trkpt lat="44.06998" lon="3.46542">
        <ele>987</ele>
        <time>2017-02-27T21:56:46Z</time>
      </trkpt>
      <trkpt lat="44.0702" lon="3.46541">
        <ele>988</ele>
        <time>2017-02-27T21:58:46Z</time>
      </trkpt>
      <trkpt lat="44.07044" lon="3.46536">
        <ele>990</ele>
        <time>2017-02-27T22:00:46Z</time>
      </trkpt>
      <trkpt lat="44.07075" lon="3.46524">
        <ele>994</ele>
        <time>2017-02-27T22:02:46Z</time>
      </trkpt>
      <trkpt lat="44.07113" lon="3.46508">
        <ele>995</ele>
        <time>2017-02-27T22:04:46Z</time>
      </trkpt>
      <trkpt lat="44.07127" lon="3.465">
        <ele>995</ele>
        <time>2017-02-27T22:06:46Z</time>
      </trkpt>
      <trkpt lat="44.07133" lon="3.46495">
        <ele>996</ele>
        <time>2017-02-27T22:08:46Z</time>
      </trkpt>
      <trkpt lat="44.07139" lon="3.46488">
        <ele>997</ele>
        <time>2017-02-27T22:10:46Z</time>
      </trkpt>
      <trkpt lat="44.07145" lon="3.4648">
        <ele>998</ele>
        <time>2017-02-27T22:12:46Z</time>
      </trkpt>
      <trkpt lat="44.07151" lon="3.46469">
        <ele>1000</ele>
        <time>2017-02-27T22:14:46Z</time>
      </trkpt>
      <trkpt lat="44.07155" lon="3.46463">
        <ele>1001</ele>
        <time>2017-02-27T22:16:46Z</time>
      </trkpt>
      <trkpt lat="44.0716" lon="3.46459">
        <ele>1002</ele>
        <time>2017-02-27T22:18:46Z</time>
      </trkpt>
      <trkpt lat="44.07166" lon="3.46457">
        <ele>1002</ele>
        <time>2017-02-27T22:20:46Z</time>
      </trkpt>
      <trkpt lat="44.07216" lon="3.46446">
        <ele>1001</ele>
        <time>2017-02-27T22:22:46Z</time>
      </trkpt>
      <trkpt lat="44.07235" lon="3.46443">
        <ele>1001</ele>
        <time>2017-02-27T22:24:46Z</time>
      </trkpt>
      <trkpt lat="44.07241" lon="3.46441">
        <ele>1001</ele>
        <time>2017-02-27T22:26:46Z</time>
      </trkpt>
      <trkpt lat="44.07247" lon="3.46437">
        <ele>1002</ele>
        <time>2017-02-27T22:28:46Z</time>
      </trkpt>
      <trkpt lat="44.0726" lon="3.46426">
        <ele>1005</ele>
        <time>2017-02-27T22:30:46Z</time>
      </trkpt>
      <trkpt lat="44.07267" lon="3.46421">
        <ele>1006</ele>
        <time>2017-02-27T22:32:46Z</time>
      </trkpt>
      <trkpt lat="44.07275" lon="3.46419">
        <ele>1006</ele>
        <time>2017-02-27T22:34:46Z</time>
      </trkpt>
      <trkpt lat="44.07284" lon="3.46417">
        <ele>1006</ele>
        <time>2017-02-27T22:36:46Z</time>
      </trkpt>
      <trkpt lat="44.07307" lon="3.46417">
        <ele>1003</ele>
        <time>2017-02-27T22:38:46Z</time>
      </trkpt>
      <trkpt lat="44.07317" lon="3.46413">
        <ele>1003</ele>
        <time>2017-02-27T22:40:46Z</time>
      </trkpt>
      <trkpt lat="44.07326" lon="3.46406">
        <ele>1005</ele>
        <time>2017-02-27T22:42:46Z</time>
      </trkpt>
      <trkpt lat="44.07334" lon="3.46404">
        <ele>1005</ele>
        <time>2017-02-27T22:44:46Z</time>
      </trkpt>
      <trkpt lat="44.0734" lon="3.46405">
        <ele>1005</ele>
        <time>2017-02-27T22:46:46Z</time>
      </trkpt>
      <trkpt lat="44.07355" lon="3.46412">
        <ele>1003</ele>
        <time>2017-02-27T22:48:46Z</time>
      </trkpt>
      <trkpt lat="44.07373" lon="3.46415">
        <ele>1002</ele>
        <time>2017-02-27T22:50:46Z</time>
      </trkpt>
      <trkpt lat="44.0739" lon="3.46415">
        <ele>1003</ele>
        <time>2017-02-27T22:52:46Z</time>
      </trkpt>
      <trkpt lat="44.07404" lon="3.46415">
        <ele>1003</ele>
        <time>2017-02-27T22:54:46Z</time>
      </trkpt>
      <trkpt lat="44.07413" lon="3.46412">
        <ele>1004</ele>
        <time>2017-02-27T22:56:46Z</time>
      </trkpt>
      <trkpt lat="44.07424" lon="3.46406">
        <ele>1007</ele>
        <time>2017-02-27T22:58:46Z</time>
      </trkpt>
      <trkpt lat="44.07434" lon="3.46402">
        <ele>1010</ele>
        <time>2017-02-27T23:00:46Z</time>
      </trkpt>
      <trkpt lat="44.07441" lon="3.464">
        <ele>1011</ele>
        <time>2017-02-27T23:02:46Z</time>
      </trkpt>
      <trkpt lat="44.07453" lon="3.464">
        <ele>1013</ele>
        <time>2017-02-27T23:04:46Z</time>
      </trkpt>
      <trkpt lat="44.07476" lon="3.46405">
        <ele>1014</ele>
        <time>2017-02-27T23:06:46Z</time>
      </trkpt>
      <trkpt lat="44.07483" lon="3.46409">
        <ele>1014</ele>
        <time>2017-02-27T23:08:46Z</time>
      </trkpt>
      <trkpt lat="44.07477" lon="3.46405">
        <ele>1014</ele>
        <time>2017-02-27T23:10:46Z</time>
      </trkpt>
      <trkpt lat="44.07483" lon="3.46409">
        <ele>1014</ele>
        <time>2017-02-27T23:12:46Z</time>
      </trkpt>
      <trkpt lat="44.07488" lon="3.46414">
        <ele>1013</ele>
        <time>2017-02-27T23:14:46Z</time>
      </trkpt>
      <trkpt lat="44.07492" lon="3.46421">
        <ele>1013</ele>
        <time>2017-02-27T23:16:46Z</time>
      </trkpt>
      <trkpt lat="44.07494" lon="3.46428">
        <ele>1013</ele>
        <time>2017-02-27T23:18:46Z</time>
      </trkpt>
      <trkpt lat="44.07494" lon="3.46433">
        <ele>1013</ele>
        <time>2017-02-27T23:20:46Z</time>
      </trkpt>
      <trkpt lat="44.07492" lon="3.46466">
        <ele>1011</ele>
        <time>2017-02-27T23:22:46Z</time>
      </trkpt>
      <trkpt lat="44.07492" lon="3.46478">
        <ele>1010</ele>
        <time>2017-02-27T23:24:46Z</time>
      </trkpt>
      <trkpt lat="44.07497" lon="3.46505">
        <ele>1011</ele>
        <time>2017-02-27T23:26:46Z</time>
      </trkpt>
      <trkpt lat="44.07513" lon="3.46575">
        <ele>1010</ele>
        <time>2017-02-27T23:28:46Z</time>
      </trkpt>
      <trkpt lat="44.07519" lon="3.46603">
        <ele>1009</ele>
        <time>2017-02-27T23:30:46Z</time>
      </trkpt>
      <trkpt lat="44.07526" lon="3.46628">
        <ele>1008</ele>
        <time>2017-02-27T23:32:46Z</time>
      </trkpt>
      <trkpt lat="44.0753" lon="3.4664">
        <ele>1008</ele>
        <time>2017-02-27T23:34:46Z</time>
      </trkpt>
      <trkpt lat="44.07535" lon="3.46645">
        <ele>1008</ele>
        <time>2017-02-27T23:36:46Z</time>
      </trkpt>
      <trkpt lat="44.07542" lon="3.46651">
        <ele>1008</ele>
        <time>2017-02-27T23:38:46Z</time>
      </trkpt>
      <trkpt lat="44.07547" lon="3.46653">
        <ele>1008</ele>
        <time>2017-02-27T23:40:46Z</time>
      </trkpt>
      <trkpt lat="44.07553" lon="3.46653">
        <ele>1009</ele>
        <time>2017-02-27T23:42:46Z</time>
      </trkpt>
      <trkpt lat="44.07559" lon="3.46652">
        <ele>1010</ele>
        <time>2017-02-27T23:44:46Z</time>
      </trkpt>
      <trkpt lat="44.07592" lon="3.46645">
        <ele>1014</ele>
        <time>2017-02-27T23:46:46Z</time>
      </trkpt>
      <trkpt lat="44.07613" lon="3.4664">
        <ele>1014</ele>
        <time>2017-02-27T23:48:46Z</time>
      </trkpt>
      <trkpt lat="44.0762" lon="3.46635">
        <ele>1015</ele>
        <time>2017-02-27T23:50:46Z</time>
      </trkpt>
      <trkpt lat="44.0763" lon="3.46628">
        <ele>1016</ele>
        <time>2017-02-27T23:52:46Z</time>
      </trkpt>
      <trkpt lat="44.07638" lon="3.46619">
        <ele>1018</ele>
        <time>2017-02-27T23:54:46Z</time>
      </trkpt>
      <trkpt lat="44.07652" lon="3.46608">
        <ele>1021</ele>
        <time>2017-02-27T23:56:46Z</time>
      </trkpt>
      <trkpt lat="44.07669" lon="3.46598">
        <ele>1024</ele>
        <time>2017-02-27T23:58:46Z</time>
      </trkpt>
      <trkpt lat="44.07685" lon="3.46593">
        <ele>1026</ele>
        <time>2017-02-28T00:00:46Z</time>
      </trkpt>
      <trkpt lat="44.07699" lon="3.46592">
        <ele>1027</ele>
        <time>2017-02-28T00:02:46Z</time>
      </trkpt>
      <trkpt lat="44.07706" lon="3.46593">
        <ele>1028</ele>
        <time>2017-02-28T00:04:46Z</time>
      </trkpt>
      <trkpt lat="44.07721" lon="3.466">
        <ele>1026</ele>
        <time>2017-02-28T00:06:46Z</time>
      </trkpt>
      <trkpt lat="44.07782" lon="3.46635">
        <ele>1025</ele>
        <time>2017-02-28T00:08:46Z</time>
      </trkpt>
      <trkpt lat="44.07807" lon="3.46649">
        <ele>1025</ele>
        <time>2017-02-28T00:10:46Z</time>
      </trkpt>
      <trkpt lat="44.07853" lon="3.46669">
        <ele>1025</ele>
        <time>2017-02-28T00:12:46Z</time>
      </trkpt>
      <trkpt lat="44.07862" lon="3.46672">
        <ele>1026</ele>
        <time>2017-02-28T00:14:46Z</time>
      </trkpt>
      <trkpt lat="44.07871" lon="3.46674">
        <ele>1026</ele>
        <time>2017-02-28T00:16:46Z</time>
      </trkpt>
      <trkpt lat="44.07881" lon="3.46674">
        <ele>1027</ele>
        <time>2017-02-28T00:18:46Z</time>
      </trkpt>
      <trkpt lat="44.07896" lon="3.46674">
        <ele>1029</ele>
        <time>2017-02-28T00:20:46Z</time>
      </trkpt>
      <trkpt lat="44.07906" lon="3.46673">
        <ele>1030</ele>
        <time>2017-02-28T00:22:46Z</time>
      </trkpt>
      <trkpt lat="44.07916" lon="3.46674">
        <ele>1031</ele>
        <time>2017-02-28T00:24:46Z</time>
      </trkpt>
      <trkpt lat="44.07931" lon="3.46682">
        <ele>1033</ele>
        <time>2017-02-28T00:26:46Z</time>
      </trkpt>
      <trkpt lat="44.07935" lon="3.46687">
        <ele>1033</ele>
        <time>2017-02-28T00:28:46Z</time>
      </trkpt>
      <trkpt lat="44.07939" lon="3.46693">
        <ele>1033</ele>
        <time>2017-02-28T00:30:46Z</time>
      </trkpt>
      <trkpt lat="44.07942" lon="3.46704">
        <ele>1032</ele>
        <time>2017-02-28T00:32:46Z</time>
      </trkpt>
      <trkpt lat="44.07945" lon="3.46717">
        <ele>1032</ele>
        <time>2017-02-28T00:34:46Z</time>
      </trkpt>
      <trkpt lat="44.07947" lon="3.46729">
        <ele>1031</ele>
        <time>2017-02-28T00:36:46Z</time>
      </trkpt>
      <trkpt lat="44.07948" lon="3.46758">
        <ele>1028</ele>
        <time>2017-02-28T00:38:46Z</time>
      </trkpt>
      <trkpt lat="44.07949" lon="3.4677">
        <ele>1026</ele>
        <time>2017-02-28T00:40:46Z</time>
      </trkpt>
      <trkpt lat="44.0795" lon="3.46777">
        <ele>1026</ele>
        <time>2017-02-28T00:42:46Z</time>
      </trkpt>
      <trkpt lat="44.07954" lon="3.46787">
        <ele>1025</ele>
        <time>2017-02-28T00:44:46Z</time>
      </trkpt>
      <trkpt lat="44.07959" lon="3.46796">
        <ele>1025</ele>
        <time>2017-02-28T00:46:46Z</time>
      </trkpt>
      <trkpt lat="44.07965" lon="3.46804">
        <ele>1025</ele>
        <time>2017-02-28T00:48:46Z</time>
      </trkpt>
      <trkpt lat="44.07974" lon="3.46812">
        <ele>1027</ele>
        <time>2017-02-28T00:50:46Z</time>
      </trkpt>
      <trkpt lat="44.08001" lon="3.46832">
        <ele>1030</ele>
        <time>2017-02-28T00:52:46Z</time>
      </trkpt>
      <trkpt lat="44.08021" lon="3.46845">
        <ele>1033</ele>
        <time>2017-02-28T00:54:46Z</time>
      </trkpt>
      <trkpt lat="44.0803" lon="3.46853">
        <ele>1033</ele>
        <time>2017-02-28T00:56:46Z</time>
      </trkpt>
      <trkpt lat="44.0804" lon="3.46863">
        <ele>1034</ele>
        <time>2017-02-28T00:58:46Z</time>
      </trkpt>
      <trkpt lat="44.08057" lon="3.46883">
        <ele>1033</ele>
        <time>2017-02-28T01:00:46Z</time>
      </trkpt>
      <trkpt lat="44.08081" lon="3.46909">
        <ele>1033</ele>
        <time>2017-02-28T01:02:46Z</time>
      </trkpt>
      <trkpt lat="44.08095" lon="3.46924">
        <ele>1034</ele>
        <time>2017-02-28T01:04:46Z</time>
      </trkpt>
      <trkpt lat="44.08108" lon="3.46935">
        <ele>1035</ele>
        <time>2017-02-28T01:06:46Z</time>
      </trkpt>
      <trkpt lat="44.08129" lon="3.4695">
        <ele>1037</ele>
        <time>2017-02-28T01:08:46Z</time>
      </trkpt>
      <trkpt lat="44.08141" lon="3.46957">
        <ele>1039</ele>
        <time>2017-02-28T01:10:46Z</time>
      </trkpt>
      <trkpt lat="44.08148" lon="3.46963">
        <ele>1040</ele>
        <time>2017-02-28T01:12:46Z</time>
      </trkpt>
      <trkpt lat="44.08154" lon="3.4697">
        <ele>1040</ele>
        <time>2017-02-28T01:14:46Z</time>
      </trkpt>
      <trkpt lat="44.08156" lon="3.46975">
        <ele>1040</ele>
        <time>2017-02-28T01:16:46Z</time>
      </trkpt>
      <trkpt lat="44.08158" lon="3.46981">
        <ele>1040</ele>
        <time>2017-02-28T01:18:46Z</time>
      </trkpt>
      <trkpt lat="44.0816" lon="3.46993">
        <ele>1038</ele>
        <time>2017-02-28T01:20:46Z</time>
      </trkpt>
      <trkpt lat="44.0816" lon="3.47">
        <ele>1038</ele>
        <time>2017-02-28T01:22:46Z</time>
      </trkpt>
      <trkpt lat="44.08158" lon="3.47006">
        <ele>1038</ele>
        <time>2017-02-28T01:24:46Z</time>
      </trkpt>
      <trkpt lat="44.08156" lon="3.47013">
        <ele>1038</ele>
        <time>2017-02-28T01:26:46Z</time>
      </trkpt>
      <trkpt lat="44.08154" lon="3.47018">
        <ele>1039</ele>
        <time>2017-02-28T01:28:46Z</time>
      </trkpt>
      <trkpt lat="44.08149" lon="3.47023">
        <ele>1038</ele>
        <time>2017-02-28T01:30:46Z</time>
      </trkpt>
      <trkpt lat="44.08147" lon="3.47025">
        <ele>1038</ele>
        <time>2017-02-28T01:32:46Z</time>
      </trkpt>
      <trkpt lat="44.08136" lon="3.47038">
        <ele>1037</ele>
        <time>2017-02-28T01:34:46Z</time>
      </trkpt>
      <trkpt lat="44.08118" lon="3.4705">
        <ele>1034</ele>
        <time>2017-02-28T01:36:46Z</time>
      </trkpt>
      <trkpt lat="44.08115" lon="3.47055">
        <ele>1033</ele>
        <time>2017-02-28T01:38:46Z</time>
      </trkpt>
      <trkpt lat="44.08102" lon="3.47088">
        <ele>1033</ele>
        <time>2017-02-28T01:40:46Z</time>
      </trkpt>
      <trkpt lat="44.08102" lon="3.47093">
        <ele>1033</ele>
        <time>2017-02-28T01:42:46Z</time>
      </trkpt>
      <trkpt lat="44.08104" lon="3.471">
        <ele>1034</ele>
        <time>2017-02-28T01:44:46Z</time>
      </trkpt>
      <trkpt lat="44.08106" lon="3.47106">
        <ele>1035</ele>
        <time>2017-02-28T01:46:46Z</time>
      </trkpt>
      <trkpt lat="44.08114" lon="3.4712">
        <ele>1038</ele>
        <time>2017-02-28T01:48:46Z</time>
      </trkpt>
      <trkpt lat="44.08117" lon="3.47126">
        <ele>1039</ele>
        <time>2017-02-28T01:50:46Z</time>
      </trkpt>
      <trkpt lat="44.08118" lon="3.47135">
        <ele>1039</ele>
        <time>2017-02-28T01:52:46Z</time>
      </trkpt>
      <trkpt lat="44.08118" lon="3.47145">
        <ele>1040</ele>
        <time>2017-02-28T01:54:46Z</time>
      </trkpt>
      <trkpt lat="44.08117" lon="3.47164">
        <ele>1040</ele>
        <time>2017-02-28T01:56:46Z</time>
      </trkpt>
      <trkpt lat="44.08116" lon="3.47182">
        <ele>1041</ele>
        <time>2017-02-28T01:58:46Z</time>
      </trkpt>
      <trkpt lat="44.08116" lon="3.47207">
        <ele>1043</ele>
        <time>2017-02-28T02:00:46Z</time>
      </trkpt>
      <trkpt lat="44.08118" lon="3.47216">
        <ele>1044</ele>
        <time>2017-02-28T02:02:46Z</time>
      </trkpt>
      <trkpt lat="44.08119" lon="3.47222">
        <ele>1045</ele>
        <time>2017-02-28T02:04:46Z</time>
      </trkpt>
      <trkpt lat="44.08119" lon="3.47228">
        <ele>1045</ele>
        <time>2017-02-28T02:06:46Z</time>
      </trkpt>
      <trkpt lat="44.08116" lon="3.4724">
        <ele>1045</ele>
        <time>2017-02-28T02:08:46Z</time>
      </trkpt>
      <trkpt lat="44.08114" lon="3.47246">
        <ele>1045</ele>
        <time>2017-02-28T02:10:46Z</time>
      </trkpt>
      <trkpt lat="44.08108" lon="3.47254">
        <ele>1044</ele>
        <time>2017-02-28T02:12:46Z</time>
      </trkpt>
      <trkpt lat="44.081" lon="3.47258">
        <ele>1041</ele>
        <time>2017-02-28T02:14:46Z</time>
      </trkpt>
      <trkpt lat="44.08091" lon="3.47252">
        <ele>1038</ele>
        <time>2017-02-28T02:16:46Z</time>
      </trkpt>
      <trkpt lat="44.08086" lon="3.4726">
        <ele>1037</ele>
        <time>2017-02-28T02:18:46Z</time>
      </trkpt>
      <trkpt lat="44.08079" lon="3.47276">
        <ele>1035</ele>
        <time>2017-02-28T02:20:46Z</time>
      </trkpt>
      <trkpt lat="44.08059" lon="3.47337">
        <ele>1035</ele>
        <time>2017-02-28T02:22:46Z</time>
      </trkpt>
      <trkpt lat="44.08055" lon="3.47357">
        <ele>1037</ele>
        <time>2017-02-28T02:24:46Z</time>
      </trkpt>
      <trkpt lat="44.0805" lon="3.4737">
        <ele>1039</ele>
        <time>2017-02-28T02:26:46Z</time>
      </trkpt>
      <trkpt lat="44.08043" lon="3.4738">
        <ele>1039</ele>
        <time>2017-02-28T02:28:46Z</time>
      </trkpt>
      <trkpt lat="44.08032" lon="3.47391">
        <ele>1039</ele>
        <time>2017-02-28T02:30:46Z</time>
      </trkpt>
      <trkpt lat="44.08001" lon="3.47408">
        <ele>1037</ele>
        <time>2017-02-28T02:32:46Z</time>
      </trkpt>
      <trkpt lat="44.07989" lon="3.47413">
        <ele>1037</ele>
        <time>2017-02-28T02:34:46Z</time>
      </trkpt>
      <trkpt lat="44.07958" lon="3.47412">
        <ele>1035</ele>
        <time>2017-02-28T02:36:46Z</time>
      </trkpt>
      <trkpt lat="44.07946" lon="3.47415">
        <ele>1035</ele>
        <time>2017-02-28T02:38:46Z</time>
      </trkpt>
      <trkpt lat="44.07934" lon="3.47428">
        <ele>1037</ele>
        <time>2017-02-28T02:40:46Z</time>
      </trkpt>
      <trkpt lat="44.07929" lon="3.47434">
        <ele>1038</ele>
        <time>2017-02-28T02:42:46Z</time>
      </trkpt>
      <trkpt lat="44.07918" lon="3.47454">
        <ele>1042</ele>
        <time>2017-02-28T02:44:46Z</time>
      </trkpt>
      <trkpt lat="44.07902" lon="3.47495">
        <ele>1051</ele>
        <time>2017-02-28T02:46:46Z</time>
      </trkpt>
      <trkpt lat="44.07898" lon="3.47499">
        <ele>1052</ele>
        <time>2017-02-28T02:48:46Z</time>
      </trkpt>
      <trkpt lat="44.07892" lon="3.47501">
        <ele>1052</ele>
        <time>2017-02-28T02:50:46Z</time>
      </trkpt>
      <trkpt lat="44.07885" lon="3.47502">
        <ele>1052</ele>
        <time>2017-02-28T02:52:46Z</time>
      </trkpt>
      <trkpt lat="44.07851" lon="3.47493">
        <ele>1049</ele>
        <time>2017-02-28T02:54:46Z</time>
      </trkpt>
      <trkpt lat="44.07832" lon="3.47495">
        <ele>1048</ele>
        <time>2017-02-28T02:56:46Z</time>
      </trkpt>
      <trkpt lat="44.07792" lon="3.47502">
        <ele>1049</ele>
        <time>2017-02-28T02:58:46Z</time>
      </trkpt>
      <trkpt lat="44.07763" lon="3.47512">
        <ele>1050</ele>
        <time>2017-02-28T03:00:46Z</time>
      </trkpt>
      <trkpt lat="44.07745" lon="3.47522">
        <ele>1052</ele>
        <time>2017-02-28T03:02:46Z</time>
      </trkpt>
      <trkpt lat="44.07708" lon="3.47546">
        <ele>1054</ele>
        <time>2017-02-28T03:04:46Z</time>
      </trkpt>
      <trkpt lat="44.07679" lon="3.47563">
        <ele>1056</ele>
        <time>2017-02-28T03:06:46Z</time>
      </trkpt>
      <trkpt lat="44.07654" lon="3.47576">
        <ele>1058</ele>
        <time>2017-02-28T03:08:46Z</time>
      </trkpt>
      <trkpt lat="44.07636" lon="3.47586">
        <ele>1060</ele>
        <time>2017-02-28T03:10:46Z</time>
      </trkpt>
      <trkpt lat="44.0761" lon="3.47608">
        <ele>1065</ele>
        <time>2017-02-28T03:12:46Z</time>
      </trkpt>
      <trkpt lat="44.07581" lon="3.47625">
        <ele>1068</ele>
        <time>2017-02-28T03:14:46Z</time>
      </trkpt>
      <trkpt lat="44.07552" lon="3.47637">
        <ele>1071</ele>
        <time>2017-02-28T03:16:46Z</time>
      </trkpt>
      <trkpt lat="44.07532" lon="3.4764">
        <ele>1070</ele>
        <time>2017-02-28T03:18:46Z</time>
      </trkpt>
      <trkpt lat="44.07511" lon="3.47648">
        <ele>1071</ele>
        <time>2017-02-28T03:20:46Z</time>
      </trkpt>
      <trkpt lat="44.07471" lon="3.47655">
        <ele>1066</ele>
        <time>2017-02-28T03:22:46Z</time>
      </trkpt>
      <trkpt lat="44.07465" lon="3.47658">
        <ele>1065</ele>
        <time>2017-02-28T03:24:46Z</time>
      </trkpt>
      <trkpt lat="44.07461" lon="3.47663">
        <ele>1066</ele>
        <time>2017-02-28T03:26:46Z</time>
      </trkpt>
      <trkpt lat="44.07458" lon="3.47671">
        <ele>1067</ele>
        <time>2017-02-28T03:28:46Z</time>
      </trkpt>
      <trkpt lat="44.07456" lon="3.4768">
        <ele>1068</ele>
        <time>2017-02-28T03:30:46Z</time>
      </trkpt>
      <trkpt lat="44.07456" lon="3.47701">
        <ele>1072</ele>
        <time>2017-02-28T03:32:46Z</time>
      </trkpt>
      <trkpt lat="44.07454" lon="3.47709">
        <ele>1073</ele>
        <time>2017-02-28T03:34:46Z</time>
      </trkpt>
      <trkpt lat="44.07451" lon="3.47715">
        <ele>1074</ele>
        <time>2017-02-28T03:36:46Z</time>
      </trkpt>
      <trkpt lat="44.07439" lon="3.47727">
        <ele>1072</ele>
        <time>2017-02-28T03:38:46Z</time>
      </trkpt>
      <trkpt lat="44.07435" lon="3.47733">
        <ele>1072</ele>
        <time>2017-02-28T03:40:46Z</time>
      </trkpt>
      <trkpt lat="44.07433" lon="3.47745">
        <ele>1074</ele>
        <time>2017-02-28T03:42:46Z</time>
      </trkpt>
      <trkpt lat="44.07429" lon="3.4777">
        <ele>1072</ele>
        <time>2017-02-28T03:44:46Z</time>
      </trkpt>
      <trkpt lat="44.07431" lon="3.47781">
        <ele>1072</ele>
        <time>2017-02-28T03:46:46Z</time>
      </trkpt>
      <trkpt lat="44.07432" lon="3.47782">
        <ele>1072</ele>
        <time>2017-02-28T03:48:46Z</time>
      </trkpt>
      <trkpt lat="44.07438" lon="3.47784">
        <ele>1074</ele>
        <time>2017-02-28T03:50:46Z</time>
      </trkpt>
      <trkpt lat="44.07441" lon="3.4778">
        <ele>1075</ele>
        <time>2017-02-28T03:52:46Z</time>
      </trkpt>
      <trkpt lat="44.0744" lon="3.4777">
        <ele>1075</ele>
        <time>2017-02-28T03:54:46Z</time>
      </trkpt>
      <trkpt lat="44.07441" lon="3.47763">
        <ele>1076</ele>
        <time>2017-02-28T03:56:46Z</time>
      </trkpt>
      <trkpt lat="44.07444" lon="3.47755">
        <ele>1077</ele>
        <time>2017-02-28T03:58:46Z</time>
      </trkpt>
      <trkpt lat="44.07449" lon="3.47749">
        <ele>1079</ele>
        <time>2017-02-28T04:00:46Z</time>
      </trkpt>
      <trkpt lat="44.07455" lon="3.47745">
        <ele>1080</ele>
        <time>2017-02-28T04:02:46Z</time>
      </trkpt>
      <trkpt lat="44.07466" lon="3.47739">
        <ele>1082</ele>
        <time>2017-02-28T04:04:46Z</time>
      </trkpt>
      <trkpt lat="44.07476" lon="3.47727">
        <ele>1083</ele>
        <time>2017-02-28T04:06:46Z</time>
      </trkpt>
      <trkpt lat="44.07483" lon="3.47719">
        <ele>1083</ele>
        <time>2017-02-28T04:08:46Z</time>
      </trkpt>
      <trkpt lat="44.07489" lon="3.47715">
        <ele>1084</ele>
        <time>2017-02-28T04:10:46Z</time>
      </trkpt>
      <trkpt lat="44.075" lon="3.47709">
        <ele>1085</ele>
        <time>2017-02-28T04:12:46Z</time>
      </trkpt>
      <trkpt lat="44.07513" lon="3.47704">
        <ele>1085</ele>
        <time>2017-02-28T04:14:46Z</time>
      </trkpt>
      <trkpt lat="44.07529" lon="3.47702">
        <ele>1086</ele>
        <time>2017-02-28T04:16:46Z</time>
      </trkpt>
      <trkpt lat="44.07549" lon="3.47701">
        <ele>1088</ele>
        <time>2017-02-28T04:18:46Z</time>
      </trkpt>
      <trkpt lat="44.07592" lon="3.477">
        <ele>1091</ele>
        <time>2017-02-28T04:20:46Z</time>
      </trkpt>
      <trkpt lat="44.07613" lon="3.47704">
        <ele>1093</ele>
        <time>2017-02-28T04:22:46Z</time>
      </trkpt>
      <trkpt lat="44.07654" lon="3.47709">
        <ele>1095</ele>
        <time>2017-02-28T04:24:46Z</time>
      </trkpt>
      <trkpt lat="44.07699" lon="3.47726">
        <ele>1101</ele>
        <time>2017-02-28T04:26:46Z</time>
      </trkpt>
      <trkpt lat="44.07709" lon="3.47727">
        <ele>1102</ele>
        <time>2017-02-28T04:28:46Z</time>
      </trkpt>
      <trkpt lat="44.07718" lon="3.47727">
        <ele>1103</ele>
        <time>2017-02-28T04:30:46Z</time>
      </trkpt>
      <trkpt lat="44.07733" lon="3.47721">
        <ele>1103</ele>
        <time>2017-02-28T04:32:46Z</time>
      </trkpt>
      <trkpt lat="44.07746" lon="3.4771">
        <ele>1102</ele>
        <time>2017-02-28T04:34:46Z</time>
      </trkpt>
      <trkpt lat="44.07767" lon="3.47689">
        <ele>1097</ele>
        <time>2017-02-28T04:36:46Z</time>
      </trkpt>
      <trkpt lat="44.07772" lon="3.47686">
        <ele>1096</ele>
        <time>2017-02-28T04:38:46Z</time>
      </trkpt>
      <trkpt lat="44.07778" lon="3.47685">
        <ele>1096</ele>
        <time>2017-02-28T04:40:46Z</time>
      </trkpt>
      <trkpt lat="44.07785" lon="3.47685">
        <ele>1096</ele>
        <time>2017-02-28T04:42:46Z</time>
      </trkpt>
      <trkpt lat="44.07794" lon="3.47688">
        <ele>1096</ele>
        <time>2017-02-28T04:44:46Z</time>
      </trkpt>
      <trkpt lat="44.07801" lon="3.47697">
        <ele>1097</ele>
        <time>2017-02-28T04:46:46Z</time>
      </trkpt>
      <trkpt lat="44.07803" lon="3.47706">
        <ele>1098</ele>
        <time>2017-02-28T04:48:46Z</time>
      </trkpt>
      <trkpt lat="44.07803" lon="3.47716">
        <ele>1099</ele>
        <time>2017-02-28T04:50:46Z</time>
      </trkpt>
      <trkpt lat="44.078" lon="3.47752">
        <ele>1104</ele>
        <time>2017-02-28T04:52:46Z</time>
      </trkpt>
      <trkpt lat="44.078" lon="3.47762">
        <ele>1105</ele>
        <time>2017-02-28T04:54:46Z</time>
      </trkpt>
      <trkpt lat="44.07811" lon="3.47789">
        <ele>1106</ele>
        <time>2017-02-28T04:56:46Z</time>
      </trkpt>
      <trkpt lat="44.07815" lon="3.478">
        <ele>1106</ele>
        <time>2017-02-28T04:58:46Z</time>
      </trkpt>
      <trkpt lat="44.07821" lon="3.4783">
        <ele>1108</ele>
        <time>2017-02-28T05:00:46Z</time>
      </trkpt>
      <trkpt lat="44.07828" lon="3.47844">
        <ele>1108</ele>
        <time>2017-02-28T05:02:46Z</time>
      </trkpt>
      <trkpt lat="44.07833" lon="3.47851">
        <ele>1109</ele>
        <time>2017-02-28T05:04:46Z</time>
      </trkpt>
      <trkpt lat="44.07839" lon="3.47856">
        <ele>1109</ele>
        <time>2017-02-28T05:06:46Z</time>
      </trkpt>
      <trkpt lat="44.07844" lon="3.47858">
        <ele>1109</ele>
        <time>2017-02-28T05:08:46Z</time>
      </trkpt>
      <trkpt lat="44.0785" lon="3.47859">
        <ele>1110</ele>
        <time>2017-02-28T05:10:46Z</time>
      </trkpt>
      <trkpt lat="44.07861" lon="3.47858">
        <ele>1111</ele>
        <time>2017-02-28T05:12:46Z</time>
      </trkpt>
      <trkpt lat="44.07878" lon="3.47852">
        <ele>1112</ele>
        <time>2017-02-28T05:14:46Z</time>
      </trkpt>
      <trkpt lat="44.07903" lon="3.47841">
        <ele>1113</ele>
        <time>2017-02-28T05:16:46Z</time>
      </trkpt>
      <trkpt lat="44.0792" lon="3.47833">
        <ele>1112</ele>
        <time>2017-02-28T05:18:46Z</time>
      </trkpt>
      <trkpt lat="44.07934" lon="3.47832">
        <ele>1115</ele>
        <time>2017-02-28T05:20:46Z</time>
      </trkpt>
      <trkpt lat="44.07977" lon="3.47831">
        <ele>1122</ele>
        <time>2017-02-28T05:22:46Z</time>
      </trkpt>
      <trkpt lat="44.07994" lon="3.47834">
        <ele>1125</ele>
        <time>2017-02-28T05:24:46Z</time>
      </trkpt>
      <trkpt lat="44.08002" lon="3.47833">
        <ele>1126</ele>
        <time>2017-02-28T05:26:46Z</time>
      </trkpt>
      <trkpt lat="44.0803" lon="3.47811">
        <ele>1129</ele>
        <time>2017-02-28T05:28:46Z</time>
      </trkpt>
      <trkpt lat="44.08034" lon="3.47802">
        <ele>1128</ele>
        <time>2017-02-28T05:30:46Z</time>
      </trkpt>
      <trkpt lat="44.08036" lon="3.47793">
        <ele>1127</ele>
        <time>2017-02-28T05:32:46Z</time>
      </trkpt>
      <trkpt lat="44.08036" lon="3.47785">
        <ele>1126</ele>
        <time>2017-02-28T05:34:46Z</time>
      </trkpt>
      <trkpt lat="44.08036" lon="3.47776">
        <ele>1124</ele>
        <time>2017-02-28T05:36:46Z</time>
      </trkpt>
      <trkpt lat="44.08035" lon="3.47765">
        <ele>1121</ele>
        <time>2017-02-28T05:38:46Z</time>
      </trkpt>
      <trkpt lat="44.08035" lon="3.47759">
        <ele>1120</ele>
        <time>2017-02-28T05:40:46Z</time>
      </trkpt>
      <trkpt lat="44.08036" lon="3.47751">
        <ele>1119</ele>
        <time>2017-02-28T05:42:46Z</time>
      </trkpt>
      <trkpt lat="44.08042" lon="3.47741">
        <ele>1119</ele>
        <time>2017-02-28T05:44:46Z</time>
      </trkpt>
      <trkpt lat="44.08051" lon="3.4773">
        <ele>1119</ele>
        <time>2017-02-28T05:46:46Z</time>
      </trkpt>
      <trkpt lat="44.08068" lon="3.4771">
        <ele>1118</ele>
        <time>2017-02-28T05:48:46Z</time>
      </trkpt>
      <trkpt lat="44.08092" lon="3.4769">
        <ele>1119</ele>
        <time>2017-02-28T05:50:46Z</time>
      </trkpt>
      <trkpt lat="44.08108" lon="3.47679">
        <ele>1120</ele>
        <time>2017-02-28T05:52:46Z</time>
      </trkpt>
      <trkpt lat="44.08119" lon="3.47673">
        <ele>1121</ele>
        <time>2017-02-28T05:54:46Z</time>
      </trkpt>
      <trkpt lat="44.08133" lon="3.4767">
        <ele>1124</ele>
        <time>2017-02-28T05:56:46Z</time>
      </trkpt>
      <trkpt lat="44.08148" lon="3.47657">
        <ele>1124</ele>
        <time>2017-02-28T05:58:46Z</time>
      </trkpt>
      <trkpt lat="44.08156" lon="3.47651">
        <ele>1125</ele>
        <time>2017-02-28T06:00:46Z</time>
      </trkpt>
      <trkpt lat="44.08169" lon="3.47645">
        <ele>1126</ele>
        <time>2017-02-28T06:02:46Z</time>
      </trkpt>
      <trkpt lat="44.0819" lon="3.47634">
        <ele>1129</ele>
        <time>2017-02-28T06:04:46Z</time>
      </trkpt>
      <trkpt lat="44.08201" lon="3.47627">
        <ele>1130</ele>
        <time>2017-02-28T06:06:46Z</time>
      </trkpt>
      <trkpt lat="44.08208" lon="3.4762">
        <ele>1130</ele>
        <time>2017-02-28T06:08:46Z</time>
      </trkpt>
      <trkpt lat="44.08214" lon="3.47617">
        <ele>1131</ele>
        <time>2017-02-28T06:10:46Z</time>
      </trkpt>
      <trkpt lat="44.08228" lon="3.47614">
        <ele>1134</ele>
        <time>2017-02-28T06:12:46Z</time>
      </trkpt>
      <trkpt lat="44.08237" lon="3.47607">
        <ele>1135</ele>
        <time>2017-02-28T06:14:46Z</time>
      </trkpt>
      <trkpt lat="44.08241" lon="3.47602">
        <ele>1135</ele>
        <time>2017-02-28T06:16:46Z</time>
      </trkpt>
      <trkpt lat="44.0825" lon="3.47585">
        <ele>1133</ele>
        <time>2017-02-28T06:18:46Z</time>
      </trkpt>
      <trkpt lat="44.08255" lon="3.47578">
        <ele>1134</ele>
        <time>2017-02-28T06:20:46Z</time>
      </trkpt>
      <trkpt lat="44.08266" lon="3.4757">
        <ele>1138</ele>
        <time>2017-02-28T06:22:46Z</time>
      </trkpt>
      <trkpt lat="44.08271" lon="3.4756">
        <ele>1138</ele>
        <time>2017-02-28T06:24:46Z</time>
      </trkpt>
      <trkpt lat="44.08274" lon="3.47549">
        <ele>1138</ele>
        <time>2017-02-28T06:26:46Z</time>
      </trkpt>
      <trkpt lat="44.08281" lon="3.47512">
        <ele>1137</ele>
        <time>2017-02-28T06:28:46Z</time>
      </trkpt>
      <trkpt lat="44.08288" lon="3.47482">
        <ele>1137</ele>
        <time>2017-02-28T06:30:46Z</time>
      </trkpt>
      <trkpt lat="44.08297" lon="3.47458">
        <ele>1138</ele>
        <time>2017-02-28T06:32:46Z</time>
      </trkpt>
      <trkpt lat="44.0831" lon="3.47427">
        <ele>1141</ele>
        <time>2017-02-28T06:34:46Z</time>
      </trkpt>
      <trkpt lat="44.08314" lon="3.47416">
        <ele>1142</ele>
        <time>2017-02-28T06:36:46Z</time>
      </trkpt>
      <trkpt lat="44.08316" lon="3.47405">
        <ele>1141</ele>
        <time>2017-02-28T06:38:46Z</time>
      </trkpt>
      <trkpt lat="44.08318" lon="3.47386">
        <ele>1139</ele>
        <time>2017-02-28T06:40:46Z</time>
      </trkpt>
      <trkpt lat="44.08318" lon="3.47373">
        <ele>1137</ele>
        <time>2017-02-28T06:42:46Z</time>
      </trkpt>
      <trkpt lat="44.0832" lon="3.47364">
        <ele>1137</ele>
        <time>2017-02-28T06:44:46Z</time>
      </trkpt>
      <trkpt lat="44.08325" lon="3.47354">
        <ele>1137</ele>
        <time>2017-02-28T06:46:46Z</time>
      </trkpt>
      <trkpt lat="44.08336" lon="3.47315">
        <ele>1136</ele>
        <time>2017-02-28T06:48:46Z</time>
      </trkpt>
      <trkpt lat="44.08346" lon="3.47295">
        <ele>1138</ele>
        <time>2017-02-28T06:50:46Z</time>
      </trkpt>
      <trkpt lat="44.0836" lon="3.47274">
        <ele>1141</ele>
        <time>2017-02-28T06:52:46Z</time>
      </trkpt>
      <trkpt lat="44.08384" lon="3.47248">
        <ele>1146</ele>
        <time>2017-02-28T06:54:46Z</time>
      </trkpt>
      <trkpt lat="44.08398" lon="3.47225">
        <ele>1147</ele>
        <time>2017-02-28T06:56:46Z</time>
      </trkpt>
      <trkpt lat="44.08412" lon="3.47198">
        <ele>1147</ele>
        <time>2017-02-28T06:58:46Z</time>
      </trkpt>
      <trkpt lat="44.08429" lon="3.47158">
        <ele>1147</ele>
        <time>2017-02-28T07:00:46Z</time>
      </trkpt>
      <trkpt lat="44.08445" lon="3.47134">
        <ele>1150</ele>
        <time>2017-02-28T07:02:46Z</time>
      </trkpt>
      <trkpt lat="44.08462" lon="3.47107">
        <ele>1152</ele>
        <time>2017-02-28T07:04:46Z</time>
      </trkpt>
      <trkpt lat="44.08474" lon="3.47074">
        <ele>1150</ele>
        <time>2017-02-28T07:06:46Z</time>
      </trkpt>
      <trkpt lat="44.08492" lon="3.47019">
        <ele>1150</ele>
        <time>2017-02-28T07:08:46Z</time>
      </trkpt>
      <trkpt lat="44.08497" lon="3.47001">
        <ele>1150</ele>
        <time>2017-02-28T07:10:46Z</time>
      </trkpt>
      <trkpt lat="44.08501" lon="3.46978">
        <ele>1151</ele>
        <time>2017-02-28T07:12:46Z</time>
      </trkpt>
      <trkpt lat="44.08503" lon="3.46947">
        <ele>1151</ele>
        <time>2017-02-28T07:14:46Z</time>
      </trkpt>
      <trkpt lat="44.08507" lon="3.46928">
        <ele>1153</ele>
        <time>2017-02-28T07:16:46Z</time>
      </trkpt>
      <trkpt lat="44.08508" lon="3.46912">
        <ele>1153</ele>
        <time>2017-02-28T07:18:46Z</time>
      </trkpt>
      <trkpt lat="44.08508" lon="3.46888">
        <ele>1153</ele>
        <time>2017-02-28T07:20:46Z</time>
      </trkpt>
      <trkpt lat="44.08508" lon="3.46865">
        <ele>1153</ele>
        <time>2017-02-28T07:22:46Z</time>
      </trkpt>
      <trkpt lat="44.08508" lon="3.4685">
        <ele>1154</ele>
        <time>2017-02-28T07:24:46Z</time>
      </trkpt>
      <trkpt lat="44.08508" lon="3.46837">
        <ele>1154</ele>
        <time>2017-02-28T07:26:46Z</time>
      </trkpt>
      <trkpt lat="44.0851" lon="3.468">
        <ele>1159</ele>
        <time>2017-02-28T07:28:46Z</time>
      </trkpt>
      <trkpt lat="44.0851" lon="3.46792">
        <ele>1160</ele>
        <time>2017-02-28T07:30:46Z</time>
      </trkpt>
      <trkpt lat="44.08509" lon="3.46787">
        <ele>1161</ele>
        <time>2017-02-28T07:32:46Z</time>
      </trkpt>
      <trkpt lat="44.08507" lon="3.46777">
        <ele>1161</ele>
        <time>2017-02-28T07:34:46Z</time>
      </trkpt>
      <trkpt lat="44.08502" lon="3.46768">
        <ele>1161</ele>
        <time>2017-02-28T07:36:46Z</time>
      </trkpt>
      <trkpt lat="44.08489" lon="3.46752">
        <ele>1160</ele>
        <time>2017-02-28T07:38:46Z</time>
      </trkpt>
      <trkpt lat="44.08483" lon="3.46745">
        <ele>1161</ele>
        <time>2017-02-28T07:40:46Z</time>
      </trkpt>
      <trkpt lat="44.08455" lon="3.46729">
        <ele>1159</ele>
        <time>2017-02-28T07:42:46Z</time>
      </trkpt>
      <trkpt lat="44.08439" lon="3.46718">
        <ele>1159</ele>
        <time>2017-02-28T07:44:46Z</time>
      </trkpt>
      <trkpt lat="44.08425" lon="3.46708">
        <ele>1160</ele>
        <time>2017-02-28T07:46:46Z</time>
      </trkpt>
      <trkpt lat="44.08408" lon="3.46696">
        <ele>1161</ele>
        <time>2017-02-28T07:48:46Z</time>
      </trkpt>
      <trkpt lat="44.08399" lon="3.46691">
        <ele>1162</ele>
        <time>2017-02-28T07:50:46Z</time>
      </trkpt>
      <trkpt lat="44.08393" lon="3.46689">
        <ele>1162</ele>
        <time>2017-02-28T07:52:46Z</time>
      </trkpt>
      <trkpt lat="44.08386" lon="3.46687">
        <ele>1162</ele>
        <time>2017-02-28T07:54:46Z</time>
      </trkpt>
      <trkpt lat="44.08364" lon="3.46687">
        <ele>1159</ele>
        <time>2017-02-28T07:56:46Z</time>
      </trkpt>
      <trkpt lat="44.08353" lon="3.46686">
        <ele>1159</ele>
        <time>2017-02-28T07:58:46Z</time>
      </trkpt>
      <trkpt lat="44.08338" lon="3.46681">
        <ele>1159</ele>
        <time>2017-02-28T08:00:46Z</time>
      </trkpt>
      <trkpt lat="44.08324" lon="3.46677">
        <ele>1158</ele>
        <time>2017-02-28T08:02:46Z</time>
      </trkpt>
      <trkpt lat="44.08315" lon="3.46675">
        <ele>1157</ele>
        <time>2017-02-28T08:04:46Z</time>
      </trkpt>
      <trkpt lat="44.08305" lon="3.46671">
        <ele>1156</ele>
        <time>2017-02-28T08:06:46Z</time>
      </trkpt>
      <trkpt lat="44.08298" lon="3.46664">
        <ele>1156</ele>
        <time>2017-02-28T08:08:46Z</time>
      </trkpt>
      <trkpt lat="44.08282" lon="3.4664">
        <ele>1156</ele>
        <time>2017-02-28T08:10:46Z</time>
      </trkpt>
      <trkpt lat="44.0828" lon="3.46633">
        <ele>1157</ele>
        <time>2017-02-28T08:12:46Z</time>
      </trkpt>
      <trkpt lat="44.08278" lon="3.46625">
        <ele>1157</ele>
        <time>2017-02-28T08:14:46Z</time>
      </trkpt>
      <trkpt lat="44.08276" lon="3.46607">
        <ele>1159</ele>
        <time>2017-02-28T08:16:46Z</time>
      </trkpt>
      <trkpt lat="44.08275" lon="3.46591">
        <ele>1161</ele>
        <time>2017-02-28T08:18:46Z</time>
      </trkpt>
      <trkpt lat="44.08276" lon="3.46576">
        <ele>1163</ele>
        <time>2017-02-28T08:20:46Z</time>
      </trkpt>
      <trkpt lat="44.08278" lon="3.46563">
        <ele>1164</ele>
        <time>2017-02-28T08:22:46Z</time>
      </trkpt>
      <trkpt lat="44.08278" lon="3.4655">
        <ele>1165</ele>
        <time>2017-02-28T08:24:46Z</time>
      </trkpt>
      <trkpt lat="44.08278" lon="3.46538">
        <ele>1166</ele>
        <time>2017-02-28T08:26:46Z</time>
      </trkpt>
      <trkpt lat="44.08277" lon="3.46527">
        <ele>1166</ele>
        <time>2017-02-28T08:28:46Z</time>
      </trkpt>
      <trkpt lat="44.08278" lon="3.46518">
        <ele>1167</ele>
        <time>2017-02-28T08:30:46Z</time>
      </trkpt>
      <trkpt lat="44.08279" lon="3.46503">
        <ele>1168</ele>
        <time>2017-02-28T08:32:46Z</time>
      </trkpt>
      <trkpt lat="44.0828" lon="3.46488">
        <ele>1170</ele>
        <time>2017-02-28T08:34:46Z</time>
      </trkpt>
      <trkpt lat="44.08279" lon="3.46479">
        <ele>1171</ele>
        <time>2017-02-28T08:36:46Z</time>
      </trkpt>
      <trkpt lat="44.08278" lon="3.46471">
        <ele>1172</ele>
        <time>2017-02-28T08:38:46Z</time>
      </trkpt>
      <trkpt lat="44.08275" lon="3.46456">
        <ele>1172</ele>
        <time>2017-02-28T08:40:46Z</time>
      </trkpt>
      <trkpt lat="44.0827" lon="3.4644">
        <ele>1172</ele>
        <time>2017-02-28T08:42:46Z</time>
      </trkpt>
      <trkpt lat="44.0826" lon="3.46398">
        <ele>1174</ele>
        <time>2017-02-28T08:44:46Z</time>
      </trkpt>
      <trkpt lat="44.08258" lon="3.46378">
        <ele>1177</ele>
        <time>2017-02-28T08:46:46Z</time>
      </trkpt>
      <trkpt lat="44.08253" lon="3.46362">
        <ele>1178</ele>
        <time>2017-02-28T08:48:46Z</time>
      </trkpt>
      <trkpt lat="44.08248" lon="3.46347">
        <ele>1179</ele>
        <time>2017-02-28T08:50:46Z</time>
      </trkpt>
      <trkpt lat="44.08242" lon="3.46333">
        <ele>1181</ele>
        <time>2017-02-28T08:52:46Z</time>
      </trkpt>
      <trkpt lat="44.08236" lon="3.46321">
        <ele>1183</ele>
        <time>2017-02-28T08:54:46Z</time>
      </trkpt>
      <trkpt lat="44.08226" lon="3.4631">
        <ele>1184</ele>
        <time>2017-02-28T08:56:46Z</time>
      </trkpt>
      <trkpt lat="44.08213" lon="3.46297">
        <ele>1184</ele>
        <time>2017-02-28T08:58:46Z</time>
      </trkpt>
      <trkpt lat="44.08205" lon="3.46288">
        <ele>1185</ele>
        <time>2017-02-28T09:00:46Z</time>
      </trkpt>
      <trkpt lat="44.08205" lon="3.46281">
        <ele>1188</ele>
        <time>2017-02-28T09:02:46Z</time>
      </trkpt>
      <trkpt lat="44.0821" lon="3.46281">
        <ele>1189</ele>
        <time>2017-02-28T09:04:46Z</time>
      </trkpt>
      <trkpt lat="44.08207" lon="3.4628">
        <ele>1189</ele>
        <time>2017-02-28T09:06:46Z</time>
      </trkpt>
      <trkpt lat="44.0821" lon="3.46281">
        <ele>1189</ele>
        <time>2017-02-28T09:08:46Z</time>
      </trkpt>
      <trkpt lat="44.0823" lon="3.46301">
        <ele>1188</ele>
        <time>2017-02-28T09:10:46Z</time>
      </trkpt>
      <trkpt lat="44.08242" lon="3.46312">
        <ele>1188</ele>
        <time>2017-02-28T09:12:46Z</time>
      </trkpt>
      <trkpt lat="44.08259" lon="3.46333">
        <ele>1187</ele>
        <time>2017-02-28T09:14:46Z</time>
      </trkpt>
      <trkpt lat="44.08267" lon="3.46341">
        <ele>1189</ele>
        <time>2017-02-28T09:16:46Z</time>
      </trkpt>
      <trkpt lat="44.08271" lon="3.46347">
        <ele>1190</ele>
        <time>2017-02-28T09:18:46Z</time>
      </trkpt>
      <trkpt lat="44.08277" lon="3.46363">
        <ele>1189</ele>
        <time>2017-02-28T09:20:46Z</time>
      </trkpt>
      <trkpt lat="44.08283" lon="3.46381">
        <ele>1188</ele>
        <time>2017-02-28T09:22:46Z</time>
      </trkpt>
      <trkpt lat="44.08289" lon="3.46401">
        <ele>1187</ele>
        <time>2017-02-28T09:24:46Z</time>
      </trkpt>
      <trkpt lat="44.08293" lon="3.46415">
        <ele>1186</ele>
        <time>2017-02-28T09:26:46Z</time>
      </trkpt>
      <trkpt lat="44.08298" lon="3.46427">
        <ele>1187</ele>
        <time>2017-02-28T09:28:46Z</time>
      </trkpt>
      <trkpt lat="44.08307" lon="3.46439">
        <ele>1189</ele>
        <time>2017-02-28T09:30:46Z</time>
      </trkpt>
      <trkpt lat="44.08314" lon="3.46452">
        <ele>1191</ele>
        <time>2017-02-28T09:32:46Z</time>
      </trkpt>
      <trkpt lat="44.08321" lon="3.46475">
        <ele>1190</ele>
        <time>2017-02-28T09:34:46Z</time>
      </trkpt>
      <trkpt lat="44.08326" lon="3.46497">
        <ele>1189</ele>
        <time>2017-02-28T09:36:46Z</time>
      </trkpt>
      <trkpt lat="44.0833" lon="3.46511">
        <ele>1189</ele>
        <time>2017-02-28T09:38:46Z</time>
      </trkpt>
      <trkpt lat="44.08334" lon="3.46519">
        <ele>1190</ele>
        <time>2017-02-28T09:40:46Z</time>
      </trkpt>
      <trkpt lat="44.08344" lon="3.46531">
        <ele>1192</ele>
        <time>2017-02-28T09:42:46Z</time>
      </trkpt>
      <trkpt lat="44.08353" lon="3.46541">
        <ele>1193</ele>
        <time>2017-02-28T09:44:46Z</time>
      </trkpt>
      <trkpt lat="44.08361" lon="3.46547">
        <ele>1194</ele>
        <time>2017-02-28T09:46:46Z</time>
      </trkpt>
      <trkpt lat="44.08367" lon="3.46549">
        <ele>1196</ele>
        <time>2017-02-28T09:48:46Z</time>
      </trkpt>
      <trkpt lat="44.08385" lon="3.46553">
        <ele>1200</ele>
        <time>2017-02-28T09:50:46Z</time>
      </trkpt>
      <trkpt lat="44.08396" lon="3.46556">
        <ele>1202</ele>
        <time>2017-02-28T09:52:46Z</time>
      </trkpt>
      <trkpt lat="44.08409" lon="3.4656">
        <ele>1204</ele>
        <time>2017-02-28T09:54:46Z</time>
      </trkpt>
      <trkpt lat="44.08419" lon="3.46564">
        <ele>1206</ele>
        <time>2017-02-28T09:56:46Z</time>
      </trkpt>
      <trkpt lat="44.08441" lon="3.46574">
        <ele>1207</ele>
        <time>2017-02-28T09:58:46Z</time>
      </trkpt>
      <trkpt lat="44.08461" lon="3.46579">
        <ele>1209</ele>
        <time>2017-02-28T10:00:46Z</time>
      </trkpt>
      <trkpt lat="44.08474" lon="3.46581">
        <ele>1210</ele>
        <time>2017-02-28T10:02:46Z</time>
      </trkpt>
      <trkpt lat="44.08508" lon="3.46589">
        <ele>1213</ele>
        <time>2017-02-28T10:04:46Z</time>
      </trkpt>
      <trkpt lat="44.08518" lon="3.46592">
        <ele>1213</ele>
        <time>2017-02-28T10:06:46Z</time>
      </trkpt>
      <trkpt lat="44.08531" lon="3.46596">
        <ele>1214</ele>
        <time>2017-02-28T10:08:46Z</time>
      </trkpt>
      <trkpt lat="44.08537" lon="3.46599">
        <ele>1214</ele>
        <time>2017-02-28T10:10:46Z</time>
      </trkpt>
      <trkpt lat="44.08541" lon="3.466">
        <ele>1214</ele>
        <time>2017-02-28T10:12:46Z</time>
      </trkpt>
      <trkpt lat="44.0857" lon="3.46623">
        <ele>1213</ele>
        <time>2017-02-28T10:14:46Z</time>
      </trkpt>
      <trkpt lat="44.08579" lon="3.46628">
        <ele>1213</ele>
        <time>2017-02-28T10:16:46Z</time>
      </trkpt>
      <trkpt lat="44.08585" lon="3.4663">
        <ele>1214</ele>
        <time>2017-02-28T10:18:46Z</time>
      </trkpt>
      <trkpt lat="44.08594" lon="3.4663">
        <ele>1215</ele>
        <time>2017-02-28T10:20:46Z</time>
      </trkpt>
      <trkpt lat="44.08602" lon="3.46635">
        <ele>1215</ele>
        <time>2017-02-28T10:22:46Z</time>
      </trkpt>
      <trkpt lat="44.08621" lon="3.4665">
        <ele>1215</ele>
        <time>2017-02-28T10:24:46Z</time>
      </trkpt>
      <trkpt lat="44.08632" lon="3.46657">
        <ele>1216</ele>
        <time>2017-02-28T10:26:46Z</time>
      </trkpt>
      <trkpt lat="44.08666" lon="3.46699">
        <ele>1222</ele>
        <time>2017-02-28T10:28:46Z</time>
      </trkpt>
      <trkpt lat="44.0867" lon="3.467">
        <ele>1223</ele>
        <time>2017-02-28T10:30:46Z</time>
      </trkpt>
      <trkpt lat="44.08675" lon="3.46698">
        <ele>1224</ele>
        <time>2017-02-28T10:32:46Z</time>
      </trkpt>
      <trkpt lat="44.08689" lon="3.46648">
        <ele>1226</ele>
        <time>2017-02-28T10:34:46Z</time>
      </trkpt>
      <trkpt lat="44.08691" lon="3.46639">
        <ele>1227</ele>
        <time>2017-02-28T10:36:46Z</time>
      </trkpt>
      <trkpt lat="44.08701" lon="3.46601">
        <ele>1229</ele>
        <time>2017-02-28T10:38:46Z</time>
      </trkpt>
      <trkpt lat="44.08708" lon="3.46582">
        <ele>1230</ele>
        <time>2017-02-28T10:40:46Z</time>
      </trkpt>
      <trkpt lat="44.08717" lon="3.46565">
        <ele>1232</ele>
        <time>2017-02-28T10:42:46Z</time>
      </trkpt>
      <trkpt lat="44.08724" lon="3.46573">
        <ele>1232</ele>
        <time>2017-02-28T10:44:46Z</time>
      </trkpt>
      <trkpt lat="44.08757" lon="3.46591">
        <ele>1233</ele>
        <time>2017-02-28T10:46:46Z</time>
      </trkpt>
      <trkpt lat="44.08799" lon="3.46622">
        <ele>1232</ele>
        <time>2017-02-28T10:48:46Z</time>
      </trkpt>
      <trkpt lat="44.08873" lon="3.46667">
        <ele>1230</ele>
        <time>2017-02-28T10:50:46Z</time>
      </trkpt>
      <trkpt lat="44.0891" lon="3.46685">
        <ele>1229</ele>
        <time>2017-02-28T10:52:46Z</time>
      </trkpt>
      <trkpt lat="44.0893" lon="3.46693">
        <ele>1228</ele>
        <time>2017-02-28T10:54:46Z</time>
      </trkpt>
      <trkpt lat="44.08966" lon="3.46706">
        <ele>1227</ele>
        <time>2017-02-28T10:56:46Z</time>
      </trkpt>
      <trkpt lat="44.08987" lon="3.46716">
        <ele>1226</ele>
        <time>2017-02-28T10:58:46Z</time>
      </trkpt>
      <trkpt lat="44.09004" lon="3.46723">
        <ele>1226</ele>
        <time>2017-02-28T11:00:46Z</time>
      </trkpt>
      <trkpt lat="44.09025" lon="3.46726">
        <ele>1225</ele>
        <time>2017-02-28T11:02:46Z</time>
      </trkpt>
      <trkpt lat="44.09043" lon="3.46731">
        <ele>1225</ele>
        <time>2017-02-28T11:04:46Z</time>
      </trkpt>
      <trkpt lat="44.09058" lon="3.46733">
        <ele>1225</ele>
        <time>2017-02-28T11:06:46Z</time>
      </trkpt>
      <trkpt lat="44.09072" lon="3.46735">
        <ele>1224</ele>
        <time>2017-02-28T11:08:46Z</time>
      </trkpt>
      <trkpt lat="44.09083" lon="3.46735">
        <ele>1224</ele>
        <time>2017-02-28T11:10:46Z</time>
      </trkpt>
      <trkpt lat="44.09095" lon="3.46736">
        <ele>1223</ele>
        <time>2017-02-28T11:12:46Z</time>
      </trkpt>
      <trkpt lat="44.09103" lon="3.46739">
        <ele>1223</ele>
        <time>2017-02-28T11:14:46Z</time>
      </trkpt>
      <trkpt lat="44.09113" lon="3.46744">
        <ele>1222</ele>
        <time>2017-02-28T11:16:46Z</time>
      </trkpt>
      <trkpt lat="44.09124" lon="3.46751">
        <ele>1222</ele>
        <time>2017-02-28T11:18:46Z</time>
      </trkpt>
      <trkpt lat="44.09128" lon="3.46757">
        <ele>1222</ele>
        <time>2017-02-28T11:20:46Z</time>
      </trkpt>
      <trkpt lat="44.09143" lon="3.46773">
        <ele>1222</ele>
        <time>2017-02-28T11:22:46Z</time>
      </trkpt>
      <trkpt lat="44.09157" lon="3.46794">
        <ele>1223</ele>
        <time>2017-02-28T11:24:46Z</time>
      </trkpt>
      <trkpt lat="44.0918" lon="3.46823">
        <ele>1223</ele>
        <time>2017-02-28T11:26:46Z</time>
      </trkpt>
      <trkpt lat="44.09185" lon="3.46828">
        <ele>1222</ele>
        <time>2017-02-28T11:28:46Z</time>
      </trkpt>
      <trkpt lat="44.0921" lon="3.46862">
        <ele>1221</ele>
        <time>2017-02-28T11:30:46Z</time>
      </trkpt>
      <trkpt lat="44.09227" lon="3.46883">
        <ele>1220</ele>
        <time>2017-02-28T11:32:46Z</time>
      </trkpt>
      <trkpt lat="44.0926" lon="3.46922">
        <ele>1218</ele>
        <time>2017-02-28T11:34:46Z</time>
      </trkpt>
      <trkpt lat="44.09269" lon="3.4693">
        <ele>1217</ele>
        <time>2017-02-28T11:36:46Z</time>
      </trkpt>
      <trkpt lat="44.09277" lon="3.46939">
        <ele>1217</ele>
        <time>2017-02-28T11:38:46Z</time>
      </trkpt>
      <trkpt lat="44.09281" lon="3.46945">
        <ele>1217</ele>
        <time>2017-02-28T11:40:46Z</time>
      </trkpt>
      <trkpt lat="44.0929" lon="3.46959">
        <ele>1217</ele>
        <time>2017-02-28T11:42:46Z</time>
      </trkpt>
      <trkpt lat="44.0931" lon="3.46997">
        <ele>1217</ele>
        <time>2017-02-28T11:44:46Z</time>
      </trkpt>
      <trkpt lat="44.09319" lon="3.47015">
        <ele>1216</ele>
        <time>2017-02-28T11:46:46Z</time>
      </trkpt>
      <trkpt lat="44.09333" lon="3.47049">
        <ele>1214</ele>
        <time>2017-02-28T11:48:46Z</time>
      </trkpt>
      <trkpt lat="44.09337" lon="3.47061">
        <ele>1213</ele>
        <time>2017-02-28T11:50:46Z</time>
      </trkpt>
      <trkpt lat="44.09352" lon="3.47069">
        <ele>1210</ele>
        <time>2017-02-28T11:52:46Z</time>
      </trkpt>
      <trkpt lat="44.09394" lon="3.47104">
        <ele>1201</ele>
        <time>2017-02-28T11:54:46Z</time>
      </trkpt>
      <trkpt lat="44.09434" lon="3.47137">
        <ele>1193</ele>
        <time>2017-02-28T11:56:46Z</time>
      </trkpt>
      <trkpt lat="44.09461" lon="3.47152">
        <ele>1188</ele>
        <time>2017-02-28T11:58:46Z</time>
      </trkpt>
      <trkpt lat="44.09517" lon="3.47199">
        <ele>1178</ele>
        <time>2017-02-28T12:00:46Z</time>
      </trkpt>
      <trkpt lat="44.09529" lon="3.47211">
        <ele>1176</ele>
        <time>2017-02-28T12:02:46Z</time>
      </trkpt>
      <trkpt lat="44.09545" lon="3.47232">
        <ele>1172</ele>
        <time>2017-02-28T12:04:46Z</time>
      </trkpt>
      <trkpt lat="44.09563" lon="3.47265">
        <ele>1166</ele>
        <time>2017-02-28T12:06:46Z</time>
      </trkpt>
      <trkpt lat="44.09581" lon="3.47304">
        <ele>1158</ele>
        <time>2017-02-28T12:08:46Z</time>
      </trkpt>
      <trkpt lat="44.09608" lon="3.47334">
        <ele>1150</ele>
        <time>2017-02-28T12:10:46Z</time>
      </trkpt>
      <trkpt lat="44.09611" lon="3.4733">
        <ele>1149</ele>
        <time>2017-02-28T12:12:46Z</time>
      </trkpt>
      <trkpt lat="44.09611" lon="3.47335">
        <ele>1149</ele>
        <time>2017-02-28T12:14:46Z</time>
      </trkpt>
      <trkpt lat="44.09639" lon="3.4734">
        <ele>1143</ele>
        <time>2017-02-28T12:16:46Z</time>
      </trkpt>
      <trkpt lat="44.09673" lon="3.47334">
        <ele>1137</ele>
        <time>2017-02-28T12:18:46Z</time>
      </trkpt>
      <trkpt lat="44.09694" lon="3.4732">
        <ele>1138</ele>
        <time>2017-02-28T12:20:46Z</time>
      </trkpt>
      <trkpt lat="44.09721" lon="3.47307">
        <ele>1138</ele>
        <time>2017-02-28T12:22:46Z</time>
      </trkpt>
      <trkpt lat="44.09773" lon="3.47303">
        <ele>1136</ele>
        <time>2017-02-28T12:24:46Z</time>
      </trkpt>
      <trkpt lat="44.09811" lon="3.47312">
        <ele>1132</ele>
        <time>2017-02-28T12:26:46Z</time>
      </trkpt>
      <trkpt lat="44.09841" lon="3.47326">
        <ele>1127</ele>
        <time>2017-02-28T12:28:46Z</time>
      </trkpt>
      <trkpt lat="44.09892" lon="3.47333">
        <ele>1121</ele>
        <time>2017-02-28T12:30:46Z</time>
      </trkpt>
      <trkpt lat="44.09931" lon="3.47337">
        <ele>1118</ele>
        <time>2017-02-28T12:32:46Z</time>
      </trkpt>
      <trkpt lat="44.09976" lon="3.47337">
        <ele>1117</ele>
        <time>2017-02-28T12:34:46Z</time>
      </trkpt>
      <trkpt lat="44.10007" lon="3.47317">
        <ele>1115</ele>
        <time>2017-02-28T12:36:46Z</time>
      </trkpt>
      <trkpt lat="44.10045" lon="3.47295">
        <ele>1112</ele>
        <time>2017-02-28T12:38:46Z</time>
      </trkpt>
      <trkpt lat="44.10081" lon="3.47273">
        <ele>1106</ele>
        <time>2017-02-28T12:40:46Z</time>
      </trkpt>
      <trkpt lat="44.10115" lon="3.47259">
        <ele>1102</ele>
        <time>2017-02-28T12:42:46Z</time>
      </trkpt>
      <trkpt lat="44.10148" lon="3.47243">
        <ele>1099</ele>
        <time>2017-02-28T12:44:46Z</time>
      </trkpt>
      <trkpt lat="44.1018" lon="3.47222">
        <ele>1092</ele>
        <time>2017-02-28T12:46:46Z</time>
      </trkpt>
      <trkpt lat="44.1021" lon="3.47213">
        <ele>1086</ele>
        <time>2017-02-28T12:48:46Z</time>
      </trkpt>
      <trkpt lat="44.1023" lon="3.47223">
        <ele>1085</ele>
        <time>2017-02-28T12:50:46Z</time>
      </trkpt>
      <trkpt lat="44.10253" lon="3.4726">
        <ele>1086</ele>
        <time>2017-02-28T12:52:46Z</time>
      </trkpt>
      <trkpt lat="44.10282" lon="3.47297">
        <ele>1078</ele>
        <time>2017-02-28T12:54:46Z</time>
      </trkpt>
      <trkpt lat="44.10306" lon="3.47341">
        <ele>1072</ele>
        <time>2017-02-28T12:56:46Z</time>
      </trkpt>
      <trkpt lat="44.10339" lon="3.47365">
        <ele>1065</ele>
        <time>2017-02-28T12:58:46Z</time>
      </trkpt>
      <trkpt lat="44.10371" lon="3.47385">
        <ele>1066</ele>
        <time>2017-02-28T13:00:46Z</time>
      </trkpt>
      <trkpt lat="44.1039" lon="3.47392">
        <ele>1066</ele>
        <time>2017-02-28T13:02:46Z</time>
      </trkpt>
      <trkpt lat="44.10399" lon="3.47403">
        <ele>1066</ele>
        <time>2017-02-28T13:04:46Z</time>
      </trkpt>
      <trkpt lat="44.10401" lon="3.47408">
        <ele>1067</ele>
        <time>2017-02-28T13:06:46Z</time>
      </trkpt>
      <trkpt lat="44.10402" lon="3.47415">
        <ele>1067</ele>
        <time>2017-02-28T13:08:46Z</time>
      </trkpt>
      <trkpt lat="44.10402" lon="3.47423">
        <ele>1068</ele>
        <time>2017-02-28T13:10:46Z</time>
      </trkpt>
      <trkpt lat="44.10403" lon="3.47427">
        <ele>1068</ele>
        <time>2017-02-28T13:12:46Z</time>
      </trkpt>
      <trkpt lat="44.10409" lon="3.47434">
        <ele>1069</ele>
        <time>2017-02-28T13:14:46Z</time>
      </trkpt>
      <trkpt lat="44.10412" lon="3.47435">
        <ele>1069</ele>
        <time>2017-02-28T13:16:46Z</time>
      </trkpt>
      <trkpt lat="44.10409" lon="3.47453">
        <ele>1072</ele>
        <time>2017-02-28T13:18:46Z</time>
      </trkpt>
      <trkpt lat="44.10412" lon="3.47454">
        <ele>1072</ele>
        <time>2017-02-28T13:20:46Z</time>
      </trkpt>
      <trkpt lat="44.10417" lon="3.47449">
        <ele>1072</ele>
        <time>2017-02-28T13:22:46Z</time>
      </trkpt>
      <trkpt lat="44.10419" lon="3.47445">
        <ele>1072</ele>
        <time>2017-02-28T13:24:46Z</time>
      </trkpt>
      <trkpt lat="44.10422" lon="3.4744">
        <ele>1072</ele>
        <time>2017-02-28T13:26:46Z</time>
      </trkpt>
      <trkpt lat="44.10436" lon="3.47427">
        <ele>1074</ele>
        <time>2017-02-28T13:28:46Z</time>
      </trkpt>
      <trkpt lat="44.10441" lon="3.47425">
        <ele>1076</ele>
        <time>2017-02-28T13:30:46Z</time>
      </trkpt>
      <trkpt lat="44.10444" lon="3.47425">
        <ele>1077</ele>
        <time>2017-02-28T13:32:46Z</time>
      </trkpt>
      <trkpt lat="44.10442" lon="3.47402">
        <ele>1074</ele>
        <time>2017-02-28T13:34:46Z</time>
      </trkpt>
      <trkpt lat="44.10434" lon="3.47384">
        <ele>1071</ele>
        <time>2017-02-28T13:36:46Z</time>
      </trkpt>
      <trkpt lat="44.10431" lon="3.47358">
        <ele>1069</ele>
        <time>2017-02-28T13:38:46Z</time>
      </trkpt>
      <trkpt lat="44.1043" lon="3.47334">
        <ele>1068</ele>
        <time>2017-02-28T13:40:46Z</time>
      </trkpt>
      <trkpt lat="44.10435" lon="3.47256">
        <ele>1073</ele>
        <time>2017-02-28T13:42:46Z</time>
      </trkpt>
      <trkpt lat="44.10446" lon="3.47226">
        <ele>1077</ele>
        <time>2017-02-28T13:44:46Z</time>
      </trkpt>
      <trkpt lat="44.10465" lon="3.47208">
        <ele>1084</ele>
        <time>2017-02-28T13:46:46Z</time>
      </trkpt>
      <trkpt lat="44.1048" lon="3.47206">
        <ele>1090</ele>
        <time>2017-02-28T13:48:46Z</time>
      </trkpt>
      <trkpt lat="44.10501" lon="3.47211">
        <ele>1097</ele>
        <time>2017-02-28T13:50:46Z</time>
      </trkpt>
      <trkpt lat="44.10526" lon="3.47221">
        <ele>1102</ele>
        <time>2017-02-28T13:52:46Z</time>
      </trkpt>
      <trkpt lat="44.10542" lon="3.47234">
        <ele>1104</ele>
        <time>2017-02-28T13:54:46Z</time>
      </trkpt>
      <trkpt lat="44.10558" lon="3.4726">
        <ele>1107</ele>
        <time>2017-02-28T13:56:46Z</time>
      </trkpt>
      <trkpt lat="44.10564" lon="3.4729">
        <ele>1108</ele>
        <time>2017-02-28T13:58:46Z</time>
      </trkpt>
      <trkpt lat="44.10559" lon="3.47323">
        <ele>1107</ele>
        <time>2017-02-28T14:00:46Z</time>
      </trkpt>
      <trkpt lat="44.1058" lon="3.47317">
        <ele>1112</ele>
        <time>2017-02-28T14:02:46Z</time>
      </trkpt>
      <trkpt lat="44.10606" lon="3.47305">
        <ele>1115</ele>
        <time>2017-02-28T14:04:46Z</time>
      </trkpt>
      <trkpt lat="44.10637" lon="3.4731">
        <ele>1117</ele>
        <time>2017-02-28T14:06:46Z</time>
      </trkpt>
      <trkpt lat="44.10677" lon="3.4732">
        <ele>1119</ele>
        <time>2017-02-28T14:08:46Z</time>
      </trkpt>
      <trkpt lat="44.10726" lon="3.47343">
        <ele>1121</ele>
        <time>2017-02-28T14:10:46Z</time>
      </trkpt>
      <trkpt lat="44.10754" lon="3.47368">
        <ele>1123</ele>
        <time>2017-02-28T14:12:46Z</time>
      </trkpt>
      <trkpt lat="44.10767" lon="3.47373">
        <ele>1123</ele>
        <time>2017-02-28T14:14:46Z</time>
      </trkpt>
      <trkpt lat="44.10797" lon="3.47386">
        <ele>1124</ele>
        <time>2017-02-28T14:16:46Z</time>
      </trkpt>
      <trkpt lat="44.10824" lon="3.47401">
        <ele>1124</ele>
        <time>2017-02-28T14:18:46Z</time>
      </trkpt>
      <trkpt lat="44.10845" lon="3.47413">
        <ele>1124</ele>
        <time>2017-02-28T14:20:46Z</time>
      </trkpt>
      <trkpt lat="44.10852" lon="3.47418">
        <ele>1123</ele>
        <time>2017-02-28T14:22:46Z</time>
      </trkpt>
      <trkpt lat="44.10868" lon="3.47439">
        <ele>1123</ele>
        <time>2017-02-28T14:24:46Z</time>
      </trkpt>
      <trkpt lat="44.10895" lon="3.4748">
        <ele>1123</ele>
        <time>2017-02-28T14:26:46Z</time>
      </trkpt>
      <trkpt lat="44.10923" lon="3.47518">
        <ele>1124</ele>
        <time>2017-02-28T14:28:46Z</time>
      </trkpt>
      <trkpt lat="44.10948" lon="3.47555">
        <ele>1123</ele>
        <time>2017-02-28T14:30:46Z</time>
      </trkpt>
      <trkpt lat="44.10952" lon="3.4756">
        <ele>1123</ele>
        <time>2017-02-28T14:32:46Z</time>
      </trkpt>
      <trkpt lat="44.1096" lon="3.47568">
        <ele>1123</ele>
        <time>2017-02-28T14:34:46Z</time>
      </trkpt>
      <trkpt lat="44.10967" lon="3.47571">
        <ele>1122</ele>
        <time>2017-02-28T14:36:46Z</time>
      </trkpt>
      <trkpt lat="44.10975" lon="3.4757">
        <ele>1121</ele>
        <time>2017-02-28T14:38:46Z</time>
      </trkpt>
      <trkpt lat="44.10983" lon="3.47571">
        <ele>1121</ele>
        <time>2017-02-28T14:40:46Z</time>
      </trkpt>
      <trkpt lat="44.10988" lon="3.47572">
        <ele>1120</ele>
        <time>2017-02-28T14:42:46Z</time>
      </trkpt>
      <trkpt lat="44.10991" lon="3.47567">
        <ele>1120</ele>
        <time>2017-02-28T14:44:46Z</time>
      </trkpt>
      <trkpt lat="44.10997" lon="3.4756">
        <ele>1119</ele>
        <time>2017-02-28T14:46:46Z</time>
      </trkpt>
      <trkpt lat="44.11004" lon="3.47554">
        <ele>1118</ele>
        <time>2017-02-28T14:48:46Z</time>
      </trkpt>
      <trkpt lat="44.11014" lon="3.47548">
        <ele>1118</ele>
        <time>2017-02-28T14:50:46Z</time>
      </trkpt>
      <trkpt lat="44.11033" lon="3.47539">
        <ele>1117</ele>
        <time>2017-02-28T14:52:46Z</time>
      </trkpt>
      <trkpt lat="44.11062" lon="3.47519">
        <ele>1115</ele>
        <time>2017-02-28T14:54:46Z</time>
      </trkpt>
      <trkpt lat="44.11074" lon="3.47513">
        <ele>1114</ele>
        <time>2017-02-28T14:56:46Z</time>
      </trkpt>
      <trkpt lat="44.11084" lon="3.47509">
        <ele>1114</ele>
        <time>2017-02-28T14:58:46Z</time>
      </trkpt>
      <trkpt lat="44.11098" lon="3.47505">
        <ele>1113</ele>
        <time>2017-02-28T15:00:46Z</time>
      </trkpt>
      <trkpt lat="44.11116" lon="3.47502">
        <ele>1112</ele>
        <time>2017-02-28T15:02:46Z</time>
      </trkpt>
      <trkpt lat="44.11138" lon="3.47499">
        <ele>1110</ele>
        <time>2017-02-28T15:04:46Z</time>
      </trkpt>
      <trkpt lat="44.11144" lon="3.47498">
        <ele>1110</ele>
        <time>2017-02-28T15:06:46Z</time>
      </trkpt>
      <trkpt lat="44.11159" lon="3.47499">
        <ele>1109</ele>
        <time>2017-02-28T15:08:46Z</time>
      </trkpt>
      <trkpt lat="44.11173" lon="3.47501">
        <ele>1108</ele>
        <time>2017-02-28T15:10:46Z</time>
      </trkpt>
      <trkpt lat="44.11181" lon="3.47501">
        <ele>1107</ele>
        <time>2017-02-28T15:12:46Z</time>
      </trkpt>
      <trkpt lat="44.112" lon="3.47506">
        <ele>1106</ele>
        <time>2017-02-28T15:14:46Z</time>
      </trkpt>
      <trkpt lat="44.11225" lon="3.47511">
        <ele>1105</ele>
        <time>2017-02-28T15:16:46Z</time>
      </trkpt>
      <trkpt lat="44.11238" lon="3.47511">
        <ele>1104</ele>
        <time>2017-02-28T15:18:46Z</time>
      </trkpt>
      <trkpt lat="44.11248" lon="3.47512">
        <ele>1104</ele>
        <time>2017-02-28T15:20:46Z</time>
      </trkpt>
      <trkpt lat="44.11268" lon="3.47521">
        <ele>1104</ele>
        <time>2017-02-28T15:22:46Z</time>
      </trkpt>
      <trkpt lat="44.11277" lon="3.47525">
        <ele>1103</ele>
        <time>2017-02-28T15:24:46Z</time>
      </trkpt>
      <trkpt lat="44.11286" lon="3.47526">
        <ele>1103</ele>
        <time>2017-02-28T15:26:46Z</time>
      </trkpt>
      <trkpt lat="44.11296" lon="3.47526">
        <ele>1103</ele>
        <time>2017-02-28T15:28:46Z</time>
      </trkpt>
      <trkpt lat="44.11327" lon="3.4753">
        <ele>1103</ele>
        <time>2017-02-28T15:30:46Z</time>
      </trkpt>
      <trkpt lat="44.11333" lon="3.47532">
        <ele>1103</ele>
        <time>2017-02-28T15:32:46Z</time>
      </trkpt>
      <trkpt lat="44.1134" lon="3.47534">
        <ele>1103</ele>
        <time>2017-02-28T15:34:46Z</time>
      </trkpt>
      <trkpt lat="44.11361" lon="3.47543">
        <ele>1103</ele>
        <time>2017-02-28T15:36:46Z</time>
      </trkpt>
      <trkpt lat="44.11364" lon="3.47546">
        <ele>1103</ele>
        <time>2017-02-28T15:38:46Z</time>
      </trkpt>
      <trkpt lat="44.11375" lon="3.47553">
        <ele>1103</ele>
        <time>2017-02-28T15:40:46Z</time>
      </trkpt>
      <trkpt lat="44.11378" lon="3.4756">
        <ele>1103</ele>
        <time>2017-02-28T15:42:46Z</time>
      </trkpt>
      <trkpt lat="44.11379" lon="3.47592">
        <ele>1103</ele>
        <time>2017-02-28T15:44:46Z</time>
      </trkpt>
      <trkpt lat="44.11406" lon="3.47565">
        <ele>1104</ele>
        <time>2017-02-28T15:46:46Z</time>
      </trkpt>
      <trkpt lat="44.11435" lon="3.47542">
        <ele>1105</ele>
        <time>2017-02-28T15:48:46Z</time>
      </trkpt>
      <trkpt lat="44.11451" lon="3.47525">
        <ele>1106</ele>
        <time>2017-02-28T15:50:46Z</time>
      </trkpt>
      <trkpt lat="44.11458" lon="3.47513">
        <ele>1107</ele>
        <time>2017-02-28T15:52:46Z</time>
      </trkpt>
      <trkpt lat="44.11461" lon="3.47507">
        <ele>1107</ele>
        <time>2017-02-28T15:54:46Z</time>
      </trkpt>
      <trkpt lat="44.11462" lon="3.47501">
        <ele>1107</ele>
        <time>2017-02-28T15:56:46Z</time>
      </trkpt>
      <trkpt lat="44.11475" lon="3.47515">
        <ele>1107</ele>
        <time>2017-02-28T15:58:46Z</time>
      </trkpt>
      <trkpt lat="44.11479" lon="3.47523">
        <ele>1108</ele>
        <time>2017-02-28T16:00:46Z</time>
      </trkpt>
      <trkpt lat="44.11483" lon="3.47529">
        <ele>1108</ele>
        <time>2017-02-28T16:02:46Z</time>
      </trkpt>
      <trkpt lat="44.11488" lon="3.47534">
        <ele>1108</ele>
        <time>2017-02-28T16:04:46Z</time>
      </trkpt>
      <trkpt lat="44.11492" lon="3.47537">
        <ele>1108</ele>
        <time>2017-02-28T16:06:46Z</time>
      </trkpt>
      <trkpt lat="44.11509" lon="3.47545">
        <ele>1110</ele>
        <time>2017-02-28T16:08:46Z</time>
      </trkpt>
      <trkpt lat="44.11511" lon="3.47548">
        <ele>1110</ele>
        <time>2017-02-28T16:10:46Z</time>
      </trkpt>
      <trkpt lat="44.11513" lon="3.47552">
        <ele>1110</ele>
        <time>2017-02-28T16:12:46Z</time>
      </trkpt>
      <trkpt lat="44.11514" lon="3.47568">
        <ele>1110</ele>
        <time>2017-02-28T16:14:46Z</time>
      </trkpt>
      <trkpt lat="44.11514" lon="3.47577">
        <ele>1111</ele>
        <time>2017-02-28T16:16:46Z</time>
      </trkpt>
      <trkpt lat="44.11518" lon="3.47593">
        <ele>1111</ele>
        <time>2017-02-28T16:18:46Z</time>
      </trkpt>
      <trkpt lat="44.11525" lon="3.47613">
        <ele>1110</ele>
        <time>2017-02-28T16:20:46Z</time>
      </trkpt>
      <trkpt lat="44.11528" lon="3.47626">
        <ele>1110</ele>
        <time>2017-02-28T16:22:46Z</time>
      </trkpt>
      <trkpt lat="44.11532" lon="3.47636">
        <ele>1110</ele>
        <time>2017-02-28T16:24:46Z</time>
      </trkpt>
      <trkpt lat="44.11536" lon="3.47645">
        <ele>1110</ele>
        <time>2017-02-28T16:26:46Z</time>
      </trkpt>
      <trkpt lat="44.11547" lon="3.47663">
        <ele>1109</ele>
        <time>2017-02-28T16:28:46Z</time>
      </trkpt>
      <trkpt lat="44.11557" lon="3.47679">
        <ele>1110</ele>
        <time>2017-02-28T16:30:46Z</time>
      </trkpt>
      <trkpt lat="44.11562" lon="3.47688">
        <ele>1110</ele>
        <time>2017-02-28T16:32:46Z</time>
      </trkpt>
      <trkpt lat="44.11564" lon="3.47697">
        <ele>1110</ele>
        <time>2017-02-28T16:34:46Z</time>
      </trkpt>
      <trkpt lat="44.11574" lon="3.47709">
        <ele>1111</ele>
        <time>2017-02-28T16:36:46Z</time>
      </trkpt>
      <trkpt lat="44.11579" lon="3.47713">
        <ele>1111</ele>
        <time>2017-02-28T16:38:46Z</time>
      </trkpt>
      <trkpt lat="44.11598" lon="3.47727">
        <ele>1114</ele>
        <time>2017-02-28T16:40:46Z</time>
      </trkpt>
      <trkpt lat="44.11609" lon="3.47738">
        <ele>1115</ele>
        <time>2017-02-28T16:42:46Z</time>
      </trkpt>
      <trkpt lat="44.11617" lon="3.47744">
        <ele>1116</ele>
        <time>2017-02-28T16:44:46Z</time>
      </trkpt>
      <trkpt lat="44.1162" lon="3.47748">
        <ele>1116</ele>
        <time>2017-02-28T16:46:46Z</time>
      </trkpt>
      <trkpt lat="44.11621" lon="3.47753">
        <ele>1117</ele>
        <time>2017-02-28T16:48:46Z</time>
      </trkpt>
      <trkpt lat="44.11622" lon="3.47759">
        <ele>1117</ele>
        <time>2017-02-28T16:50:46Z</time>
      </trkpt>
      <trkpt lat="44.11623" lon="3.47767">
        <ele>1117</ele>
        <time>2017-02-28T16:52:46Z</time>
      </trkpt>
      <trkpt lat="44.11624" lon="3.47777">
        <ele>1118</ele>
        <time>2017-02-28T16:54:46Z</time>
      </trkpt>
      <trkpt lat="44.11627" lon="3.47788">
        <ele>1118</ele>
        <time>2017-02-28T16:56:46Z</time>
      </trkpt>
      <trkpt lat="44.11629" lon="3.47807">
        <ele>1119</ele>
        <time>2017-02-28T16:58:46Z</time>
      </trkpt>
      <trkpt lat="44.11632" lon="3.47818">
        <ele>1119</ele>
        <time>2017-02-28T17:00:46Z</time>
      </trkpt>
      <trkpt lat="44.11638" lon="3.47828">
        <ele>1120</ele>
        <time>2017-02-28T17:02:46Z</time>
      </trkpt>
      <trkpt lat="44.11643" lon="3.47834">
        <ele>1120</ele>
        <time>2017-02-28T17:04:46Z</time>
      </trkpt>
      <trkpt lat="44.11642" lon="3.47848">
        <ele>1120</ele>
        <time>2017-02-28T17:06:46Z</time>
      </trkpt>
      <trkpt lat="44.11647" lon="3.47858">
        <ele>1120</ele>
        <time>2017-02-28T17:08:46Z</time>
      </trkpt>
      <trkpt lat="44.11654" lon="3.47872">
        <ele>1120</ele>
        <time>2017-02-28T17:10:46Z</time>
      </trkpt>
      <trkpt lat="44.11661" lon="3.4788">
        <ele>1120</ele>
        <time>2017-02-28T17:12:46Z</time>
      </trkpt>
      <trkpt lat="44.1167" lon="3.47887">
        <ele>1119</ele>
        <time>2017-02-28T17:14:46Z</time>
      </trkpt>
      <trkpt lat="44.11685" lon="3.47898">
        <ele>1117</ele>
        <time>2017-02-28T17:16:46Z</time>
      </trkpt>
      <trkpt lat="44.11696" lon="3.47902">
        <ele>1116</ele>
        <time>2017-02-28T17:18:46Z</time>
      </trkpt>
      <trkpt lat="44.11711" lon="3.47905">
        <ele>1114</ele>
        <time>2017-02-28T17:20:46Z</time>
      </trkpt>
      <trkpt lat="44.11732" lon="3.47902">
        <ele>1112</ele>
        <time>2017-02-28T17:22:46Z</time>
      </trkpt>
      <trkpt lat="44.11774" lon="3.47905">
        <ele>1107</ele>
        <time>2017-02-28T17:24:46Z</time>
      </trkpt>
      <trkpt lat="44.11783" lon="3.47907">
        <ele>1106</ele>
        <time>2017-02-28T17:26:46Z</time>
      </trkpt>
      <trkpt lat="44.11795" lon="3.47908">
        <ele>1104</ele>
        <time>2017-02-28T17:28:46Z</time>
      </trkpt>
      <trkpt lat="44.11819" lon="3.47936">
        <ele>1100</ele>
        <time>2017-02-28T17:30:46Z</time>
      </trkpt>
      <trkpt lat="44.11829" lon="3.47951">
        <ele>1098</ele>
        <time>2017-02-28T17:32:46Z</time>
      </trkpt>
      <trkpt lat="44.11841" lon="3.47963">
        <ele>1097</ele>
        <time>2017-02-28T17:34:46Z</time>
      </trkpt>
      <trkpt lat="44.11867" lon="3.47982">
        <ele>1097</ele>
        <time>2017-02-28T17:36:46Z</time>
      </trkpt>
      <trkpt lat="44.11891" lon="3.48023">
        <ele>1099</ele>
        <time>2017-02-28T17:38:46Z</time>
      </trkpt>
      <trkpt lat="44.11895" lon="3.48034">
        <ele>1100</ele>
        <time>2017-02-28T17:40:46Z</time>
      </trkpt>
      <trkpt lat="44.11899" lon="3.48058">
        <ele>1100</ele>
        <time>2017-02-28T17:42:46Z</time>
      </trkpt>
      <trkpt lat="44.11899" lon="3.48075">
        <ele>1101</ele>
        <time>2017-02-28T17:44:46Z</time>
      </trkpt>
      <trkpt lat="44.119" lon="3.48089">
        <ele>1101</ele>
        <time>2017-02-28T17:46:46Z</time>
      </trkpt>
      <trkpt lat="44.11902" lon="3.48102">
        <ele>1102</ele>
        <time>2017-02-28T17:48:46Z</time>
      </trkpt>
      <trkpt lat="44.11904" lon="3.48115">
        <ele>1102</ele>
        <time>2017-02-28T17:50:46Z</time>
      </trkpt>
      <trkpt lat="44.11908" lon="3.48128">
        <ele>1103</ele>
        <time>2017-02-28T17:52:46Z</time>
      </trkpt>
      <trkpt lat="44.11916" lon="3.48145">
        <ele>1103</ele>
        <time>2017-02-28T17:54:46Z</time>
      </trkpt>
      <trkpt lat="44.11929" lon="3.48165">
        <ele>1104</ele>
        <time>2017-02-28T17:56:46Z</time>
      </trkpt>
      <trkpt lat="44.11951" lon="3.48193">
        <ele>1105</ele>
        <time>2017-02-28T17:58:46Z</time>
      </trkpt>
      <trkpt lat="44.11956" lon="3.48199">
        <ele>1105</ele>
        <time>2017-02-28T18:00:46Z</time>
      </trkpt>
      <trkpt lat="44.11971" lon="3.48211">
        <ele>1106</ele>
        <time>2017-02-28T18:02:46Z</time>
      </trkpt>
      <trkpt lat="44.11996" lon="3.48227">
        <ele>1107</ele>
        <time>2017-02-28T18:04:46Z</time>
      </trkpt>
      <trkpt lat="44.12022" lon="3.48239">
        <ele>1108</ele>
        <time>2017-02-28T18:06:46Z</time>
      </trkpt>
      <trkpt lat="44.12048" lon="3.48251">
        <ele>1110</ele>
        <time>2017-02-28T18:08:46Z</time>
      </trkpt>
      <trkpt lat="44.12063" lon="3.48257">
        <ele>1111</ele>
        <time>2017-02-28T18:10:46Z</time>
      </trkpt>
      <trkpt lat="44.12074" lon="3.48263">
        <ele>1112</ele>
        <time>2017-02-28T18:12:46Z</time>
      </trkpt>
      <trkpt lat="44.12076" lon="3.48266">
        <ele>1112</ele>
        <time>2017-02-28T18:14:46Z</time>
      </trkpt>
      <trkpt lat="44.12078" lon="3.4827">
        <ele>1113</ele>
        <time>2017-02-28T18:16:46Z</time>
      </trkpt>
      <trkpt lat="44.12089" lon="3.48303">
        <ele>1116</ele>
        <time>2017-02-28T18:18:46Z</time>
      </trkpt>
      <trkpt lat="44.12104" lon="3.48352">
        <ele>1121</ele>
        <time>2017-02-28T18:20:46Z</time>
      </trkpt>
      <trkpt lat="44.12107" lon="3.48359">
        <ele>1121</ele>
        <time>2017-02-28T18:22:46Z</time>
      </trkpt>
      <trkpt lat="44.12111" lon="3.48366">
        <ele>1122</ele>
        <time>2017-02-28T18:24:46Z</time>
      </trkpt>
      <trkpt lat="44.12116" lon="3.48373">
        <ele>1122</ele>
        <time>2017-02-28T18:26:46Z</time>
      </trkpt>
      <trkpt lat="44.12112" lon="3.48391">
        <ele>1122</ele>
        <time>2017-02-28T18:28:46Z</time>
      </trkpt>
      <trkpt lat="44.12122" lon="3.48403">
        <ele>1123</ele>
        <time>2017-02-28T18:30:46Z</time>
      </trkpt>
      <trkpt lat="44.12137" lon="3.48428">
        <ele>1125</ele>
        <time>2017-02-28T18:32:46Z</time>
      </trkpt>
      <trkpt lat="44.12148" lon="3.48446">
        <ele>1127</ele>
        <time>2017-02-28T18:34:46Z</time>
      </trkpt>
      <trkpt lat="44.12153" lon="3.48454">
        <ele>1128</ele>
        <time>2017-02-28T18:36:46Z</time>
      </trkpt>
      <trkpt lat="44.12158" lon="3.48458">
        <ele>1128</ele>
        <time>2017-02-28T18:38:46Z</time>
      </trkpt>
      <trkpt lat="44.12161" lon="3.48459">
        <ele>1129</ele>
        <time>2017-02-28T18:40:46Z</time>
      </trkpt>
      <trkpt lat="44.12165" lon="3.48459">
        <ele>1129</ele>
        <time>2017-02-28T18:42:46Z</time>
      </trkpt>
      <trkpt lat="44.12169" lon="3.48459">
        <ele>1129</ele>
        <time>2017-02-28T18:44:46Z</time>
      </trkpt>
      <trkpt lat="44.12174" lon="3.48456">
        <ele>1130</ele>
        <time>2017-02-28T18:46:46Z</time>
      </trkpt>
      <trkpt lat="44.12179" lon="3.48451">
        <ele>1131</ele>
        <time>2017-02-28T18:48:46Z</time>
      </trkpt>
      <trkpt lat="44.12182" lon="3.48444">
        <ele>1131</ele>
        <time>2017-02-28T18:50:46Z</time>
      </trkpt>
      <trkpt lat="44.12183" lon="3.48437">
        <ele>1131</ele>
        <time>2017-02-28T18:52:46Z</time>
      </trkpt>
      <trkpt lat="44.12181" lon="3.48429">
        <ele>1130</ele>
        <time>2017-02-28T18:54:46Z</time>
      </trkpt>
      <trkpt lat="44.12178" lon="3.48423">
        <ele>1129</ele>
        <time>2017-02-28T18:56:46Z</time>
      </trkpt>
      <trkpt lat="44.12172" lon="3.48416">
        <ele>1128</ele>
        <time>2017-02-28T18:58:46Z</time>
      </trkpt>
      <trkpt lat="44.12169" lon="3.48411">
        <ele>1128</ele>
        <time>2017-02-28T19:00:46Z</time>
      </trkpt>
      <trkpt lat="44.12167" lon="3.48406">
        <ele>1127</ele>
        <time>2017-02-28T19:02:46Z</time>
      </trkpt>
      <trkpt lat="44.12167" lon="3.48402">
        <ele>1128</ele>
        <time>2017-02-28T19:04:46Z</time>
      </trkpt>
      <trkpt lat="44.12168" lon="3.48379">
        <ele>1129</ele>
        <time>2017-02-28T19:06:46Z</time>
      </trkpt>
      <trkpt lat="44.12172" lon="3.48354">
        <ele>1130</ele>
        <time>2017-02-28T19:08:46Z</time>
      </trkpt>
      <trkpt lat="44.12175" lon="3.48343">
        <ele>1131</ele>
        <time>2017-02-28T19:10:46Z</time>
      </trkpt>
      <trkpt lat="44.12182" lon="3.48326">
        <ele>1132</ele>
        <time>2017-02-28T19:12:46Z</time>
      </trkpt>
      <trkpt lat="44.12187" lon="3.48318">
        <ele>1132</ele>
        <time>2017-02-28T19:14:46Z</time>
      </trkpt>
      <trkpt lat="44.12197" lon="3.48304">
        <ele>1133</ele>
        <time>2017-02-28T19:16:46Z</time>
      </trkpt>
      <trkpt lat="44.12204" lon="3.48298">
        <ele>1134</ele>
        <time>2017-02-28T19:18:46Z</time>
      </trkpt>
      <trkpt lat="44.12215" lon="3.48291">
        <ele>1135</ele>
        <time>2017-02-28T19:20:46Z</time>
      </trkpt>
      <trkpt lat="44.12231" lon="3.48284">
        <ele>1138</ele>
        <time>2017-02-28T19:22:46Z</time>
      </trkpt>
      <trkpt lat="44.12247" lon="3.48277">
        <ele>1140</ele>
        <time>2017-02-28T19:24:46Z</time>
      </trkpt>
      <trkpt lat="44.12254" lon="3.48276">
        <ele>1142</ele>
        <time>2017-02-28T19:26:46Z</time>
      </trkpt>
      <trkpt lat="44.12257" lon="3.48276">
        <ele>1143</ele>
        <time>2017-02-28T19:28:46Z</time>
      </trkpt>
      <trkpt lat="44.1226" lon="3.48278">
        <ele>1144</ele>
        <time>2017-02-28T19:30:46Z</time>
      </trkpt>
      <trkpt lat="44.12262" lon="3.48282">
        <ele>1144</ele>
        <time>2017-02-28T19:32:46Z</time>
      </trkpt>
      <trkpt lat="44.12264" lon="3.48292">
        <ele>1145</ele>
        <time>2017-02-28T19:34:46Z</time>
      </trkpt>
      <trkpt lat="44.12268" lon="3.48316">
        <ele>1148</ele>
        <time>2017-02-28T19:36:46Z</time>
      </trkpt>
      <trkpt lat="44.12277" lon="3.48358">
        <ele>1151</ele>
        <time>2017-02-28T19:38:46Z</time>
      </trkpt>
      <trkpt lat="44.12279" lon="3.48372">
        <ele>1152</ele>
        <time>2017-02-28T19:40:46Z</time>
      </trkpt>
      <trkpt lat="44.12284" lon="3.4841">
        <ele>1153</ele>
        <time>2017-02-28T19:42:46Z</time>
      </trkpt>
      <trkpt lat="44.12285" lon="3.48434">
        <ele>1155</ele>
        <time>2017-02-28T19:44:46Z</time>
      </trkpt>
      <trkpt lat="44.12286" lon="3.48443">
        <ele>1155</ele>
        <time>2017-02-28T19:46:46Z</time>
      </trkpt>
      <trkpt lat="44.12288" lon="3.48447">
        <ele>1156</ele>
        <time>2017-02-28T19:48:46Z</time>
      </trkpt>
      <trkpt lat="44.1229" lon="3.4845">
        <ele>1157</ele>
        <time>2017-02-28T19:50:46Z</time>
      </trkpt>
      <trkpt lat="44.12293" lon="3.48452">
        <ele>1158</ele>
        <time>2017-02-28T19:52:46Z</time>
      </trkpt>
      <trkpt lat="44.12297" lon="3.48452">
        <ele>1159</ele>
        <time>2017-02-28T19:54:46Z</time>
      </trkpt>
      <trkpt lat="44.123" lon="3.48451">
        <ele>1160</ele>
        <time>2017-02-28T19:56:46Z</time>
      </trkpt>
      <trkpt lat="44.12302" lon="3.48451">
        <ele>1161</ele>
        <time>2017-02-28T19:58:46Z</time>
      </trkpt>
      <trkpt lat="44.12303" lon="3.48445">
        <ele>1161</ele>
        <time>2017-02-28T20:00:46Z</time>
      </trkpt>
      <trkpt lat="44.12304" lon="3.48437">
        <ele>1161</ele>
        <time>2017-02-28T20:02:46Z</time>
      </trkpt>
      <trkpt lat="44.12302" lon="3.48413">
        <ele>1159</ele>
        <time>2017-02-28T20:04:46Z</time>
      </trkpt>
      <trkpt lat="44.12302" lon="3.48407">
        <ele>1159</ele>
        <time>2017-02-28T20:06:46Z</time>
      </trkpt>
      <trkpt lat="44.12304" lon="3.484">
        <ele>1160</ele>
        <time>2017-02-28T20:08:46Z</time>
      </trkpt>
      <trkpt lat="44.1231" lon="3.48367">
        <ele>1161</ele>
        <time>2017-02-28T20:10:46Z</time>
      </trkpt>
      <trkpt lat="44.12316" lon="3.48341">
        <ele>1163</ele>
        <time>2017-02-28T20:12:46Z</time>
      </trkpt>
      <trkpt lat="44.1232" lon="3.48328">
        <ele>1164</ele>
        <time>2017-02-28T20:14:46Z</time>
      </trkpt>
      <trkpt lat="44.12333" lon="3.48294">
        <ele>1165</ele>
        <time>2017-02-28T20:16:46Z</time>
      </trkpt>
      <trkpt lat="44.12341" lon="3.48271">
        <ele>1164</ele>
        <time>2017-02-28T20:18:46Z</time>
      </trkpt>
      <trkpt lat="44.12344" lon="3.48259">
        <ele>1164</ele>
        <time>2017-02-28T20:20:46Z</time>
      </trkpt>
      <trkpt lat="44.1235" lon="3.48237">
        <ele>1164</ele>
        <time>2017-02-28T20:22:46Z</time>
      </trkpt>
      <trkpt lat="44.12353" lon="3.48227">
        <ele>1165</ele>
        <time>2017-02-28T20:24:46Z</time>
      </trkpt>
      <trkpt lat="44.12357" lon="3.48218">
        <ele>1165</ele>
        <time>2017-02-28T20:26:46Z</time>
      </trkpt>
      <trkpt lat="44.12365" lon="3.48197">
        <ele>1166</ele>
        <time>2017-02-28T20:28:46Z</time>
      </trkpt>
      <trkpt lat="44.12374" lon="3.48165">
        <ele>1167</ele>
        <time>2017-02-28T20:30:46Z</time>
      </trkpt>
      <trkpt lat="44.12385" lon="3.48124">
        <ele>1169</ele>
        <time>2017-02-28T20:32:46Z</time>
      </trkpt>
      <trkpt lat="44.12394" lon="3.48089">
        <ele>1170</ele>
        <time>2017-02-28T20:34:46Z</time>
      </trkpt>
      <trkpt lat="44.12397" lon="3.48085">
        <ele>1170</ele>
        <time>2017-02-28T20:36:46Z</time>
      </trkpt>
      <trkpt lat="44.124" lon="3.48083">
        <ele>1171</ele>
        <time>2017-02-28T20:38:46Z</time>
      </trkpt>
      <trkpt lat="44.12405" lon="3.48082">
        <ele>1172</ele>
        <time>2017-02-28T20:40:46Z</time>
      </trkpt>
      <trkpt lat="44.12413" lon="3.48082">
        <ele>1173</ele>
        <time>2017-02-28T20:42:46Z</time>
      </trkpt>
      <trkpt lat="44.12416" lon="3.48084">
        <ele>1174</ele>
        <time>2017-02-28T20:44:46Z</time>
      </trkpt>
      <trkpt lat="44.12422" lon="3.48092">
        <ele>1173</ele>
        <time>2017-02-28T20:46:46Z</time>
      </trkpt>
      <trkpt lat="44.12445" lon="3.48145">
        <ele>1172</ele>
        <time>2017-02-28T20:48:46Z</time>
      </trkpt>
      <trkpt lat="44.12465" lon="3.48196">
        <ele>1174</ele>
        <time>2017-02-28T20:50:46Z</time>
      </trkpt>
      <trkpt lat="44.12471" lon="3.48211">
        <ele>1175</ele>
        <time>2017-02-28T20:52:46Z</time>
      </trkpt>
      <trkpt lat="44.12477" lon="3.48226">
        <ele>1177</ele>
        <time>2017-02-28T20:54:46Z</time>
      </trkpt>
      <trkpt lat="44.1248" lon="3.48235">
        <ele>1178</ele>
        <time>2017-02-28T20:56:46Z</time>
      </trkpt>
      <trkpt lat="44.1248" lon="3.48245">
        <ele>1179</ele>
        <time>2017-02-28T20:58:46Z</time>
      </trkpt>
      <trkpt lat="44.1248" lon="3.48255">
        <ele>1179</ele>
        <time>2017-02-28T21:00:46Z</time>
      </trkpt>
      <trkpt lat="44.12478" lon="3.48268">
        <ele>1180</ele>
        <time>2017-02-28T21:02:46Z</time>
      </trkpt>
      <trkpt lat="44.12474" lon="3.48291">
        <ele>1181</ele>
        <time>2017-02-28T21:04:46Z</time>
      </trkpt>
      <trkpt lat="44.12464" lon="3.48341">
        <ele>1183</ele>
        <time>2017-02-28T21:06:46Z</time>
      </trkpt>
      <trkpt lat="44.12464" lon="3.48349">
        <ele>1184</ele>
        <time>2017-02-28T21:08:46Z</time>
      </trkpt>
      <trkpt lat="44.12464" lon="3.48357">
        <ele>1184</ele>
        <time>2017-02-28T21:10:46Z</time>
      </trkpt>
      <trkpt lat="44.12468" lon="3.48362">
        <ele>1185</ele>
        <time>2017-02-28T21:12:46Z</time>
      </trkpt>
      <trkpt lat="44.12471" lon="3.48363">
        <ele>1185</ele>
        <time>2017-02-28T21:14:46Z</time>
      </trkpt>
      <trkpt lat="44.12475" lon="3.4836">
        <ele>1185</ele>
        <time>2017-02-28T21:16:46Z</time>
      </trkpt>
      <trkpt lat="44.12479" lon="3.48355">
        <ele>1185</ele>
        <time>2017-02-28T21:18:46Z</time>
      </trkpt>
      <trkpt lat="44.12502" lon="3.48309">
        <ele>1183</ele>
        <time>2017-02-28T21:20:46Z</time>
      </trkpt>
      <trkpt lat="44.1252" lon="3.48275">
        <ele>1185</ele>
        <time>2017-02-28T21:22:46Z</time>
      </trkpt>
      <trkpt lat="44.12541" lon="3.48238">
        <ele>1186</ele>
        <time>2017-02-28T21:24:46Z</time>
      </trkpt>
      <trkpt lat="44.12547" lon="3.48226">
        <ele>1185</ele>
        <time>2017-02-28T21:26:46Z</time>
      </trkpt>
      <trkpt lat="44.12554" lon="3.48218">
        <ele>1184</ele>
        <time>2017-02-28T21:28:46Z</time>
      </trkpt>
      <trkpt lat="44.12562" lon="3.48212">
        <ele>1184</ele>
        <time>2017-02-28T21:30:46Z</time>
      </trkpt>
      <trkpt lat="44.12582" lon="3.48203">
        <ele>1185</ele>
        <time>2017-02-28T21:32:46Z</time>
      </trkpt>
      <trkpt lat="44.12604" lon="3.48194">
        <ele>1186</ele>
        <time>2017-02-28T21:34:46Z</time>
      </trkpt>
      <trkpt lat="44.1265" lon="3.48179">
        <ele>1188</ele>
        <time>2017-02-28T21:36:46Z</time>
      </trkpt>
      <trkpt lat="44.12663" lon="3.48175">
        <ele>1189</ele>
        <time>2017-02-28T21:38:46Z</time>
      </trkpt>
      <trkpt lat="44.12672" lon="3.48174">
        <ele>1189</ele>
        <time>2017-02-28T21:40:46Z</time>
      </trkpt>
      <trkpt lat="44.12692" lon="3.48176">
        <ele>1189</ele>
        <time>2017-02-28T21:42:46Z</time>
      </trkpt>
      <trkpt lat="44.12709" lon="3.48179">
        <ele>1190</ele>
        <time>2017-02-28T21:44:46Z</time>
      </trkpt>
      <trkpt lat="44.12723" lon="3.48182">
        <ele>1191</ele>
        <time>2017-02-28T21:46:46Z</time>
      </trkpt>
      <trkpt lat="44.12734" lon="3.48189">
        <ele>1193</ele>
        <time>2017-02-28T21:48:46Z</time>
      </trkpt>
      <trkpt lat="44.12746" lon="3.48199">
        <ele>1195</ele>
        <time>2017-02-28T21:50:46Z</time>
      </trkpt>
      <trkpt lat="44.12757" lon="3.48211">
        <ele>1198</ele>
        <time>2017-02-28T21:52:46Z</time>
      </trkpt>
      <trkpt lat="44.12765" lon="3.48222">
        <ele>1200</ele>
        <time>2017-02-28T21:54:46Z</time>
      </trkpt>
      <trkpt lat="44.12771" lon="3.4823">
        <ele>1202</ele>
        <time>2017-02-28T21:56:46Z</time>
      </trkpt>
      <trkpt lat="44.12778" lon="3.48235">
        <ele>1202</ele>
        <time>2017-02-28T21:58:46Z</time>
      </trkpt>
      <trkpt lat="44.12791" lon="3.48242">
        <ele>1203</ele>
        <time>2017-02-28T22:00:46Z</time>
      </trkpt>
      <trkpt lat="44.12811" lon="3.48252">
        <ele>1204</ele>
        <time>2017-02-28T22:02:46Z</time>
      </trkpt>
      <trkpt lat="44.12823" lon="3.48257">
        <ele>1204</ele>
        <time>2017-02-28T22:04:46Z</time>
      </trkpt>
      <trkpt lat="44.12836" lon="3.48261">
        <ele>1204</ele>
        <time>2017-02-28T22:06:46Z</time>
      </trkpt>
      <trkpt lat="44.12845" lon="3.48265">
        <ele>1205</ele>
        <time>2017-02-28T22:08:46Z</time>
      </trkpt>
      <trkpt lat="44.12856" lon="3.48271">
        <ele>1206</ele>
        <time>2017-02-28T22:10:46Z</time>
      </trkpt>
      <trkpt lat="44.12864" lon="3.48279">
        <ele>1207</ele>
        <time>2017-02-28T22:12:46Z</time>
      </trkpt>
      <trkpt lat="44.12872" lon="3.4829">
        <ele>1207</ele>
        <time>2017-02-28T22:14:46Z</time>
      </trkpt>
      <trkpt lat="44.12877" lon="3.483">
        <ele>1207</ele>
        <time>2017-02-28T22:16:46Z</time>
      </trkpt>
      <trkpt lat="44.1288" lon="3.4831">
        <ele>1207</ele>
        <time>2017-02-28T22:18:46Z</time>
      </trkpt>
      <trkpt lat="44.12879" lon="3.48321">
        <ele>1207</ele>
        <time>2017-02-28T22:20:46Z</time>
      </trkpt>
      <trkpt lat="44.12873" lon="3.48342">
        <ele>1208</ele>
        <time>2017-02-28T22:22:46Z</time>
      </trkpt>
      <trkpt lat="44.1286" lon="3.48375">
        <ele>1210</ele>
        <time>2017-02-28T22:24:46Z</time>
      </trkpt>
      <trkpt lat="44.12851" lon="3.48399">
        <ele>1212</ele>
        <time>2017-02-28T22:26:46Z</time>
      </trkpt>
      <trkpt lat="44.12846" lon="3.48413">
        <ele>1213</ele>
        <time>2017-02-28T22:28:46Z</time>
      </trkpt>
      <trkpt lat="44.12845" lon="3.48425">
        <ele>1214</ele>
        <time>2017-02-28T22:30:46Z</time>
      </trkpt>
      <trkpt lat="44.12845" lon="3.4844">
        <ele>1215</ele>
        <time>2017-02-28T22:32:46Z</time>
      </trkpt>
      <trkpt lat="44.12845" lon="3.48446">
        <ele>1215</ele>
        <time>2017-02-28T22:34:46Z</time>
      </trkpt>
      <trkpt lat="44.12854" lon="3.48466">
        <ele>1215</ele>
        <time>2017-02-28T22:36:46Z</time>
      </trkpt>
      <trkpt lat="44.12863" lon="3.4848">
        <ele>1215</ele>
        <time>2017-02-28T22:38:46Z</time>
      </trkpt>
      <trkpt lat="44.12871" lon="3.48483">
        <ele>1214</ele>
        <time>2017-02-28T22:40:46Z</time>
      </trkpt>
      <trkpt lat="44.12884" lon="3.48484">
        <ele>1213</ele>
        <time>2017-02-28T22:42:46Z</time>
      </trkpt>
      <trkpt lat="44.12904" lon="3.48478">
        <ele>1210</ele>
        <time>2017-02-28T22:44:46Z</time>
      </trkpt>
      <trkpt lat="44.12925" lon="3.48477">
        <ele>1207</ele>
        <time>2017-02-28T22:46:46Z</time>
      </trkpt>
      <trkpt lat="44.12976" lon="3.48481">
        <ele>1197</ele>
        <time>2017-02-28T22:48:46Z</time>
      </trkpt>
      <trkpt lat="44.12983" lon="3.48483">
        <ele>1195</ele>
        <time>2017-02-28T22:50:46Z</time>
      </trkpt>
      <trkpt lat="44.12996" lon="3.48492">
        <ele>1194</ele>
        <time>2017-02-28T22:52:46Z</time>
      </trkpt>
      <trkpt lat="44.1302" lon="3.48512">
        <ele>1191</ele>
        <time>2017-02-28T22:54:46Z</time>
      </trkpt>
      <trkpt lat="44.13045" lon="3.48538">
        <ele>1191</ele>
        <time>2017-02-28T22:56:46Z</time>
      </trkpt>
      <trkpt lat="44.13064" lon="3.48553">
        <ele>1189</ele>
        <time>2017-02-28T22:58:46Z</time>
      </trkpt>
      <trkpt lat="44.13083" lon="3.48564">
        <ele>1187</ele>
        <time>2017-02-28T23:00:46Z</time>
      </trkpt>
      <trkpt lat="44.13111" lon="3.48579">
        <ele>1191</ele>
        <time>2017-02-28T23:02:46Z</time>
      </trkpt>
      <trkpt lat="44.13122" lon="3.48584">
        <ele>1192</ele>
        <time>2017-02-28T23:04:46Z</time>
      </trkpt>
      <trkpt lat="44.13129" lon="3.48584">
        <ele>1192</ele>
        <time>2017-02-28T23:06:46Z</time>
      </trkpt>
      <trkpt lat="44.13134" lon="3.4858">
        <ele>1191</ele>
        <time>2017-02-28T23:08:46Z</time>
      </trkpt>
      <trkpt lat="44.13152" lon="3.48565">
        <ele>1187</ele>
        <time>2017-02-28T23:10:46Z</time>
      </trkpt>
      <trkpt lat="44.13167" lon="3.48553">
        <ele>1184</ele>
        <time>2017-02-28T23:12:46Z</time>
      </trkpt>
      <trkpt lat="44.13188" lon="3.48542">
        <ele>1182</ele>
        <time>2017-02-28T23:14:46Z</time>
      </trkpt>
      <trkpt lat="44.1321" lon="3.48536">
        <ele>1182</ele>
        <time>2017-02-28T23:16:46Z</time>
      </trkpt>
      <trkpt lat="44.13233" lon="3.4853">
        <ele>1182</ele>
        <time>2017-02-28T23:18:46Z</time>
      </trkpt>
      <trkpt lat="44.13246" lon="3.48529">
        <ele>1182</ele>
        <time>2017-02-28T23:20:46Z</time>
      </trkpt>
      <trkpt lat="44.1326" lon="3.48531">
        <ele>1184</ele>
        <time>2017-02-28T23:22:46Z</time>
      </trkpt>
      <trkpt lat="44.1327" lon="3.48534">
        <ele>1186</ele>
        <time>2017-02-28T23:24:46Z</time>
      </trkpt>
      <trkpt lat="44.1328" lon="3.48535">
        <ele>1187</ele>
        <time>2017-02-28T23:26:46Z</time>
      </trkpt>
      <trkpt lat="44.13289" lon="3.48535">
        <ele>1187</ele>
        <time>2017-02-28T23:28:46Z</time>
      </trkpt>
      <trkpt lat="44.133" lon="3.48532">
        <ele>1186</ele>
        <time>2017-02-28T23:30:46Z</time>
      </trkpt>
      <trkpt lat="44.13344" lon="3.48516">
        <ele>1181</ele>
        <time>2017-02-28T23:32:46Z</time>
      </trkpt>
      <trkpt lat="44.13365" lon="3.48514">
        <ele>1178</ele>
        <time>2017-02-28T23:34:46Z</time>
      </trkpt>
      <trkpt lat="44.13389" lon="3.48519">
        <ele>1177</ele>
        <time>2017-02-28T23:36:46Z</time>
      </trkpt>
      <trkpt lat="44.13401" lon="3.48523">
        <ele>1177</ele>
        <time>2017-02-28T23:38:46Z</time>
      </trkpt>
      <trkpt lat="44.13412" lon="3.48529">
        <ele>1177</ele>
        <time>2017-02-28T23:40:46Z</time>
      </trkpt>
      <trkpt lat="44.1342" lon="3.48536">
        <ele>1178</ele>
        <time>2017-02-28T23:42:46Z</time>
      </trkpt>
      <trkpt lat="44.13428" lon="3.48543">
        <ele>1178</ele>
        <time>2017-02-28T23:44:46Z</time>
      </trkpt>
      <trkpt lat="44.13435" lon="3.48545">
        <ele>1178</ele>
        <time>2017-02-28T23:46:46Z</time>
      </trkpt>
      <trkpt lat="44.13448" lon="3.48543">
        <ele>1176</ele>
        <time>2017-02-28T23:48:46Z</time>
      </trkpt>
      <trkpt lat="44.13458" lon="3.48543">
        <ele>1175</ele>
        <time>2017-02-28T23:50:46Z</time>
      </trkpt>
      <trkpt lat="44.13466" lon="3.48546">
        <ele>1174</ele>
        <time>2017-02-28T23:52:46Z</time>
      </trkpt>
      <trkpt lat="44.13471" lon="3.48551">
        <ele>1174</ele>
        <time>2017-02-28T23:54:46Z</time>
      </trkpt>
      <trkpt lat="44.13473" lon="3.48557">
        <ele>1174</ele>
        <time>2017-02-28T23:56:46Z</time>
      </trkpt>
      <trkpt lat="44.13474" lon="3.48569">
        <ele>1175</ele>
        <time>2017-02-28T23:58:46Z</time>
      </trkpt>
      <trkpt lat="44.13472" lon="3.48581">
        <ele>1176</ele>
        <time>2017-03-01T00:00:46Z</time>
      </trkpt>
      <trkpt lat="44.1347" lon="3.48594">
        <ele>1177</ele>
        <time>2017-03-01T00:02:46Z</time>
      </trkpt>
      <trkpt lat="44.13467" lon="3.48612">
        <ele>1178</ele>
        <time>2017-03-01T00:04:46Z</time>
      </trkpt>
      <trkpt lat="44.1346" lon="3.4861">
        <ele>1180</ele>
        <time>2017-03-01T00:06:46Z</time>
      </trkpt>
      <trkpt lat="44.13467" lon="3.48612">
        <ele>1178</ele>
        <time>2017-03-01T00:08:46Z</time>
      </trkpt>
      <trkpt lat="44.13464" lon="3.48624">
        <ele>1179</ele>
        <time>2017-03-01T00:10:46Z</time>
      </trkpt>
      <trkpt lat="44.13461" lon="3.48649">
        <ele>1181</ele>
        <time>2017-03-01T00:12:46Z</time>
      </trkpt>
      <trkpt lat="44.1346" lon="3.48667">
        <ele>1182</ele>
        <time>2017-03-01T00:14:46Z</time>
      </trkpt>
      <trkpt lat="44.1346" lon="3.48683">
        <ele>1182</ele>
        <time>2017-03-01T00:16:46Z</time>
      </trkpt>
      <trkpt lat="44.13465" lon="3.48718">
        <ele>1181</ele>
        <time>2017-03-01T00:18:46Z</time>
      </trkpt>
      <trkpt lat="44.13468" lon="3.48744">
        <ele>1179</ele>
        <time>2017-03-01T00:20:46Z</time>
      </trkpt>
      <trkpt lat="44.13472" lon="3.48783">
        <ele>1180</ele>
        <time>2017-03-01T00:22:46Z</time>
      </trkpt>
      <trkpt lat="44.13478" lon="3.48815">
        <ele>1180</ele>
        <time>2017-03-01T00:24:46Z</time>
      </trkpt>
      <trkpt lat="44.13482" lon="3.48835">
        <ele>1180</ele>
        <time>2017-03-01T00:26:46Z</time>
      </trkpt>
      <trkpt lat="44.13484" lon="3.48865">
        <ele>1183</ele>
        <time>2017-03-01T00:28:46Z</time>
      </trkpt>
      <trkpt lat="44.13488" lon="3.48894">
        <ele>1186</ele>
        <time>2017-03-01T00:30:46Z</time>
      </trkpt>
      <trkpt lat="44.13491" lon="3.48908">
        <ele>1187</ele>
        <time>2017-03-01T00:32:46Z</time>
      </trkpt>
      <trkpt lat="44.13495" lon="3.48917">
        <ele>1187</ele>
        <time>2017-03-01T00:34:46Z</time>
      </trkpt>
      <trkpt lat="44.135" lon="3.48921">
        <ele>1186</ele>
        <time>2017-03-01T00:36:46Z</time>
      </trkpt>
      <trkpt lat="44.13544" lon="3.48943">
        <ele>1181</ele>
        <time>2017-03-01T00:38:46Z</time>
      </trkpt>
      <trkpt lat="44.13563" lon="3.4896">
        <ele>1180</ele>
        <time>2017-03-01T00:40:46Z</time>
      </trkpt>
      <trkpt lat="44.13582" lon="3.48985">
        <ele>1181</ele>
        <time>2017-03-01T00:42:46Z</time>
      </trkpt>
      <trkpt lat="44.1359" lon="3.49">
        <ele>1182</ele>
        <time>2017-03-01T00:44:46Z</time>
      </trkpt>
      <trkpt lat="44.13594" lon="3.49012">
        <ele>1181</ele>
        <time>2017-03-01T00:46:46Z</time>
      </trkpt>
      <trkpt lat="44.13597" lon="3.49032">
        <ele>1181</ele>
        <time>2017-03-01T00:48:46Z</time>
      </trkpt>
      <trkpt lat="44.13596" lon="3.49052">
        <ele>1182</ele>
        <time>2017-03-01T00:50:46Z</time>
      </trkpt>
      <trkpt lat="44.13593" lon="3.4907">
        <ele>1184</ele>
        <time>2017-03-01T00:52:46Z</time>
      </trkpt>
      <trkpt lat="44.13588" lon="3.49081">
        <ele>1186</ele>
        <time>2017-03-01T00:54:46Z</time>
      </trkpt>
      <trkpt lat="44.13573" lon="3.49099">
        <ele>1190</ele>
        <time>2017-03-01T00:56:46Z</time>
      </trkpt>
      <trkpt lat="44.13567" lon="3.4911">
        <ele>1191</ele>
        <time>2017-03-01T00:58:46Z</time>
      </trkpt>
      <trkpt lat="44.13556" lon="3.49128">
        <ele>1193</ele>
        <time>2017-03-01T01:00:46Z</time>
      </trkpt>
      <trkpt lat="44.13548" lon="3.49137">
        <ele>1195</ele>
        <time>2017-03-01T01:02:46Z</time>
      </trkpt>
      <trkpt lat="44.13533" lon="3.49147">
        <ele>1199</ele>
        <time>2017-03-01T01:04:46Z</time>
      </trkpt>
      <trkpt lat="44.13517" lon="3.49161">
        <ele>1203</ele>
        <time>2017-03-01T01:06:46Z</time>
      </trkpt>
      <trkpt lat="44.13508" lon="3.49169">
        <ele>1206</ele>
        <time>2017-03-01T01:08:46Z</time>
      </trkpt>
      <trkpt lat="44.13505" lon="3.49176">
        <ele>1208</ele>
        <time>2017-03-01T01:10:46Z</time>
      </trkpt>
      <trkpt lat="44.13504" lon="3.49184">
        <ele>1209</ele>
        <time>2017-03-01T01:12:46Z</time>
      </trkpt>
      <trkpt lat="44.13505" lon="3.49191">
        <ele>1210</ele>
        <time>2017-03-01T01:14:46Z</time>
      </trkpt>
      <trkpt lat="44.13509" lon="3.49198">
        <ele>1210</ele>
        <time>2017-03-01T01:16:46Z</time>
      </trkpt>
      <trkpt lat="44.13518" lon="3.49211">
        <ele>1209</ele>
        <time>2017-03-01T01:18:46Z</time>
      </trkpt>
      <trkpt lat="44.13526" lon="3.4923">
        <ele>1210</ele>
        <time>2017-03-01T01:20:46Z</time>
      </trkpt>
      <trkpt lat="44.13537" lon="3.49254">
        <ele>1211</ele>
        <time>2017-03-01T01:22:46Z</time>
      </trkpt>
      <trkpt lat="44.13544" lon="3.4926">
        <ele>1211</ele>
        <time>2017-03-01T01:24:46Z</time>
      </trkpt>
      <trkpt lat="44.1355" lon="3.49262">
        <ele>1210</ele>
        <time>2017-03-01T01:26:46Z</time>
      </trkpt>
      <trkpt lat="44.13557" lon="3.49261">
        <ele>1208</ele>
        <time>2017-03-01T01:28:46Z</time>
      </trkpt>
      <trkpt lat="44.13574" lon="3.49253">
        <ele>1202</ele>
        <time>2017-03-01T01:30:46Z</time>
      </trkpt>
      <trkpt lat="44.13584" lon="3.49253">
        <ele>1200</ele>
        <time>2017-03-01T01:32:46Z</time>
      </trkpt>
      <trkpt lat="44.13593" lon="3.49256">
        <ele>1198</ele>
        <time>2017-03-01T01:34:46Z</time>
      </trkpt>
      <trkpt lat="44.13601" lon="3.49263">
        <ele>1198</ele>
        <time>2017-03-01T01:36:46Z</time>
      </trkpt>
      <trkpt lat="44.13609" lon="3.49278">
        <ele>1200</ele>
        <time>2017-03-01T01:38:46Z</time>
      </trkpt>
      <trkpt lat="44.13625" lon="3.49308">
        <ele>1204</ele>
        <time>2017-03-01T01:40:46Z</time>
      </trkpt>
      <trkpt lat="44.13643" lon="3.49328">
        <ele>1205</ele>
        <time>2017-03-01T01:42:46Z</time>
      </trkpt>
      <trkpt lat="44.1366" lon="3.49346">
        <ele>1205</ele>
        <time>2017-03-01T01:44:46Z</time>
      </trkpt>
      <trkpt lat="44.1368" lon="3.4937">
        <ele>1204</ele>
        <time>2017-03-01T01:46:46Z</time>
      </trkpt>
      <trkpt lat="44.13696" lon="3.49395">
        <ele>1204</ele>
        <time>2017-03-01T01:48:46Z</time>
      </trkpt>
      <trkpt lat="44.13704" lon="3.49414">
        <ele>1205</ele>
        <time>2017-03-01T01:50:46Z</time>
      </trkpt>
      <trkpt lat="44.13709" lon="3.49427">
        <ele>1205</ele>
        <time>2017-03-01T01:52:46Z</time>
      </trkpt>
      <trkpt lat="44.1371" lon="3.49447">
        <ele>1206</ele>
        <time>2017-03-01T01:54:46Z</time>
      </trkpt>
      <trkpt lat="44.13709" lon="3.49481">
        <ele>1209</ele>
        <time>2017-03-01T01:56:46Z</time>
      </trkpt>
      <trkpt lat="44.13707" lon="3.49531">
        <ele>1211</ele>
        <time>2017-03-01T01:58:46Z</time>
      </trkpt>
      <trkpt lat="44.13707" lon="3.49591">
        <ele>1211</ele>
        <time>2017-03-01T02:00:46Z</time>
      </trkpt>
      <trkpt lat="44.13706" lon="3.49644">
        <ele>1212</ele>
        <time>2017-03-01T02:02:46Z</time>
      </trkpt>
      <trkpt lat="44.13704" lon="3.49688">
        <ele>1213</ele>
        <time>2017-03-01T02:04:46Z</time>
      </trkpt>
      <trkpt lat="44.137" lon="3.49725">
        <ele>1215</ele>
        <time>2017-03-01T02:06:46Z</time>
      </trkpt>
      <trkpt lat="44.13693" lon="3.49766">
        <ele>1216</ele>
        <time>2017-03-01T02:08:46Z</time>
      </trkpt>
      <trkpt lat="44.1369" lon="3.49782">
        <ele>1215</ele>
        <time>2017-03-01T02:10:46Z</time>
      </trkpt>
      <trkpt lat="44.13684" lon="3.49795">
        <ele>1216</ele>
        <time>2017-03-01T02:12:46Z</time>
      </trkpt>
      <trkpt lat="44.1367" lon="3.49823">
        <ele>1218</ele>
        <time>2017-03-01T02:14:46Z</time>
      </trkpt>
      <trkpt lat="44.1366" lon="3.49839">
        <ele>1218</ele>
        <time>2017-03-01T02:16:46Z</time>
      </trkpt>
      <trkpt lat="44.13648" lon="3.49854">
        <ele>1217</ele>
        <time>2017-03-01T02:18:46Z</time>
      </trkpt>
      <trkpt lat="44.13633" lon="3.49868">
        <ele>1216</ele>
        <time>2017-03-01T02:20:46Z</time>
      </trkpt>
      <trkpt lat="44.13618" lon="3.4988">
        <ele>1216</ele>
        <time>2017-03-01T02:22:46Z</time>
      </trkpt>
      <trkpt lat="44.13614" lon="3.49883">
        <ele>1216</ele>
        <time>2017-03-01T02:24:46Z</time>
      </trkpt>
      <trkpt lat="44.1363" lon="3.49936">
        <ele>1193</ele>
        <time>2017-03-01T02:26:46Z</time>
      </trkpt>
      <trkpt lat="44.13614" lon="3.49883">
        <ele>1216</ele>
        <time>2017-03-01T02:28:46Z</time>
      </trkpt>
      <trkpt lat="44.13606" lon="3.49888">
        <ele>1216</ele>
        <time>2017-03-01T02:30:46Z</time>
      </trkpt>
      <trkpt lat="44.13596" lon="3.4989">
        <ele>1218</ele>
        <time>2017-03-01T02:32:46Z</time>
      </trkpt>
      <trkpt lat="44.13581" lon="3.49891">
        <ele>1221</ele>
        <time>2017-03-01T02:34:46Z</time>
      </trkpt>
      <trkpt lat="44.13566" lon="3.49888">
        <ele>1224</ele>
        <time>2017-03-01T02:36:46Z</time>
      </trkpt>
      <trkpt lat="44.13553" lon="3.49888">
        <ele>1226</ele>
        <time>2017-03-01T02:38:46Z</time>
      </trkpt>
      <trkpt lat="44.1354" lon="3.49889">
        <ele>1228</ele>
        <time>2017-03-01T02:40:46Z</time>
      </trkpt>
      <trkpt lat="44.13521" lon="3.49893">
        <ele>1229</ele>
        <time>2017-03-01T02:42:46Z</time>
      </trkpt>
      <trkpt lat="44.135" lon="3.49902">
        <ele>1229</ele>
        <time>2017-03-01T02:44:46Z</time>
      </trkpt>
      <trkpt lat="44.13473" lon="3.49919">
        <ele>1230</ele>
        <time>2017-03-01T02:46:46Z</time>
      </trkpt>
      <trkpt lat="44.13448" lon="3.49938">
        <ele>1230</ele>
        <time>2017-03-01T02:48:46Z</time>
      </trkpt>
      <trkpt lat="44.1343" lon="3.4995">
        <ele>1231</ele>
        <time>2017-03-01T02:50:46Z</time>
      </trkpt>
      <trkpt lat="44.13412" lon="3.49956">
        <ele>1233</ele>
        <time>2017-03-01T02:52:46Z</time>
      </trkpt>
      <trkpt lat="44.13387" lon="3.4996">
        <ele>1236</ele>
        <time>2017-03-01T02:54:46Z</time>
      </trkpt>
      <trkpt lat="44.13357" lon="3.49963">
        <ele>1239</ele>
        <time>2017-03-01T02:56:46Z</time>
      </trkpt>
      <trkpt lat="44.13324" lon="3.49965">
        <ele>1243</ele>
        <time>2017-03-01T02:58:46Z</time>
      </trkpt>
      <trkpt lat="44.13294" lon="3.49972">
        <ele>1246</ele>
        <time>2017-03-01T03:00:46Z</time>
      </trkpt>
      <trkpt lat="44.13258" lon="3.49985">
        <ele>1249</ele>
        <time>2017-03-01T03:02:46Z</time>
      </trkpt>
      <trkpt lat="44.13242" lon="3.49993">
        <ele>1251</ele>
        <time>2017-03-01T03:04:46Z</time>
      </trkpt>
      <trkpt lat="44.13236" lon="3.50001">
        <ele>1251</ele>
        <time>2017-03-01T03:06:46Z</time>
      </trkpt>
      <trkpt lat="44.13231" lon="3.50015">
        <ele>1250</ele>
        <time>2017-03-01T03:08:46Z</time>
      </trkpt>
      <trkpt lat="44.13226" lon="3.50034">
        <ele>1248</ele>
        <time>2017-03-01T03:10:46Z</time>
      </trkpt>
      <trkpt lat="44.13216" lon="3.50058">
        <ele>1247</ele>
        <time>2017-03-01T03:12:46Z</time>
      </trkpt>
      <trkpt lat="44.13205" lon="3.50079">
        <ele>1246</ele>
        <time>2017-03-01T03:14:46Z</time>
      </trkpt>
      <trkpt lat="44.13196" lon="3.50093">
        <ele>1247</ele>
        <time>2017-03-01T03:16:46Z</time>
      </trkpt>
      <trkpt lat="44.1319" lon="3.501">
        <ele>1247</ele>
        <time>2017-03-01T03:18:46Z</time>
      </trkpt>
      <trkpt lat="44.1318" lon="3.50109">
        <ele>1249</ele>
        <time>2017-03-01T03:20:46Z</time>
      </trkpt>
      <trkpt lat="44.13167" lon="3.50116">
        <ele>1253</ele>
        <time>2017-03-01T03:22:46Z</time>
      </trkpt>
      <trkpt lat="44.13153" lon="3.50123">
        <ele>1258</ele>
        <time>2017-03-01T03:24:46Z</time>
      </trkpt>
      <trkpt lat="44.13146" lon="3.50129">
        <ele>1260</ele>
        <time>2017-03-01T03:26:46Z</time>
      </trkpt>
      <trkpt lat="44.13143" lon="3.50135">
        <ele>1260</ele>
        <time>2017-03-01T03:28:46Z</time>
      </trkpt>
      <trkpt lat="44.13132" lon="3.50183">
        <ele>1258</ele>
        <time>2017-03-01T03:30:46Z</time>
      </trkpt>
      <trkpt lat="44.13129" lon="3.50206">
        <ele>1259</ele>
        <time>2017-03-01T03:32:46Z</time>
      </trkpt>
      <trkpt lat="44.13128" lon="3.50224">
        <ele>1259</ele>
        <time>2017-03-01T03:34:46Z</time>
      </trkpt>
      <trkpt lat="44.13129" lon="3.50243">
        <ele>1258</ele>
        <time>2017-03-01T03:36:46Z</time>
      </trkpt>
      <trkpt lat="44.13134" lon="3.5027">
        <ele>1256</ele>
        <time>2017-03-01T03:38:46Z</time>
      </trkpt>
      <trkpt lat="44.13139" lon="3.50288">
        <ele>1254</ele>
        <time>2017-03-01T03:40:46Z</time>
      </trkpt>
      <trkpt lat="44.13158" lon="3.50327">
        <ele>1251</ele>
        <time>2017-03-01T03:42:46Z</time>
      </trkpt>
      <trkpt lat="44.13166" lon="3.50347">
        <ele>1250</ele>
        <time>2017-03-01T03:44:46Z</time>
      </trkpt>
      <trkpt lat="44.13172" lon="3.50369">
        <ele>1248</ele>
        <time>2017-03-01T03:46:46Z</time>
      </trkpt>
      <trkpt lat="44.13174" lon="3.50384">
        <ele>1247</ele>
        <time>2017-03-01T03:48:46Z</time>
      </trkpt>
      <trkpt lat="44.13175" lon="3.50392">
        <ele>1246</ele>
        <time>2017-03-01T03:50:46Z</time>
      </trkpt>
      <trkpt lat="44.13175" lon="3.50397">
        <ele>1246</ele>
        <time>2017-03-01T03:52:46Z</time>
      </trkpt>
      <trkpt lat="44.13153" lon="3.50389">
        <ele>1250</ele>
        <time>2017-03-01T03:54:46Z</time>
      </trkpt>
      <trkpt lat="44.1313" lon="3.50381">
        <ele>1254</ele>
        <time>2017-03-01T03:56:46Z</time>
      </trkpt>
      <trkpt lat="44.13089" lon="3.50367">
        <ele>1262</ele>
        <time>2017-03-01T03:58:46Z</time>
      </trkpt>
      <trkpt lat="44.13042" lon="3.50356">
        <ele>1270</ele>
        <time>2017-03-01T04:00:46Z</time>
      </trkpt>
      <trkpt lat="44.12984" lon="3.50336">
        <ele>1280</ele>
        <time>2017-03-01T04:02:46Z</time>
      </trkpt>
      <trkpt lat="44.12941" lon="3.50321">
        <ele>1287</ele>
        <time>2017-03-01T04:04:46Z</time>
      </trkpt>
      <trkpt lat="44.12916" lon="3.50317">
        <ele>1289</ele>
        <time>2017-03-01T04:06:46Z</time>
      </trkpt>
      <trkpt lat="44.12901" lon="3.50318">
        <ele>1292</ele>
        <time>2017-03-01T04:08:46Z</time>
      </trkpt>
      <trkpt lat="44.12892" lon="3.50321">
        <ele>1293</ele>
        <time>2017-03-01T04:10:46Z</time>
      </trkpt>
      <trkpt lat="44.12886" lon="3.50324">
        <ele>1294</ele>
        <time>2017-03-01T04:12:46Z</time>
      </trkpt>
      <trkpt lat="44.12881" lon="3.50332">
        <ele>1293</ele>
        <time>2017-03-01T04:14:46Z</time>
      </trkpt>
      <trkpt lat="44.12862" lon="3.50357">
        <ele>1295</ele>
        <time>2017-03-01T04:16:46Z</time>
      </trkpt>
      <trkpt lat="44.12841" lon="3.50383">
        <ele>1296</ele>
        <time>2017-03-01T04:18:46Z</time>
      </trkpt>
      <trkpt lat="44.12812" lon="3.50415">
        <ele>1298</ele>
        <time>2017-03-01T04:20:46Z</time>
      </trkpt>
      <trkpt lat="44.1279" lon="3.50443">
        <ele>1301</ele>
        <time>2017-03-01T04:22:46Z</time>
      </trkpt>
      <trkpt lat="44.12766" lon="3.50468">
        <ele>1303</ele>
        <time>2017-03-01T04:24:46Z</time>
      </trkpt>
      <trkpt lat="44.12752" lon="3.50484">
        <ele>1304</ele>
        <time>2017-03-01T04:26:46Z</time>
      </trkpt>
      <trkpt lat="44.12742" lon="3.50505">
        <ele>1304</ele>
        <time>2017-03-01T04:28:46Z</time>
      </trkpt>
      <trkpt lat="44.12738" lon="3.50518">
        <ele>1305</ele>
        <time>2017-03-01T04:30:46Z</time>
      </trkpt>
      <trkpt lat="44.12742" lon="3.50505">
        <ele>1304</ele>
        <time>2017-03-01T04:32:46Z</time>
      </trkpt>
      <trkpt lat="44.12738" lon="3.50519">
        <ele>1305</ele>
        <time>2017-03-01T04:34:46Z</time>
      </trkpt>
      <trkpt lat="44.12738" lon="3.50533">
        <ele>1306</ele>
        <time>2017-03-01T04:36:46Z</time>
      </trkpt>
      <trkpt lat="44.12745" lon="3.50546">
        <ele>1306</ele>
        <time>2017-03-01T04:38:46Z</time>
      </trkpt>
      <trkpt lat="44.1276" lon="3.50575">
        <ele>1305</ele>
        <time>2017-03-01T04:40:46Z</time>
      </trkpt>
      <trkpt lat="44.12769" lon="3.50597">
        <ele>1307</ele>
        <time>2017-03-01T04:42:46Z</time>
      </trkpt>
      <trkpt lat="44.12773" lon="3.50622">
        <ele>1310</ele>
        <time>2017-03-01T04:44:46Z</time>
      </trkpt>
      <trkpt lat="44.12775" lon="3.50629">
        <ele>1311</ele>
        <time>2017-03-01T04:46:46Z</time>
      </trkpt>
      <trkpt lat="44.12778" lon="3.50633">
        <ele>1311</ele>
        <time>2017-03-01T04:48:46Z</time>
      </trkpt>
      <trkpt lat="44.12786" lon="3.50639">
        <ele>1312</ele>
        <time>2017-03-01T04:50:46Z</time>
      </trkpt>
      <trkpt lat="44.12796" lon="3.50646">
        <ele>1312</ele>
        <time>2017-03-01T04:52:46Z</time>
      </trkpt>
      <trkpt lat="44.12802" lon="3.50646">
        <ele>1312</ele>
        <time>2017-03-01T04:54:46Z</time>
      </trkpt>
      <trkpt lat="44.12809" lon="3.50643">
        <ele>1311</ele>
        <time>2017-03-01T04:56:46Z</time>
      </trkpt>
      <trkpt lat="44.1282" lon="3.5063">
        <ele>1308</ele>
        <time>2017-03-01T04:58:46Z</time>
      </trkpt>
      <trkpt lat="44.12836" lon="3.50614">
        <ele>1304</ele>
        <time>2017-03-01T05:00:46Z</time>
      </trkpt>
      <trkpt lat="44.12856" lon="3.50602">
        <ele>1302</ele>
        <time>2017-03-01T05:02:46Z</time>
      </trkpt>
      <trkpt lat="44.12866" lon="3.50602">
        <ele>1303</ele>
        <time>2017-03-01T05:04:46Z</time>
      </trkpt>
      <trkpt lat="44.12877" lon="3.50607">
        <ele>1304</ele>
        <time>2017-03-01T05:06:46Z</time>
      </trkpt>
      <trkpt lat="44.12887" lon="3.50614">
        <ele>1306</ele>
        <time>2017-03-01T05:08:46Z</time>
      </trkpt>
      <trkpt lat="44.12904" lon="3.50633">
        <ele>1309</ele>
        <time>2017-03-01T05:10:46Z</time>
      </trkpt>
      <trkpt lat="44.1291" lon="3.50643">
        <ele>1311</ele>
        <time>2017-03-01T05:12:46Z</time>
      </trkpt>
      <trkpt lat="44.12914" lon="3.50655">
        <ele>1313</ele>
        <time>2017-03-01T05:14:46Z</time>
      </trkpt>
      <trkpt lat="44.12918" lon="3.50672">
        <ele>1315</ele>
        <time>2017-03-01T05:16:46Z</time>
      </trkpt>
      <trkpt lat="44.12926" lon="3.50698">
        <ele>1316</ele>
        <time>2017-03-01T05:18:46Z</time>
      </trkpt>
      <trkpt lat="44.12939" lon="3.50734">
        <ele>1316</ele>
        <time>2017-03-01T05:20:46Z</time>
      </trkpt>
      <trkpt lat="44.12956" lon="3.50774">
        <ele>1314</ele>
        <time>2017-03-01T05:22:46Z</time>
      </trkpt>
      <trkpt lat="44.12965" lon="3.50809">
        <ele>1313</ele>
        <time>2017-03-01T05:24:46Z</time>
      </trkpt>
      <trkpt lat="44.12969" lon="3.50834">
        <ele>1313</ele>
        <time>2017-03-01T05:26:46Z</time>
      </trkpt>
      <trkpt lat="44.12969" lon="3.50851">
        <ele>1313</ele>
        <time>2017-03-01T05:28:46Z</time>
      </trkpt>
      <trkpt lat="44.12963" lon="3.5087">
        <ele>1315</ele>
        <time>2017-03-01T05:30:46Z</time>
      </trkpt>
      <trkpt lat="44.12955" lon="3.50905">
        <ele>1317</ele>
        <time>2017-03-01T05:32:46Z</time>
      </trkpt>
      <trkpt lat="44.12946" lon="3.50936">
        <ele>1317</ele>
        <time>2017-03-01T05:34:46Z</time>
      </trkpt>
      <trkpt lat="44.1294" lon="3.5095">
        <ele>1317</ele>
        <time>2017-03-01T05:36:46Z</time>
      </trkpt>
      <trkpt lat="44.12932" lon="3.50961">
        <ele>1318</ele>
        <time>2017-03-01T05:38:46Z</time>
      </trkpt>
      <trkpt lat="44.12904" lon="3.50987">
        <ele>1323</ele>
        <time>2017-03-01T05:40:46Z</time>
      </trkpt>
      <trkpt lat="44.12864" lon="3.51016">
        <ele>1324</ele>
        <time>2017-03-01T05:42:46Z</time>
      </trkpt>
      <trkpt lat="44.1283" lon="3.51033">
        <ele>1326</ele>
        <time>2017-03-01T05:44:46Z</time>
      </trkpt>
      <trkpt lat="44.12812" lon="3.51039">
        <ele>1327</ele>
        <time>2017-03-01T05:46:46Z</time>
      </trkpt>
      <trkpt lat="44.12789" lon="3.51042">
        <ele>1329</ele>
        <time>2017-03-01T05:48:46Z</time>
      </trkpt>
      <trkpt lat="44.12775" lon="3.51041">
        <ele>1331</ele>
        <time>2017-03-01T05:50:46Z</time>
      </trkpt>
      <trkpt lat="44.12764" lon="3.51037">
        <ele>1333</ele>
        <time>2017-03-01T05:52:46Z</time>
      </trkpt>
      <trkpt lat="44.12754" lon="3.51026">
        <ele>1336</ele>
        <time>2017-03-01T05:54:46Z</time>
      </trkpt>
      <trkpt lat="44.12746" lon="3.51011">
        <ele>1339</ele>
        <time>2017-03-01T05:56:46Z</time>
      </trkpt>
      <trkpt lat="44.12734" lon="3.50977">
        <ele>1342</ele>
        <time>2017-03-01T05:58:46Z</time>
      </trkpt>
      <trkpt lat="44.12725" lon="3.50957">
        <ele>1344</ele>
        <time>2017-03-01T06:00:46Z</time>
      </trkpt>
      <trkpt lat="44.12717" lon="3.50941">
        <ele>1345</ele>
        <time>2017-03-01T06:02:46Z</time>
      </trkpt>
      <trkpt lat="44.12696" lon="3.50899">
        <ele>1347</ele>
        <time>2017-03-01T06:04:46Z</time>
      </trkpt>
      <trkpt lat="44.12675" lon="3.50857">
        <ele>1348</ele>
        <time>2017-03-01T06:06:46Z</time>
      </trkpt>
      <trkpt lat="44.12664" lon="3.50832">
        <ele>1348</ele>
        <time>2017-03-01T06:08:46Z</time>
      </trkpt>
      <trkpt lat="44.12658" lon="3.50812">
        <ele>1346</ele>
        <time>2017-03-01T06:10:46Z</time>
      </trkpt>
      <trkpt lat="44.12655" lon="3.50809">
        <ele>1346</ele>
        <time>2017-03-01T06:12:46Z</time>
      </trkpt>
      <trkpt lat="44.12651" lon="3.50809">
        <ele>1346</ele>
        <time>2017-03-01T06:14:46Z</time>
      </trkpt>
      <trkpt lat="44.12648" lon="3.5081">
        <ele>1346</ele>
        <time>2017-03-01T06:16:46Z</time>
      </trkpt>
      <trkpt lat="44.12647" lon="3.50814">
        <ele>1346</ele>
        <time>2017-03-01T06:18:46Z</time>
      </trkpt>
      <trkpt lat="44.12647" lon="3.50821">
        <ele>1347</ele>
        <time>2017-03-01T06:20:46Z</time>
      </trkpt>
      <trkpt lat="44.12653" lon="3.50848">
        <ele>1349</ele>
        <time>2017-03-01T06:22:46Z</time>
      </trkpt>
      <trkpt lat="44.12655" lon="3.50872">
        <ele>1350</ele>
        <time>2017-03-01T06:24:46Z</time>
      </trkpt>
      <trkpt lat="44.12656" lon="3.50898">
        <ele>1352</ele>
        <time>2017-03-01T06:26:46Z</time>
      </trkpt>
      <trkpt lat="44.12652" lon="3.50933">
        <ele>1354</ele>
        <time>2017-03-01T06:28:46Z</time>
      </trkpt>
      <trkpt lat="44.12647" lon="3.50956">
        <ele>1355</ele>
        <time>2017-03-01T06:30:46Z</time>
      </trkpt>
      <trkpt lat="44.12638" lon="3.50974">
        <ele>1357</ele>
        <time>2017-03-01T06:32:46Z</time>
      </trkpt>
      <trkpt lat="44.12622" lon="3.51005">
        <ele>1360</ele>
        <time>2017-03-01T06:34:46Z</time>
      </trkpt>
      <trkpt lat="44.12614" lon="3.51021">
        <ele>1362</ele>
        <time>2017-03-01T06:36:46Z</time>
      </trkpt>
      <trkpt lat="44.12609" lon="3.51037">
        <ele>1363</ele>
        <time>2017-03-01T06:38:46Z</time>
      </trkpt>
      <trkpt lat="44.12603" lon="3.51059">
        <ele>1364</ele>
        <time>2017-03-01T06:40:46Z</time>
      </trkpt>
      <trkpt lat="44.12599" lon="3.51088">
        <ele>1366</ele>
        <time>2017-03-01T06:42:46Z</time>
      </trkpt>
      <trkpt lat="44.12596" lon="3.51114">
        <ele>1368</ele>
        <time>2017-03-01T06:44:46Z</time>
      </trkpt>
      <trkpt lat="44.12597" lon="3.51138">
        <ele>1370</ele>
        <time>2017-03-01T06:46:46Z</time>
      </trkpt>
      <trkpt lat="44.12594" lon="3.5117">
        <ele>1372</ele>
        <time>2017-03-01T06:48:46Z</time>
      </trkpt>
      <trkpt lat="44.12587" lon="3.51196">
        <ele>1374</ele>
        <time>2017-03-01T06:50:46Z</time>
      </trkpt>
      <trkpt lat="44.12573" lon="3.51237">
        <ele>1375</ele>
        <time>2017-03-01T06:52:46Z</time>
      </trkpt>
      <trkpt lat="44.12558" lon="3.51272">
        <ele>1377</ele>
        <time>2017-03-01T06:54:46Z</time>
      </trkpt>
      <trkpt lat="44.12543" lon="3.513">
        <ele>1380</ele>
        <time>2017-03-01T06:56:46Z</time>
      </trkpt>
      <trkpt lat="44.12529" lon="3.5133">
        <ele>1383</ele>
        <time>2017-03-01T06:58:46Z</time>
      </trkpt>
      <trkpt lat="44.12517" lon="3.51362">
        <ele>1386</ele>
        <time>2017-03-01T07:00:46Z</time>
      </trkpt>
      <trkpt lat="44.12506" lon="3.51402">
        <ele>1390</ele>
        <time>2017-03-01T07:02:46Z</time>
      </trkpt>
      <trkpt lat="44.12493" lon="3.51446">
        <ele>1393</ele>
        <time>2017-03-01T07:04:46Z</time>
      </trkpt>
      <trkpt lat="44.12477" lon="3.51486">
        <ele>1395</ele>
        <time>2017-03-01T07:06:46Z</time>
      </trkpt>
      <trkpt lat="44.12458" lon="3.51527">
        <ele>1399</ele>
        <time>2017-03-01T07:08:46Z</time>
      </trkpt>
      <trkpt lat="44.1244" lon="3.5156">
        <ele>1402</ele>
        <time>2017-03-01T07:10:46Z</time>
      </trkpt>
      <trkpt lat="44.12413" lon="3.51613">
        <ele>1407</ele>
        <time>2017-03-01T07:12:46Z</time>
      </trkpt>
      <trkpt lat="44.1239" lon="3.51666">
        <ele>1412</ele>
        <time>2017-03-01T07:14:46Z</time>
      </trkpt>
      <trkpt lat="44.12368" lon="3.51718">
        <ele>1416</ele>
        <time>2017-03-01T07:16:46Z</time>
      </trkpt>
      <trkpt lat="44.12351" lon="3.5177">
        <ele>1421</ele>
        <time>2017-03-01T07:18:46Z</time>
      </trkpt>
      <trkpt lat="44.12341" lon="3.51809">
        <ele>1424</ele>
        <time>2017-03-01T07:20:46Z</time>
      </trkpt>
      <trkpt lat="44.12339" lon="3.51843">
        <ele>1426</ele>
        <time>2017-03-01T07:22:46Z</time>
      </trkpt>
      <trkpt lat="44.12341" lon="3.51874">
        <ele>1429</ele>
        <time>2017-03-01T07:24:46Z</time>
      </trkpt>
      <trkpt lat="44.12348" lon="3.51918">
        <ele>1432</ele>
        <time>2017-03-01T07:26:46Z</time>
      </trkpt>
      <trkpt lat="44.12356" lon="3.51959">
        <ele>1434</ele>
        <time>2017-03-01T07:28:46Z</time>
      </trkpt>
      <trkpt lat="44.12364" lon="3.51986">
        <ele>1434</ele>
        <time>2017-03-01T07:30:46Z</time>
      </trkpt>
      <trkpt lat="44.12366" lon="3.52006">
        <ele>1435</ele>
        <time>2017-03-01T07:32:46Z</time>
      </trkpt>
      <trkpt lat="44.12366" lon="3.52014">
        <ele>1434</ele>
        <time>2017-03-01T07:34:46Z</time>
      </trkpt>
      <trkpt lat="44.12365" lon="3.52024">
        <ele>1434</ele>
        <time>2017-03-01T07:36:46Z</time>
      </trkpt>
      <trkpt lat="44.12362" lon="3.52041">
        <ele>1435</ele>
        <time>2017-03-01T07:38:46Z</time>
      </trkpt>
      <trkpt lat="44.12357" lon="3.52053">
        <ele>1435</ele>
        <time>2017-03-01T07:40:46Z</time>
      </trkpt>
      <trkpt lat="44.12347" lon="3.5207">
        <ele>1437</ele>
        <time>2017-03-01T07:42:46Z</time>
      </trkpt>
      <trkpt lat="44.12336" lon="3.52083">
        <ele>1439</ele>
        <time>2017-03-01T07:44:46Z</time>
      </trkpt>
      <trkpt lat="44.12319" lon="3.52104">
        <ele>1440</ele>
        <time>2017-03-01T07:46:46Z</time>
      </trkpt>
      <trkpt lat="44.12294" lon="3.52132">
        <ele>1441</ele>
        <time>2017-03-01T07:48:46Z</time>
      </trkpt>
      <trkpt lat="44.12273" lon="3.52162">
        <ele>1441</ele>
        <time>2017-03-01T07:50:46Z</time>
      </trkpt>
      <trkpt lat="44.12257" lon="3.52179">
        <ele>1442</ele>
        <time>2017-03-01T07:52:46Z</time>
      </trkpt>
      <trkpt lat="44.1224" lon="3.52193">
        <ele>1445</ele>
        <time>2017-03-01T07:54:46Z</time>
      </trkpt>
      <trkpt lat="44.12226" lon="3.52202">
        <ele>1448</ele>
        <time>2017-03-01T07:56:46Z</time>
      </trkpt>
      <trkpt lat="44.12216" lon="3.52208">
        <ele>1451</ele>
        <time>2017-03-01T07:58:46Z</time>
      </trkpt>
      <trkpt lat="44.12211" lon="3.52218">
        <ele>1451</ele>
        <time>2017-03-01T08:00:46Z</time>
      </trkpt>
      <trkpt lat="44.1221" lon="3.52227">
        <ele>1451</ele>
        <time>2017-03-01T08:02:46Z</time>
      </trkpt>
      <trkpt lat="44.12213" lon="3.52272">
        <ele>1449</ele>
        <time>2017-03-01T08:04:46Z</time>
      </trkpt>
      <trkpt lat="44.1222" lon="3.52311">
        <ele>1447</ele>
        <time>2017-03-01T08:06:46Z</time>
      </trkpt>
      <trkpt lat="44.12222" lon="3.52341">
        <ele>1447</ele>
        <time>2017-03-01T08:08:46Z</time>
      </trkpt>
      <trkpt lat="44.12223" lon="3.52391">
        <ele>1447</ele>
        <time>2017-03-01T08:10:46Z</time>
      </trkpt>
      <trkpt lat="44.12221" lon="3.52435">
        <ele>1447</ele>
        <time>2017-03-01T08:12:46Z</time>
      </trkpt>
      <trkpt lat="44.12215" lon="3.52485">
        <ele>1448</ele>
        <time>2017-03-01T08:14:46Z</time>
      </trkpt>
      <trkpt lat="44.12205" lon="3.52529">
        <ele>1451</ele>
        <time>2017-03-01T08:16:46Z</time>
      </trkpt>
      <trkpt lat="44.12195" lon="3.52568">
        <ele>1453</ele>
        <time>2017-03-01T08:18:46Z</time>
      </trkpt>
      <trkpt lat="44.12188" lon="3.52609">
        <ele>1454</ele>
        <time>2017-03-01T08:20:46Z</time>
      </trkpt>
      <trkpt lat="44.12181" lon="3.52666">
        <ele>1455</ele>
        <time>2017-03-01T08:22:46Z</time>
      </trkpt>
      <trkpt lat="44.12172" lon="3.52713">
        <ele>1455</ele>
        <time>2017-03-01T08:24:46Z</time>
      </trkpt>
      <trkpt lat="44.12161" lon="3.52759">
        <ele>1454</ele>
        <time>2017-03-01T08:26:46Z</time>
      </trkpt>
      <trkpt lat="44.12147" lon="3.52811">
        <ele>1458</ele>
        <time>2017-03-01T08:28:46Z</time>
      </trkpt>
      <trkpt lat="44.12138" lon="3.52839">
        <ele>1459</ele>
        <time>2017-03-01T08:30:46Z</time>
      </trkpt>
      <trkpt lat="44.12131" lon="3.52857">
        <ele>1460</ele>
        <time>2017-03-01T08:32:46Z</time>
      </trkpt>
      <trkpt lat="44.12127" lon="3.52871">
        <ele>1461</ele>
        <time>2017-03-01T08:34:46Z</time>
      </trkpt>
      <trkpt lat="44.12124" lon="3.52885">
        <ele>1461</ele>
        <time>2017-03-01T08:36:46Z</time>
      </trkpt>
      <trkpt lat="44.12121" lon="3.52907">
        <ele>1462</ele>
        <time>2017-03-01T08:38:46Z</time>
      </trkpt>
      <trkpt lat="44.12117" lon="3.52943">
        <ele>1462</ele>
        <time>2017-03-01T08:40:46Z</time>
      </trkpt>
      <trkpt lat="44.12112" lon="3.53022">
        <ele>1462</ele>
        <time>2017-03-01T08:42:46Z</time>
      </trkpt>
      <trkpt lat="44.12111" lon="3.53041">
        <ele>1461</ele>
        <time>2017-03-01T08:44:46Z</time>
      </trkpt>
      <trkpt lat="44.12112" lon="3.5306">
        <ele>1461</ele>
        <time>2017-03-01T08:46:46Z</time>
      </trkpt>
      <trkpt lat="44.12114" lon="3.53076">
        <ele>1461</ele>
        <time>2017-03-01T08:48:46Z</time>
      </trkpt>
      <trkpt lat="44.12117" lon="3.53096">
        <ele>1462</ele>
        <time>2017-03-01T08:50:46Z</time>
      </trkpt>
      <trkpt lat="44.12121" lon="3.53117">
        <ele>1462</ele>
        <time>2017-03-01T08:52:46Z</time>
      </trkpt>
      <trkpt lat="44.12124" lon="3.53133">
        <ele>1463</ele>
        <time>2017-03-01T08:54:46Z</time>
      </trkpt>
      <trkpt lat="44.12124" lon="3.53148">
        <ele>1463</ele>
        <time>2017-03-01T08:56:46Z</time>
      </trkpt>
      <trkpt lat="44.12123" lon="3.53169">
        <ele>1462</ele>
        <time>2017-03-01T08:58:46Z</time>
      </trkpt>
      <trkpt lat="44.1212" lon="3.53188">
        <ele>1462</ele>
        <time>2017-03-01T09:00:46Z</time>
      </trkpt>
      <trkpt lat="44.12116" lon="3.53209">
        <ele>1461</ele>
        <time>2017-03-01T09:02:46Z</time>
      </trkpt>
      <trkpt lat="44.12108" lon="3.53246">
        <ele>1460</ele>
        <time>2017-03-01T09:04:46Z</time>
      </trkpt>
      <trkpt lat="44.12105" lon="3.53268">
        <ele>1460</ele>
        <time>2017-03-01T09:06:46Z</time>
      </trkpt>
      <trkpt lat="44.12101" lon="3.53286">
        <ele>1459</ele>
        <time>2017-03-01T09:08:46Z</time>
      </trkpt>
      <trkpt lat="44.12098" lon="3.53307">
        <ele>1460</ele>
        <time>2017-03-01T09:10:46Z</time>
      </trkpt>
      <trkpt lat="44.12097" lon="3.53329">
        <ele>1460</ele>
        <time>2017-03-01T09:12:46Z</time>
      </trkpt>
      <trkpt lat="44.12097" lon="3.53345">
        <ele>1460</ele>
        <time>2017-03-01T09:14:46Z</time>
      </trkpt>
      <trkpt lat="44.12097" lon="3.5336">
        <ele>1459</ele>
        <time>2017-03-01T09:16:46Z</time>
      </trkpt>
      <trkpt lat="44.12098" lon="3.53375">
        <ele>1458</ele>
        <time>2017-03-01T09:18:46Z</time>
      </trkpt>
      <trkpt lat="44.121" lon="3.53392">
        <ele>1457</ele>
        <time>2017-03-01T09:20:46Z</time>
      </trkpt>
      <trkpt lat="44.12103" lon="3.5341">
        <ele>1457</ele>
        <time>2017-03-01T09:22:46Z</time>
      </trkpt>
      <trkpt lat="44.12107" lon="3.53425">
        <ele>1457</ele>
        <time>2017-03-01T09:24:46Z</time>
      </trkpt>
      <trkpt lat="44.12113" lon="3.53446">
        <ele>1457</ele>
        <time>2017-03-01T09:26:46Z</time>
      </trkpt>
      <trkpt lat="44.12125" lon="3.53492">
        <ele>1458</ele>
        <time>2017-03-01T09:28:46Z</time>
      </trkpt>
      <trkpt lat="44.12127" lon="3.53501">
        <ele>1458</ele>
        <time>2017-03-01T09:30:46Z</time>
      </trkpt>
      <trkpt lat="44.12126" lon="3.53515">
        <ele>1459</ele>
        <time>2017-03-01T09:32:46Z</time>
      </trkpt>
      <trkpt lat="44.12123" lon="3.53534">
        <ele>1459</ele>
        <time>2017-03-01T09:34:46Z</time>
      </trkpt>
      <trkpt lat="44.12119" lon="3.53551">
        <ele>1458</ele>
        <time>2017-03-01T09:36:46Z</time>
      </trkpt>
      <trkpt lat="44.12113" lon="3.53569">
        <ele>1458</ele>
        <time>2017-03-01T09:38:46Z</time>
      </trkpt>
      <trkpt lat="44.12095" lon="3.53613">
        <ele>1456</ele>
        <time>2017-03-01T09:40:46Z</time>
      </trkpt>
      <trkpt lat="44.12087" lon="3.53637">
        <ele>1456</ele>
        <time>2017-03-01T09:42:46Z</time>
      </trkpt>
      <trkpt lat="44.12083" lon="3.53649">
        <ele>1456</ele>
        <time>2017-03-01T09:44:46Z</time>
      </trkpt>
      <trkpt lat="44.12078" lon="3.53661">
        <ele>1455</ele>
        <time>2017-03-01T09:46:46Z</time>
      </trkpt>
      <trkpt lat="44.12072" lon="3.53685">
        <ele>1454</ele>
        <time>2017-03-01T09:48:46Z</time>
      </trkpt>
      <trkpt lat="44.12068" lon="3.53749">
        <ele>1454</ele>
        <time>2017-03-01T09:50:46Z</time>
      </trkpt>
      <trkpt lat="44.12065" lon="3.53769">
        <ele>1453</ele>
        <time>2017-03-01T09:52:46Z</time>
      </trkpt>
      <trkpt lat="44.12062" lon="3.53791">
        <ele>1452</ele>
        <time>2017-03-01T09:54:46Z</time>
      </trkpt>
      <trkpt lat="44.12058" lon="3.5381">
        <ele>1452</ele>
        <time>2017-03-01T09:56:46Z</time>
      </trkpt>
      <trkpt lat="44.12047" lon="3.53855">
        <ele>1450</ele>
        <time>2017-03-01T09:58:46Z</time>
      </trkpt>
      <trkpt lat="44.12041" lon="3.53883">
        <ele>1449</ele>
        <time>2017-03-01T10:00:46Z</time>
      </trkpt>
      <trkpt lat="44.12039" lon="3.53897">
        <ele>1449</ele>
        <time>2017-03-01T10:02:46Z</time>
      </trkpt>
      <trkpt lat="44.12034" lon="3.53929">
        <ele>1448</ele>
        <time>2017-03-01T10:04:46Z</time>
      </trkpt>
      <trkpt lat="44.12031" lon="3.53948">
        <ele>1448</ele>
        <time>2017-03-01T10:06:46Z</time>
      </trkpt>
      <trkpt lat="44.12027" lon="3.53992">
        <ele>1449</ele>
        <time>2017-03-01T10:08:46Z</time>
      </trkpt>
      <trkpt lat="44.12023" lon="3.54028">
        <ele>1448</ele>
        <time>2017-03-01T10:10:46Z</time>
      </trkpt>
      <trkpt lat="44.12013" lon="3.54066">
        <ele>1448</ele>
        <time>2017-03-01T10:12:46Z</time>
      </trkpt>
      <trkpt lat="44.12" lon="3.54101">
        <ele>1447</ele>
        <time>2017-03-01T10:14:46Z</time>
      </trkpt>
      <trkpt lat="44.11994" lon="3.54114">
        <ele>1445</ele>
        <time>2017-03-01T10:16:46Z</time>
      </trkpt>
      <trkpt lat="44.11985" lon="3.54126">
        <ele>1444</ele>
        <time>2017-03-01T10:18:46Z</time>
      </trkpt>
      <trkpt lat="44.11977" lon="3.54133">
        <ele>1444</ele>
        <time>2017-03-01T10:20:46Z</time>
      </trkpt>
      <trkpt lat="44.11961" lon="3.54145">
        <ele>1443</ele>
        <time>2017-03-01T10:22:46Z</time>
      </trkpt>
      <trkpt lat="44.11948" lon="3.54151">
        <ele>1444</ele>
        <time>2017-03-01T10:24:46Z</time>
      </trkpt>
      <trkpt lat="44.11942" lon="3.54154">
        <ele>1444</ele>
        <time>2017-03-01T10:26:46Z</time>
      </trkpt>
      <trkpt lat="44.11927" lon="3.54157">
        <ele>1445</ele>
        <time>2017-03-01T10:28:46Z</time>
      </trkpt>
      <trkpt lat="44.11919" lon="3.54162">
        <ele>1445</ele>
        <time>2017-03-01T10:30:46Z</time>
      </trkpt>
      <trkpt lat="44.11911" lon="3.54169">
        <ele>1445</ele>
        <time>2017-03-01T10:32:46Z</time>
      </trkpt>
      <trkpt lat="44.11892" lon="3.54202">
        <ele>1441</ele>
        <time>2017-03-01T10:34:46Z</time>
      </trkpt>
      <trkpt lat="44.11878" lon="3.54219">
        <ele>1440</ele>
        <time>2017-03-01T10:36:46Z</time>
      </trkpt>
      <trkpt lat="44.11863" lon="3.54233">
        <ele>1442</ele>
        <time>2017-03-01T10:38:46Z</time>
      </trkpt>
      <trkpt lat="44.1185" lon="3.54244">
        <ele>1443</ele>
        <time>2017-03-01T10:40:46Z</time>
      </trkpt>
      <trkpt lat="44.11836" lon="3.54251">
        <ele>1446</ele>
        <time>2017-03-01T10:42:46Z</time>
      </trkpt>
      <trkpt lat="44.11831" lon="3.54257">
        <ele>1447</ele>
        <time>2017-03-01T10:44:46Z</time>
      </trkpt>
      <trkpt lat="44.11827" lon="3.54263">
        <ele>1447</ele>
        <time>2017-03-01T10:46:46Z</time>
      </trkpt>
      <trkpt lat="44.11823" lon="3.54275">
        <ele>1447</ele>
        <time>2017-03-01T10:48:46Z</time>
      </trkpt>
      <trkpt lat="44.11823" lon="3.54287">
        <ele>1446</ele>
        <time>2017-03-01T10:50:46Z</time>
      </trkpt>
      <trkpt lat="44.11827" lon="3.54326">
        <ele>1441</ele>
        <time>2017-03-01T10:52:46Z</time>
      </trkpt>
      <trkpt lat="44.11841" lon="3.5442">
        <ele>1438</ele>
        <time>2017-03-01T10:54:46Z</time>
      </trkpt>
      <trkpt lat="44.11851" lon="3.54498">
        <ele>1435</ele>
        <time>2017-03-01T10:56:46Z</time>
      </trkpt>
      <trkpt lat="44.11865" lon="3.54556">
        <ele>1432</ele>
        <time>2017-03-01T10:58:46Z</time>
      </trkpt>
      <trkpt lat="44.11867" lon="3.54577">
        <ele>1433</ele>
        <time>2017-03-01T11:00:46Z</time>
      </trkpt>
      <trkpt lat="44.11864" lon="3.54601">
        <ele>1433</ele>
        <time>2017-03-01T11:02:46Z</time>
      </trkpt>
      <trkpt lat="44.11858" lon="3.54627">
        <ele>1433</ele>
        <time>2017-03-01T11:04:46Z</time>
      </trkpt>
      <trkpt lat="44.1185" lon="3.54654">
        <ele>1433</ele>
        <time>2017-03-01T11:06:46Z</time>
      </trkpt>
      <trkpt lat="44.11836" lon="3.54688">
        <ele>1432</ele>
        <time>2017-03-01T11:08:46Z</time>
      </trkpt>
      <trkpt lat="44.11824" lon="3.54709">
        <ele>1431</ele>
        <time>2017-03-01T11:10:46Z</time>
      </trkpt>
      <trkpt lat="44.11809" lon="3.54725">
        <ele>1430</ele>
        <time>2017-03-01T11:12:46Z</time>
      </trkpt>
      <trkpt lat="44.11793" lon="3.54739">
        <ele>1430</ele>
        <time>2017-03-01T11:14:46Z</time>
      </trkpt>
      <trkpt lat="44.11776" lon="3.5476">
        <ele>1430</ele>
        <time>2017-03-01T11:16:46Z</time>
      </trkpt>
      <trkpt lat="44.11766" lon="3.54779">
        <ele>1430</ele>
        <time>2017-03-01T11:18:46Z</time>
      </trkpt>
      <trkpt lat="44.11738" lon="3.54845">
        <ele>1427</ele>
        <time>2017-03-01T11:20:46Z</time>
      </trkpt>
      <trkpt lat="44.11734" lon="3.54862">
        <ele>1426</ele>
        <time>2017-03-01T11:22:46Z</time>
      </trkpt>
      <trkpt lat="44.11731" lon="3.54884">
        <ele>1425</ele>
        <time>2017-03-01T11:24:46Z</time>
      </trkpt>
      <trkpt lat="44.11729" lon="3.54906">
        <ele>1423</ele>
        <time>2017-03-01T11:26:46Z</time>
      </trkpt>
      <trkpt lat="44.11729" lon="3.54925">
        <ele>1422</ele>
        <time>2017-03-01T11:28:46Z</time>
      </trkpt>
      <trkpt lat="44.11732" lon="3.54952">
        <ele>1420</ele>
        <time>2017-03-01T11:30:46Z</time>
      </trkpt>
      <trkpt lat="44.11735" lon="3.54969">
        <ele>1419</ele>
        <time>2017-03-01T11:32:46Z</time>
      </trkpt>
      <trkpt lat="44.11735" lon="3.54984">
        <ele>1418</ele>
        <time>2017-03-01T11:34:46Z</time>
      </trkpt>
      <trkpt lat="44.1173" lon="3.55004">
        <ele>1417</ele>
        <time>2017-03-01T11:36:46Z</time>
      </trkpt>
      <trkpt lat="44.11723" lon="3.55023">
        <ele>1416</ele>
        <time>2017-03-01T11:38:46Z</time>
      </trkpt>
      <trkpt lat="44.11708" lon="3.55051">
        <ele>1414</ele>
        <time>2017-03-01T11:40:46Z</time>
      </trkpt>
      <trkpt lat="44.11696" lon="3.55077">
        <ele>1413</ele>
        <time>2017-03-01T11:42:46Z</time>
      </trkpt>
      <trkpt lat="44.11691" lon="3.55087">
        <ele>1413</ele>
        <time>2017-03-01T11:44:46Z</time>
      </trkpt>
      <trkpt lat="44.1168" lon="3.55109">
        <ele>1413</ele>
        <time>2017-03-01T11:46:46Z</time>
      </trkpt>
      <trkpt lat="44.1167" lon="3.55123">
        <ele>1413</ele>
        <time>2017-03-01T11:48:46Z</time>
      </trkpt>
      <trkpt lat="44.11662" lon="3.55134">
        <ele>1413</ele>
        <time>2017-03-01T11:50:46Z</time>
      </trkpt>
      <trkpt lat="44.11657" lon="3.55136">
        <ele>1413</ele>
        <time>2017-03-01T11:52:46Z</time>
      </trkpt>
      <trkpt lat="44.11652" lon="3.55144">
        <ele>1413</ele>
        <time>2017-03-01T11:54:46Z</time>
      </trkpt>
      <trkpt lat="44.11659" lon="3.55153">
        <ele>1414</ele>
        <time>2017-03-01T11:56:46Z</time>
      </trkpt>
      <trkpt lat="44.11662" lon="3.55162">
        <ele>1414</ele>
        <time>2017-03-01T11:58:46Z</time>
      </trkpt>
      <trkpt lat="44.11664" lon="3.55175">
        <ele>1414</ele>
        <time>2017-03-01T12:00:46Z</time>
      </trkpt>
      <trkpt lat="44.11665" lon="3.55186">
        <ele>1414</ele>
        <time>2017-03-01T12:02:46Z</time>
      </trkpt>
      <trkpt lat="44.11667" lon="3.55204">
        <ele>1414</ele>
        <time>2017-03-01T12:04:46Z</time>
      </trkpt>
      <trkpt lat="44.11673" lon="3.55268">
        <ele>1413</ele>
        <time>2017-03-01T12:06:46Z</time>
      </trkpt>
      <trkpt lat="44.11677" lon="3.55291">
        <ele>1412</ele>
        <time>2017-03-01T12:08:46Z</time>
      </trkpt>
      <trkpt lat="44.11681" lon="3.55304">
        <ele>1412</ele>
        <time>2017-03-01T12:10:46Z</time>
      </trkpt>
      <trkpt lat="44.11698" lon="3.55353">
        <ele>1411</ele>
        <time>2017-03-01T12:12:46Z</time>
      </trkpt>
      <trkpt lat="44.11715" lon="3.55396">
        <ele>1412</ele>
        <time>2017-03-01T12:14:46Z</time>
      </trkpt>
      <trkpt lat="44.11744" lon="3.55473">
        <ele>1415</ele>
        <time>2017-03-01T12:16:46Z</time>
      </trkpt>
      <trkpt lat="44.11735" lon="3.55479">
        <ele>1416</ele>
        <time>2017-03-01T12:18:46Z</time>
      </trkpt>
      <trkpt lat="44.11731" lon="3.55484">
        <ele>1416</ele>
        <time>2017-03-01T12:20:46Z</time>
      </trkpt>
      <trkpt lat="44.11719" lon="3.55503">
        <ele>1416</ele>
        <time>2017-03-01T12:22:46Z</time>
      </trkpt>
      <trkpt lat="44.1171" lon="3.55524">
        <ele>1416</ele>
        <time>2017-03-01T12:24:46Z</time>
      </trkpt>
      <trkpt lat="44.11712" lon="3.55524">
        <ele>1416</ele>
        <time>2017-03-01T12:26:46Z</time>
      </trkpt>
      <trkpt lat="44.11718" lon="3.55523">
        <ele>1416</ele>
        <time>2017-03-01T12:28:46Z</time>
      </trkpt>
      <trkpt lat="44.11723" lon="3.55522">
        <ele>1417</ele>
        <time>2017-03-01T12:30:46Z</time>
      </trkpt>
      <trkpt lat="44.11726" lon="3.55522">
        <ele>1417</ele>
        <time>2017-03-01T12:32:46Z</time>
      </trkpt>
      <trkpt lat="44.11733" lon="3.55544">
        <ele>1417</ele>
        <time>2017-03-01T12:34:46Z</time>
      </trkpt>
      <trkpt lat="44.11729" lon="3.55543">
        <ele>1417</ele>
        <time>2017-03-01T12:36:46Z</time>
      </trkpt>
      <trkpt lat="44.11716" lon="3.5555">
        <ele>1416</ele>
        <time>2017-03-01T12:38:46Z</time>
      </trkpt>
      <trkpt lat="44.11711" lon="3.5556">
        <ele>1416</ele>
        <time>2017-03-01T12:40:46Z</time>
      </trkpt>
      <trkpt lat="44.1171" lon="3.55572">
        <ele>1416</ele>
        <time>2017-03-01T12:42:46Z</time>
      </trkpt>
      <trkpt lat="44.1171" lon="3.55585">
        <ele>1416</ele>
        <time>2017-03-01T12:44:46Z</time>
      </trkpt>
      <trkpt lat="44.11711" lon="3.5561">
        <ele>1415</ele>
        <time>2017-03-01T12:46:46Z</time>
      </trkpt>
      <trkpt lat="44.11714" lon="3.55622">
        <ele>1415</ele>
        <time>2017-03-01T12:48:46Z</time>
      </trkpt>
      <trkpt lat="44.11718" lon="3.55634">
        <ele>1415</ele>
        <time>2017-03-01T12:50:46Z</time>
      </trkpt>
      <trkpt lat="44.11725" lon="3.55645">
        <ele>1415</ele>
        <time>2017-03-01T12:52:46Z</time>
      </trkpt>
      <trkpt lat="44.11731" lon="3.55656">
        <ele>1416</ele>
        <time>2017-03-01T12:54:46Z</time>
      </trkpt>
      <trkpt lat="44.11738" lon="3.55665">
        <ele>1416</ele>
        <time>2017-03-01T12:56:46Z</time>
      </trkpt>
      <trkpt lat="44.11747" lon="3.55673">
        <ele>1417</ele>
        <time>2017-03-01T12:58:46Z</time>
      </trkpt>
      <trkpt lat="44.11753" lon="3.55681">
        <ele>1418</ele>
        <time>2017-03-01T13:00:46Z</time>
      </trkpt>
      <trkpt lat="44.11756" lon="3.55691">
        <ele>1417</ele>
        <time>2017-03-01T13:02:46Z</time>
      </trkpt>
      <trkpt lat="44.1176" lon="3.55705">
        <ele>1417</ele>
        <time>2017-03-01T13:04:46Z</time>
      </trkpt>
      <trkpt lat="44.11762" lon="3.55723">
        <ele>1417</ele>
        <time>2017-03-01T13:06:46Z</time>
      </trkpt>
      <trkpt lat="44.11764" lon="3.55743">
        <ele>1416</ele>
        <time>2017-03-01T13:08:46Z</time>
      </trkpt>
      <trkpt lat="44.11767" lon="3.55761">
        <ele>1416</ele>
        <time>2017-03-01T13:10:46Z</time>
      </trkpt>
      <trkpt lat="44.11771" lon="3.55772">
        <ele>1416</ele>
        <time>2017-03-01T13:12:46Z</time>
      </trkpt>
      <trkpt lat="44.11776" lon="3.55778">
        <ele>1417</ele>
        <time>2017-03-01T13:14:46Z</time>
      </trkpt>
      <trkpt lat="44.11783" lon="3.55784">
        <ele>1418</ele>
        <time>2017-03-01T13:16:46Z</time>
      </trkpt>
      <trkpt lat="44.11793" lon="3.55791">
        <ele>1419</ele>
        <time>2017-03-01T13:18:46Z</time>
      </trkpt>
      <trkpt lat="44.118" lon="3.55798">
        <ele>1420</ele>
        <time>2017-03-01T13:20:46Z</time>
      </trkpt>
      <trkpt lat="44.11803" lon="3.55808">
        <ele>1421</ele>
        <time>2017-03-01T13:22:46Z</time>
      </trkpt>
      <trkpt lat="44.11805" lon="3.55836">
        <ele>1422</ele>
        <time>2017-03-01T13:24:46Z</time>
      </trkpt>
      <trkpt lat="44.11812" lon="3.55862">
        <ele>1423</ele>
        <time>2017-03-01T13:26:46Z</time>
      </trkpt>
      <trkpt lat="44.11814" lon="3.55874">
        <ele>1424</ele>
        <time>2017-03-01T13:28:46Z</time>
      </trkpt>
      <trkpt lat="44.11816" lon="3.55889">
        <ele>1425</ele>
        <time>2017-03-01T13:30:46Z</time>
      </trkpt>
      <trkpt lat="44.11819" lon="3.55901">
        <ele>1426</ele>
        <time>2017-03-01T13:32:46Z</time>
      </trkpt>
      <trkpt lat="44.11822" lon="3.55911">
        <ele>1426</ele>
        <time>2017-03-01T13:34:46Z</time>
      </trkpt>
      <trkpt lat="44.11838" lon="3.55939">
        <ele>1430</ele>
        <time>2017-03-01T13:36:46Z</time>
      </trkpt>
      <trkpt lat="44.1184" lon="3.55948">
        <ele>1430</ele>
        <time>2017-03-01T13:38:46Z</time>
      </trkpt>
      <trkpt lat="44.11838" lon="3.55957">
        <ele>1430</ele>
        <time>2017-03-01T13:40:46Z</time>
      </trkpt>
      <trkpt lat="44.11835" lon="3.55968">
        <ele>1430</ele>
        <time>2017-03-01T13:42:46Z</time>
      </trkpt>
      <trkpt lat="44.11834" lon="3.55977">
        <ele>1430</ele>
        <time>2017-03-01T13:44:46Z</time>
      </trkpt>
      <trkpt lat="44.11835" lon="3.55985">
        <ele>1430</ele>
        <time>2017-03-01T13:46:46Z</time>
      </trkpt>
      <trkpt lat="44.11838" lon="3.55994">
        <ele>1430</ele>
        <time>2017-03-01T13:48:46Z</time>
      </trkpt>
      <trkpt lat="44.11844" lon="3.56004">
        <ele>1431</ele>
        <time>2017-03-01T13:50:46Z</time>
      </trkpt>
      <trkpt lat="44.11853" lon="3.56014">
        <ele>1432</ele>
        <time>2017-03-01T13:52:46Z</time>
      </trkpt>
      <trkpt lat="44.11863" lon="3.56025">
        <ele>1433</ele>
        <time>2017-03-01T13:54:46Z</time>
      </trkpt>
      <trkpt lat="44.11875" lon="3.56035">
        <ele>1435</ele>
        <time>2017-03-01T13:56:46Z</time>
      </trkpt>
      <trkpt lat="44.11885" lon="3.56047">
        <ele>1436</ele>
        <time>2017-03-01T13:58:46Z</time>
      </trkpt>
      <trkpt lat="44.11887" lon="3.56054">
        <ele>1437</ele>
        <time>2017-03-01T14:00:46Z</time>
      </trkpt>
      <trkpt lat="44.11889" lon="3.56064">
        <ele>1437</ele>
        <time>2017-03-01T14:02:46Z</time>
      </trkpt>
      <trkpt lat="44.11893" lon="3.56073">
        <ele>1438</ele>
        <time>2017-03-01T14:04:46Z</time>
      </trkpt>
      <trkpt lat="44.11907" lon="3.56092">
        <ele>1440</ele>
        <time>2017-03-01T14:06:46Z</time>
      </trkpt>
      <trkpt lat="44.11915" lon="3.56102">
        <ele>1441</ele>
        <time>2017-03-01T14:08:46Z</time>
      </trkpt>
      <trkpt lat="44.11922" lon="3.56113">
        <ele>1441</ele>
        <time>2017-03-01T14:10:46Z</time>
      </trkpt>
      <trkpt lat="44.11929" lon="3.56125">
        <ele>1441</ele>
        <time>2017-03-01T14:12:46Z</time>
      </trkpt>
      <trkpt lat="44.11936" lon="3.56136">
        <ele>1441</ele>
        <time>2017-03-01T14:14:46Z</time>
      </trkpt>
      <trkpt lat="44.11943" lon="3.56147">
        <ele>1442</ele>
        <time>2017-03-01T14:16:46Z</time>
      </trkpt>
      <trkpt lat="44.11948" lon="3.56154">
        <ele>1442</ele>
        <time>2017-03-01T14:18:46Z</time>
      </trkpt>
      <trkpt lat="44.11964" lon="3.56171">
        <ele>1443</ele>
        <time>2017-03-01T14:20:46Z</time>
      </trkpt>
      <trkpt lat="44.11968" lon="3.56177">
        <ele>1444</ele>
        <time>2017-03-01T14:22:46Z</time>
      </trkpt>
      <trkpt lat="44.11975" lon="3.56187">
        <ele>1444</ele>
        <time>2017-03-01T14:24:46Z</time>
      </trkpt>
      <trkpt lat="44.1198" lon="3.56197">
        <ele>1444</ele>
        <time>2017-03-01T14:26:46Z</time>
      </trkpt>
      <trkpt lat="44.11983" lon="3.56205">
        <ele>1444</ele>
        <time>2017-03-01T14:28:46Z</time>
      </trkpt>
      <trkpt lat="44.11985" lon="3.56216">
        <ele>1444</ele>
        <time>2017-03-01T14:30:46Z</time>
      </trkpt>
      <trkpt lat="44.11985" lon="3.56226">
        <ele>1443</ele>
        <time>2017-03-01T14:32:46Z</time>
      </trkpt>
      <trkpt lat="44.11985" lon="3.56238">
        <ele>1442</ele>
        <time>2017-03-01T14:34:46Z</time>
      </trkpt>
      <trkpt lat="44.11982" lon="3.56261">
        <ele>1440</ele>
        <time>2017-03-01T14:36:46Z</time>
      </trkpt>
      <trkpt lat="44.11982" lon="3.56274">
        <ele>1439</ele>
        <time>2017-03-01T14:38:46Z</time>
      </trkpt>
      <trkpt lat="44.11983" lon="3.56282">
        <ele>1439</ele>
        <time>2017-03-01T14:40:46Z</time>
      </trkpt>
      <trkpt lat="44.11987" lon="3.5629">
        <ele>1439</ele>
        <time>2017-03-01T14:42:46Z</time>
      </trkpt>
      <trkpt lat="44.1199" lon="3.56296">
        <ele>1440</ele>
        <time>2017-03-01T14:44:46Z</time>
      </trkpt>
      <trkpt lat="44.11996" lon="3.563">
        <ele>1441</ele>
        <time>2017-03-01T14:46:46Z</time>
      </trkpt>
      <trkpt lat="44.12002" lon="3.56302">
        <ele>1442</ele>
        <time>2017-03-01T14:48:46Z</time>
      </trkpt>
      <trkpt lat="44.12012" lon="3.56306">
        <ele>1444</ele>
        <time>2017-03-01T14:50:46Z</time>
      </trkpt>
      <trkpt lat="44.1202" lon="3.56309">
        <ele>1445</ele>
        <time>2017-03-01T14:52:46Z</time>
      </trkpt>
      <trkpt lat="44.1203" lon="3.56315">
        <ele>1447</ele>
        <time>2017-03-01T14:54:46Z</time>
      </trkpt>
      <trkpt lat="44.12041" lon="3.56322">
        <ele>1449</ele>
        <time>2017-03-01T14:56:46Z</time>
      </trkpt>
      <trkpt lat="44.1205" lon="3.56329">
        <ele>1450</ele>
        <time>2017-03-01T14:58:46Z</time>
      </trkpt>
      <trkpt lat="44.12059" lon="3.56339">
        <ele>1451</ele>
        <time>2017-03-01T15:00:46Z</time>
      </trkpt>
      <trkpt lat="44.12067" lon="3.56349">
        <ele>1452</ele>
        <time>2017-03-01T15:02:46Z</time>
      </trkpt>
      <trkpt lat="44.12085" lon="3.56375">
        <ele>1453</ele>
        <time>2017-03-01T15:04:46Z</time>
      </trkpt>
      <trkpt lat="44.12092" lon="3.56386">
        <ele>1454</ele>
        <time>2017-03-01T15:06:46Z</time>
      </trkpt>
      <trkpt lat="44.12099" lon="3.56395">
        <ele>1455</ele>
        <time>2017-03-01T15:08:46Z</time>
      </trkpt>
      <trkpt lat="44.12103" lon="3.56403">
        <ele>1455</ele>
        <time>2017-03-01T15:10:46Z</time>
      </trkpt>
      <trkpt lat="44.12107" lon="3.56419">
        <ele>1456</ele>
        <time>2017-03-01T15:12:46Z</time>
      </trkpt>
      <trkpt lat="44.1211" lon="3.5645">
        <ele>1457</ele>
        <time>2017-03-01T15:14:46Z</time>
      </trkpt>
      <trkpt lat="44.12113" lon="3.5648">
        <ele>1459</ele>
        <time>2017-03-01T15:16:46Z</time>
      </trkpt>
      <trkpt lat="44.12112" lon="3.56491">
        <ele>1459</ele>
        <time>2017-03-01T15:18:46Z</time>
      </trkpt>
      <trkpt lat="44.12109" lon="3.56499">
        <ele>1458</ele>
        <time>2017-03-01T15:20:46Z</time>
      </trkpt>
      <trkpt lat="44.12105" lon="3.56505">
        <ele>1458</ele>
        <time>2017-03-01T15:22:46Z</time>
      </trkpt>
      <trkpt lat="44.12097" lon="3.56511">
        <ele>1457</ele>
        <time>2017-03-01T15:24:46Z</time>
      </trkpt>
      <trkpt lat="44.12088" lon="3.56514">
        <ele>1455</ele>
        <time>2017-03-01T15:26:46Z</time>
      </trkpt>
      <trkpt lat="44.12075" lon="3.5652">
        <ele>1453</ele>
        <time>2017-03-01T15:28:46Z</time>
      </trkpt>
      <trkpt lat="44.12067" lon="3.56522">
        <ele>1452</ele>
        <time>2017-03-01T15:30:46Z</time>
      </trkpt>
      <trkpt lat="44.12058" lon="3.56527">
        <ele>1450</ele>
        <time>2017-03-01T15:32:46Z</time>
      </trkpt>
      <trkpt lat="44.12051" lon="3.56533">
        <ele>1450</ele>
        <time>2017-03-01T15:34:46Z</time>
      </trkpt>
      <trkpt lat="44.12047" lon="3.56539">
        <ele>1449</ele>
        <time>2017-03-01T15:36:46Z</time>
      </trkpt>
      <trkpt lat="44.12044" lon="3.56546">
        <ele>1449</ele>
        <time>2017-03-01T15:38:46Z</time>
      </trkpt>
      <trkpt lat="44.12042" lon="3.56554">
        <ele>1450</ele>
        <time>2017-03-01T15:40:46Z</time>
      </trkpt>
      <trkpt lat="44.12041" lon="3.56566">
        <ele>1451</ele>
        <time>2017-03-01T15:42:46Z</time>
      </trkpt>
      <trkpt lat="44.1204" lon="3.56584">
        <ele>1453</ele>
        <time>2017-03-01T15:44:46Z</time>
      </trkpt>
      <trkpt lat="44.1204" lon="3.56616">
        <ele>1456</ele>
        <time>2017-03-01T15:46:46Z</time>
      </trkpt>
      <trkpt lat="44.12039" lon="3.56635">
        <ele>1458</ele>
        <time>2017-03-01T15:48:46Z</time>
      </trkpt>
      <trkpt lat="44.12039" lon="3.56651">
        <ele>1460</ele>
        <time>2017-03-01T15:50:46Z</time>
      </trkpt>
      <trkpt lat="44.12038" lon="3.56661">
        <ele>1460</ele>
        <time>2017-03-01T15:52:46Z</time>
      </trkpt>
      <trkpt lat="44.12036" lon="3.5667">
        <ele>1461</ele>
        <time>2017-03-01T15:54:46Z</time>
      </trkpt>
      <trkpt lat="44.12036" lon="3.56685">
        <ele>1462</ele>
        <time>2017-03-01T15:56:46Z</time>
      </trkpt>
      <trkpt lat="44.12037" lon="3.56692">
        <ele>1463</ele>
        <time>2017-03-01T15:58:46Z</time>
      </trkpt>
      <trkpt lat="44.12036" lon="3.56702">
        <ele>1464</ele>
        <time>2017-03-01T16:00:46Z</time>
      </trkpt>
      <trkpt lat="44.12034" lon="3.56721">
        <ele>1465</ele>
        <time>2017-03-01T16:02:46Z</time>
      </trkpt>
      <trkpt lat="44.12032" lon="3.56739">
        <ele>1466</ele>
        <time>2017-03-01T16:04:46Z</time>
      </trkpt>
      <trkpt lat="44.12031" lon="3.56755">
        <ele>1467</ele>
        <time>2017-03-01T16:06:46Z</time>
      </trkpt>
      <trkpt lat="44.12031" lon="3.56773">
        <ele>1469</ele>
        <time>2017-03-01T16:08:46Z</time>
      </trkpt>
      <trkpt lat="44.12032" lon="3.56784">
        <ele>1471</ele>
        <time>2017-03-01T16:10:46Z</time>
      </trkpt>
      <trkpt lat="44.12036" lon="3.56802">
        <ele>1474</ele>
        <time>2017-03-01T16:12:46Z</time>
      </trkpt>
      <trkpt lat="44.12039" lon="3.5681">
        <ele>1476</ele>
        <time>2017-03-01T16:14:46Z</time>
      </trkpt>
      <trkpt lat="44.12049" lon="3.56831">
        <ele>1481</ele>
        <time>2017-03-01T16:16:46Z</time>
      </trkpt>
      <trkpt lat="44.12054" lon="3.56841">
        <ele>1484</ele>
        <time>2017-03-01T16:18:46Z</time>
      </trkpt>
      <trkpt lat="44.12057" lon="3.5685">
        <ele>1486</ele>
        <time>2017-03-01T16:20:46Z</time>
      </trkpt>
      <trkpt lat="44.12059" lon="3.56857">
        <ele>1488</ele>
        <time>2017-03-01T16:22:46Z</time>
      </trkpt>
      <trkpt lat="44.12059" lon="3.56875">
        <ele>1491</ele>
        <time>2017-03-01T16:24:46Z</time>
      </trkpt>
      <trkpt lat="44.12056" lon="3.56883">
        <ele>1491</ele>
        <time>2017-03-01T16:26:46Z</time>
      </trkpt>
      <trkpt lat="44.12046" lon="3.56897">
        <ele>1491</ele>
        <time>2017-03-01T16:28:46Z</time>
      </trkpt>
      <trkpt lat="44.12033" lon="3.56905">
        <ele>1489</ele>
        <time>2017-03-01T16:30:46Z</time>
      </trkpt>
      <trkpt lat="44.12015" lon="3.56912">
        <ele>1486</ele>
        <time>2017-03-01T16:32:46Z</time>
      </trkpt>
      <trkpt lat="44.11997" lon="3.56933">
        <ele>1487</ele>
        <time>2017-03-01T16:34:46Z</time>
      </trkpt>
      <trkpt lat="44.11973" lon="3.56968">
        <ele>1492</ele>
        <time>2017-03-01T16:36:46Z</time>
      </trkpt>
      <trkpt lat="44.11961" lon="3.5699">
        <ele>1494</ele>
        <time>2017-03-01T16:38:46Z</time>
      </trkpt>
      <trkpt lat="44.11954" lon="3.57015">
        <ele>1497</ele>
        <time>2017-03-01T16:40:46Z</time>
      </trkpt>
      <trkpt lat="44.11945" lon="3.57056">
        <ele>1502</ele>
        <time>2017-03-01T16:42:46Z</time>
      </trkpt>
      <trkpt lat="44.1193" lon="3.57111">
        <ele>1506</ele>
        <time>2017-03-01T16:44:46Z</time>
      </trkpt>
      <trkpt lat="44.11922" lon="3.57145">
        <ele>1509</ele>
        <time>2017-03-01T16:46:46Z</time>
      </trkpt>
      <trkpt lat="44.11915" lon="3.57185">
        <ele>1512</ele>
        <time>2017-03-01T16:48:46Z</time>
      </trkpt>
      <trkpt lat="44.11913" lon="3.57205">
        <ele>1513</ele>
        <time>2017-03-01T16:50:46Z</time>
      </trkpt>
      <trkpt lat="44.11911" lon="3.57224">
        <ele>1514</ele>
        <time>2017-03-01T16:52:46Z</time>
      </trkpt>
      <trkpt lat="44.11911" lon="3.57241">
        <ele>1515</ele>
        <time>2017-03-01T16:54:46Z</time>
      </trkpt>
      <trkpt lat="44.11913" lon="3.57257">
        <ele>1516</ele>
        <time>2017-03-01T16:56:46Z</time>
      </trkpt>
      <trkpt lat="44.11916" lon="3.57273">
        <ele>1516</ele>
        <time>2017-03-01T16:58:46Z</time>
      </trkpt>
      <trkpt lat="44.11921" lon="3.57291">
        <ele>1517</ele>
        <time>2017-03-01T17:00:46Z</time>
      </trkpt>
      <trkpt lat="44.11929" lon="3.57312">
        <ele>1518</ele>
        <time>2017-03-01T17:02:46Z</time>
      </trkpt>
      <trkpt lat="44.11936" lon="3.5733">
        <ele>1520</ele>
        <time>2017-03-01T17:04:46Z</time>
      </trkpt>
      <trkpt lat="44.11945" lon="3.57348">
        <ele>1521</ele>
        <time>2017-03-01T17:06:46Z</time>
      </trkpt>
      <trkpt lat="44.11954" lon="3.57363">
        <ele>1521</ele>
        <time>2017-03-01T17:08:46Z</time>
      </trkpt>
      <trkpt lat="44.11974" lon="3.57388">
        <ele>1524</ele>
        <time>2017-03-01T17:10:46Z</time>
      </trkpt>
      <trkpt lat="44.11984" lon="3.57399">
        <ele>1526</ele>
        <time>2017-03-01T17:12:46Z</time>
      </trkpt>
      <trkpt lat="44.12012" lon="3.5742">
        <ele>1532</ele>
        <time>2017-03-01T17:14:46Z</time>
      </trkpt>
      <trkpt lat="44.12019" lon="3.57428">
        <ele>1533</ele>
        <time>2017-03-01T17:16:46Z</time>
      </trkpt>
      <trkpt lat="44.12026" lon="3.5744">
        <ele>1535</ele>
        <time>2017-03-01T17:18:46Z</time>
      </trkpt>
      <trkpt lat="44.12034" lon="3.57455">
        <ele>1536</ele>
        <time>2017-03-01T17:20:46Z</time>
      </trkpt>
      <trkpt lat="44.12043" lon="3.57476">
        <ele>1539</ele>
        <time>2017-03-01T17:22:46Z</time>
      </trkpt>
      <trkpt lat="44.12048" lon="3.57491">
        <ele>1540</ele>
        <time>2017-03-01T17:24:46Z</time>
      </trkpt>
      <trkpt lat="44.1205" lon="3.57511">
        <ele>1540</ele>
        <time>2017-03-01T17:26:46Z</time>
      </trkpt>
      <trkpt lat="44.12053" lon="3.57537">
        <ele>1540</ele>
        <time>2017-03-01T17:28:46Z</time>
      </trkpt>
      <trkpt lat="44.12055" lon="3.57569">
        <ele>1539</ele>
        <time>2017-03-01T17:30:46Z</time>
      </trkpt>
      <trkpt lat="44.12059" lon="3.57597">
        <ele>1540</ele>
        <time>2017-03-01T17:32:46Z</time>
      </trkpt>
      <trkpt lat="44.12061" lon="3.57625">
        <ele>1541</ele>
        <time>2017-03-01T17:34:46Z</time>
      </trkpt>
      <trkpt lat="44.12063" lon="3.5765">
        <ele>1542</ele>
        <time>2017-03-01T17:36:46Z</time>
      </trkpt>
      <trkpt lat="44.12064" lon="3.57667">
        <ele>1543</ele>
        <time>2017-03-01T17:38:46Z</time>
      </trkpt>
      <trkpt lat="44.12067" lon="3.57708">
        <ele>1546</ele>
        <time>2017-03-01T17:40:46Z</time>
      </trkpt>
      <trkpt lat="44.12067" lon="3.57717">
        <ele>1546</ele>
        <time>2017-03-01T17:42:46Z</time>
      </trkpt>
      <trkpt lat="44.12066" lon="3.57726">
        <ele>1546</ele>
        <time>2017-03-01T17:44:46Z</time>
      </trkpt>
      <trkpt lat="44.12065" lon="3.57737">
        <ele>1547</ele>
        <time>2017-03-01T17:46:46Z</time>
      </trkpt>
      <trkpt lat="44.12063" lon="3.57751">
        <ele>1546</ele>
        <time>2017-03-01T17:48:46Z</time>
      </trkpt>
      <trkpt lat="44.12063" lon="3.57761">
        <ele>1546</ele>
        <time>2017-03-01T17:50:46Z</time>
      </trkpt>
      <trkpt lat="44.12063" lon="3.57775">
        <ele>1546</ele>
        <time>2017-03-01T17:52:46Z</time>
      </trkpt>
      <trkpt lat="44.12065" lon="3.57797">
        <ele>1547</ele>
        <time>2017-03-01T17:54:46Z</time>
      </trkpt>
      <trkpt lat="44.12068" lon="3.57826">
        <ele>1548</ele>
        <time>2017-03-01T17:56:46Z</time>
      </trkpt>
      <trkpt lat="44.12072" lon="3.57836">
        <ele>1549</ele>
        <time>2017-03-01T17:58:46Z</time>
      </trkpt>
      <trkpt lat="44.12075" lon="3.57839">
        <ele>1550</ele>
        <time>2017-03-01T18:00:46Z</time>
      </trkpt>
      <trkpt lat="44.12078" lon="3.57841">
        <ele>1551</ele>
        <time>2017-03-01T18:02:46Z</time>
      </trkpt>
      <trkpt lat="44.12086" lon="3.57844">
        <ele>1553</ele>
        <time>2017-03-01T18:04:46Z</time>
      </trkpt>
      <trkpt lat="44.1209" lon="3.57846">
        <ele>1553</ele>
        <time>2017-03-01T18:06:46Z</time>
      </trkpt>
      <trkpt lat="44.12095" lon="3.57852">
        <ele>1553</ele>
        <time>2017-03-01T18:08:46Z</time>
      </trkpt>
      <trkpt lat="44.121" lon="3.57859">
        <ele>1553</ele>
        <time>2017-03-01T18:10:46Z</time>
      </trkpt>
      <trkpt lat="44.12104" lon="3.5787">
        <ele>1552</ele>
        <time>2017-03-01T18:12:46Z</time>
      </trkpt>
      <trkpt lat="44.12107" lon="3.57882">
        <ele>1552</ele>
        <time>2017-03-01T18:14:46Z</time>
      </trkpt>
      <trkpt lat="44.12109" lon="3.57888">
        <ele>1552</ele>
        <time>2017-03-01T18:16:46Z</time>
      </trkpt>
      <trkpt lat="44.12113" lon="3.57891">
        <ele>1552</ele>
        <time>2017-03-01T18:18:46Z</time>
      </trkpt>
      <trkpt lat="44.12116" lon="3.57891">
        <ele>1552</ele>
        <time>2017-03-01T18:20:46Z</time>
      </trkpt>
      <trkpt lat="44.12116" lon="3.57913">
        <ele>1551</ele>
        <time>2017-03-01T18:22:46Z</time>
      </trkpt>
      <trkpt lat="44.12118" lon="3.57938">
        <ele>1549</ele>
        <time>2017-03-01T18:24:46Z</time>
      </trkpt>
      <trkpt lat="44.12121" lon="3.57985">
        <ele>1545</ele>
        <time>2017-03-01T18:26:46Z</time>
      </trkpt>
      <trkpt lat="44.1212" lon="3.58">
        <ele>1543</ele>
        <time>2017-03-01T18:28:46Z</time>
      </trkpt>
      <trkpt lat="44.12131" lon="3.57999">
        <ele>1546</ele>
        <time>2017-03-01T18:30:46Z</time>
      </trkpt>
      <trkpt lat="44.12132" lon="3.58006">
        <ele>1546</ele>
        <time>2017-03-01T18:32:46Z</time>
      </trkpt>
      <trkpt lat="44.12141" lon="3.58041">
        <ele>1547</ele>
        <time>2017-03-01T18:34:46Z</time>
      </trkpt>
      <trkpt lat="44.12147" lon="3.58064">
        <ele>1548</ele>
        <time>2017-03-01T18:36:46Z</time>
      </trkpt>
      <trkpt lat="44.12151" lon="3.58072">
        <ele>1549</ele>
        <time>2017-03-01T18:38:46Z</time>
      </trkpt>
      <trkpt lat="44.12156" lon="3.58078">
        <ele>1550</ele>
        <time>2017-03-01T18:40:46Z</time>
      </trkpt>
      <trkpt lat="44.12157" lon="3.58092">
        <ele>1551</ele>
        <time>2017-03-01T18:42:46Z</time>
      </trkpt>
      <trkpt lat="44.12157" lon="3.58097">
        <ele>1551</ele>
        <time>2017-03-01T18:44:46Z</time>
      </trkpt>
      <trkpt lat="44.12156" lon="3.58106">
        <ele>1551</ele>
        <time>2017-03-01T18:46:46Z</time>
      </trkpt>
      <trkpt lat="44.12156" lon="3.58117">
        <ele>1551</ele>
        <time>2017-03-01T18:48:46Z</time>
      </trkpt>
      <trkpt lat="44.12158" lon="3.58141">
        <ele>1552</ele>
        <time>2017-03-01T18:50:46Z</time>
      </trkpt>
      <trkpt lat="44.12161" lon="3.58159">
        <ele>1554</ele>
        <time>2017-03-01T18:52:46Z</time>
      </trkpt>
      <trkpt lat="44.12165" lon="3.58171">
        <ele>1555</ele>
        <time>2017-03-01T18:54:46Z</time>
      </trkpt>
      <trkpt lat="44.1216" lon="3.58196">
        <ele>1553</ele>
        <time>2017-03-01T18:56:46Z</time>
      </trkpt>
      <trkpt lat="44.12158" lon="3.58201">
        <ele>1552</ele>
        <time>2017-03-01T18:58:46Z</time>
      </trkpt>
      <trkpt lat="44.12153" lon="3.58214">
        <ele>1551</ele>
        <time>2017-03-01T19:00:46Z</time>
      </trkpt>
      <trkpt lat="44.12148" lon="3.58223">
        <ele>1549</ele>
        <time>2017-03-01T19:02:46Z</time>
      </trkpt>
      <trkpt lat="44.12153" lon="3.58233">
        <ele>1550</ele>
        <time>2017-03-01T19:04:46Z</time>
      </trkpt>
      <trkpt lat="44.12151" lon="3.58257">
        <ele>1549</ele>
        <time>2017-03-01T19:06:46Z</time>
      </trkpt>
      <trkpt lat="44.1215" lon="3.58295">
        <ele>1546</ele>
        <time>2017-03-01T19:08:46Z</time>
      </trkpt>
      <trkpt lat="44.12151" lon="3.58257">
        <ele>1549</ele>
        <time>2017-03-01T19:10:46Z</time>
      </trkpt>
      <trkpt lat="44.12153" lon="3.58233">
        <ele>1550</ele>
        <time>2017-03-01T19:12:46Z</time>
      </trkpt>
      <trkpt lat="44.12148" lon="3.58223">
        <ele>1549</ele>
        <time>2017-03-01T19:14:46Z</time>
      </trkpt>
      <trkpt lat="44.12145" lon="3.58226">
        <ele>1549</ele>
        <time>2017-03-01T19:16:46Z</time>
      </trkpt>
      <trkpt lat="44.1214" lon="3.58229">
        <ele>1548</ele>
        <time>2017-03-01T19:18:46Z</time>
      </trkpt>
      <trkpt lat="44.12129" lon="3.58231">
        <ele>1545</ele>
        <time>2017-03-01T19:20:46Z</time>
      </trkpt>
      <trkpt lat="44.12121" lon="3.58229">
        <ele>1543</ele>
        <time>2017-03-01T19:22:46Z</time>
      </trkpt>
      <trkpt lat="44.12117" lon="3.58228">
        <ele>1542</ele>
        <time>2017-03-01T19:24:46Z</time>
      </trkpt>
      <trkpt lat="44.12113" lon="3.58224">
        <ele>1542</ele>
        <time>2017-03-01T19:26:46Z</time>
      </trkpt>
      <trkpt lat="44.1211" lon="3.5822">
        <ele>1541</ele>
        <time>2017-03-01T19:28:46Z</time>
      </trkpt>
      <trkpt lat="44.12106" lon="3.5821">
        <ele>1540</ele>
        <time>2017-03-01T19:30:46Z</time>
      </trkpt>
      <trkpt lat="44.12101" lon="3.58191">
        <ele>1540</ele>
        <time>2017-03-01T19:32:46Z</time>
      </trkpt>
      <trkpt lat="44.121" lon="3.58185">
        <ele>1540</ele>
        <time>2017-03-01T19:34:46Z</time>
      </trkpt>
      <trkpt lat="44.12099" lon="3.58147">
        <ele>1540</ele>
        <time>2017-03-01T19:36:46Z</time>
      </trkpt>
      <trkpt lat="44.121" lon="3.58139">
        <ele>1539</ele>
        <time>2017-03-01T19:38:46Z</time>
      </trkpt>
      <trkpt lat="44.12102" lon="3.58126">
        <ele>1539</ele>
        <time>2017-03-01T19:40:46Z</time>
      </trkpt>
      <trkpt lat="44.12106" lon="3.58101">
        <ele>1539</ele>
        <time>2017-03-01T19:42:46Z</time>
      </trkpt>
      <trkpt lat="44.12117" lon="3.58038">
        <ele>1542</ele>
        <time>2017-03-01T19:44:46Z</time>
      </trkpt>
      <trkpt lat="44.12119" lon="3.58021">
        <ele>1543</ele>
        <time>2017-03-01T19:46:46Z</time>
      </trkpt>
      <trkpt lat="44.12121" lon="3.57985">
        <ele>1545</ele>
        <time>2017-03-01T19:48:46Z</time>
      </trkpt>
      <trkpt lat="44.12118" lon="3.57938">
        <ele>1549</ele>
        <time>2017-03-01T19:50:46Z</time>
      </trkpt>
      <trkpt lat="44.12116" lon="3.57913">
        <ele>1551</ele>
        <time>2017-03-01T19:52:46Z</time>
      </trkpt>
      <trkpt lat="44.12116" lon="3.57891">
        <ele>1552</ele>
        <time>2017-03-01T19:54:46Z</time>
      </trkpt>
      <trkpt lat="44.12116" lon="3.5788">
        <ele>1552</ele>
        <time>2017-03-01T19:56:46Z</time>
      </trkpt>
      <trkpt lat="44.1212" lon="3.5784">
        <ele>1554</ele>
        <time>2017-03-01T19:58:46Z</time>
      </trkpt>
      <trkpt lat="44.12128" lon="3.57774">
        <ele>1556</ele>
        <time>2017-03-01T20:00:46Z</time>
      </trkpt>
      <trkpt lat="44.12129" lon="3.57769">
        <ele>1556</ele>
        <time>2017-03-01T20:02:46Z</time>
      </trkpt>
      <trkpt lat="44.12131" lon="3.57761">
        <ele>1556</ele>
        <time>2017-03-01T20:04:46Z</time>
      </trkpt>
      <trkpt lat="44.12135" lon="3.5775">
        <ele>1556</ele>
        <time>2017-03-01T20:06:46Z</time>
      </trkpt>
      <trkpt lat="44.1214" lon="3.57739">
        <ele>1557</ele>
        <time>2017-03-01T20:08:46Z</time>
      </trkpt>
      <trkpt lat="44.12144" lon="3.57733">
        <ele>1557</ele>
        <time>2017-03-01T20:10:46Z</time>
      </trkpt>
      <trkpt lat="44.12147" lon="3.57728">
        <ele>1557</ele>
        <time>2017-03-01T20:12:46Z</time>
      </trkpt>
      <trkpt lat="44.12151" lon="3.57725">
        <ele>1557</ele>
        <time>2017-03-01T20:14:46Z</time>
      </trkpt>
      <trkpt lat="44.12154" lon="3.57722">
        <ele>1557</ele>
        <time>2017-03-01T20:16:46Z</time>
      </trkpt>
      <trkpt lat="44.12157" lon="3.5772">
        <ele>1557</ele>
        <time>2017-03-01T20:18:46Z</time>
      </trkpt>
      <trkpt lat="44.12154" lon="3.57709">
        <ele>1557</ele>
        <time>2017-03-01T20:20:46Z</time>
      </trkpt>
      <trkpt lat="44.12153" lon="3.57688">
        <ele>1557</ele>
        <time>2017-03-01T20:22:46Z</time>
      </trkpt>
      <trkpt lat="44.12157" lon="3.57625">
        <ele>1557</ele>
        <time>2017-03-01T20:24:46Z</time>
      </trkpt>
      <trkpt lat="44.12159" lon="3.57584">
        <ele>1558</ele>
        <time>2017-03-01T20:26:46Z</time>
      </trkpt>
      <trkpt lat="44.1216" lon="3.57569">
        <ele>1558</ele>
        <time>2017-03-01T20:28:46Z</time>
      </trkpt>
      <trkpt lat="44.1216" lon="3.57542">
        <ele>1558</ele>
        <time>2017-03-01T20:30:46Z</time>
      </trkpt>
      <trkpt lat="44.1216" lon="3.57418">
        <ele>1556</ele>
        <time>2017-03-01T20:32:46Z</time>
      </trkpt>
      <trkpt lat="44.12159" lon="3.57367">
        <ele>1554</ele>
        <time>2017-03-01T20:34:46Z</time>
      </trkpt>
      <trkpt lat="44.12159" lon="3.57304">
        <ele>1552</ele>
        <time>2017-03-01T20:36:46Z</time>
      </trkpt>
      <trkpt lat="44.1216" lon="3.57286">
        <ele>1551</ele>
        <time>2017-03-01T20:38:46Z</time>
      </trkpt>
      <trkpt lat="44.12161" lon="3.57271">
        <ele>1551</ele>
        <time>2017-03-01T20:40:46Z</time>
      </trkpt>
      <trkpt lat="44.12163" lon="3.57255">
        <ele>1550</ele>
        <time>2017-03-01T20:42:46Z</time>
      </trkpt>
      <trkpt lat="44.12168" lon="3.57231">
        <ele>1549</ele>
        <time>2017-03-01T20:44:46Z</time>
      </trkpt>
      <trkpt lat="44.12177" lon="3.57195">
        <ele>1548</ele>
        <time>2017-03-01T20:46:46Z</time>
      </trkpt>
      <trkpt lat="44.12187" lon="3.57157">
        <ele>1546</ele>
        <time>2017-03-01T20:48:46Z</time>
      </trkpt>
      <trkpt lat="44.12198" lon="3.57118">
        <ele>1544</ele>
        <time>2017-03-01T20:50:46Z</time>
      </trkpt>
      <trkpt lat="44.12218" lon="3.57049">
        <ele>1542</ele>
        <time>2017-03-01T20:52:46Z</time>
      </trkpt>
      <trkpt lat="44.12224" lon="3.57029">
        <ele>1541</ele>
        <time>2017-03-01T20:54:46Z</time>
      </trkpt>
      <trkpt lat="44.1223" lon="3.57017">
        <ele>1541</ele>
        <time>2017-03-01T20:56:46Z</time>
      </trkpt>
      <trkpt lat="44.12236" lon="3.57008">
        <ele>1541</ele>
        <time>2017-03-01T20:58:46Z</time>
      </trkpt>
      <trkpt lat="44.12241" lon="3.57004">
        <ele>1542</ele>
        <time>2017-03-01T21:00:46Z</time>
      </trkpt>
      <trkpt lat="44.12246" lon="3.56999">
        <ele>1542</ele>
        <time>2017-03-01T21:02:46Z</time>
      </trkpt>
      <trkpt lat="44.12253" lon="3.56998">
        <ele>1542</ele>
        <time>2017-03-01T21:04:46Z</time>
      </trkpt>
      <trkpt lat="44.1226" lon="3.57001">
        <ele>1541</ele>
        <time>2017-03-01T21:06:46Z</time>
      </trkpt>
      <trkpt lat="44.12271" lon="3.57008">
        <ele>1541</ele>
        <time>2017-03-01T21:08:46Z</time>
      </trkpt>
      <trkpt lat="44.1228" lon="3.57015">
        <ele>1540</ele>
        <time>2017-03-01T21:10:46Z</time>
      </trkpt>
      <trkpt lat="44.12287" lon="3.5702">
        <ele>1540</ele>
        <time>2017-03-01T21:12:46Z</time>
      </trkpt>
      <trkpt lat="44.12298" lon="3.57026">
        <ele>1540</ele>
        <time>2017-03-01T21:14:46Z</time>
      </trkpt>
      <trkpt lat="44.12304" lon="3.57027">
        <ele>1539</ele>
        <time>2017-03-01T21:16:46Z</time>
      </trkpt>
      <trkpt lat="44.12312" lon="3.57028">
        <ele>1539</ele>
        <time>2017-03-01T21:18:46Z</time>
      </trkpt>
      <trkpt lat="44.12324" lon="3.57027">
        <ele>1538</ele>
        <time>2017-03-01T21:20:46Z</time>
      </trkpt>
      <trkpt lat="44.12329" lon="3.57026">
        <ele>1538</ele>
        <time>2017-03-01T21:22:46Z</time>
      </trkpt>
      <trkpt lat="44.12334" lon="3.5703">
        <ele>1538</ele>
        <time>2017-03-01T21:24:46Z</time>
      </trkpt>
      <trkpt lat="44.12341" lon="3.57031">
        <ele>1537</ele>
        <time>2017-03-01T21:26:46Z</time>
      </trkpt>
      <trkpt lat="44.12353" lon="3.57028">
        <ele>1537</ele>
        <time>2017-03-01T21:28:46Z</time>
      </trkpt>
      <trkpt lat="44.12403" lon="3.57023">
        <ele>1534</ele>
        <time>2017-03-01T21:30:46Z</time>
      </trkpt>
      <trkpt lat="44.1243" lon="3.57023">
        <ele>1533</ele>
        <time>2017-03-01T21:32:46Z</time>
      </trkpt>
      <trkpt lat="44.12457" lon="3.57022">
        <ele>1532</ele>
        <time>2017-03-01T21:34:46Z</time>
      </trkpt>
      <trkpt lat="44.12482" lon="3.57021">
        <ele>1531</ele>
        <time>2017-03-01T21:36:46Z</time>
      </trkpt>
      <trkpt lat="44.1251" lon="3.57022">
        <ele>1531</ele>
        <time>2017-03-01T21:38:46Z</time>
      </trkpt>
      <trkpt lat="44.12519" lon="3.57021">
        <ele>1530</ele>
        <time>2017-03-01T21:40:46Z</time>
      </trkpt>
      <trkpt lat="44.12547" lon="3.57014">
        <ele>1529</ele>
        <time>2017-03-01T21:42:46Z</time>
      </trkpt>
      <trkpt lat="44.12567" lon="3.5701">
        <ele>1529</ele>
        <time>2017-03-01T21:44:46Z</time>
      </trkpt>
      <trkpt lat="44.12611" lon="3.57003">
        <ele>1525</ele>
        <time>2017-03-01T21:46:46Z</time>
      </trkpt>
      <trkpt lat="44.1262" lon="3.57002">
        <ele>1525</ele>
        <time>2017-03-01T21:48:46Z</time>
      </trkpt>
      <trkpt lat="44.12629" lon="3.57005">
        <ele>1524</ele>
        <time>2017-03-01T21:50:46Z</time>
      </trkpt>
      <trkpt lat="44.12672" lon="3.57029">
        <ele>1521</ele>
        <time>2017-03-01T21:52:46Z</time>
      </trkpt>
      <trkpt lat="44.12687" lon="3.57036">
        <ele>1520</ele>
        <time>2017-03-01T21:54:46Z</time>
      </trkpt>
      <trkpt lat="44.12708" lon="3.57041">
        <ele>1519</ele>
        <time>2017-03-01T21:56:46Z</time>
      </trkpt>
      <trkpt lat="44.12729" lon="3.57043">
        <ele>1519</ele>
        <time>2017-03-01T21:58:46Z</time>
      </trkpt>
      <trkpt lat="44.12744" lon="3.57043">
        <ele>1518</ele>
        <time>2017-03-01T22:00:46Z</time>
      </trkpt>
      <trkpt lat="44.12765" lon="3.57041">
        <ele>1518</ele>
        <time>2017-03-01T22:02:46Z</time>
      </trkpt>
      <trkpt lat="44.12784" lon="3.57036">
        <ele>1517</ele>
        <time>2017-03-01T22:04:46Z</time>
      </trkpt>
      <trkpt lat="44.12806" lon="3.57027">
        <ele>1516</ele>
        <time>2017-03-01T22:06:46Z</time>
      </trkpt>
      <trkpt lat="44.1283" lon="3.5702">
        <ele>1515</ele>
        <time>2017-03-01T22:08:46Z</time>
      </trkpt>
      <trkpt lat="44.12852" lon="3.57015">
        <ele>1515</ele>
        <time>2017-03-01T22:10:46Z</time>
      </trkpt>
      <trkpt lat="44.12883" lon="3.57">
        <ele>1515</ele>
        <time>2017-03-01T22:12:46Z</time>
      </trkpt>
      <trkpt lat="44.12902" lon="3.56987">
        <ele>1513</ele>
        <time>2017-03-01T22:14:46Z</time>
      </trkpt>
      <trkpt lat="44.12939" lon="3.56969">
        <ele>1512</ele>
        <time>2017-03-01T22:16:46Z</time>
      </trkpt>
      <trkpt lat="44.12962" lon="3.56959">
        <ele>1511</ele>
        <time>2017-03-01T22:18:46Z</time>
      </trkpt>
      <trkpt lat="44.12982" lon="3.56946">
        <ele>1510</ele>
        <time>2017-03-01T22:20:46Z</time>
      </trkpt>
      <trkpt lat="44.12996" lon="3.56937">
        <ele>1509</ele>
        <time>2017-03-01T22:22:46Z</time>
      </trkpt>
      <trkpt lat="44.13004" lon="3.5693">
        <ele>1509</ele>
        <time>2017-03-01T22:24:46Z</time>
      </trkpt>
      <trkpt lat="44.13015" lon="3.56917">
        <ele>1509</ele>
        <time>2017-03-01T22:26:46Z</time>
      </trkpt>
      <trkpt lat="44.13028" lon="3.56904">
        <ele>1509</ele>
        <time>2017-03-01T22:28:46Z</time>
      </trkpt>
      <trkpt lat="44.13038" lon="3.56896">
        <ele>1510</ele>
        <time>2017-03-01T22:30:46Z</time>
      </trkpt>
      <trkpt lat="44.13042" lon="3.56894">
        <ele>1510</ele>
        <time>2017-03-01T22:32:46Z</time>
      </trkpt>
      <trkpt lat="44.13046" lon="3.5689">
        <ele>1510</ele>
        <time>2017-03-01T22:34:46Z</time>
      </trkpt>
      <trkpt lat="44.13049" lon="3.56881">
        <ele>1510</ele>
        <time>2017-03-01T22:36:46Z</time>
      </trkpt>
      <trkpt lat="44.13054" lon="3.5686">
        <ele>1509</ele>
        <time>2017-03-01T22:38:46Z</time>
      </trkpt>
      <trkpt lat="44.13059" lon="3.56839">
        <ele>1507</ele>
        <time>2017-03-01T22:40:46Z</time>
      </trkpt>
      <trkpt lat="44.13074" lon="3.56763">
        <ele>1508</ele>
        <time>2017-03-01T22:42:46Z</time>
      </trkpt>
      <trkpt lat="44.13096" lon="3.56682">
        <ele>1508</ele>
        <time>2017-03-01T22:44:46Z</time>
      </trkpt>
      <trkpt lat="44.13103" lon="3.56662">
        <ele>1508</ele>
        <time>2017-03-01T22:46:46Z</time>
      </trkpt>
      <trkpt lat="44.13114" lon="3.56642">
        <ele>1507</ele>
        <time>2017-03-01T22:48:46Z</time>
      </trkpt>
      <trkpt lat="44.13129" lon="3.5662">
        <ele>1508</ele>
        <time>2017-03-01T22:50:46Z</time>
      </trkpt>
      <trkpt lat="44.13147" lon="3.56594">
        <ele>1508</ele>
        <time>2017-03-01T22:52:46Z</time>
      </trkpt>
      <trkpt lat="44.13166" lon="3.5657">
        <ele>1508</ele>
        <time>2017-03-01T22:54:46Z</time>
      </trkpt>
      <trkpt lat="44.13187" lon="3.56544">
        <ele>1507</ele>
        <time>2017-03-01T22:56:46Z</time>
      </trkpt>
      <trkpt lat="44.132" lon="3.56531">
        <ele>1507</ele>
        <time>2017-03-01T22:58:46Z</time>
      </trkpt>
      <trkpt lat="44.1321" lon="3.5652">
        <ele>1506</ele>
        <time>2017-03-01T23:00:46Z</time>
      </trkpt>
      <trkpt lat="44.13216" lon="3.56512">
        <ele>1506</ele>
        <time>2017-03-01T23:02:46Z</time>
      </trkpt>
      <trkpt lat="44.13225" lon="3.565">
        <ele>1505</ele>
        <time>2017-03-01T23:04:46Z</time>
      </trkpt>
      <trkpt lat="44.13236" lon="3.56491">
        <ele>1505</ele>
        <time>2017-03-01T23:06:46Z</time>
      </trkpt>
      <trkpt lat="44.13242" lon="3.56488">
        <ele>1505</ele>
        <time>2017-03-01T23:08:46Z</time>
      </trkpt>
      <trkpt lat="44.13257" lon="3.56483">
        <ele>1504</ele>
        <time>2017-03-01T23:10:46Z</time>
      </trkpt>
      <trkpt lat="44.13277" lon="3.5648">
        <ele>1504</ele>
        <time>2017-03-01T23:12:46Z</time>
      </trkpt>
      <trkpt lat="44.13304" lon="3.56476">
        <ele>1502</ele>
        <time>2017-03-01T23:14:46Z</time>
      </trkpt>
      <trkpt lat="44.13314" lon="3.56476">
        <ele>1502</ele>
        <time>2017-03-01T23:16:46Z</time>
      </trkpt>
      <trkpt lat="44.13329" lon="3.56473">
        <ele>1502</ele>
        <time>2017-03-01T23:18:46Z</time>
      </trkpt>
      <trkpt lat="44.13343" lon="3.56472">
        <ele>1502</ele>
        <time>2017-03-01T23:20:46Z</time>
      </trkpt>
      <trkpt lat="44.13353" lon="3.56474">
        <ele>1503</ele>
        <time>2017-03-01T23:22:46Z</time>
      </trkpt>
      <trkpt lat="44.13365" lon="3.56474">
        <ele>1503</ele>
        <time>2017-03-01T23:24:46Z</time>
      </trkpt>
      <trkpt lat="44.13383" lon="3.56471">
        <ele>1504</ele>
        <time>2017-03-01T23:26:46Z</time>
      </trkpt>
      <trkpt lat="44.13391" lon="3.56469">
        <ele>1504</ele>
        <time>2017-03-01T23:28:46Z</time>
      </trkpt>
      <trkpt lat="44.13395" lon="3.56468">
        <ele>1504</ele>
        <time>2017-03-01T23:30:46Z</time>
      </trkpt>
      <trkpt lat="44.13424" lon="3.56452">
        <ele>1503</ele>
        <time>2017-03-01T23:32:46Z</time>
      </trkpt>
      <trkpt lat="44.13441" lon="3.5644">
        <ele>1502</ele>
        <time>2017-03-01T23:34:46Z</time>
      </trkpt>
      <trkpt lat="44.13452" lon="3.56436">
        <ele>1502</ele>
        <time>2017-03-01T23:36:46Z</time>
      </trkpt>
      <trkpt lat="44.13459" lon="3.56435">
        <ele>1502</ele>
        <time>2017-03-01T23:38:46Z</time>
      </trkpt>
      <trkpt lat="44.13469" lon="3.56438">
        <ele>1503</ele>
        <time>2017-03-01T23:40:46Z</time>
      </trkpt>
      <trkpt lat="44.13494" lon="3.56452">
        <ele>1505</ele>
        <time>2017-03-01T23:42:46Z</time>
      </trkpt>
      <trkpt lat="44.13562" lon="3.56495">
        <ele>1505</ele>
        <time>2017-03-01T23:44:46Z</time>
      </trkpt>
      <trkpt lat="44.13582" lon="3.56508">
        <ele>1505</ele>
        <time>2017-03-01T23:46:46Z</time>
      </trkpt>
      <trkpt lat="44.13589" lon="3.56513">
        <ele>1505</ele>
        <time>2017-03-01T23:48:46Z</time>
      </trkpt>
      <trkpt lat="44.13593" lon="3.56515">
        <ele>1505</ele>
        <time>2017-03-01T23:50:46Z</time>
      </trkpt>
      <trkpt lat="44.13597" lon="3.56516">
        <ele>1505</ele>
        <time>2017-03-01T23:52:46Z</time>
      </trkpt>
      <trkpt lat="44.13615" lon="3.56518">
        <ele>1504</ele>
        <time>2017-03-01T23:54:46Z</time>
      </trkpt>
      <trkpt lat="44.13641" lon="3.56526">
        <ele>1503</ele>
        <time>2017-03-01T23:56:46Z</time>
      </trkpt>
      <trkpt lat="44.13653" lon="3.5653">
        <ele>1503</ele>
        <time>2017-03-01T23:58:46Z</time>
      </trkpt>
      <trkpt lat="44.13669" lon="3.56541">
        <ele>1504</ele>
        <time>2017-03-02T00:00:46Z</time>
      </trkpt>
      <trkpt lat="44.1368" lon="3.56546">
        <ele>1504</ele>
        <time>2017-03-02T00:02:46Z</time>
      </trkpt>
      <trkpt lat="44.137" lon="3.56554">
        <ele>1505</ele>
        <time>2017-03-02T00:04:46Z</time>
      </trkpt>
      <trkpt lat="44.13746" lon="3.5657">
        <ele>1507</ele>
        <time>2017-03-02T00:06:46Z</time>
      </trkpt>
      <trkpt lat="44.13766" lon="3.56574">
        <ele>1507</ele>
        <time>2017-03-02T00:08:46Z</time>
      </trkpt>
      <trkpt lat="44.1379" lon="3.5658">
        <ele>1507</ele>
        <time>2017-03-02T00:10:46Z</time>
      </trkpt>
      <trkpt lat="44.1382" lon="3.56593">
        <ele>1507</ele>
        <time>2017-03-02T00:12:46Z</time>
      </trkpt>
      <trkpt lat="44.1384" lon="3.56601">
        <ele>1507</ele>
        <time>2017-03-02T00:14:46Z</time>
      </trkpt>
      <trkpt lat="44.13852" lon="3.56609">
        <ele>1507</ele>
        <time>2017-03-02T00:16:46Z</time>
      </trkpt>
      <trkpt lat="44.13881" lon="3.56624">
        <ele>1506</ele>
        <time>2017-03-02T00:18:46Z</time>
      </trkpt>
      <trkpt lat="44.13904" lon="3.56632">
        <ele>1504</ele>
        <time>2017-03-02T00:20:46Z</time>
      </trkpt>
      <trkpt lat="44.13921" lon="3.56639">
        <ele>1503</ele>
        <time>2017-03-02T00:22:46Z</time>
      </trkpt>
      <trkpt lat="44.13935" lon="3.56643">
        <ele>1501</ele>
        <time>2017-03-02T00:24:46Z</time>
      </trkpt>
      <trkpt lat="44.13954" lon="3.56644">
        <ele>1499</ele>
        <time>2017-03-02T00:26:46Z</time>
      </trkpt>
      <trkpt lat="44.13981" lon="3.56646">
        <ele>1495</ele>
        <time>2017-03-02T00:28:46Z</time>
      </trkpt>
      <trkpt lat="44.13996" lon="3.56648">
        <ele>1493</ele>
        <time>2017-03-02T00:30:46Z</time>
      </trkpt>
      <trkpt lat="44.14008" lon="3.56646">
        <ele>1492</ele>
        <time>2017-03-02T00:32:46Z</time>
      </trkpt>
      <trkpt lat="44.14016" lon="3.56643">
        <ele>1491</ele>
        <time>2017-03-02T00:34:46Z</time>
      </trkpt>
      <trkpt lat="44.14027" lon="3.56641">
        <ele>1491</ele>
        <time>2017-03-02T00:36:46Z</time>
      </trkpt>
      <trkpt lat="44.14034" lon="3.56641">
        <ele>1490</ele>
        <time>2017-03-02T00:38:46Z</time>
      </trkpt>
      <trkpt lat="44.14041" lon="3.56638">
        <ele>1490</ele>
        <time>2017-03-02T00:40:46Z</time>
      </trkpt>
      <trkpt lat="44.1405" lon="3.56633">
        <ele>1488</ele>
        <time>2017-03-02T00:42:46Z</time>
      </trkpt>
      <trkpt lat="44.14052" lon="3.5663">
        <ele>1487</ele>
        <time>2017-03-02T00:44:46Z</time>
      </trkpt>
      <trkpt lat="44.14058" lon="3.56625">
        <ele>1486</ele>
        <time>2017-03-02T00:46:46Z</time>
      </trkpt>
      <trkpt lat="44.14061" lon="3.56621">
        <ele>1485</ele>
        <time>2017-03-02T00:48:46Z</time>
      </trkpt>
      <trkpt lat="44.14067" lon="3.56617">
        <ele>1484</ele>
        <time>2017-03-02T00:50:46Z</time>
      </trkpt>
      <trkpt lat="44.1407" lon="3.56616">
        <ele>1484</ele>
        <time>2017-03-02T00:52:46Z</time>
      </trkpt>
      <trkpt lat="44.14078" lon="3.56611">
        <ele>1482</ele>
        <time>2017-03-02T00:54:46Z</time>
      </trkpt>
      <trkpt lat="44.14085" lon="3.56608">
        <ele>1481</ele>
        <time>2017-03-02T00:56:46Z</time>
      </trkpt>
      <trkpt lat="44.14099" lon="3.56603">
        <ele>1480</ele>
        <time>2017-03-02T00:58:46Z</time>
      </trkpt>
      <trkpt lat="44.14112" lon="3.566">
        <ele>1478</ele>
        <time>2017-03-02T01:00:46Z</time>
      </trkpt>
      <trkpt lat="44.14128" lon="3.56594">
        <ele>1476</ele>
        <time>2017-03-02T01:02:46Z</time>
      </trkpt>
      <trkpt lat="44.14145" lon="3.56589">
        <ele>1474</ele>
        <time>2017-03-02T01:04:46Z</time>
      </trkpt>
      <trkpt lat="44.14161" lon="3.56585">
        <ele>1473</ele>
        <time>2017-03-02T01:06:46Z</time>
      </trkpt>
      <trkpt lat="44.14167" lon="3.56583">
        <ele>1472</ele>
        <time>2017-03-02T01:08:46Z</time>
      </trkpt>
      <trkpt lat="44.14169" lon="3.56578">
        <ele>1470</ele>
        <time>2017-03-02T01:10:46Z</time>
      </trkpt>
      <trkpt lat="44.14173" lon="3.56573">
        <ele>1469</ele>
        <time>2017-03-02T01:12:46Z</time>
      </trkpt>
      <trkpt lat="44.14186" lon="3.56566">
        <ele>1465</ele>
        <time>2017-03-02T01:14:46Z</time>
      </trkpt>
      <trkpt lat="44.14194" lon="3.56562">
        <ele>1463</ele>
        <time>2017-03-02T01:16:46Z</time>
      </trkpt>
      <trkpt lat="44.14206" lon="3.56551">
        <ele>1460</ele>
        <time>2017-03-02T01:18:46Z</time>
      </trkpt>
      <trkpt lat="44.14223" lon="3.56528">
        <ele>1454</ele>
        <time>2017-03-02T01:20:46Z</time>
      </trkpt>
      <trkpt lat="44.14267" lon="3.56474">
        <ele>1440</ele>
        <time>2017-03-02T01:22:46Z</time>
      </trkpt>
      <trkpt lat="44.14274" lon="3.56466">
        <ele>1438</ele>
        <time>2017-03-02T01:24:46Z</time>
      </trkpt>
      <trkpt lat="44.14279" lon="3.56465">
        <ele>1437</ele>
        <time>2017-03-02T01:26:46Z</time>
      </trkpt>
      <trkpt lat="44.14285" lon="3.56465">
        <ele>1436</ele>
        <time>2017-03-02T01:28:46Z</time>
      </trkpt>
      <trkpt lat="44.14288" lon="3.56464">
        <ele>1436</ele>
        <time>2017-03-02T01:30:46Z</time>
      </trkpt>
      <trkpt lat="44.14294" lon="3.5646">
        <ele>1435</ele>
        <time>2017-03-02T01:32:46Z</time>
      </trkpt>
      <trkpt lat="44.14301" lon="3.56458">
        <ele>1434</ele>
        <time>2017-03-02T01:34:46Z</time>
      </trkpt>
      <trkpt lat="44.14311" lon="3.56455">
        <ele>1432</ele>
        <time>2017-03-02T01:36:46Z</time>
      </trkpt>
      <trkpt lat="44.14325" lon="3.56448">
        <ele>1430</ele>
        <time>2017-03-02T01:38:46Z</time>
      </trkpt>
      <trkpt lat="44.14339" lon="3.56436">
        <ele>1427</ele>
        <time>2017-03-02T01:40:46Z</time>
      </trkpt>
      <trkpt lat="44.14346" lon="3.56425">
        <ele>1425</ele>
        <time>2017-03-02T01:42:46Z</time>
      </trkpt>
      <trkpt lat="44.14352" lon="3.56414">
        <ele>1423</ele>
        <time>2017-03-02T01:44:46Z</time>
      </trkpt>
      <trkpt lat="44.14359" lon="3.56404">
        <ele>1421</ele>
        <time>2017-03-02T01:46:46Z</time>
      </trkpt>
      <trkpt lat="44.14366" lon="3.56395">
        <ele>1419</ele>
        <time>2017-03-02T01:48:46Z</time>
      </trkpt>
      <trkpt lat="44.14375" lon="3.56386">
        <ele>1417</ele>
        <time>2017-03-02T01:50:46Z</time>
      </trkpt>
      <trkpt lat="44.14392" lon="3.56373">
        <ele>1415</ele>
        <time>2017-03-02T01:52:46Z</time>
      </trkpt>
      <trkpt lat="44.14409" lon="3.56358">
        <ele>1413</ele>
        <time>2017-03-02T01:54:46Z</time>
      </trkpt>
      <trkpt lat="44.14431" lon="3.5634">
        <ele>1411</ele>
        <time>2017-03-02T01:56:46Z</time>
      </trkpt>
      <trkpt lat="44.14453" lon="3.56322">
        <ele>1408</ele>
        <time>2017-03-02T01:58:46Z</time>
      </trkpt>
      <trkpt lat="44.14484" lon="3.56297">
        <ele>1404</ele>
        <time>2017-03-02T02:00:46Z</time>
      </trkpt>
      <trkpt lat="44.14514" lon="3.56278">
        <ele>1403</ele>
        <time>2017-03-02T02:02:46Z</time>
      </trkpt>
      <trkpt lat="44.14525" lon="3.56272">
        <ele>1403</ele>
        <time>2017-03-02T02:04:46Z</time>
      </trkpt>
      <trkpt lat="44.14545" lon="3.56257">
        <ele>1405</ele>
        <time>2017-03-02T02:06:46Z</time>
      </trkpt>
      <trkpt lat="44.14552" lon="3.56256">
        <ele>1406</ele>
        <time>2017-03-02T02:08:46Z</time>
      </trkpt>
      <trkpt lat="44.14559" lon="3.56249">
        <ele>1407</ele>
        <time>2017-03-02T02:10:46Z</time>
      </trkpt>
      <trkpt lat="44.14587" lon="3.56222">
        <ele>1408</ele>
        <time>2017-03-02T02:12:46Z</time>
      </trkpt>
      <trkpt lat="44.14621" lon="3.56181">
        <ele>1411</ele>
        <time>2017-03-02T02:14:46Z</time>
      </trkpt>
      <trkpt lat="44.14638" lon="3.56166">
        <ele>1414</ele>
        <time>2017-03-02T02:16:46Z</time>
      </trkpt>
      <trkpt lat="44.14667" lon="3.56145">
        <ele>1417</ele>
        <time>2017-03-02T02:18:46Z</time>
      </trkpt>
      <trkpt lat="44.14693" lon="3.56129">
        <ele>1419</ele>
        <time>2017-03-02T02:20:46Z</time>
      </trkpt>
      <trkpt lat="44.14708" lon="3.5612">
        <ele>1420</ele>
        <time>2017-03-02T02:22:46Z</time>
      </trkpt>
      <trkpt lat="44.14715" lon="3.56113">
        <ele>1421</ele>
        <time>2017-03-02T02:24:46Z</time>
      </trkpt>
      <trkpt lat="44.14721" lon="3.56103">
        <ele>1422</ele>
        <time>2017-03-02T02:26:46Z</time>
      </trkpt>
      <trkpt lat="44.14726" lon="3.5609">
        <ele>1423</ele>
        <time>2017-03-02T02:28:46Z</time>
      </trkpt>
      <trkpt lat="44.14733" lon="3.5607">
        <ele>1423</ele>
        <time>2017-03-02T02:30:46Z</time>
      </trkpt>
      <trkpt lat="44.14738" lon="3.56048">
        <ele>1423</ele>
        <time>2017-03-02T02:32:46Z</time>
      </trkpt>
      <trkpt lat="44.14746" lon="3.56029">
        <ele>1423</ele>
        <time>2017-03-02T02:34:46Z</time>
      </trkpt>
      <trkpt lat="44.14757" lon="3.56003">
        <ele>1424</ele>
        <time>2017-03-02T02:36:46Z</time>
      </trkpt>
      <trkpt lat="44.14767" lon="3.55985">
        <ele>1425</ele>
        <time>2017-03-02T02:38:46Z</time>
      </trkpt>
      <trkpt lat="44.14774" lon="3.5597">
        <ele>1425</ele>
        <time>2017-03-02T02:40:46Z</time>
      </trkpt>
      <trkpt lat="44.14782" lon="3.55946">
        <ele>1424</ele>
        <time>2017-03-02T02:42:46Z</time>
      </trkpt>
      <trkpt lat="44.14791" lon="3.55926">
        <ele>1423</ele>
        <time>2017-03-02T02:44:46Z</time>
      </trkpt>
      <trkpt lat="44.14801" lon="3.55911">
        <ele>1423</ele>
        <time>2017-03-02T02:46:46Z</time>
      </trkpt>
      <trkpt lat="44.14821" lon="3.55889">
        <ele>1422</ele>
        <time>2017-03-02T02:48:46Z</time>
      </trkpt>
      <trkpt lat="44.14837" lon="3.55874">
        <ele>1422</ele>
        <time>2017-03-02T02:50:46Z</time>
      </trkpt>
      <trkpt lat="44.14872" lon="3.55848">
        <ele>1424</ele>
        <time>2017-03-02T02:52:46Z</time>
      </trkpt>
      <trkpt lat="44.149" lon="3.55826">
        <ele>1426</ele>
        <time>2017-03-02T02:54:46Z</time>
      </trkpt>
      <trkpt lat="44.1491" lon="3.55818">
        <ele>1426</ele>
        <time>2017-03-02T02:56:46Z</time>
      </trkpt>
      <trkpt lat="44.14943" lon="3.55797">
        <ele>1428</ele>
        <time>2017-03-02T02:58:46Z</time>
      </trkpt>
      <trkpt lat="44.14968" lon="3.55785">
        <ele>1430</ele>
        <time>2017-03-02T03:00:46Z</time>
      </trkpt>
      <trkpt lat="44.15012" lon="3.55771">
        <ele>1435</ele>
        <time>2017-03-02T03:02:46Z</time>
      </trkpt>
      <trkpt lat="44.15044" lon="3.55764">
        <ele>1438</ele>
        <time>2017-03-02T03:04:46Z</time>
      </trkpt>
      <trkpt lat="44.15065" lon="3.55756">
        <ele>1440</ele>
        <time>2017-03-02T03:06:46Z</time>
      </trkpt>
      <trkpt lat="44.15079" lon="3.55744">
        <ele>1439</ele>
        <time>2017-03-02T03:08:46Z</time>
      </trkpt>
      <trkpt lat="44.15097" lon="3.55725">
        <ele>1437</ele>
        <time>2017-03-02T03:10:46Z</time>
      </trkpt>
      <trkpt lat="44.15111" lon="3.55705">
        <ele>1434</ele>
        <time>2017-03-02T03:12:46Z</time>
      </trkpt>
      <trkpt lat="44.15127" lon="3.55682">
        <ele>1431</ele>
        <time>2017-03-02T03:14:46Z</time>
      </trkpt>
      <trkpt lat="44.15148" lon="3.55663">
        <ele>1430</ele>
        <time>2017-03-02T03:16:46Z</time>
      </trkpt>
      <trkpt lat="44.15168" lon="3.5565">
        <ele>1429</ele>
        <time>2017-03-02T03:18:46Z</time>
      </trkpt>
      <trkpt lat="44.15192" lon="3.55643">
        <ele>1428</ele>
        <time>2017-03-02T03:20:46Z</time>
      </trkpt>
      <trkpt lat="44.1522" lon="3.55641">
        <ele>1428</ele>
        <time>2017-03-02T03:22:46Z</time>
      </trkpt>
      <trkpt lat="44.15256" lon="3.55641">
        <ele>1430</ele>
        <time>2017-03-02T03:24:46Z</time>
      </trkpt>
      <trkpt lat="44.15284" lon="3.55639">
        <ele>1432</ele>
        <time>2017-03-02T03:26:46Z</time>
      </trkpt>
      <trkpt lat="44.15304" lon="3.55636">
        <ele>1433</ele>
        <time>2017-03-02T03:28:46Z</time>
      </trkpt>
      <trkpt lat="44.15329" lon="3.55623">
        <ele>1434</ele>
        <time>2017-03-02T03:30:46Z</time>
      </trkpt>
      <trkpt lat="44.1535" lon="3.5561">
        <ele>1435</ele>
        <time>2017-03-02T03:32:46Z</time>
      </trkpt>
      <trkpt lat="44.15361" lon="3.55599">
        <ele>1436</ele>
        <time>2017-03-02T03:34:46Z</time>
      </trkpt>
      <trkpt lat="44.1537" lon="3.55584">
        <ele>1436</ele>
        <time>2017-03-02T03:36:46Z</time>
      </trkpt>
      <trkpt lat="44.15379" lon="3.55564">
        <ele>1436</ele>
        <time>2017-03-02T03:38:46Z</time>
      </trkpt>
      <trkpt lat="44.15388" lon="3.55534">
        <ele>1435</ele>
        <time>2017-03-02T03:40:46Z</time>
      </trkpt>
      <trkpt lat="44.15396" lon="3.55499">
        <ele>1434</ele>
        <time>2017-03-02T03:42:46Z</time>
      </trkpt>
      <trkpt lat="44.15398" lon="3.55472">
        <ele>1432</ele>
        <time>2017-03-02T03:44:46Z</time>
      </trkpt>
      <trkpt lat="44.15399" lon="3.5545">
        <ele>1430</ele>
        <time>2017-03-02T03:46:46Z</time>
      </trkpt>
      <trkpt lat="44.15404" lon="3.55428">
        <ele>1429</ele>
        <time>2017-03-02T03:48:46Z</time>
      </trkpt>
      <trkpt lat="44.1541" lon="3.55411">
        <ele>1429</ele>
        <time>2017-03-02T03:50:46Z</time>
      </trkpt>
      <trkpt lat="44.15421" lon="3.55399">
        <ele>1430</ele>
        <time>2017-03-02T03:52:46Z</time>
      </trkpt>
      <trkpt lat="44.15439" lon="3.55388">
        <ele>1431</ele>
        <time>2017-03-02T03:54:46Z</time>
      </trkpt>
      <trkpt lat="44.15462" lon="3.55384">
        <ele>1433</ele>
        <time>2017-03-02T03:56:46Z</time>
      </trkpt>
      <trkpt lat="44.15486" lon="3.55381">
        <ele>1436</ele>
        <time>2017-03-02T03:58:46Z</time>
      </trkpt>
      <trkpt lat="44.15517" lon="3.5538">
        <ele>1437</ele>
        <time>2017-03-02T04:00:46Z</time>
      </trkpt>
      <trkpt lat="44.1553" lon="3.55381">
        <ele>1436</ele>
        <time>2017-03-02T04:02:46Z</time>
      </trkpt>
      <trkpt lat="44.15536" lon="3.55385">
        <ele>1436</ele>
        <time>2017-03-02T04:04:46Z</time>
      </trkpt>
      <trkpt lat="44.15538" lon="3.55379">
        <ele>1435</ele>
        <time>2017-03-02T04:06:46Z</time>
      </trkpt>
      <trkpt lat="44.15549" lon="3.55366">
        <ele>1432</ele>
        <time>2017-03-02T04:08:46Z</time>
      </trkpt>
      <trkpt lat="44.15566" lon="3.55342">
        <ele>1429</ele>
        <time>2017-03-02T04:10:46Z</time>
      </trkpt>
      <trkpt lat="44.15577" lon="3.55328">
        <ele>1427</ele>
        <time>2017-03-02T04:12:46Z</time>
      </trkpt>
      <trkpt lat="44.15587" lon="3.5531">
        <ele>1424</ele>
        <time>2017-03-02T04:14:46Z</time>
      </trkpt>
      <trkpt lat="44.15595" lon="3.55299">
        <ele>1420</ele>
        <time>2017-03-02T04:16:46Z</time>
      </trkpt>
      <trkpt lat="44.15606" lon="3.55284">
        <ele>1416</ele>
        <time>2017-03-02T04:18:46Z</time>
      </trkpt>
      <trkpt lat="44.15618" lon="3.55267">
        <ele>1412</ele>
        <time>2017-03-02T04:20:46Z</time>
      </trkpt>
      <trkpt lat="44.15625" lon="3.55254">
        <ele>1410</ele>
        <time>2017-03-02T04:22:46Z</time>
      </trkpt>
      <trkpt lat="44.15626" lon="3.55247">
        <ele>1409</ele>
        <time>2017-03-02T04:24:46Z</time>
      </trkpt>
      <trkpt lat="44.1563" lon="3.55237">
        <ele>1408</ele>
        <time>2017-03-02T04:26:46Z</time>
      </trkpt>
      <trkpt lat="44.15633" lon="3.55229">
        <ele>1407</ele>
        <time>2017-03-02T04:28:46Z</time>
      </trkpt>
      <trkpt lat="44.15638" lon="3.55222">
        <ele>1406</ele>
        <time>2017-03-02T04:30:46Z</time>
      </trkpt>
      <trkpt lat="44.15645" lon="3.55214">
        <ele>1405</ele>
        <time>2017-03-02T04:32:46Z</time>
      </trkpt>
      <trkpt lat="44.15652" lon="3.55201">
        <ele>1404</ele>
        <time>2017-03-02T04:34:46Z</time>
      </trkpt>
      <trkpt lat="44.1566" lon="3.55183">
        <ele>1403</ele>
        <time>2017-03-02T04:36:46Z</time>
      </trkpt>
      <trkpt lat="44.15667" lon="3.5517">
        <ele>1403</ele>
        <time>2017-03-02T04:38:46Z</time>
      </trkpt>
      <trkpt lat="44.15679" lon="3.55138">
        <ele>1397</ele>
        <time>2017-03-02T04:40:46Z</time>
      </trkpt>
      <trkpt lat="44.15681" lon="3.55131">
        <ele>1396</ele>
        <time>2017-03-02T04:42:46Z</time>
      </trkpt>
      <trkpt lat="44.15685" lon="3.55127">
        <ele>1394</ele>
        <time>2017-03-02T04:44:46Z</time>
      </trkpt>
      <trkpt lat="44.15691" lon="3.55123">
        <ele>1393</ele>
        <time>2017-03-02T04:46:46Z</time>
      </trkpt>
      <trkpt lat="44.15697" lon="3.55123">
        <ele>1392</ele>
        <time>2017-03-02T04:48:46Z</time>
      </trkpt>
      <trkpt lat="44.15706" lon="3.55127">
        <ele>1390</ele>
        <time>2017-03-02T04:50:46Z</time>
      </trkpt>
      <trkpt lat="44.15712" lon="3.55132">
        <ele>1389</ele>
        <time>2017-03-02T04:52:46Z</time>
      </trkpt>
      <trkpt lat="44.15716" lon="3.5514">
        <ele>1389</ele>
        <time>2017-03-02T04:54:46Z</time>
      </trkpt>
      <trkpt lat="44.15718" lon="3.55151">
        <ele>1389</ele>
        <time>2017-03-02T04:56:46Z</time>
      </trkpt>
      <trkpt lat="44.15723" lon="3.55165">
        <ele>1388</ele>
        <time>2017-03-02T04:58:46Z</time>
      </trkpt>
      <trkpt lat="44.1573" lon="3.55179">
        <ele>1386</ele>
        <time>2017-03-02T05:00:46Z</time>
      </trkpt>
      <trkpt lat="44.15731" lon="3.55183">
        <ele>1386</ele>
        <time>2017-03-02T05:02:46Z</time>
      </trkpt>
      <trkpt lat="44.15731" lon="3.55188">
        <ele>1386</ele>
        <time>2017-03-02T05:04:46Z</time>
      </trkpt>
      <trkpt lat="44.15734" lon="3.55193">
        <ele>1386</ele>
        <time>2017-03-02T05:06:46Z</time>
      </trkpt>
      <trkpt lat="44.15738" lon="3.55196">
        <ele>1385</ele>
        <time>2017-03-02T05:08:46Z</time>
      </trkpt>
      <trkpt lat="44.15745" lon="3.55207">
        <ele>1383</ele>
        <time>2017-03-02T05:10:46Z</time>
      </trkpt>
      <trkpt lat="44.15745" lon="3.55211">
        <ele>1383</ele>
        <time>2017-03-02T05:12:46Z</time>
      </trkpt>
      <trkpt lat="44.15748" lon="3.55216">
        <ele>1382</ele>
        <time>2017-03-02T05:14:46Z</time>
      </trkpt>
      <trkpt lat="44.15753" lon="3.55222">
        <ele>1381</ele>
        <time>2017-03-02T05:16:46Z</time>
      </trkpt>
      <trkpt lat="44.15758" lon="3.55224">
        <ele>1379</ele>
        <time>2017-03-02T05:18:46Z</time>
      </trkpt>
      <trkpt lat="44.15762" lon="3.55222">
        <ele>1378</ele>
        <time>2017-03-02T05:20:46Z</time>
      </trkpt>
      <trkpt lat="44.15765" lon="3.55223">
        <ele>1377</ele>
        <time>2017-03-02T05:22:46Z</time>
      </trkpt>
      <trkpt lat="44.15768" lon="3.55236">
        <ele>1376</ele>
        <time>2017-03-02T05:24:46Z</time>
      </trkpt>
      <trkpt lat="44.15775" lon="3.5525">
        <ele>1373</ele>
        <time>2017-03-02T05:26:46Z</time>
      </trkpt>
      <trkpt lat="44.15777" lon="3.55256">
        <ele>1373</ele>
        <time>2017-03-02T05:28:46Z</time>
      </trkpt>
      <trkpt lat="44.15781" lon="3.5526">
        <ele>1371</ele>
        <time>2017-03-02T05:30:46Z</time>
      </trkpt>
      <trkpt lat="44.15785" lon="3.55261">
        <ele>1370</ele>
        <time>2017-03-02T05:32:46Z</time>
      </trkpt>
      <trkpt lat="44.15789" lon="3.55259">
        <ele>1368</ele>
        <time>2017-03-02T05:34:46Z</time>
      </trkpt>
      <trkpt lat="44.15792" lon="3.55258">
        <ele>1367</ele>
        <time>2017-03-02T05:36:46Z</time>
      </trkpt>
      <trkpt lat="44.15797" lon="3.55258">
        <ele>1366</ele>
        <time>2017-03-02T05:38:46Z</time>
      </trkpt>
      <trkpt lat="44.15801" lon="3.55255">
        <ele>1364</ele>
        <time>2017-03-02T05:40:46Z</time>
      </trkpt>
      <trkpt lat="44.15808" lon="3.55257">
        <ele>1362</ele>
        <time>2017-03-02T05:42:46Z</time>
      </trkpt>
      <trkpt lat="44.15813" lon="3.55257">
        <ele>1360</ele>
        <time>2017-03-02T05:44:46Z</time>
      </trkpt>
      <trkpt lat="44.15819" lon="3.55256">
        <ele>1358</ele>
        <time>2017-03-02T05:46:46Z</time>
      </trkpt>
      <trkpt lat="44.15825" lon="3.55252">
        <ele>1356</ele>
        <time>2017-03-02T05:48:46Z</time>
      </trkpt>
      <trkpt lat="44.15828" lon="3.55247">
        <ele>1355</ele>
        <time>2017-03-02T05:50:46Z</time>
      </trkpt>
      <trkpt lat="44.15834" lon="3.55242">
        <ele>1353</ele>
        <time>2017-03-02T05:52:46Z</time>
      </trkpt>
      <trkpt lat="44.15847" lon="3.55236">
        <ele>1348</ele>
        <time>2017-03-02T05:54:46Z</time>
      </trkpt>
      <trkpt lat="44.15852" lon="3.55232">
        <ele>1346</ele>
        <time>2017-03-02T05:56:46Z</time>
      </trkpt>
      <trkpt lat="44.15855" lon="3.55227">
        <ele>1345</ele>
        <time>2017-03-02T05:58:46Z</time>
      </trkpt>
      <trkpt lat="44.15863" lon="3.55227">
        <ele>1342</ele>
        <time>2017-03-02T06:00:46Z</time>
      </trkpt>
      <trkpt lat="44.15875" lon="3.55223">
        <ele>1337</ele>
        <time>2017-03-02T06:02:46Z</time>
      </trkpt>
      <trkpt lat="44.15877" lon="3.55224">
        <ele>1336</ele>
        <time>2017-03-02T06:04:46Z</time>
      </trkpt>
      <trkpt lat="44.15881" lon="3.55223">
        <ele>1335</ele>
        <time>2017-03-02T06:06:46Z</time>
      </trkpt>
      <trkpt lat="44.15885" lon="3.55222">
        <ele>1333</ele>
        <time>2017-03-02T06:08:46Z</time>
      </trkpt>
      <trkpt lat="44.1589" lon="3.55224">
        <ele>1331</ele>
        <time>2017-03-02T06:10:46Z</time>
      </trkpt>
      <trkpt lat="44.15899" lon="3.55222">
        <ele>1328</ele>
        <time>2017-03-02T06:12:46Z</time>
      </trkpt>
      <trkpt lat="44.15906" lon="3.55222">
        <ele>1325</ele>
        <time>2017-03-02T06:14:46Z</time>
      </trkpt>
      <trkpt lat="44.1591" lon="3.55218">
        <ele>1323</ele>
        <time>2017-03-02T06:16:46Z</time>
      </trkpt>
      <trkpt lat="44.15913" lon="3.55219">
        <ele>1322</ele>
        <time>2017-03-02T06:18:46Z</time>
      </trkpt>
      <trkpt lat="44.15918" lon="3.55215">
        <ele>1320</ele>
        <time>2017-03-02T06:20:46Z</time>
      </trkpt>
      <trkpt lat="44.15923" lon="3.55215">
        <ele>1319</ele>
        <time>2017-03-02T06:22:46Z</time>
      </trkpt>
      <trkpt lat="44.15928" lon="3.55213">
        <ele>1318</ele>
        <time>2017-03-02T06:24:46Z</time>
      </trkpt>
      <trkpt lat="44.15933" lon="3.55212">
        <ele>1316</ele>
        <time>2017-03-02T06:26:46Z</time>
      </trkpt>
      <trkpt lat="44.15938" lon="3.55209">
        <ele>1315</ele>
        <time>2017-03-02T06:28:46Z</time>
      </trkpt>
      <trkpt lat="44.15946" lon="3.55208">
        <ele>1312</ele>
        <time>2017-03-02T06:30:46Z</time>
      </trkpt>
      <trkpt lat="44.15959" lon="3.55203">
        <ele>1308</ele>
        <time>2017-03-02T06:32:46Z</time>
      </trkpt>
      <trkpt lat="44.15969" lon="3.55201">
        <ele>1305</ele>
        <time>2017-03-02T06:34:46Z</time>
      </trkpt>
      <trkpt lat="44.15975" lon="3.55199">
        <ele>1303</ele>
        <time>2017-03-02T06:36:46Z</time>
      </trkpt>
      <trkpt lat="44.15985" lon="3.55192">
        <ele>1300</ele>
        <time>2017-03-02T06:38:46Z</time>
      </trkpt>
      <trkpt lat="44.15996" lon="3.55187">
        <ele>1296</ele>
        <time>2017-03-02T06:40:46Z</time>
      </trkpt>
      <trkpt lat="44.16005" lon="3.55184">
        <ele>1294</ele>
        <time>2017-03-02T06:42:46Z</time>
      </trkpt>
      <trkpt lat="44.16011" lon="3.55182">
        <ele>1292</ele>
        <time>2017-03-02T06:44:46Z</time>
      </trkpt>
      <trkpt lat="44.16017" lon="3.55178">
        <ele>1290</ele>
        <time>2017-03-02T06:46:46Z</time>
      </trkpt>
      <trkpt lat="44.16022" lon="3.55175">
        <ele>1289</ele>
        <time>2017-03-02T06:48:46Z</time>
      </trkpt>
      <trkpt lat="44.16031" lon="3.55166">
        <ele>1286</ele>
        <time>2017-03-02T06:50:46Z</time>
      </trkpt>
      <trkpt lat="44.16034" lon="3.55162">
        <ele>1285</ele>
        <time>2017-03-02T06:52:46Z</time>
      </trkpt>
      <trkpt lat="44.16039" lon="3.55161">
        <ele>1284</ele>
        <time>2017-03-02T06:54:46Z</time>
      </trkpt>
      <trkpt lat="44.16046" lon="3.55156">
        <ele>1282</ele>
        <time>2017-03-02T06:56:46Z</time>
      </trkpt>
      <trkpt lat="44.16056" lon="3.5515">
        <ele>1279</ele>
        <time>2017-03-02T06:58:46Z</time>
      </trkpt>
      <trkpt lat="44.16063" lon="3.55147">
        <ele>1277</ele>
        <time>2017-03-02T07:00:46Z</time>
      </trkpt>
      <trkpt lat="44.16072" lon="3.55144">
        <ele>1275</ele>
        <time>2017-03-02T07:02:46Z</time>
      </trkpt>
      <trkpt lat="44.16077" lon="3.55141">
        <ele>1273</ele>
        <time>2017-03-02T07:04:46Z</time>
      </trkpt>
      <trkpt lat="44.16081" lon="3.55134">
        <ele>1272</ele>
        <time>2017-03-02T07:06:46Z</time>
      </trkpt>
      <trkpt lat="44.16087" lon="3.55127">
        <ele>1269</ele>
        <time>2017-03-02T07:08:46Z</time>
      </trkpt>
      <trkpt lat="44.16092" lon="3.55116">
        <ele>1267</ele>
        <time>2017-03-02T07:10:46Z</time>
      </trkpt>
      <trkpt lat="44.16095" lon="3.55116">
        <ele>1266</ele>
        <time>2017-03-02T07:12:46Z</time>
      </trkpt>
      <trkpt lat="44.161" lon="3.55108">
        <ele>1265</ele>
        <time>2017-03-02T07:14:46Z</time>
      </trkpt>
      <trkpt lat="44.16103" lon="3.551">
        <ele>1263</ele>
        <time>2017-03-02T07:16:46Z</time>
      </trkpt>
      <trkpt lat="44.16106" lon="3.55094">
        <ele>1262</ele>
        <time>2017-03-02T07:18:46Z</time>
      </trkpt>
      <trkpt lat="44.16115" lon="3.55085">
        <ele>1260</ele>
        <time>2017-03-02T07:20:46Z</time>
      </trkpt>
      <trkpt lat="44.16124" lon="3.55077">
        <ele>1258</ele>
        <time>2017-03-02T07:22:46Z</time>
      </trkpt>
      <trkpt lat="44.16131" lon="3.55073">
        <ele>1256</ele>
        <time>2017-03-02T07:24:46Z</time>
      </trkpt>
      <trkpt lat="44.16136" lon="3.55069">
        <ele>1255</ele>
        <time>2017-03-02T07:26:46Z</time>
      </trkpt>
      <trkpt lat="44.16144" lon="3.55057">
        <ele>1252</ele>
        <time>2017-03-02T07:28:46Z</time>
      </trkpt>
      <trkpt lat="44.16148" lon="3.55053">
        <ele>1251</ele>
        <time>2017-03-02T07:30:46Z</time>
      </trkpt>
      <trkpt lat="44.1615" lon="3.5505">
        <ele>1251</ele>
        <time>2017-03-02T07:32:46Z</time>
      </trkpt>
      <trkpt lat="44.16155" lon="3.5505">
        <ele>1250</ele>
        <time>2017-03-02T07:34:46Z</time>
      </trkpt>
      <trkpt lat="44.16177" lon="3.55046">
        <ele>1246</ele>
        <time>2017-03-02T07:36:46Z</time>
      </trkpt>
      <trkpt lat="44.1618" lon="3.55044">
        <ele>1246</ele>
        <time>2017-03-02T07:38:46Z</time>
      </trkpt>
      <trkpt lat="44.16186" lon="3.55045">
        <ele>1245</ele>
        <time>2017-03-02T07:40:46Z</time>
      </trkpt>
      <trkpt lat="44.16194" lon="3.55041">
        <ele>1244</ele>
        <time>2017-03-02T07:42:46Z</time>
      </trkpt>
      <trkpt lat="44.16201" lon="3.55036">
        <ele>1242</ele>
        <time>2017-03-02T07:44:46Z</time>
      </trkpt>
      <trkpt lat="44.16207" lon="3.55034">
        <ele>1242</ele>
        <time>2017-03-02T07:46:46Z</time>
      </trkpt>
      <trkpt lat="44.16211" lon="3.55035">
        <ele>1241</ele>
        <time>2017-03-02T07:48:46Z</time>
      </trkpt>
      <trkpt lat="44.16228" lon="3.55027">
        <ele>1239</ele>
        <time>2017-03-02T07:50:46Z</time>
      </trkpt>
      <trkpt lat="44.16243" lon="3.55022">
        <ele>1237</ele>
        <time>2017-03-02T07:52:46Z</time>
      </trkpt>
      <trkpt lat="44.1625" lon="3.5502">
        <ele>1237</ele>
        <time>2017-03-02T07:54:46Z</time>
      </trkpt>
      <trkpt lat="44.16256" lon="3.55019">
        <ele>1235</ele>
        <time>2017-03-02T07:56:46Z</time>
      </trkpt>
      <trkpt lat="44.16261" lon="3.55016">
        <ele>1234</ele>
        <time>2017-03-02T07:58:46Z</time>
      </trkpt>
      <trkpt lat="44.16285" lon="3.54993">
        <ele>1229</ele>
        <time>2017-03-02T08:00:46Z</time>
      </trkpt>
      <trkpt lat="44.1629" lon="3.54988">
        <ele>1228</ele>
        <time>2017-03-02T08:02:46Z</time>
      </trkpt>
      <trkpt lat="44.16301" lon="3.54969">
        <ele>1224</ele>
        <time>2017-03-02T08:04:46Z</time>
      </trkpt>
      <trkpt lat="44.16312" lon="3.54957">
        <ele>1221</ele>
        <time>2017-03-02T08:06:46Z</time>
      </trkpt>
      <trkpt lat="44.16316" lon="3.54954">
        <ele>1221</ele>
        <time>2017-03-02T08:08:46Z</time>
      </trkpt>
      <trkpt lat="44.16333" lon="3.54953">
        <ele>1218</ele>
        <time>2017-03-02T08:10:46Z</time>
      </trkpt>
      <trkpt lat="44.1634" lon="3.54951">
        <ele>1217</ele>
        <time>2017-03-02T08:12:46Z</time>
      </trkpt>
      <trkpt lat="44.16344" lon="3.54951">
        <ele>1216</ele>
        <time>2017-03-02T08:14:46Z</time>
      </trkpt>
      <trkpt lat="44.16347" lon="3.54952">
        <ele>1216</ele>
        <time>2017-03-02T08:16:46Z</time>
      </trkpt>
      <trkpt lat="44.16355" lon="3.54954">
        <ele>1215</ele>
        <time>2017-03-02T08:18:46Z</time>
      </trkpt>
      <trkpt lat="44.16364" lon="3.54953">
        <ele>1213</ele>
        <time>2017-03-02T08:20:46Z</time>
      </trkpt>
      <trkpt lat="44.16374" lon="3.5495">
        <ele>1211</ele>
        <time>2017-03-02T08:22:46Z</time>
      </trkpt>
      <trkpt lat="44.16382" lon="3.54949">
        <ele>1210</ele>
        <time>2017-03-02T08:24:46Z</time>
      </trkpt>
      <trkpt lat="44.16399" lon="3.54952">
        <ele>1207</ele>
        <time>2017-03-02T08:26:46Z</time>
      </trkpt>
      <trkpt lat="44.16407" lon="3.5495">
        <ele>1206</ele>
        <time>2017-03-02T08:28:46Z</time>
      </trkpt>
      <trkpt lat="44.16421" lon="3.54944">
        <ele>1204</ele>
        <time>2017-03-02T08:30:46Z</time>
      </trkpt>
      <trkpt lat="44.16428" lon="3.54946">
        <ele>1203</ele>
        <time>2017-03-02T08:32:46Z</time>
      </trkpt>
      <trkpt lat="44.16434" lon="3.54946">
        <ele>1203</ele>
        <time>2017-03-02T08:34:46Z</time>
      </trkpt>
      <trkpt lat="44.16437" lon="3.54954">
        <ele>1203</ele>
        <time>2017-03-02T08:36:46Z</time>
      </trkpt>
      <trkpt lat="44.16447" lon="3.54976">
        <ele>1202</ele>
        <time>2017-03-02T08:38:46Z</time>
      </trkpt>
      <trkpt lat="44.16449" lon="3.54973">
        <ele>1202</ele>
        <time>2017-03-02T08:40:46Z</time>
      </trkpt>
      <trkpt lat="44.16454" lon="3.54961">
        <ele>1202</ele>
        <time>2017-03-02T08:42:46Z</time>
      </trkpt>
      <trkpt lat="44.16455" lon="3.54957">
        <ele>1201</ele>
        <time>2017-03-02T08:44:46Z</time>
      </trkpt>
      <trkpt lat="44.16458" lon="3.54947">
        <ele>1201</ele>
        <time>2017-03-02T08:46:46Z</time>
      </trkpt>
      <trkpt lat="44.16462" lon="3.54941">
        <ele>1201</ele>
        <time>2017-03-02T08:48:46Z</time>
      </trkpt>
      <trkpt lat="44.16489" lon="3.54907">
        <ele>1199</ele>
        <time>2017-03-02T08:50:46Z</time>
      </trkpt>
      <trkpt lat="44.16506" lon="3.54888">
        <ele>1196</ele>
        <time>2017-03-02T08:52:46Z</time>
      </trkpt>
      <trkpt lat="44.16539" lon="3.54859">
        <ele>1194</ele>
        <time>2017-03-02T08:54:46Z</time>
      </trkpt>
      <trkpt lat="44.16544" lon="3.54853">
        <ele>1194</ele>
        <time>2017-03-02T08:56:46Z</time>
      </trkpt>
      <trkpt lat="44.16554" lon="3.54838">
        <ele>1194</ele>
        <time>2017-03-02T08:58:46Z</time>
      </trkpt>
      <trkpt lat="44.1657" lon="3.54814">
        <ele>1193</ele>
        <time>2017-03-02T09:00:46Z</time>
      </trkpt>
      <trkpt lat="44.16582" lon="3.54803">
        <ele>1193</ele>
        <time>2017-03-02T09:02:46Z</time>
      </trkpt>
      <trkpt lat="44.16595" lon="3.54793">
        <ele>1192</ele>
        <time>2017-03-02T09:04:46Z</time>
      </trkpt>
      <trkpt lat="44.16597" lon="3.54784">
        <ele>1191</ele>
        <time>2017-03-02T09:06:46Z</time>
      </trkpt>
      <trkpt lat="44.16602" lon="3.54769">
        <ele>1191</ele>
        <time>2017-03-02T09:08:46Z</time>
      </trkpt>
      <trkpt lat="44.1661" lon="3.54756">
        <ele>1191</ele>
        <time>2017-03-02T09:10:46Z</time>
      </trkpt>
      <trkpt lat="44.16624" lon="3.54741">
        <ele>1191</ele>
        <time>2017-03-02T09:12:46Z</time>
      </trkpt>
      <trkpt lat="44.16637" lon="3.54733">
        <ele>1192</ele>
        <time>2017-03-02T09:14:46Z</time>
      </trkpt>
      <trkpt lat="44.16653" lon="3.54729">
        <ele>1193</ele>
        <time>2017-03-02T09:16:46Z</time>
      </trkpt>
      <trkpt lat="44.16673" lon="3.54725">
        <ele>1194</ele>
        <time>2017-03-02T09:18:46Z</time>
      </trkpt>
      <trkpt lat="44.16695" lon="3.54721">
        <ele>1193</ele>
        <time>2017-03-02T09:20:46Z</time>
      </trkpt>
      <trkpt lat="44.1671" lon="3.54716">
        <ele>1192</ele>
        <time>2017-03-02T09:22:46Z</time>
      </trkpt>
      <trkpt lat="44.16723" lon="3.54709">
        <ele>1192</ele>
        <time>2017-03-02T09:24:46Z</time>
      </trkpt>
      <trkpt lat="44.16742" lon="3.54695">
        <ele>1193</ele>
        <time>2017-03-02T09:26:46Z</time>
      </trkpt>
      <trkpt lat="44.16756" lon="3.54683">
        <ele>1193</ele>
        <time>2017-03-02T09:28:46Z</time>
      </trkpt>
      <trkpt lat="44.16767" lon="3.54671">
        <ele>1192</ele>
        <time>2017-03-02T09:30:46Z</time>
      </trkpt>
      <trkpt lat="44.16775" lon="3.54657">
        <ele>1192</ele>
        <time>2017-03-02T09:32:46Z</time>
      </trkpt>
      <trkpt lat="44.16793" lon="3.54617">
        <ele>1192</ele>
        <time>2017-03-02T09:34:46Z</time>
      </trkpt>
      <trkpt lat="44.168" lon="3.54601">
        <ele>1193</ele>
        <time>2017-03-02T09:36:46Z</time>
      </trkpt>
      <trkpt lat="44.1681" lon="3.54587">
        <ele>1195</ele>
        <time>2017-03-02T09:38:46Z</time>
      </trkpt>
      <trkpt lat="44.16823" lon="3.54574">
        <ele>1196</ele>
        <time>2017-03-02T09:40:46Z</time>
      </trkpt>
      <trkpt lat="44.16839" lon="3.5456">
        <ele>1198</ele>
        <time>2017-03-02T09:42:46Z</time>
      </trkpt>
      <trkpt lat="44.16856" lon="3.54551">
        <ele>1199</ele>
        <time>2017-03-02T09:44:46Z</time>
      </trkpt>
      <trkpt lat="44.16886" lon="3.5454">
        <ele>1201</ele>
        <time>2017-03-02T09:46:46Z</time>
      </trkpt>
      <trkpt lat="44.16915" lon="3.5453">
        <ele>1203</ele>
        <time>2017-03-02T09:48:46Z</time>
      </trkpt>
      <trkpt lat="44.16931" lon="3.54522">
        <ele>1202</ele>
        <time>2017-03-02T09:50:46Z</time>
      </trkpt>
      <trkpt lat="44.16949" lon="3.5451">
        <ele>1203</ele>
        <time>2017-03-02T09:52:46Z</time>
      </trkpt>
      <trkpt lat="44.16971" lon="3.54494">
        <ele>1204</ele>
        <time>2017-03-02T09:54:46Z</time>
      </trkpt>
      <trkpt lat="44.16995" lon="3.54475">
        <ele>1204</ele>
        <time>2017-03-02T09:56:46Z</time>
      </trkpt>
      <trkpt lat="44.17011" lon="3.54459">
        <ele>1205</ele>
        <time>2017-03-02T09:58:46Z</time>
      </trkpt>
      <trkpt lat="44.17034" lon="3.54435">
        <ele>1206</ele>
        <time>2017-03-02T10:00:46Z</time>
      </trkpt>
      <trkpt lat="44.17071" lon="3.54399">
        <ele>1208</ele>
        <time>2017-03-02T10:02:46Z</time>
      </trkpt>
      <trkpt lat="44.17089" lon="3.54383">
        <ele>1208</ele>
        <time>2017-03-02T10:04:46Z</time>
      </trkpt>
      <trkpt lat="44.17097" lon="3.54375">
        <ele>1208</ele>
        <time>2017-03-02T10:06:46Z</time>
      </trkpt>
      <trkpt lat="44.17139" lon="3.54338">
        <ele>1208</ele>
        <time>2017-03-02T10:08:46Z</time>
      </trkpt>
      <trkpt lat="44.17165" lon="3.54316">
        <ele>1207</ele>
        <time>2017-03-02T10:10:46Z</time>
      </trkpt>
      <trkpt lat="44.17228" lon="3.54259">
        <ele>1210</ele>
        <time>2017-03-02T10:12:46Z</time>
      </trkpt>
      <trkpt lat="44.17253" lon="3.54236">
        <ele>1211</ele>
        <time>2017-03-02T10:14:46Z</time>
      </trkpt>
      <trkpt lat="44.17269" lon="3.54224">
        <ele>1212</ele>
        <time>2017-03-02T10:16:46Z</time>
      </trkpt>
      <trkpt lat="44.17299" lon="3.54204">
        <ele>1213</ele>
        <time>2017-03-02T10:18:46Z</time>
      </trkpt>
      <trkpt lat="44.17358" lon="3.5416">
        <ele>1217</ele>
        <time>2017-03-02T10:20:46Z</time>
      </trkpt>
      <trkpt lat="44.17417" lon="3.54121">
        <ele>1217</ele>
        <time>2017-03-02T10:22:46Z</time>
      </trkpt>
      <trkpt lat="44.17423" lon="3.54116">
        <ele>1218</ele>
        <time>2017-03-02T10:24:46Z</time>
      </trkpt>
      <trkpt lat="44.17428" lon="3.54119">
        <ele>1219</ele>
        <time>2017-03-02T10:26:46Z</time>
      </trkpt>
      <trkpt lat="44.17438" lon="3.54121">
        <ele>1220</ele>
        <time>2017-03-02T10:28:46Z</time>
      </trkpt>
      <trkpt lat="44.17454" lon="3.54122">
        <ele>1223</ele>
        <time>2017-03-02T10:30:46Z</time>
      </trkpt>
      <trkpt lat="44.17464" lon="3.54122">
        <ele>1225</ele>
        <time>2017-03-02T10:32:46Z</time>
      </trkpt>
      <trkpt lat="44.17479" lon="3.54113">
        <ele>1226</ele>
        <time>2017-03-02T10:34:46Z</time>
      </trkpt>
      <trkpt lat="44.17488" lon="3.54106">
        <ele>1227</ele>
        <time>2017-03-02T10:36:46Z</time>
      </trkpt>
      <trkpt lat="44.17497" lon="3.54103">
        <ele>1228</ele>
        <time>2017-03-02T10:38:46Z</time>
      </trkpt>
      <trkpt lat="44.17505" lon="3.54101">
        <ele>1230</ele>
        <time>2017-03-02T10:40:46Z</time>
      </trkpt>
      <trkpt lat="44.17513" lon="3.54103">
        <ele>1231</ele>
        <time>2017-03-02T10:42:46Z</time>
      </trkpt>
      <trkpt lat="44.17521" lon="3.54107">
        <ele>1233</ele>
        <time>2017-03-02T10:44:46Z</time>
      </trkpt>
      <trkpt lat="44.17528" lon="3.54108">
        <ele>1235</ele>
        <time>2017-03-02T10:46:46Z</time>
      </trkpt>
      <trkpt lat="44.17534" lon="3.54108">
        <ele>1236</ele>
        <time>2017-03-02T10:48:46Z</time>
      </trkpt>
      <trkpt lat="44.17539" lon="3.54104">
        <ele>1237</ele>
        <time>2017-03-02T10:50:46Z</time>
      </trkpt>
      <trkpt lat="44.17545" lon="3.54097">
        <ele>1237</ele>
        <time>2017-03-02T10:52:46Z</time>
      </trkpt>
      <trkpt lat="44.17558" lon="3.54085">
        <ele>1238</ele>
        <time>2017-03-02T10:54:46Z</time>
      </trkpt>
      <trkpt lat="44.17579" lon="3.54074">
        <ele>1242</ele>
        <time>2017-03-02T10:56:46Z</time>
      </trkpt>
      <trkpt lat="44.17586" lon="3.54066">
        <ele>1243</ele>
        <time>2017-03-02T10:58:46Z</time>
      </trkpt>
      <trkpt lat="44.17596" lon="3.54052">
        <ele>1245</ele>
        <time>2017-03-02T11:00:46Z</time>
      </trkpt>
      <trkpt lat="44.17602" lon="3.54046">
        <ele>1246</ele>
        <time>2017-03-02T11:02:46Z</time>
      </trkpt>
      <trkpt lat="44.17608" lon="3.54036">
        <ele>1247</ele>
        <time>2017-03-02T11:04:46Z</time>
      </trkpt>
      <trkpt lat="44.1761" lon="3.54029">
        <ele>1247</ele>
        <time>2017-03-02T11:06:46Z</time>
      </trkpt>
      <trkpt lat="44.17611" lon="3.5401">
        <ele>1246</ele>
        <time>2017-03-02T11:08:46Z</time>
      </trkpt>
      <trkpt lat="44.17617" lon="3.53978">
        <ele>1247</ele>
        <time>2017-03-02T11:10:46Z</time>
      </trkpt>
      <trkpt lat="44.17622" lon="3.53938">
        <ele>1247</ele>
        <time>2017-03-02T11:12:46Z</time>
      </trkpt>
      <trkpt lat="44.17644" lon="3.53882">
        <ele>1250</ele>
        <time>2017-03-02T11:14:46Z</time>
      </trkpt>
      <trkpt lat="44.17658" lon="3.53855">
        <ele>1252</ele>
        <time>2017-03-02T11:16:46Z</time>
      </trkpt>
      <trkpt lat="44.17671" lon="3.53837">
        <ele>1254</ele>
        <time>2017-03-02T11:18:46Z</time>
      </trkpt>
      <trkpt lat="44.17676" lon="3.53828">
        <ele>1255</ele>
        <time>2017-03-02T11:20:46Z</time>
      </trkpt>
      <trkpt lat="44.17681" lon="3.53816">
        <ele>1254</ele>
        <time>2017-03-02T11:22:46Z</time>
      </trkpt>
      <trkpt lat="44.17687" lon="3.53803">
        <ele>1254</ele>
        <time>2017-03-02T11:24:46Z</time>
      </trkpt>
      <trkpt lat="44.17701" lon="3.53779">
        <ele>1255</ele>
        <time>2017-03-02T11:26:46Z</time>
      </trkpt>
      <trkpt lat="44.1771" lon="3.53767">
        <ele>1255</ele>
        <time>2017-03-02T11:28:46Z</time>
      </trkpt>
      <trkpt lat="44.17721" lon="3.53746">
        <ele>1256</ele>
        <time>2017-03-02T11:30:46Z</time>
      </trkpt>
      <trkpt lat="44.17731" lon="3.53724">
        <ele>1256</ele>
        <time>2017-03-02T11:32:46Z</time>
      </trkpt>
      <trkpt lat="44.17738" lon="3.53706">
        <ele>1255</ele>
        <time>2017-03-02T11:34:46Z</time>
      </trkpt>
      <trkpt lat="44.17748" lon="3.53689">
        <ele>1257</ele>
        <time>2017-03-02T11:36:46Z</time>
      </trkpt>
      <trkpt lat="44.17756" lon="3.53674">
        <ele>1258</ele>
        <time>2017-03-02T11:38:46Z</time>
      </trkpt>
      <trkpt lat="44.17765" lon="3.53657">
        <ele>1260</ele>
        <time>2017-03-02T11:40:46Z</time>
      </trkpt>
      <trkpt lat="44.17774" lon="3.53638">
        <ele>1263</ele>
        <time>2017-03-02T11:42:46Z</time>
      </trkpt>
      <trkpt lat="44.17779" lon="3.53621">
        <ele>1264</ele>
        <time>2017-03-02T11:44:46Z</time>
      </trkpt>
      <trkpt lat="44.17782" lon="3.53607">
        <ele>1264</ele>
        <time>2017-03-02T11:46:46Z</time>
      </trkpt>
      <trkpt lat="44.17782" lon="3.53597">
        <ele>1264</ele>
        <time>2017-03-02T11:48:46Z</time>
      </trkpt>
      <trkpt lat="44.17782" lon="3.53576">
        <ele>1263</ele>
        <time>2017-03-02T11:50:46Z</time>
      </trkpt>
      <trkpt lat="44.17778" lon="3.53554">
        <ele>1262</ele>
        <time>2017-03-02T11:52:46Z</time>
      </trkpt>
      <trkpt lat="44.17777" lon="3.53539">
        <ele>1262</ele>
        <time>2017-03-02T11:54:46Z</time>
      </trkpt>
      <trkpt lat="44.17778" lon="3.53522">
        <ele>1263</ele>
        <time>2017-03-02T11:56:46Z</time>
      </trkpt>
      <trkpt lat="44.17782" lon="3.53501">
        <ele>1264</ele>
        <time>2017-03-02T11:58:46Z</time>
      </trkpt>
      <trkpt lat="44.17791" lon="3.53472">
        <ele>1264</ele>
        <time>2017-03-02T12:00:46Z</time>
      </trkpt>
      <trkpt lat="44.17803" lon="3.53447">
        <ele>1264</ele>
        <time>2017-03-02T12:02:46Z</time>
      </trkpt>
      <trkpt lat="44.1782" lon="3.53416">
        <ele>1265</ele>
        <time>2017-03-02T12:04:46Z</time>
      </trkpt>
      <trkpt lat="44.17841" lon="3.53385">
        <ele>1263</ele>
        <time>2017-03-02T12:06:46Z</time>
      </trkpt>
      <trkpt lat="44.17859" lon="3.53364">
        <ele>1262</ele>
        <time>2017-03-02T12:08:46Z</time>
      </trkpt>
      <trkpt lat="44.17875" lon="3.5335">
        <ele>1262</ele>
        <time>2017-03-02T12:10:46Z</time>
      </trkpt>
      <trkpt lat="44.17879" lon="3.53347">
        <ele>1262</ele>
        <time>2017-03-02T12:12:46Z</time>
      </trkpt>
      <trkpt lat="44.17912" lon="3.53324">
        <ele>1263</ele>
        <time>2017-03-02T12:14:46Z</time>
      </trkpt>
      <trkpt lat="44.17926" lon="3.53309">
        <ele>1263</ele>
        <time>2017-03-02T12:16:46Z</time>
      </trkpt>
      <trkpt lat="44.17981" lon="3.53252">
        <ele>1263</ele>
        <time>2017-03-02T12:18:46Z</time>
      </trkpt>
      <trkpt lat="44.18008" lon="3.53231">
        <ele>1264</ele>
        <time>2017-03-02T12:20:46Z</time>
      </trkpt>
      <trkpt lat="44.1803" lon="3.53209">
        <ele>1263</ele>
        <time>2017-03-02T12:22:46Z</time>
      </trkpt>
      <trkpt lat="44.18054" lon="3.53178">
        <ele>1259</ele>
        <time>2017-03-02T12:24:46Z</time>
      </trkpt>
      <trkpt lat="44.1808" lon="3.53153">
        <ele>1255</ele>
        <time>2017-03-02T12:26:46Z</time>
      </trkpt>
      <trkpt lat="44.18102" lon="3.53134">
        <ele>1253</ele>
        <time>2017-03-02T12:28:46Z</time>
      </trkpt>
      <trkpt lat="44.18109" lon="3.53125">
        <ele>1252</ele>
        <time>2017-03-02T12:30:46Z</time>
      </trkpt>
      <trkpt lat="44.18115" lon="3.53113">
        <ele>1250</ele>
        <time>2017-03-02T12:32:46Z</time>
      </trkpt>
      <trkpt lat="44.18123" lon="3.53096">
        <ele>1247</ele>
        <time>2017-03-02T12:34:46Z</time>
      </trkpt>
      <trkpt lat="44.18129" lon="3.53082">
        <ele>1245</ele>
        <time>2017-03-02T12:36:46Z</time>
      </trkpt>
      <trkpt lat="44.18151" lon="3.53051">
        <ele>1243</ele>
        <time>2017-03-02T12:38:46Z</time>
      </trkpt>
      <trkpt lat="44.18173" lon="3.53021">
        <ele>1242</ele>
        <time>2017-03-02T12:40:46Z</time>
      </trkpt>
      <trkpt lat="44.18196" lon="3.52985">
        <ele>1238</ele>
        <time>2017-03-02T12:42:46Z</time>
      </trkpt>
      <trkpt lat="44.18214" lon="3.52955">
        <ele>1235</ele>
        <time>2017-03-02T12:44:46Z</time>
      </trkpt>
      <trkpt lat="44.18231" lon="3.52931">
        <ele>1234</ele>
        <time>2017-03-02T12:46:46Z</time>
      </trkpt>
      <trkpt lat="44.18249" lon="3.529">
        <ele>1234</ele>
        <time>2017-03-02T12:48:46Z</time>
      </trkpt>
      <trkpt lat="44.18265" lon="3.52869">
        <ele>1230</ele>
        <time>2017-03-02T12:50:46Z</time>
      </trkpt>
      <trkpt lat="44.18271" lon="3.52863">
        <ele>1229</ele>
        <time>2017-03-02T12:52:46Z</time>
      </trkpt>
      <trkpt lat="44.18275" lon="3.52861">
        <ele>1229</ele>
        <time>2017-03-02T12:54:46Z</time>
      </trkpt>
      <trkpt lat="44.18275" lon="3.52853">
        <ele>1228</ele>
        <time>2017-03-02T12:56:46Z</time>
      </trkpt>
      <trkpt lat="44.18276" lon="3.52846">
        <ele>1227</ele>
        <time>2017-03-02T12:58:46Z</time>
      </trkpt>
      <trkpt lat="44.18281" lon="3.52833">
        <ele>1226</ele>
        <time>2017-03-02T13:00:46Z</time>
      </trkpt>
      <trkpt lat="44.18291" lon="3.52811">
        <ele>1224</ele>
        <time>2017-03-02T13:02:46Z</time>
      </trkpt>
      <trkpt lat="44.18309" lon="3.52781">
        <ele>1223</ele>
        <time>2017-03-02T13:04:46Z</time>
      </trkpt>
      <trkpt lat="44.18324" lon="3.52751">
        <ele>1222</ele>
        <time>2017-03-02T13:06:46Z</time>
      </trkpt>
      <trkpt lat="44.18341" lon="3.52717">
        <ele>1221</ele>
        <time>2017-03-02T13:08:46Z</time>
      </trkpt>
      <trkpt lat="44.1836" lon="3.52682">
        <ele>1218</ele>
        <time>2017-03-02T13:10:46Z</time>
      </trkpt>
      <trkpt lat="44.1838" lon="3.52641">
        <ele>1216</ele>
        <time>2017-03-02T13:12:46Z</time>
      </trkpt>
      <trkpt lat="44.18398" lon="3.52602">
        <ele>1215</ele>
        <time>2017-03-02T13:14:46Z</time>
      </trkpt>
      <trkpt lat="44.18409" lon="3.52583">
        <ele>1216</ele>
        <time>2017-03-02T13:16:46Z</time>
      </trkpt>
      <trkpt lat="44.18427" lon="3.52561">
        <ele>1213</ele>
        <time>2017-03-02T13:18:46Z</time>
      </trkpt>
      <trkpt lat="44.18451" lon="3.52515">
        <ele>1207</ele>
        <time>2017-03-02T13:20:46Z</time>
      </trkpt>
      <trkpt lat="44.18466" lon="3.52488">
        <ele>1205</ele>
        <time>2017-03-02T13:22:46Z</time>
      </trkpt>
      <trkpt lat="44.18475" lon="3.52474">
        <ele>1204</ele>
        <time>2017-03-02T13:24:46Z</time>
      </trkpt>
      <trkpt lat="44.18481" lon="3.52469">
        <ele>1203</ele>
        <time>2017-03-02T13:26:46Z</time>
      </trkpt>
      <trkpt lat="44.18489" lon="3.52464">
        <ele>1204</ele>
        <time>2017-03-02T13:28:46Z</time>
      </trkpt>
      <trkpt lat="44.18505" lon="3.52454">
        <ele>1203</ele>
        <time>2017-03-02T13:30:46Z</time>
      </trkpt>
      <trkpt lat="44.18528" lon="3.52443">
        <ele>1199</ele>
        <time>2017-03-02T13:32:46Z</time>
      </trkpt>
      <trkpt lat="44.1855" lon="3.52437">
        <ele>1196</ele>
        <time>2017-03-02T13:34:46Z</time>
      </trkpt>
      <trkpt lat="44.18582" lon="3.52427">
        <ele>1193</ele>
        <time>2017-03-02T13:36:46Z</time>
      </trkpt>
      <trkpt lat="44.18608" lon="3.52417">
        <ele>1189</ele>
        <time>2017-03-02T13:38:46Z</time>
      </trkpt>
      <trkpt lat="44.18638" lon="3.52405">
        <ele>1183</ele>
        <time>2017-03-02T13:40:46Z</time>
      </trkpt>
      <trkpt lat="44.18671" lon="3.52393">
        <ele>1177</ele>
        <time>2017-03-02T13:42:46Z</time>
      </trkpt>
      <trkpt lat="44.18704" lon="3.5238">
        <ele>1170</ele>
        <time>2017-03-02T13:44:46Z</time>
      </trkpt>
      <trkpt lat="44.18765" lon="3.52359">
        <ele>1157</ele>
        <time>2017-03-02T13:46:46Z</time>
      </trkpt>
      <trkpt lat="44.18794" lon="3.5235">
        <ele>1152</ele>
        <time>2017-03-02T13:48:46Z</time>
      </trkpt>
      <trkpt lat="44.18828" lon="3.52338">
        <ele>1146</ele>
        <time>2017-03-02T13:50:46Z</time>
      </trkpt>
      <trkpt lat="44.18889" lon="3.52312">
        <ele>1133</ele>
        <time>2017-03-02T13:52:46Z</time>
      </trkpt>
      <trkpt lat="44.18928" lon="3.52298">
        <ele>1124</ele>
        <time>2017-03-02T13:54:46Z</time>
      </trkpt>
      <trkpt lat="44.18947" lon="3.52288">
        <ele>1120</ele>
        <time>2017-03-02T13:56:46Z</time>
      </trkpt>
      <trkpt lat="44.18965" lon="3.52275">
        <ele>1117</ele>
        <time>2017-03-02T13:58:46Z</time>
      </trkpt>
      <trkpt lat="44.18984" lon="3.5226">
        <ele>1113</ele>
        <time>2017-03-02T14:00:46Z</time>
      </trkpt>
      <trkpt lat="44.19001" lon="3.52241">
        <ele>1110</ele>
        <time>2017-03-02T14:02:46Z</time>
      </trkpt>
      <trkpt lat="44.19039" lon="3.52211">
        <ele>1098</ele>
        <time>2017-03-02T14:04:46Z</time>
      </trkpt>
      <trkpt lat="44.19056" lon="3.52193">
        <ele>1094</ele>
        <time>2017-03-02T14:06:46Z</time>
      </trkpt>
      <trkpt lat="44.19073" lon="3.52173">
        <ele>1090</ele>
        <time>2017-03-02T14:08:46Z</time>
      </trkpt>
      <trkpt lat="44.19088" lon="3.52159">
        <ele>1086</ele>
        <time>2017-03-02T14:10:46Z</time>
      </trkpt>
      <trkpt lat="44.19125" lon="3.52132">
        <ele>1077</ele>
        <time>2017-03-02T14:12:46Z</time>
      </trkpt>
      <trkpt lat="44.19145" lon="3.52117">
        <ele>1072</ele>
        <time>2017-03-02T14:14:46Z</time>
      </trkpt>
      <trkpt lat="44.19154" lon="3.52111">
        <ele>1070</ele>
        <time>2017-03-02T14:16:46Z</time>
      </trkpt>
      <trkpt lat="44.19165" lon="3.52109">
        <ele>1068</ele>
        <time>2017-03-02T14:18:46Z</time>
      </trkpt>
      <trkpt lat="44.19177" lon="3.52108">
        <ele>1066</ele>
        <time>2017-03-02T14:20:46Z</time>
      </trkpt>
      <trkpt lat="44.19186" lon="3.52106">
        <ele>1064</ele>
        <time>2017-03-02T14:22:46Z</time>
      </trkpt>
      <trkpt lat="44.19195" lon="3.52099">
        <ele>1062</ele>
        <time>2017-03-02T14:24:46Z</time>
      </trkpt>
      <trkpt lat="44.19204" lon="3.52089">
        <ele>1060</ele>
        <time>2017-03-02T14:26:46Z</time>
      </trkpt>
      <trkpt lat="44.19219" lon="3.52074">
        <ele>1057</ele>
        <time>2017-03-02T14:28:46Z</time>
      </trkpt>
      <trkpt lat="44.19229" lon="3.52066">
        <ele>1054</ele>
        <time>2017-03-02T14:30:46Z</time>
      </trkpt>
      <trkpt lat="44.19268" lon="3.52052">
        <ele>1047</ele>
        <time>2017-03-02T14:32:46Z</time>
      </trkpt>
      <trkpt lat="44.19288" lon="3.52042">
        <ele>1043</ele>
        <time>2017-03-02T14:34:46Z</time>
      </trkpt>
      <trkpt lat="44.19305" lon="3.52032">
        <ele>1040</ele>
        <time>2017-03-02T14:36:46Z</time>
      </trkpt>
      <trkpt lat="44.1931" lon="3.52031">
        <ele>1040</ele>
        <time>2017-03-02T14:38:46Z</time>
      </trkpt>
      <trkpt lat="44.19314" lon="3.52031">
        <ele>1039</ele>
        <time>2017-03-02T14:40:46Z</time>
      </trkpt>
      <trkpt lat="44.19319" lon="3.52034">
        <ele>1038</ele>
        <time>2017-03-02T14:42:46Z</time>
      </trkpt>
      <trkpt lat="44.19332" lon="3.52022">
        <ele>1037</ele>
        <time>2017-03-02T14:44:46Z</time>
      </trkpt>
      <trkpt lat="44.19335" lon="3.52018">
        <ele>1037</ele>
        <time>2017-03-02T14:46:46Z</time>
      </trkpt>
      <trkpt lat="44.19336" lon="3.52015">
        <ele>1037</ele>
        <time>2017-03-02T14:48:46Z</time>
      </trkpt>
      <trkpt lat="44.19358" lon="3.52015">
        <ele>1036</ele>
        <time>2017-03-02T14:50:46Z</time>
      </trkpt>
      <trkpt lat="44.19389" lon="3.52017">
        <ele>1035</ele>
        <time>2017-03-02T14:52:46Z</time>
      </trkpt>
      <trkpt lat="44.19443" lon="3.52016">
        <ele>1033</ele>
        <time>2017-03-02T14:54:46Z</time>
      </trkpt>
      <trkpt lat="44.19453" lon="3.52015">
        <ele>1033</ele>
        <time>2017-03-02T14:56:46Z</time>
      </trkpt>
      <trkpt lat="44.19468" lon="3.52013">
        <ele>1033</ele>
        <time>2017-03-02T14:58:46Z</time>
      </trkpt>
      <trkpt lat="44.19495" lon="3.52006">
        <ele>1034</ele>
        <time>2017-03-02T15:00:46Z</time>
      </trkpt>
      <trkpt lat="44.1952" lon="3.51999">
        <ele>1038</ele>
        <time>2017-03-02T15:02:46Z</time>
      </trkpt>
      <trkpt lat="44.19541" lon="3.51992">
        <ele>1040</ele>
        <time>2017-03-02T15:04:46Z</time>
      </trkpt>
      <trkpt lat="44.19564" lon="3.51982">
        <ele>1042</ele>
        <time>2017-03-02T15:06:46Z</time>
      </trkpt>
      <trkpt lat="44.19579" lon="3.51974">
        <ele>1042</ele>
        <time>2017-03-02T15:08:46Z</time>
      </trkpt>
      <trkpt lat="44.19589" lon="3.51969">
        <ele>1043</ele>
        <time>2017-03-02T15:10:46Z</time>
      </trkpt>
      <trkpt lat="44.1961" lon="3.5195">
        <ele>1046</ele>
        <time>2017-03-02T15:12:46Z</time>
      </trkpt>
      <trkpt lat="44.19639" lon="3.51919">
        <ele>1049</ele>
        <time>2017-03-02T15:14:46Z</time>
      </trkpt>
      <trkpt lat="44.19652" lon="3.51904">
        <ele>1050</ele>
        <time>2017-03-02T15:16:46Z</time>
      </trkpt>
      <trkpt lat="44.19665" lon="3.51884">
        <ele>1050</ele>
        <time>2017-03-02T15:18:46Z</time>
      </trkpt>
      <trkpt lat="44.19673" lon="3.51868">
        <ele>1049</ele>
        <time>2017-03-02T15:20:46Z</time>
      </trkpt>
      <trkpt lat="44.19681" lon="3.51849">
        <ele>1047</ele>
        <time>2017-03-02T15:22:46Z</time>
      </trkpt>
      <trkpt lat="44.19691" lon="3.51818">
        <ele>1046</ele>
        <time>2017-03-02T15:24:46Z</time>
      </trkpt>
      <trkpt lat="44.19712" lon="3.51743">
        <ele>1046</ele>
        <time>2017-03-02T15:26:46Z</time>
      </trkpt>
      <trkpt lat="44.19716" lon="3.51733">
        <ele>1047</ele>
        <time>2017-03-02T15:28:46Z</time>
      </trkpt>
      <trkpt lat="44.19722" lon="3.51725">
        <ele>1049</ele>
        <time>2017-03-02T15:30:46Z</time>
      </trkpt>
      <trkpt lat="44.19731" lon="3.51716">
        <ele>1052</ele>
        <time>2017-03-02T15:32:46Z</time>
      </trkpt>
      <trkpt lat="44.19741" lon="3.51709">
        <ele>1055</ele>
        <time>2017-03-02T15:34:46Z</time>
      </trkpt>
      <trkpt lat="44.19762" lon="3.517">
        <ele>1059</ele>
        <time>2017-03-02T15:36:46Z</time>
      </trkpt>
      <trkpt lat="44.19794" lon="3.51687">
        <ele>1058</ele>
        <time>2017-03-02T15:38:46Z</time>
      </trkpt>
      <trkpt lat="44.19826" lon="3.51676">
        <ele>1057</ele>
        <time>2017-03-02T15:40:46Z</time>
      </trkpt>
      <trkpt lat="44.1986" lon="3.51661">
        <ele>1055</ele>
        <time>2017-03-02T15:42:46Z</time>
      </trkpt>
      <trkpt lat="44.19893" lon="3.51646">
        <ele>1052</ele>
        <time>2017-03-02T15:44:46Z</time>
      </trkpt>
      <trkpt lat="44.19925" lon="3.51632">
        <ele>1050</ele>
        <time>2017-03-02T15:46:46Z</time>
      </trkpt>
      <trkpt lat="44.1994" lon="3.51624">
        <ele>1049</ele>
        <time>2017-03-02T15:48:46Z</time>
      </trkpt>
      <trkpt lat="44.19956" lon="3.51613">
        <ele>1049</ele>
        <time>2017-03-02T15:50:46Z</time>
      </trkpt>
      <trkpt lat="44.19986" lon="3.51587">
        <ele>1048</ele>
        <time>2017-03-02T15:52:46Z</time>
      </trkpt>
      <trkpt lat="44.2002" lon="3.51553">
        <ele>1044</ele>
        <time>2017-03-02T15:54:46Z</time>
      </trkpt>
      <trkpt lat="44.20052" lon="3.5152">
        <ele>1043</ele>
        <time>2017-03-02T15:56:46Z</time>
      </trkpt>
      <trkpt lat="44.2009" lon="3.51478">
        <ele>1042</ele>
        <time>2017-03-02T15:58:46Z</time>
      </trkpt>
      <trkpt lat="44.20108" lon="3.5146">
        <ele>1039</ele>
        <time>2017-03-02T16:00:46Z</time>
      </trkpt>
      <trkpt lat="44.20118" lon="3.51453">
        <ele>1038</ele>
        <time>2017-03-02T16:02:46Z</time>
      </trkpt>
      <trkpt lat="44.20128" lon="3.5145">
        <ele>1038</ele>
        <time>2017-03-02T16:04:46Z</time>
      </trkpt>
      <trkpt lat="44.20141" lon="3.5145">
        <ele>1038</ele>
        <time>2017-03-02T16:06:46Z</time>
      </trkpt>
      <trkpt lat="44.2016" lon="3.51455">
        <ele>1039</ele>
        <time>2017-03-02T16:08:46Z</time>
      </trkpt>
      <trkpt lat="44.20189" lon="3.51466">
        <ele>1039</ele>
        <time>2017-03-02T16:10:46Z</time>
      </trkpt>
      <trkpt lat="44.20206" lon="3.51472">
        <ele>1039</ele>
        <time>2017-03-02T16:12:46Z</time>
      </trkpt>
      <trkpt lat="44.20223" lon="3.51476">
        <ele>1039</ele>
        <time>2017-03-02T16:14:46Z</time>
      </trkpt>
      <trkpt lat="44.20238" lon="3.51475">
        <ele>1038</ele>
        <time>2017-03-02T16:16:46Z</time>
      </trkpt>
      <trkpt lat="44.20254" lon="3.51471">
        <ele>1037</ele>
        <time>2017-03-02T16:18:46Z</time>
      </trkpt>
      <trkpt lat="44.20275" lon="3.51462">
        <ele>1035</ele>
        <time>2017-03-02T16:20:46Z</time>
      </trkpt>
      <trkpt lat="44.20292" lon="3.51456">
        <ele>1034</ele>
        <time>2017-03-02T16:22:46Z</time>
      </trkpt>
      <trkpt lat="44.20305" lon="3.51453">
        <ele>1034</ele>
        <time>2017-03-02T16:24:46Z</time>
      </trkpt>
      <trkpt lat="44.20317" lon="3.51453">
        <ele>1033</ele>
        <time>2017-03-02T16:26:46Z</time>
      </trkpt>
      <trkpt lat="44.20333" lon="3.51458">
        <ele>1033</ele>
        <time>2017-03-02T16:28:46Z</time>
      </trkpt>
      <trkpt lat="44.2035" lon="3.5147">
        <ele>1034</ele>
        <time>2017-03-02T16:30:46Z</time>
      </trkpt>
      <trkpt lat="44.20367" lon="3.51483">
        <ele>1034</ele>
        <time>2017-03-02T16:32:46Z</time>
      </trkpt>
      <trkpt lat="44.20383" lon="3.51492">
        <ele>1033</ele>
        <time>2017-03-02T16:34:46Z</time>
      </trkpt>
      <trkpt lat="44.20393" lon="3.51495">
        <ele>1032</ele>
        <time>2017-03-02T16:36:46Z</time>
      </trkpt>
      <trkpt lat="44.20403" lon="3.51495">
        <ele>1032</ele>
        <time>2017-03-02T16:38:46Z</time>
      </trkpt>
      <trkpt lat="44.20409" lon="3.51493">
        <ele>1031</ele>
        <time>2017-03-02T16:40:46Z</time>
      </trkpt>
      <trkpt lat="44.20412" lon="3.51493">
        <ele>1031</ele>
        <time>2017-03-02T16:42:46Z</time>
      </trkpt>
      <trkpt lat="44.20415" lon="3.51492">
        <ele>1031</ele>
        <time>2017-03-02T16:44:46Z</time>
      </trkpt>
      <trkpt lat="44.20425" lon="3.51482">
        <ele>1031</ele>
        <time>2017-03-02T16:46:46Z</time>
      </trkpt>
      <trkpt lat="44.20436" lon="3.51469">
        <ele>1031</ele>
        <time>2017-03-02T16:48:46Z</time>
      </trkpt>
      <trkpt lat="44.20443" lon="3.51457">
        <ele>1031</ele>
        <time>2017-03-02T16:50:46Z</time>
      </trkpt>
      <trkpt lat="44.20455" lon="3.51442">
        <ele>1032</ele>
        <time>2017-03-02T16:52:46Z</time>
      </trkpt>
      <trkpt lat="44.20468" lon="3.5143">
        <ele>1033</ele>
        <time>2017-03-02T16:54:46Z</time>
      </trkpt>
      <trkpt lat="44.20481" lon="3.51418">
        <ele>1035</ele>
        <time>2017-03-02T16:56:46Z</time>
      </trkpt>
      <trkpt lat="44.20489" lon="3.51406">
        <ele>1036</ele>
        <time>2017-03-02T16:58:46Z</time>
      </trkpt>
      <trkpt lat="44.20503" lon="3.51382">
        <ele>1037</ele>
        <time>2017-03-02T17:00:46Z</time>
      </trkpt>
      <trkpt lat="44.20515" lon="3.51353">
        <ele>1040</ele>
        <time>2017-03-02T17:02:46Z</time>
      </trkpt>
      <trkpt lat="44.20522" lon="3.51331">
        <ele>1042</ele>
        <time>2017-03-02T17:04:46Z</time>
      </trkpt>
      <trkpt lat="44.20527" lon="3.5131">
        <ele>1043</ele>
        <time>2017-03-02T17:06:46Z</time>
      </trkpt>
      <trkpt lat="44.20532" lon="3.5128">
        <ele>1044</ele>
        <time>2017-03-02T17:08:46Z</time>
      </trkpt>
      <trkpt lat="44.20539" lon="3.51249">
        <ele>1046</ele>
        <time>2017-03-02T17:10:46Z</time>
      </trkpt>
      <trkpt lat="44.20552" lon="3.51212">
        <ele>1047</ele>
        <time>2017-03-02T17:12:46Z</time>
      </trkpt>
      <trkpt lat="44.20572" lon="3.51153">
        <ele>1047</ele>
        <time>2017-03-02T17:14:46Z</time>
      </trkpt>
      <trkpt lat="44.20585" lon="3.51119">
        <ele>1047</ele>
        <time>2017-03-02T17:16:46Z</time>
      </trkpt>
      <trkpt lat="44.20597" lon="3.51096">
        <ele>1048</ele>
        <time>2017-03-02T17:18:46Z</time>
      </trkpt>
      <trkpt lat="44.20611" lon="3.51075">
        <ele>1049</ele>
        <time>2017-03-02T17:20:46Z</time>
      </trkpt>
      <trkpt lat="44.20628" lon="3.51056">
        <ele>1050</ele>
        <time>2017-03-02T17:22:46Z</time>
      </trkpt>
      <trkpt lat="44.20635" lon="3.51049">
        <ele>1051</ele>
        <time>2017-03-02T17:24:46Z</time>
      </trkpt>
      <trkpt lat="44.20644" lon="3.51044">
        <ele>1052</ele>
        <time>2017-03-02T17:26:46Z</time>
      </trkpt>
      <trkpt lat="44.20653" lon="3.51042">
        <ele>1054</ele>
        <time>2017-03-02T17:28:46Z</time>
      </trkpt>
      <trkpt lat="44.20669" lon="3.51039">
        <ele>1058</ele>
        <time>2017-03-02T17:30:46Z</time>
      </trkpt>
      <trkpt lat="44.20692" lon="3.51035">
        <ele>1060</ele>
        <time>2017-03-02T17:32:46Z</time>
      </trkpt>
      <trkpt lat="44.20718" lon="3.5103">
        <ele>1063</ele>
        <time>2017-03-02T17:34:46Z</time>
      </trkpt>
      <trkpt lat="44.20738" lon="3.51025">
        <ele>1065</ele>
        <time>2017-03-02T17:36:46Z</time>
      </trkpt>
      <trkpt lat="44.20749" lon="3.5102">
        <ele>1066</ele>
        <time>2017-03-02T17:38:46Z</time>
      </trkpt>
      <trkpt lat="44.20758" lon="3.51013">
        <ele>1066</ele>
        <time>2017-03-02T17:40:46Z</time>
      </trkpt>
      <trkpt lat="44.20769" lon="3.51002">
        <ele>1066</ele>
        <time>2017-03-02T17:42:46Z</time>
      </trkpt>
      <trkpt lat="44.20779" lon="3.50991">
        <ele>1066</ele>
        <time>2017-03-02T17:44:46Z</time>
      </trkpt>
      <trkpt lat="44.20794" lon="3.5098">
        <ele>1068</ele>
        <time>2017-03-02T17:46:46Z</time>
      </trkpt>
      <trkpt lat="44.20805" lon="3.50971">
        <ele>1069</ele>
        <time>2017-03-02T17:48:46Z</time>
      </trkpt>
      <trkpt lat="44.20812" lon="3.50965">
        <ele>1069</ele>
        <time>2017-03-02T17:50:46Z</time>
      </trkpt>
      <trkpt lat="44.20816" lon="3.50985">
        <ele>1069</ele>
        <time>2017-03-02T17:52:46Z</time>
      </trkpt>
      <trkpt lat="44.20823" lon="3.51">
        <ele>1069</ele>
        <time>2017-03-02T17:54:46Z</time>
      </trkpt>
      <trkpt lat="44.20831" lon="3.51017">
        <ele>1070</ele>
        <time>2017-03-02T17:56:46Z</time>
      </trkpt>
      <trkpt lat="44.20839" lon="3.51027">
        <ele>1070</ele>
        <time>2017-03-02T17:58:46Z</time>
      </trkpt>
      <trkpt lat="44.20849" lon="3.51032">
        <ele>1069</ele>
        <time>2017-03-02T18:00:46Z</time>
      </trkpt>
      <trkpt lat="44.20867" lon="3.51038">
        <ele>1068</ele>
        <time>2017-03-02T18:02:46Z</time>
      </trkpt>
      <trkpt lat="44.20892" lon="3.51046">
        <ele>1067</ele>
        <time>2017-03-02T18:04:46Z</time>
      </trkpt>
      <trkpt lat="44.20984" lon="3.51063">
        <ele>1060</ele>
        <time>2017-03-02T18:06:46Z</time>
      </trkpt>
      <trkpt lat="44.21013" lon="3.51071">
        <ele>1059</ele>
        <time>2017-03-02T18:08:46Z</time>
      </trkpt>
      <trkpt lat="44.21031" lon="3.51076">
        <ele>1058</ele>
        <time>2017-03-02T18:10:46Z</time>
      </trkpt>
      <trkpt lat="44.21054" lon="3.51081">
        <ele>1057</ele>
        <time>2017-03-02T18:12:46Z</time>
      </trkpt>
      <trkpt lat="44.21077" lon="3.51091">
        <ele>1056</ele>
        <time>2017-03-02T18:14:46Z</time>
      </trkpt>
      <trkpt lat="44.21103" lon="3.51103">
        <ele>1056</ele>
        <time>2017-03-02T18:16:46Z</time>
      </trkpt>
      <trkpt lat="44.21126" lon="3.5111">
        <ele>1057</ele>
        <time>2017-03-02T18:18:46Z</time>
      </trkpt>
      <trkpt lat="44.21147" lon="3.51117">
        <ele>1058</ele>
        <time>2017-03-02T18:20:46Z</time>
      </trkpt>
      <trkpt lat="44.21172" lon="3.51127">
        <ele>1058</ele>
        <time>2017-03-02T18:22:46Z</time>
      </trkpt>
      <trkpt lat="44.21189" lon="3.51134">
        <ele>1058</ele>
        <time>2017-03-02T18:24:46Z</time>
      </trkpt>
      <trkpt lat="44.21193" lon="3.51138">
        <ele>1057</ele>
        <time>2017-03-02T18:26:46Z</time>
      </trkpt>
      <trkpt lat="44.21219" lon="3.51093">
        <ele>1057</ele>
        <time>2017-03-02T18:28:46Z</time>
      </trkpt>
      <trkpt lat="44.21232" lon="3.5108">
        <ele>1057</ele>
        <time>2017-03-02T18:30:46Z</time>
      </trkpt>
      <trkpt lat="44.21248" lon="3.51069">
        <ele>1058</ele>
        <time>2017-03-02T18:32:46Z</time>
      </trkpt>
      <trkpt lat="44.2127" lon="3.5106">
        <ele>1059</ele>
        <time>2017-03-02T18:34:46Z</time>
      </trkpt>
      <trkpt lat="44.21314" lon="3.51049">
        <ele>1062</ele>
        <time>2017-03-02T18:36:46Z</time>
      </trkpt>
      <trkpt lat="44.21327" lon="3.5105">
        <ele>1063</ele>
        <time>2017-03-02T18:38:46Z</time>
      </trkpt>
      <trkpt lat="44.21347" lon="3.51044">
        <ele>1065</ele>
        <time>2017-03-02T18:40:46Z</time>
      </trkpt>
      <trkpt lat="44.21368" lon="3.51041">
        <ele>1068</ele>
        <time>2017-03-02T18:42:46Z</time>
      </trkpt>
      <trkpt lat="44.21387" lon="3.51036">
        <ele>1070</ele>
        <time>2017-03-02T18:44:46Z</time>
      </trkpt>
      <trkpt lat="44.21401" lon="3.51035">
        <ele>1072</ele>
        <time>2017-03-02T18:46:46Z</time>
      </trkpt>
      <trkpt lat="44.21418" lon="3.51038">
        <ele>1074</ele>
        <time>2017-03-02T18:48:46Z</time>
      </trkpt>
      <trkpt lat="44.21445" lon="3.51037">
        <ele>1077</ele>
        <time>2017-03-02T18:50:46Z</time>
      </trkpt>
      <trkpt lat="44.21455" lon="3.51037">
        <ele>1078</ele>
        <time>2017-03-02T18:52:46Z</time>
      </trkpt>
      <trkpt lat="44.21482" lon="3.51044">
        <ele>1080</ele>
        <time>2017-03-02T18:54:46Z</time>
      </trkpt>
      <trkpt lat="44.21506" lon="3.51048">
        <ele>1082</ele>
        <time>2017-03-02T18:56:46Z</time>
      </trkpt>
      <trkpt lat="44.21518" lon="3.5105">
        <ele>1083</ele>
        <time>2017-03-02T18:58:46Z</time>
      </trkpt>
      <trkpt lat="44.21534" lon="3.51055">
        <ele>1083</ele>
        <time>2017-03-02T19:00:46Z</time>
      </trkpt>
      <trkpt lat="44.21552" lon="3.51088">
        <ele>1083</ele>
        <time>2017-03-02T19:02:46Z</time>
      </trkpt>
      <trkpt lat="44.21572" lon="3.51127">
        <ele>1084</ele>
        <time>2017-03-02T19:04:46Z</time>
      </trkpt>
      <trkpt lat="44.21592" lon="3.51169">
        <ele>1084</ele>
        <time>2017-03-02T19:06:46Z</time>
      </trkpt>
      <trkpt lat="44.21611" lon="3.51212">
        <ele>1085</ele>
        <time>2017-03-02T19:08:46Z</time>
      </trkpt>
      <trkpt lat="44.21616" lon="3.51221">
        <ele>1085</ele>
        <time>2017-03-02T19:10:46Z</time>
      </trkpt>
      <trkpt lat="44.21626" lon="3.51233">
        <ele>1085</ele>
        <time>2017-03-02T19:12:46Z</time>
      </trkpt>
      <trkpt lat="44.21642" lon="3.51248">
        <ele>1085</ele>
        <time>2017-03-02T19:14:46Z</time>
      </trkpt>
      <trkpt lat="44.21667" lon="3.51267">
        <ele>1085</ele>
        <time>2017-03-02T19:16:46Z</time>
      </trkpt>
      <trkpt lat="44.21695" lon="3.51287">
        <ele>1085</ele>
        <time>2017-03-02T19:18:46Z</time>
      </trkpt>
      <trkpt lat="44.2174" lon="3.51322">
        <ele>1085</ele>
        <time>2017-03-02T19:20:46Z</time>
      </trkpt>
      <trkpt lat="44.21763" lon="3.51339">
        <ele>1085</ele>
        <time>2017-03-02T19:22:46Z</time>
      </trkpt>
      <trkpt lat="44.21776" lon="3.51352">
        <ele>1085</ele>
        <time>2017-03-02T19:24:46Z</time>
      </trkpt>
      <trkpt lat="44.21797" lon="3.51376">
        <ele>1085</ele>
        <time>2017-03-02T19:26:46Z</time>
      </trkpt>
      <trkpt lat="44.21811" lon="3.51394">
        <ele>1085</ele>
        <time>2017-03-02T19:28:46Z</time>
      </trkpt>
      <trkpt lat="44.21847" lon="3.51427">
        <ele>1085</ele>
        <time>2017-03-02T19:30:46Z</time>
      </trkpt>
      <trkpt lat="44.21861" lon="3.51435">
        <ele>1085</ele>
        <time>2017-03-02T19:32:46Z</time>
      </trkpt>
      <trkpt lat="44.21872" lon="3.51439">
        <ele>1085</ele>
        <time>2017-03-02T19:34:46Z</time>
      </trkpt>
      <trkpt lat="44.21881" lon="3.51439">
        <ele>1085</ele>
        <time>2017-03-02T19:36:46Z</time>
      </trkpt>
      <trkpt lat="44.21898" lon="3.51438">
        <ele>1084</ele>
        <time>2017-03-02T19:38:46Z</time>
      </trkpt>
      <trkpt lat="44.21914" lon="3.51438">
        <ele>1083</ele>
        <time>2017-03-02T19:40:46Z</time>
      </trkpt>
      <trkpt lat="44.21932" lon="3.51439">
        <ele>1083</ele>
        <time>2017-03-02T19:42:46Z</time>
      </trkpt>
      <trkpt lat="44.21952" lon="3.51442">
        <ele>1082</ele>
        <time>2017-03-02T19:44:46Z</time>
      </trkpt>
      <trkpt lat="44.21993" lon="3.51454">
        <ele>1082</ele>
        <time>2017-03-02T19:46:46Z</time>
      </trkpt>
      <trkpt lat="44.22038" lon="3.51464">
        <ele>1082</ele>
        <time>2017-03-02T19:48:46Z</time>
      </trkpt>
      <trkpt lat="44.22061" lon="3.51469">
        <ele>1081</ele>
        <time>2017-03-02T19:50:46Z</time>
      </trkpt>
      <trkpt lat="44.22071" lon="3.51472">
        <ele>1081</ele>
        <time>2017-03-02T19:52:46Z</time>
      </trkpt>
      <trkpt lat="44.22095" lon="3.51454">
        <ele>1080</ele>
        <time>2017-03-02T19:54:46Z</time>
      </trkpt>
      <trkpt lat="44.22108" lon="3.51448">
        <ele>1079</ele>
        <time>2017-03-02T19:56:46Z</time>
      </trkpt>
      <trkpt lat="44.2212" lon="3.51447">
        <ele>1078</ele>
        <time>2017-03-02T19:58:46Z</time>
      </trkpt>
      <trkpt lat="44.22138" lon="3.51448">
        <ele>1077</ele>
        <time>2017-03-02T20:00:46Z</time>
      </trkpt>
      <trkpt lat="44.22176" lon="3.51454">
        <ele>1075</ele>
        <time>2017-03-02T20:02:46Z</time>
      </trkpt>
      <trkpt lat="44.22197" lon="3.51457">
        <ele>1073</ele>
        <time>2017-03-02T20:04:46Z</time>
      </trkpt>
      <trkpt lat="44.22212" lon="3.5146">
        <ele>1073</ele>
        <time>2017-03-02T20:06:46Z</time>
      </trkpt>
      <trkpt lat="44.22226" lon="3.51462">
        <ele>1072</ele>
        <time>2017-03-02T20:08:46Z</time>
      </trkpt>
      <trkpt lat="44.22282" lon="3.51463">
        <ele>1069</ele>
        <time>2017-03-02T20:10:46Z</time>
      </trkpt>
      <trkpt lat="44.22294" lon="3.51462">
        <ele>1069</ele>
        <time>2017-03-02T20:12:46Z</time>
      </trkpt>
      <trkpt lat="44.22306" lon="3.5146">
        <ele>1069</ele>
        <time>2017-03-02T20:14:46Z</time>
      </trkpt>
      <trkpt lat="44.22317" lon="3.51455">
        <ele>1068</ele>
        <time>2017-03-02T20:16:46Z</time>
      </trkpt>
      <trkpt lat="44.22328" lon="3.51449">
        <ele>1068</ele>
        <time>2017-03-02T20:18:46Z</time>
      </trkpt>
      <trkpt lat="44.22362" lon="3.51422">
        <ele>1068</ele>
        <time>2017-03-02T20:20:46Z</time>
      </trkpt>
      <trkpt lat="44.22402" lon="3.51405">
        <ele>1070</ele>
        <time>2017-03-02T20:22:46Z</time>
      </trkpt>
      <trkpt lat="44.22415" lon="3.514">
        <ele>1070</ele>
        <time>2017-03-02T20:24:46Z</time>
      </trkpt>
      <trkpt lat="44.22429" lon="3.51394">
        <ele>1071</ele>
        <time>2017-03-02T20:26:46Z</time>
      </trkpt>
      <trkpt lat="44.22442" lon="3.51389">
        <ele>1072</ele>
        <time>2017-03-02T20:28:46Z</time>
      </trkpt>
      <trkpt lat="44.22456" lon="3.51384">
        <ele>1073</ele>
        <time>2017-03-02T20:30:46Z</time>
      </trkpt>
      <trkpt lat="44.22513" lon="3.51367">
        <ele>1077</ele>
        <time>2017-03-02T20:32:46Z</time>
      </trkpt>
      <trkpt lat="44.22531" lon="3.51369">
        <ele>1079</ele>
        <time>2017-03-02T20:34:46Z</time>
      </trkpt>
      <trkpt lat="44.22534" lon="3.51371">
        <ele>1080</ele>
        <time>2017-03-02T20:36:46Z</time>
      </trkpt>
      <trkpt lat="44.22545" lon="3.51381">
        <ele>1080</ele>
        <time>2017-03-02T20:38:46Z</time>
      </trkpt>
      <trkpt lat="44.22552" lon="3.51389">
        <ele>1081</ele>
        <time>2017-03-02T20:40:46Z</time>
      </trkpt>
      <trkpt lat="44.2256" lon="3.514">
        <ele>1081</ele>
        <time>2017-03-02T20:42:46Z</time>
      </trkpt>
      <trkpt lat="44.22566" lon="3.51411">
        <ele>1081</ele>
        <time>2017-03-02T20:44:46Z</time>
      </trkpt>
      <trkpt lat="44.22569" lon="3.51419">
        <ele>1080</ele>
        <time>2017-03-02T20:46:46Z</time>
      </trkpt>
      <trkpt lat="44.22574" lon="3.51439">
        <ele>1079</ele>
        <time>2017-03-02T20:48:46Z</time>
      </trkpt>
      <trkpt lat="44.22579" lon="3.51451">
        <ele>1078</ele>
        <time>2017-03-02T20:50:46Z</time>
      </trkpt>
      <trkpt lat="44.22585" lon="3.51461">
        <ele>1077</ele>
        <time>2017-03-02T20:52:46Z</time>
      </trkpt>
      <trkpt lat="44.22588" lon="3.51481">
        <ele>1076</ele>
        <time>2017-03-02T20:54:46Z</time>
      </trkpt>
      <trkpt lat="44.22594" lon="3.51498">
        <ele>1075</ele>
        <time>2017-03-02T20:56:46Z</time>
      </trkpt>
      <trkpt lat="44.22596" lon="3.51503">
        <ele>1074</ele>
        <time>2017-03-02T20:58:46Z</time>
      </trkpt>
      <trkpt lat="44.22596" lon="3.51509">
        <ele>1074</ele>
        <time>2017-03-02T21:00:46Z</time>
      </trkpt>
      <trkpt lat="44.22599" lon="3.51515">
        <ele>1073</ele>
        <time>2017-03-02T21:02:46Z</time>
      </trkpt>
      <trkpt lat="44.22605" lon="3.51521">
        <ele>1073</ele>
        <time>2017-03-02T21:04:46Z</time>
      </trkpt>
      <trkpt lat="44.22613" lon="3.51527">
        <ele>1073</ele>
        <time>2017-03-02T21:06:46Z</time>
      </trkpt>
      <trkpt lat="44.2262" lon="3.51535">
        <ele>1073</ele>
        <time>2017-03-02T21:08:46Z</time>
      </trkpt>
      <trkpt lat="44.22628" lon="3.51547">
        <ele>1072</ele>
        <time>2017-03-02T21:10:46Z</time>
      </trkpt>
      <trkpt lat="44.22631" lon="3.51556">
        <ele>1071</ele>
        <time>2017-03-02T21:12:46Z</time>
      </trkpt>
      <trkpt lat="44.22632" lon="3.51565">
        <ele>1069</ele>
        <time>2017-03-02T21:14:46Z</time>
      </trkpt>
      <trkpt lat="44.22632" lon="3.51573">
        <ele>1068</ele>
        <time>2017-03-02T21:16:46Z</time>
      </trkpt>
      <trkpt lat="44.22631" lon="3.5158">
        <ele>1067</ele>
        <time>2017-03-02T21:18:46Z</time>
      </trkpt>
      <trkpt lat="44.2263" lon="3.51589">
        <ele>1066</ele>
        <time>2017-03-02T21:20:46Z</time>
      </trkpt>
      <trkpt lat="44.22631" lon="3.51596">
        <ele>1066</ele>
        <time>2017-03-02T21:22:46Z</time>
      </trkpt>
      <trkpt lat="44.22634" lon="3.51602">
        <ele>1066</ele>
        <time>2017-03-02T21:24:46Z</time>
      </trkpt>
      <trkpt lat="44.22639" lon="3.51608">
        <ele>1066</ele>
        <time>2017-03-02T21:26:46Z</time>
      </trkpt>
      <trkpt lat="44.22643" lon="3.51612">
        <ele>1065</ele>
        <time>2017-03-02T21:28:46Z</time>
      </trkpt>
      <trkpt lat="44.22647" lon="3.51618">
        <ele>1065</ele>
        <time>2017-03-02T21:30:46Z</time>
      </trkpt>
      <trkpt lat="44.22658" lon="3.51639">
        <ele>1064</ele>
        <time>2017-03-02T21:32:46Z</time>
      </trkpt>
      <trkpt lat="44.22662" lon="3.51652">
        <ele>1063</ele>
        <time>2017-03-02T21:34:46Z</time>
      </trkpt>
      <trkpt lat="44.22672" lon="3.51678">
        <ele>1062</ele>
        <time>2017-03-02T21:36:46Z</time>
      </trkpt>
      <trkpt lat="44.22679" lon="3.51703">
        <ele>1063</ele>
        <time>2017-03-02T21:38:46Z</time>
      </trkpt>
      <trkpt lat="44.22686" lon="3.5173">
        <ele>1063</ele>
        <time>2017-03-02T21:40:46Z</time>
      </trkpt>
      <trkpt lat="44.22691" lon="3.51755">
        <ele>1063</ele>
        <time>2017-03-02T21:42:46Z</time>
      </trkpt>
      <trkpt lat="44.22698" lon="3.51777">
        <ele>1064</ele>
        <time>2017-03-02T21:44:46Z</time>
      </trkpt>
      <trkpt lat="44.22704" lon="3.518">
        <ele>1064</ele>
        <time>2017-03-02T21:46:46Z</time>
      </trkpt>
      <trkpt lat="44.22707" lon="3.51825">
        <ele>1065</ele>
        <time>2017-03-02T21:48:46Z</time>
      </trkpt>
      <trkpt lat="44.22712" lon="3.51841">
        <ele>1065</ele>
        <time>2017-03-02T21:50:46Z</time>
      </trkpt>
      <trkpt lat="44.22719" lon="3.5186">
        <ele>1065</ele>
        <time>2017-03-02T21:52:46Z</time>
      </trkpt>
      <trkpt lat="44.22729" lon="3.51876">
        <ele>1065</ele>
        <time>2017-03-02T21:54:46Z</time>
      </trkpt>
      <trkpt lat="44.22738" lon="3.5189">
        <ele>1065</ele>
        <time>2017-03-02T21:56:46Z</time>
      </trkpt>
      <trkpt lat="44.22757" lon="3.51905">
        <ele>1065</ele>
        <time>2017-03-02T21:58:46Z</time>
      </trkpt>
      <trkpt lat="44.22763" lon="3.5191">
        <ele>1065</ele>
        <time>2017-03-02T22:00:46Z</time>
      </trkpt>
      <trkpt lat="44.22767" lon="3.51916">
        <ele>1065</ele>
        <time>2017-03-02T22:02:46Z</time>
      </trkpt>
      <trkpt lat="44.22769" lon="3.51928">
        <ele>1065</ele>
        <time>2017-03-02T22:04:46Z</time>
      </trkpt>
      <trkpt lat="44.22773" lon="3.51942">
        <ele>1065</ele>
        <time>2017-03-02T22:06:46Z</time>
      </trkpt>
      <trkpt lat="44.2278" lon="3.51957">
        <ele>1065</ele>
        <time>2017-03-02T22:08:46Z</time>
      </trkpt>
      <trkpt lat="44.22795" lon="3.51982">
        <ele>1066</ele>
        <time>2017-03-02T22:10:46Z</time>
      </trkpt>
      <trkpt lat="44.22803" lon="3.51997">
        <ele>1066</ele>
        <time>2017-03-02T22:12:46Z</time>
      </trkpt>
      <trkpt lat="44.22811" lon="3.52012">
        <ele>1066</ele>
        <time>2017-03-02T22:14:46Z</time>
      </trkpt>
      <trkpt lat="44.22826" lon="3.52031">
        <ele>1066</ele>
        <time>2017-03-02T22:16:46Z</time>
      </trkpt>
      <trkpt lat="44.22834" lon="3.52044">
        <ele>1067</ele>
        <time>2017-03-02T22:18:46Z</time>
      </trkpt>
      <trkpt lat="44.22843" lon="3.52065">
        <ele>1067</ele>
        <time>2017-03-02T22:20:46Z</time>
      </trkpt>
      <trkpt lat="44.2285" lon="3.52085">
        <ele>1068</ele>
        <time>2017-03-02T22:22:46Z</time>
      </trkpt>
      <trkpt lat="44.22849" lon="3.52101">
        <ele>1068</ele>
        <time>2017-03-02T22:24:46Z</time>
      </trkpt>
      <trkpt lat="44.22851" lon="3.52118">
        <ele>1069</ele>
        <time>2017-03-02T22:26:46Z</time>
      </trkpt>
      <trkpt lat="44.22851" lon="3.52133">
        <ele>1070</ele>
        <time>2017-03-02T22:28:46Z</time>
      </trkpt>
      <trkpt lat="44.22852" lon="3.52149">
        <ele>1070</ele>
        <time>2017-03-02T22:30:46Z</time>
      </trkpt>
      <trkpt lat="44.22855" lon="3.52171">
        <ele>1072</ele>
        <time>2017-03-02T22:32:46Z</time>
      </trkpt>
      <trkpt lat="44.22858" lon="3.52197">
        <ele>1073</ele>
        <time>2017-03-02T22:34:46Z</time>
      </trkpt>
      <trkpt lat="44.2286" lon="3.52222">
        <ele>1074</ele>
        <time>2017-03-02T22:36:46Z</time>
      </trkpt>
      <trkpt lat="44.22863" lon="3.52248">
        <ele>1076</ele>
        <time>2017-03-02T22:38:46Z</time>
      </trkpt>
      <trkpt lat="44.22864" lon="3.52258">
        <ele>1077</ele>
        <time>2017-03-02T22:40:46Z</time>
      </trkpt>
      <trkpt lat="44.22864" lon="3.52273">
        <ele>1078</ele>
        <time>2017-03-02T22:42:46Z</time>
      </trkpt>
      <trkpt lat="44.22866" lon="3.52289">
        <ele>1079</ele>
        <time>2017-03-02T22:44:46Z</time>
      </trkpt>
      <trkpt lat="44.22868" lon="3.52303">
        <ele>1080</ele>
        <time>2017-03-02T22:46:46Z</time>
      </trkpt>
      <trkpt lat="44.22867" lon="3.52313">
        <ele>1081</ele>
        <time>2017-03-02T22:48:46Z</time>
      </trkpt>
      <trkpt lat="44.22868" lon="3.52323">
        <ele>1082</ele>
        <time>2017-03-02T22:50:46Z</time>
      </trkpt>
      <trkpt lat="44.22867" lon="3.52333">
        <ele>1083</ele>
        <time>2017-03-02T22:52:46Z</time>
      </trkpt>
      <trkpt lat="44.22868" lon="3.52345">
        <ele>1084</ele>
        <time>2017-03-02T22:54:46Z</time>
      </trkpt>
      <trkpt lat="44.2287" lon="3.52351">
        <ele>1084</ele>
        <time>2017-03-02T22:56:46Z</time>
      </trkpt>
      <trkpt lat="44.22876" lon="3.52359">
        <ele>1086</ele>
        <time>2017-03-02T22:58:46Z</time>
      </trkpt>
      <trkpt lat="44.22866" lon="3.5236">
        <ele>1085</ele>
        <time>2017-03-02T23:00:46Z</time>
      </trkpt>
      <trkpt lat="44.22858" lon="3.52365">
        <ele>1084</ele>
        <time>2017-03-02T23:02:46Z</time>
      </trkpt>
      <trkpt lat="44.22855" lon="3.52374">
        <ele>1085</ele>
        <time>2017-03-02T23:04:46Z</time>
      </trkpt>
      <trkpt lat="44.22855" lon="3.52382">
        <ele>1085</ele>
        <time>2017-03-02T23:06:46Z</time>
      </trkpt>
      <trkpt lat="44.22854" lon="3.52397">
        <ele>1087</ele>
        <time>2017-03-02T23:08:46Z</time>
      </trkpt>
      <trkpt lat="44.22852" lon="3.52405">
        <ele>1087</ele>
        <time>2017-03-02T23:10:46Z</time>
      </trkpt>
      <trkpt lat="44.22847" lon="3.52412">
        <ele>1087</ele>
        <time>2017-03-02T23:12:46Z</time>
      </trkpt>
      <trkpt lat="44.22836" lon="3.52419">
        <ele>1086</ele>
        <time>2017-03-02T23:14:46Z</time>
      </trkpt>
      <trkpt lat="44.22819" lon="3.52433">
        <ele>1086</ele>
        <time>2017-03-02T23:16:46Z</time>
      </trkpt>
      <trkpt lat="44.22808" lon="3.52442">
        <ele>1086</ele>
        <time>2017-03-02T23:18:46Z</time>
      </trkpt>
      <trkpt lat="44.22802" lon="3.52445">
        <ele>1086</ele>
        <time>2017-03-02T23:20:46Z</time>
      </trkpt>
      <trkpt lat="44.22795" lon="3.52446">
        <ele>1086</ele>
        <time>2017-03-02T23:22:46Z</time>
      </trkpt>
      <trkpt lat="44.22782" lon="3.52442">
        <ele>1085</ele>
        <time>2017-03-02T23:24:46Z</time>
      </trkpt>
      <trkpt lat="44.22782" lon="3.52449">
        <ele>1085</ele>
        <time>2017-03-02T23:26:46Z</time>
      </trkpt>
      <trkpt lat="44.2278" lon="3.52464">
        <ele>1086</ele>
        <time>2017-03-02T23:28:46Z</time>
      </trkpt>
      <trkpt lat="44.22777" lon="3.52478">
        <ele>1087</ele>
        <time>2017-03-02T23:30:46Z</time>
      </trkpt>
      <trkpt lat="44.22776" lon="3.52481">
        <ele>1087</ele>
        <time>2017-03-02T23:32:46Z</time>
      </trkpt>
      <trkpt lat="44.22786" lon="3.52495">
        <ele>1088</ele>
        <time>2017-03-02T23:34:46Z</time>
      </trkpt>
      <trkpt lat="44.22795" lon="3.52502">
        <ele>1089</ele>
        <time>2017-03-02T23:36:46Z</time>
      </trkpt>
      <trkpt lat="44.228" lon="3.52508">
        <ele>1090</ele>
        <time>2017-03-02T23:38:46Z</time>
      </trkpt>
      <trkpt lat="44.22803" lon="3.52521">
        <ele>1092</ele>
        <time>2017-03-02T23:40:46Z</time>
      </trkpt>
      <trkpt lat="44.22808" lon="3.52539">
        <ele>1093</ele>
        <time>2017-03-02T23:42:46Z</time>
      </trkpt>
      <trkpt lat="44.22811" lon="3.52551">
        <ele>1095</ele>
        <time>2017-03-02T23:44:46Z</time>
      </trkpt>
      <trkpt lat="44.22819" lon="3.52569">
        <ele>1096</ele>
        <time>2017-03-02T23:46:46Z</time>
      </trkpt>
      <trkpt lat="44.22823" lon="3.52581">
        <ele>1097</ele>
        <time>2017-03-02T23:48:46Z</time>
      </trkpt>
      <trkpt lat="44.22827" lon="3.52597">
        <ele>1099</ele>
        <time>2017-03-02T23:50:46Z</time>
      </trkpt>
      <trkpt lat="44.22831" lon="3.52606">
        <ele>1100</ele>
        <time>2017-03-02T23:52:46Z</time>
      </trkpt>
      <trkpt lat="44.2284" lon="3.52616">
        <ele>1101</ele>
        <time>2017-03-02T23:54:46Z</time>
      </trkpt>
      <trkpt lat="44.22854" lon="3.52626">
        <ele>1103</ele>
        <time>2017-03-02T23:56:46Z</time>
      </trkpt>
      <trkpt lat="44.2286" lon="3.52629">
        <ele>1104</ele>
        <time>2017-03-02T23:58:46Z</time>
      </trkpt>
      <trkpt lat="44.22864" lon="3.52635">
        <ele>1104</ele>
        <time>2017-03-03T00:00:46Z</time>
      </trkpt>
      <trkpt lat="44.22868" lon="3.52645">
        <ele>1105</ele>
        <time>2017-03-03T00:02:46Z</time>
      </trkpt>
      <trkpt lat="44.22871" lon="3.52659">
        <ele>1106</ele>
        <time>2017-03-03T00:04:46Z</time>
      </trkpt>
      <trkpt lat="44.22872" lon="3.52668">
        <ele>1106</ele>
        <time>2017-03-03T00:06:46Z</time>
      </trkpt>
      <trkpt lat="44.22888" lon="3.52691">
        <ele>1108</ele>
        <time>2017-03-03T00:08:46Z</time>
      </trkpt>
      <trkpt lat="44.22893" lon="3.52695">
        <ele>1108</ele>
        <time>2017-03-03T00:10:46Z</time>
      </trkpt>
      <trkpt lat="44.22898" lon="3.52697">
        <ele>1109</ele>
        <time>2017-03-03T00:12:46Z</time>
      </trkpt>
      <trkpt lat="44.22907" lon="3.52695">
        <ele>1109</ele>
        <time>2017-03-03T00:14:46Z</time>
      </trkpt>
      <trkpt lat="44.22913" lon="3.52694">
        <ele>1109</ele>
        <time>2017-03-03T00:16:46Z</time>
      </trkpt>
      <trkpt lat="44.22919" lon="3.52695">
        <ele>1109</ele>
        <time>2017-03-03T00:18:46Z</time>
      </trkpt>
      <trkpt lat="44.22929" lon="3.527">
        <ele>1110</ele>
        <time>2017-03-03T00:20:46Z</time>
      </trkpt>
      <trkpt lat="44.22937" lon="3.52699">
        <ele>1110</ele>
        <time>2017-03-03T00:22:46Z</time>
      </trkpt>
      <trkpt lat="44.22949" lon="3.52694">
        <ele>1110</ele>
        <time>2017-03-03T00:24:46Z</time>
      </trkpt>
      <trkpt lat="44.22957" lon="3.52686">
        <ele>1111</ele>
        <time>2017-03-03T00:26:46Z</time>
      </trkpt>
      <trkpt lat="44.22968" lon="3.5267">
        <ele>1112</ele>
        <time>2017-03-03T00:28:46Z</time>
      </trkpt>
      <trkpt lat="44.22972" lon="3.52661">
        <ele>1113</ele>
        <time>2017-03-03T00:30:46Z</time>
      </trkpt>
      <trkpt lat="44.22973" lon="3.52654">
        <ele>1114</ele>
        <time>2017-03-03T00:32:46Z</time>
      </trkpt>
      <trkpt lat="44.22972" lon="3.52645">
        <ele>1114</ele>
        <time>2017-03-03T00:34:46Z</time>
      </trkpt>
      <trkpt lat="44.22969" lon="3.52637">
        <ele>1114</ele>
        <time>2017-03-03T00:36:46Z</time>
      </trkpt>
      <trkpt lat="44.22965" lon="3.52631">
        <ele>1114</ele>
        <time>2017-03-03T00:38:46Z</time>
      </trkpt>
      <trkpt lat="44.22957" lon="3.52622">
        <ele>1113</ele>
        <time>2017-03-03T00:40:46Z</time>
      </trkpt>
      <trkpt lat="44.2295" lon="3.52616">
        <ele>1112</ele>
        <time>2017-03-03T00:42:46Z</time>
      </trkpt>
      <trkpt lat="44.22942" lon="3.52604">
        <ele>1111</ele>
        <time>2017-03-03T00:44:46Z</time>
      </trkpt>
      <trkpt lat="44.22939" lon="3.52594">
        <ele>1111</ele>
        <time>2017-03-03T00:46:46Z</time>
      </trkpt>
      <trkpt lat="44.22937" lon="3.52586">
        <ele>1111</ele>
        <time>2017-03-03T00:48:46Z</time>
      </trkpt>
      <trkpt lat="44.22937" lon="3.52579">
        <ele>1111</ele>
        <time>2017-03-03T00:50:46Z</time>
      </trkpt>
      <trkpt lat="44.2294" lon="3.5257">
        <ele>1111</ele>
        <time>2017-03-03T00:52:46Z</time>
      </trkpt>
      <trkpt lat="44.22943" lon="3.52565">
        <ele>1111</ele>
        <time>2017-03-03T00:54:46Z</time>
      </trkpt>
      <trkpt lat="44.22954" lon="3.52554">
        <ele>1113</ele>
        <time>2017-03-03T00:56:46Z</time>
      </trkpt>
      <trkpt lat="44.22964" lon="3.52545">
        <ele>1114</ele>
        <time>2017-03-03T00:58:46Z</time>
      </trkpt>
      <trkpt lat="44.22978" lon="3.52537">
        <ele>1116</ele>
        <time>2017-03-03T01:00:46Z</time>
      </trkpt>
      <trkpt lat="44.22992" lon="3.52526">
        <ele>1118</ele>
        <time>2017-03-03T01:02:46Z</time>
      </trkpt>
      <trkpt lat="44.23006" lon="3.52513">
        <ele>1119</ele>
        <time>2017-03-03T01:04:46Z</time>
      </trkpt>
      <trkpt lat="44.23025" lon="3.52497">
        <ele>1120</ele>
        <time>2017-03-03T01:06:46Z</time>
      </trkpt>
      <trkpt lat="44.23037" lon="3.52488">
        <ele>1120</ele>
        <time>2017-03-03T01:08:46Z</time>
      </trkpt>
      <trkpt lat="44.23073" lon="3.52469">
        <ele>1123</ele>
        <time>2017-03-03T01:10:46Z</time>
      </trkpt>
      <trkpt lat="44.23084" lon="3.52461">
        <ele>1123</ele>
        <time>2017-03-03T01:12:46Z</time>
      </trkpt>
      <trkpt lat="44.23095" lon="3.52454">
        <ele>1124</ele>
        <time>2017-03-03T01:14:46Z</time>
      </trkpt>
      <trkpt lat="44.23109" lon="3.52444">
        <ele>1124</ele>
        <time>2017-03-03T01:16:46Z</time>
      </trkpt>
      <trkpt lat="44.23129" lon="3.52429">
        <ele>1125</ele>
        <time>2017-03-03T01:18:46Z</time>
      </trkpt>
      <trkpt lat="44.23138" lon="3.52424">
        <ele>1126</ele>
        <time>2017-03-03T01:20:46Z</time>
      </trkpt>
      <trkpt lat="44.23147" lon="3.5242">
        <ele>1127</ele>
        <time>2017-03-03T01:22:46Z</time>
      </trkpt>
      <trkpt lat="44.23155" lon="3.52414">
        <ele>1127</ele>
        <time>2017-03-03T01:24:46Z</time>
      </trkpt>
      <trkpt lat="44.23168" lon="3.52406">
        <ele>1127</ele>
        <time>2017-03-03T01:26:46Z</time>
      </trkpt>
      <trkpt lat="44.23187" lon="3.52395">
        <ele>1128</ele>
        <time>2017-03-03T01:28:46Z</time>
      </trkpt>
      <trkpt lat="44.23197" lon="3.52391">
        <ele>1128</ele>
        <time>2017-03-03T01:30:46Z</time>
      </trkpt>
      <trkpt lat="44.23219" lon="3.52385">
        <ele>1130</ele>
        <time>2017-03-03T01:32:46Z</time>
      </trkpt>
      <trkpt lat="44.23258" lon="3.52374">
        <ele>1132</ele>
        <time>2017-03-03T01:34:46Z</time>
      </trkpt>
      <trkpt lat="44.2328" lon="3.52364">
        <ele>1132</ele>
        <time>2017-03-03T01:36:46Z</time>
      </trkpt>
      <trkpt lat="44.23287" lon="3.52361">
        <ele>1132</ele>
        <time>2017-03-03T01:38:46Z</time>
      </trkpt>
      <trkpt lat="44.23297" lon="3.52354">
        <ele>1132</ele>
        <time>2017-03-03T01:40:46Z</time>
      </trkpt>
      <trkpt lat="44.23316" lon="3.52339">
        <ele>1132</ele>
        <time>2017-03-03T01:42:46Z</time>
      </trkpt>
      <trkpt lat="44.23363" lon="3.5231">
        <ele>1133</ele>
        <time>2017-03-03T01:44:46Z</time>
      </trkpt>
      <trkpt lat="44.23382" lon="3.52305">
        <ele>1134</ele>
        <time>2017-03-03T01:46:46Z</time>
      </trkpt>
      <trkpt lat="44.23396" lon="3.523">
        <ele>1135</ele>
        <time>2017-03-03T01:48:46Z</time>
      </trkpt>
      <trkpt lat="44.23405" lon="3.52294">
        <ele>1135</ele>
        <time>2017-03-03T01:50:46Z</time>
      </trkpt>
      <trkpt lat="44.23433" lon="3.52275">
        <ele>1135</ele>
        <time>2017-03-03T01:52:46Z</time>
      </trkpt>
      <trkpt lat="44.23448" lon="3.52264">
        <ele>1134</ele>
        <time>2017-03-03T01:54:46Z</time>
      </trkpt>
      <trkpt lat="44.23458" lon="3.52255">
        <ele>1134</ele>
        <time>2017-03-03T01:56:46Z</time>
      </trkpt>
      <trkpt lat="44.23466" lon="3.52244">
        <ele>1134</ele>
        <time>2017-03-03T01:58:46Z</time>
      </trkpt>
      <trkpt lat="44.23472" lon="3.52231">
        <ele>1135</ele>
        <time>2017-03-03T02:00:46Z</time>
      </trkpt>
      <trkpt lat="44.23477" lon="3.52217">
        <ele>1135</ele>
        <time>2017-03-03T02:02:46Z</time>
      </trkpt>
      <trkpt lat="44.23479" lon="3.52201">
        <ele>1136</ele>
        <time>2017-03-03T02:04:46Z</time>
      </trkpt>
      <trkpt lat="44.2348" lon="3.52187">
        <ele>1137</ele>
        <time>2017-03-03T02:06:46Z</time>
      </trkpt>
      <trkpt lat="44.2348" lon="3.52174">
        <ele>1137</ele>
        <time>2017-03-03T02:08:46Z</time>
      </trkpt>
      <trkpt lat="44.23479" lon="3.52164">
        <ele>1137</ele>
        <time>2017-03-03T02:10:46Z</time>
      </trkpt>
      <trkpt lat="44.23477" lon="3.52153">
        <ele>1138</ele>
        <time>2017-03-03T02:12:46Z</time>
      </trkpt>
      <trkpt lat="44.23473" lon="3.5214">
        <ele>1139</ele>
        <time>2017-03-03T02:14:46Z</time>
      </trkpt>
      <trkpt lat="44.23466" lon="3.5212">
        <ele>1139</ele>
        <time>2017-03-03T02:16:46Z</time>
      </trkpt>
      <trkpt lat="44.23461" lon="3.52107">
        <ele>1140</ele>
        <time>2017-03-03T02:18:46Z</time>
      </trkpt>
      <trkpt lat="44.23452" lon="3.52083">
        <ele>1140</ele>
        <time>2017-03-03T02:20:46Z</time>
      </trkpt>
      <trkpt lat="44.23451" lon="3.52075">
        <ele>1140</ele>
        <time>2017-03-03T02:22:46Z</time>
      </trkpt>
      <trkpt lat="44.23452" lon="3.52071">
        <ele>1141</ele>
        <time>2017-03-03T02:24:46Z</time>
      </trkpt>
      <trkpt lat="44.23454" lon="3.52067">
        <ele>1141</ele>
        <time>2017-03-03T02:26:46Z</time>
      </trkpt>
      <trkpt lat="44.23458" lon="3.52065">
        <ele>1142</ele>
        <time>2017-03-03T02:28:46Z</time>
      </trkpt>
      <trkpt lat="44.23462" lon="3.52066">
        <ele>1142</ele>
        <time>2017-03-03T02:30:46Z</time>
      </trkpt>
      <trkpt lat="44.23465" lon="3.52071">
        <ele>1142</ele>
        <time>2017-03-03T02:32:46Z</time>
      </trkpt>
      <trkpt lat="44.23469" lon="3.52074">
        <ele>1143</ele>
        <time>2017-03-03T02:34:46Z</time>
      </trkpt>
      <trkpt lat="44.23474" lon="3.52078">
        <ele>1143</ele>
        <time>2017-03-03T02:36:46Z</time>
      </trkpt>
      <trkpt lat="44.23483" lon="3.52082">
        <ele>1144</ele>
        <time>2017-03-03T02:38:46Z</time>
      </trkpt>
      <trkpt lat="44.23533" lon="3.52087">
        <ele>1147</ele>
        <time>2017-03-03T02:40:46Z</time>
      </trkpt>
      <trkpt lat="44.23545" lon="3.5209">
        <ele>1148</ele>
        <time>2017-03-03T02:42:46Z</time>
      </trkpt>
      <trkpt lat="44.23568" lon="3.52096">
        <ele>1148</ele>
        <time>2017-03-03T02:44:46Z</time>
      </trkpt>
      <trkpt lat="44.23575" lon="3.52096">
        <ele>1149</ele>
        <time>2017-03-03T02:46:46Z</time>
      </trkpt>
      <trkpt lat="44.23583" lon="3.52094">
        <ele>1149</ele>
        <time>2017-03-03T02:48:46Z</time>
      </trkpt>
      <trkpt lat="44.23592" lon="3.5209">
        <ele>1149</ele>
        <time>2017-03-03T02:50:46Z</time>
      </trkpt>
      <trkpt lat="44.23604" lon="3.52083">
        <ele>1149</ele>
        <time>2017-03-03T02:52:46Z</time>
      </trkpt>
      <trkpt lat="44.23614" lon="3.52077">
        <ele>1149</ele>
        <time>2017-03-03T02:54:46Z</time>
      </trkpt>
      <trkpt lat="44.23622" lon="3.52071">
        <ele>1149</ele>
        <time>2017-03-03T02:56:46Z</time>
      </trkpt>
      <trkpt lat="44.23627" lon="3.52066">
        <ele>1149</ele>
        <time>2017-03-03T02:58:46Z</time>
      </trkpt>
      <trkpt lat="44.23632" lon="3.5206">
        <ele>1149</ele>
        <time>2017-03-03T03:00:46Z</time>
      </trkpt>
      <trkpt lat="44.2365" lon="3.52042">
        <ele>1150</ele>
        <time>2017-03-03T03:02:46Z</time>
      </trkpt>
      <trkpt lat="44.23677" lon="3.52022">
        <ele>1151</ele>
        <time>2017-03-03T03:04:46Z</time>
      </trkpt>
      <trkpt lat="44.23692" lon="3.52009">
        <ele>1152</ele>
        <time>2017-03-03T03:06:46Z</time>
      </trkpt>
      <trkpt lat="44.23703" lon="3.51999">
        <ele>1153</ele>
        <time>2017-03-03T03:08:46Z</time>
      </trkpt>
      <trkpt lat="44.23713" lon="3.51991">
        <ele>1152</ele>
        <time>2017-03-03T03:10:46Z</time>
      </trkpt>
      <trkpt lat="44.23719" lon="3.51991">
        <ele>1152</ele>
        <time>2017-03-03T03:12:46Z</time>
      </trkpt>
      <trkpt lat="44.23725" lon="3.51992">
        <ele>1152</ele>
        <time>2017-03-03T03:14:46Z</time>
      </trkpt>
      <trkpt lat="44.23734" lon="3.51998">
        <ele>1152</ele>
        <time>2017-03-03T03:16:46Z</time>
      </trkpt>
      <trkpt lat="44.23764" lon="3.52014">
        <ele>1152</ele>
        <time>2017-03-03T03:18:46Z</time>
      </trkpt>
      <trkpt lat="44.23776" lon="3.52024">
        <ele>1152</ele>
        <time>2017-03-03T03:20:46Z</time>
      </trkpt>
      <trkpt lat="44.23786" lon="3.52032">
        <ele>1152</ele>
        <time>2017-03-03T03:22:46Z</time>
      </trkpt>
      <trkpt lat="44.23797" lon="3.52036">
        <ele>1152</ele>
        <time>2017-03-03T03:24:46Z</time>
      </trkpt>
      <trkpt lat="44.23812" lon="3.52042">
        <ele>1152</ele>
        <time>2017-03-03T03:26:46Z</time>
      </trkpt>
      <trkpt lat="44.23828" lon="3.52048">
        <ele>1152</ele>
        <time>2017-03-03T03:28:46Z</time>
      </trkpt>
      <trkpt lat="44.23845" lon="3.52053">
        <ele>1153</ele>
        <time>2017-03-03T03:30:46Z</time>
      </trkpt>
      <trkpt lat="44.23856" lon="3.52059">
        <ele>1153</ele>
        <time>2017-03-03T03:32:46Z</time>
      </trkpt>
      <trkpt lat="44.23875" lon="3.5207">
        <ele>1153</ele>
        <time>2017-03-03T03:34:46Z</time>
      </trkpt>
      <trkpt lat="44.23887" lon="3.52081">
        <ele>1153</ele>
        <time>2017-03-03T03:36:46Z</time>
      </trkpt>
      <trkpt lat="44.23899" lon="3.52099">
        <ele>1153</ele>
        <time>2017-03-03T03:38:46Z</time>
      </trkpt>
      <trkpt lat="44.23906" lon="3.52112">
        <ele>1153</ele>
        <time>2017-03-03T03:40:46Z</time>
      </trkpt>
      <trkpt lat="44.23917" lon="3.52126">
        <ele>1153</ele>
        <time>2017-03-03T03:42:46Z</time>
      </trkpt>
      <trkpt lat="44.23926" lon="3.52136">
        <ele>1153</ele>
        <time>2017-03-03T03:44:46Z</time>
      </trkpt>
      <trkpt lat="44.23937" lon="3.52144">
        <ele>1153</ele>
        <time>2017-03-03T03:46:46Z</time>
      </trkpt>
      <trkpt lat="44.23946" lon="3.52148">
        <ele>1153</ele>
        <time>2017-03-03T03:48:46Z</time>
      </trkpt>
      <trkpt lat="44.23956" lon="3.5215">
        <ele>1153</ele>
        <time>2017-03-03T03:50:46Z</time>
      </trkpt>
      <trkpt lat="44.23973" lon="3.52148">
        <ele>1153</ele>
        <time>2017-03-03T03:52:46Z</time>
      </trkpt>
      <trkpt lat="44.2399" lon="3.52145">
        <ele>1154</ele>
        <time>2017-03-03T03:54:46Z</time>
      </trkpt>
      <trkpt lat="44.24015" lon="3.52139">
        <ele>1153</ele>
        <time>2017-03-03T03:56:46Z</time>
      </trkpt>
      <trkpt lat="44.24041" lon="3.52134">
        <ele>1152</ele>
        <time>2017-03-03T03:58:46Z</time>
      </trkpt>
      <trkpt lat="44.24071" lon="3.52137">
        <ele>1151</ele>
        <time>2017-03-03T04:00:46Z</time>
      </trkpt>
      <trkpt lat="44.24099" lon="3.52141">
        <ele>1150</ele>
        <time>2017-03-03T04:02:46Z</time>
      </trkpt>
      <trkpt lat="44.24124" lon="3.52146">
        <ele>1149</ele>
        <time>2017-03-03T04:04:46Z</time>
      </trkpt>
      <trkpt lat="44.2414" lon="3.52149">
        <ele>1149</ele>
        <time>2017-03-03T04:06:46Z</time>
      </trkpt>
      <trkpt lat="44.24191" lon="3.52159">
        <ele>1148</ele>
        <time>2017-03-03T04:08:46Z</time>
      </trkpt>
      <trkpt lat="44.24211" lon="3.52162">
        <ele>1147</ele>
        <time>2017-03-03T04:10:46Z</time>
      </trkpt>
      <trkpt lat="44.24249" lon="3.52171">
        <ele>1145</ele>
        <time>2017-03-03T04:12:46Z</time>
      </trkpt>
      <trkpt lat="44.24281" lon="3.52179">
        <ele>1142</ele>
        <time>2017-03-03T04:14:46Z</time>
      </trkpt>
      <trkpt lat="44.24319" lon="3.52191">
        <ele>1138</ele>
        <time>2017-03-03T04:16:46Z</time>
      </trkpt>
      <trkpt lat="44.24338" lon="3.52198">
        <ele>1136</ele>
        <time>2017-03-03T04:18:46Z</time>
      </trkpt>
      <trkpt lat="44.24353" lon="3.52204">
        <ele>1135</ele>
        <time>2017-03-03T04:20:46Z</time>
      </trkpt>
      <trkpt lat="44.24375" lon="3.52212">
        <ele>1133</ele>
        <time>2017-03-03T04:22:46Z</time>
      </trkpt>
      <trkpt lat="44.24385" lon="3.52215">
        <ele>1132</ele>
        <time>2017-03-03T04:24:46Z</time>
      </trkpt>
      <trkpt lat="44.24393" lon="3.52219">
        <ele>1132</ele>
        <time>2017-03-03T04:26:46Z</time>
      </trkpt>
      <trkpt lat="44.24416" lon="3.52227">
        <ele>1130</ele>
        <time>2017-03-03T04:28:46Z</time>
      </trkpt>
      <trkpt lat="44.24427" lon="3.5223">
        <ele>1129</ele>
        <time>2017-03-03T04:30:46Z</time>
      </trkpt>
      <trkpt lat="44.24441" lon="3.52234">
        <ele>1128</ele>
        <time>2017-03-03T04:32:46Z</time>
      </trkpt>
      <trkpt lat="44.24458" lon="3.52239">
        <ele>1127</ele>
        <time>2017-03-03T04:34:46Z</time>
      </trkpt>
      <trkpt lat="44.24475" lon="3.52245">
        <ele>1126</ele>
        <time>2017-03-03T04:36:46Z</time>
      </trkpt>
      <trkpt lat="44.24487" lon="3.52248">
        <ele>1126</ele>
        <time>2017-03-03T04:38:46Z</time>
      </trkpt>
      <trkpt lat="44.24501" lon="3.5225">
        <ele>1125</ele>
        <time>2017-03-03T04:40:46Z</time>
      </trkpt>
      <trkpt lat="44.24516" lon="3.52251">
        <ele>1125</ele>
        <time>2017-03-03T04:42:46Z</time>
      </trkpt>
      <trkpt lat="44.24531" lon="3.52251">
        <ele>1124</ele>
        <time>2017-03-03T04:44:46Z</time>
      </trkpt>
      <trkpt lat="44.24545" lon="3.52251">
        <ele>1124</ele>
        <time>2017-03-03T04:46:46Z</time>
      </trkpt>
      <trkpt lat="44.2456" lon="3.52249">
        <ele>1123</ele>
        <time>2017-03-03T04:48:46Z</time>
      </trkpt>
      <trkpt lat="44.24582" lon="3.52244">
        <ele>1122</ele>
        <time>2017-03-03T04:50:46Z</time>
      </trkpt>
      <trkpt lat="44.24588" lon="3.52243">
        <ele>1122</ele>
        <time>2017-03-03T04:52:46Z</time>
      </trkpt>
      <trkpt lat="44.24604" lon="3.52247">
        <ele>1121</ele>
        <time>2017-03-03T04:54:46Z</time>
      </trkpt>
      <trkpt lat="44.24618" lon="3.52251">
        <ele>1121</ele>
        <time>2017-03-03T04:56:46Z</time>
      </trkpt>
      <trkpt lat="44.2463" lon="3.52259">
        <ele>1121</ele>
        <time>2017-03-03T04:58:46Z</time>
      </trkpt>
      <trkpt lat="44.24641" lon="3.5227">
        <ele>1121</ele>
        <time>2017-03-03T05:00:46Z</time>
      </trkpt>
      <trkpt lat="44.24652" lon="3.52278">
        <ele>1121</ele>
        <time>2017-03-03T05:02:46Z</time>
      </trkpt>
      <trkpt lat="44.24667" lon="3.52283">
        <ele>1121</ele>
        <time>2017-03-03T05:04:46Z</time>
      </trkpt>
      <trkpt lat="44.2468" lon="3.52287">
        <ele>1120</ele>
        <time>2017-03-03T05:06:46Z</time>
      </trkpt>
      <trkpt lat="44.24695" lon="3.5229">
        <ele>1120</ele>
        <time>2017-03-03T05:08:46Z</time>
      </trkpt>
      <trkpt lat="44.24715" lon="3.52291">
        <ele>1118</ele>
        <time>2017-03-03T05:10:46Z</time>
      </trkpt>
      <trkpt lat="44.24738" lon="3.52294">
        <ele>1117</ele>
        <time>2017-03-03T05:12:46Z</time>
      </trkpt>
      <trkpt lat="44.24758" lon="3.52296">
        <ele>1115</ele>
        <time>2017-03-03T05:14:46Z</time>
      </trkpt>
      <trkpt lat="44.24773" lon="3.52299">
        <ele>1114</ele>
        <time>2017-03-03T05:16:46Z</time>
      </trkpt>
      <trkpt lat="44.24789" lon="3.52304">
        <ele>1113</ele>
        <time>2017-03-03T05:18:46Z</time>
      </trkpt>
      <trkpt lat="44.24819" lon="3.52319">
        <ele>1111</ele>
        <time>2017-03-03T05:20:46Z</time>
      </trkpt>
      <trkpt lat="44.24835" lon="3.52328">
        <ele>1110</ele>
        <time>2017-03-03T05:22:46Z</time>
      </trkpt>
      <trkpt lat="44.24852" lon="3.52338">
        <ele>1110</ele>
        <time>2017-03-03T05:24:46Z</time>
      </trkpt>
      <trkpt lat="44.24869" lon="3.52346">
        <ele>1110</ele>
        <time>2017-03-03T05:26:46Z</time>
      </trkpt>
      <trkpt lat="44.24878" lon="3.52351">
        <ele>1110</ele>
        <time>2017-03-03T05:28:46Z</time>
      </trkpt>
      <trkpt lat="44.24887" lon="3.52353">
        <ele>1110</ele>
        <time>2017-03-03T05:30:46Z</time>
      </trkpt>
      <trkpt lat="44.24898" lon="3.52349">
        <ele>1110</ele>
        <time>2017-03-03T05:32:46Z</time>
      </trkpt>
      <trkpt lat="44.24905" lon="3.52343">
        <ele>1110</ele>
        <time>2017-03-03T05:34:46Z</time>
      </trkpt>
      <trkpt lat="44.2492" lon="3.52325">
        <ele>1110</ele>
        <time>2017-03-03T05:36:46Z</time>
      </trkpt>
      <trkpt lat="44.24926" lon="3.52323">
        <ele>1111</ele>
        <time>2017-03-03T05:38:46Z</time>
      </trkpt>
      <trkpt lat="44.24936" lon="3.5232">
        <ele>1112</ele>
        <time>2017-03-03T05:40:46Z</time>
      </trkpt>
      <trkpt lat="44.24948" lon="3.52319">
        <ele>1113</ele>
        <time>2017-03-03T05:42:46Z</time>
      </trkpt>
      <trkpt lat="44.24958" lon="3.5232">
        <ele>1113</ele>
        <time>2017-03-03T05:44:46Z</time>
      </trkpt>
      <trkpt lat="44.2498" lon="3.52325">
        <ele>1114</ele>
        <time>2017-03-03T05:46:46Z</time>
      </trkpt>
      <trkpt lat="44.24994" lon="3.52327">
        <ele>1115</ele>
        <time>2017-03-03T05:48:46Z</time>
      </trkpt>
      <trkpt lat="44.25012" lon="3.5233">
        <ele>1116</ele>
        <time>2017-03-03T05:50:46Z</time>
      </trkpt>
      <trkpt lat="44.25022" lon="3.5233">
        <ele>1117</ele>
        <time>2017-03-03T05:52:46Z</time>
      </trkpt>
      <trkpt lat="44.25038" lon="3.52326">
        <ele>1118</ele>
        <time>2017-03-03T05:54:46Z</time>
      </trkpt>
      <trkpt lat="44.25045" lon="3.52326">
        <ele>1119</ele>
        <time>2017-03-03T05:56:46Z</time>
      </trkpt>
      <trkpt lat="44.25051" lon="3.52322">
        <ele>1120</ele>
        <time>2017-03-03T05:58:46Z</time>
      </trkpt>
      <trkpt lat="44.25053" lon="3.52316">
        <ele>1120</ele>
        <time>2017-03-03T06:00:46Z</time>
      </trkpt>
      <trkpt lat="44.25053" lon="3.5231">
        <ele>1121</ele>
        <time>2017-03-03T06:02:46Z</time>
      </trkpt>
      <trkpt lat="44.25059" lon="3.52315">
        <ele>1121</ele>
        <time>2017-03-03T06:04:46Z</time>
      </trkpt>
      <trkpt lat="44.25064" lon="3.52316">
        <ele>1121</ele>
        <time>2017-03-03T06:06:46Z</time>
      </trkpt>
      <trkpt lat="44.25074" lon="3.52313">
        <ele>1122</ele>
        <time>2017-03-03T06:08:46Z</time>
      </trkpt>
      <trkpt lat="44.2508" lon="3.52313">
        <ele>1123</ele>
        <time>2017-03-03T06:10:46Z</time>
      </trkpt>
      <trkpt lat="44.2509" lon="3.52317">
        <ele>1123</ele>
        <time>2017-03-03T06:12:46Z</time>
      </trkpt>
      <trkpt lat="44.25107" lon="3.52325">
        <ele>1124</ele>
        <time>2017-03-03T06:14:46Z</time>
      </trkpt>
      <trkpt lat="44.25129" lon="3.52341">
        <ele>1123</ele>
        <time>2017-03-03T06:16:46Z</time>
      </trkpt>
      <trkpt lat="44.25139" lon="3.52346">
        <ele>1123</ele>
        <time>2017-03-03T06:18:46Z</time>
      </trkpt>
      <trkpt lat="44.25148" lon="3.52352">
        <ele>1122</ele>
        <time>2017-03-03T06:20:46Z</time>
      </trkpt>
      <trkpt lat="44.25162" lon="3.52365">
        <ele>1121</ele>
        <time>2017-03-03T06:22:46Z</time>
      </trkpt>
      <trkpt lat="44.25175" lon="3.52375">
        <ele>1120</ele>
        <time>2017-03-03T06:24:46Z</time>
      </trkpt>
      <trkpt lat="44.25193" lon="3.52385">
        <ele>1121</ele>
        <time>2017-03-03T06:26:46Z</time>
      </trkpt>
      <trkpt lat="44.25207" lon="3.52391">
        <ele>1121</ele>
        <time>2017-03-03T06:28:46Z</time>
      </trkpt>
      <trkpt lat="44.25218" lon="3.52396">
        <ele>1121</ele>
        <time>2017-03-03T06:30:46Z</time>
      </trkpt>
      <trkpt lat="44.25239" lon="3.52402">
        <ele>1123</ele>
        <time>2017-03-03T06:32:46Z</time>
      </trkpt>
      <trkpt lat="44.25252" lon="3.52411">
        <ele>1122</ele>
        <time>2017-03-03T06:34:46Z</time>
      </trkpt>
      <trkpt lat="44.25266" lon="3.52426">
        <ele>1123</ele>
        <time>2017-03-03T06:36:46Z</time>
      </trkpt>
      <trkpt lat="44.25283" lon="3.52443">
        <ele>1123</ele>
        <time>2017-03-03T06:38:46Z</time>
      </trkpt>
      <trkpt lat="44.25304" lon="3.52466">
        <ele>1123</ele>
        <time>2017-03-03T06:40:46Z</time>
      </trkpt>
      <trkpt lat="44.25333" lon="3.52501">
        <ele>1123</ele>
        <time>2017-03-03T06:42:46Z</time>
      </trkpt>
      <trkpt lat="44.25342" lon="3.52513">
        <ele>1122</ele>
        <time>2017-03-03T06:44:46Z</time>
      </trkpt>
      <trkpt lat="44.25353" lon="3.52521">
        <ele>1122</ele>
        <time>2017-03-03T06:46:46Z</time>
      </trkpt>
      <trkpt lat="44.25362" lon="3.52525">
        <ele>1123</ele>
        <time>2017-03-03T06:48:46Z</time>
      </trkpt>
      <trkpt lat="44.25369" lon="3.52528">
        <ele>1123</ele>
        <time>2017-03-03T06:50:46Z</time>
      </trkpt>
      <trkpt lat="44.25379" lon="3.52531">
        <ele>1124</ele>
        <time>2017-03-03T06:52:46Z</time>
      </trkpt>
      <trkpt lat="44.2539" lon="3.52537">
        <ele>1125</ele>
        <time>2017-03-03T06:54:46Z</time>
      </trkpt>
      <trkpt lat="44.25401" lon="3.52545">
        <ele>1125</ele>
        <time>2017-03-03T06:56:46Z</time>
      </trkpt>
      <trkpt lat="44.25409" lon="3.52553">
        <ele>1124</ele>
        <time>2017-03-03T06:58:46Z</time>
      </trkpt>
      <trkpt lat="44.25421" lon="3.52571">
        <ele>1123</ele>
        <time>2017-03-03T07:00:46Z</time>
      </trkpt>
      <trkpt lat="44.25432" lon="3.52584">
        <ele>1122</ele>
        <time>2017-03-03T07:02:46Z</time>
      </trkpt>
      <trkpt lat="44.25442" lon="3.52599">
        <ele>1121</ele>
        <time>2017-03-03T07:04:46Z</time>
      </trkpt>
      <trkpt lat="44.25456" lon="3.52613">
        <ele>1121</ele>
        <time>2017-03-03T07:06:46Z</time>
      </trkpt>
      <trkpt lat="44.2548" lon="3.52626">
        <ele>1122</ele>
        <time>2017-03-03T07:08:46Z</time>
      </trkpt>
      <trkpt lat="44.25491" lon="3.52631">
        <ele>1123</ele>
        <time>2017-03-03T07:10:46Z</time>
      </trkpt>
      <trkpt lat="44.25499" lon="3.52636">
        <ele>1124</ele>
        <time>2017-03-03T07:12:46Z</time>
      </trkpt>
      <trkpt lat="44.25509" lon="3.52649">
        <ele>1122</ele>
        <time>2017-03-03T07:14:46Z</time>
      </trkpt>
      <trkpt lat="44.25524" lon="3.52663">
        <ele>1120</ele>
        <time>2017-03-03T07:16:46Z</time>
      </trkpt>
      <trkpt lat="44.25535" lon="3.52673">
        <ele>1119</ele>
        <time>2017-03-03T07:18:46Z</time>
      </trkpt>
      <trkpt lat="44.25545" lon="3.52683">
        <ele>1118</ele>
        <time>2017-03-03T07:20:46Z</time>
      </trkpt>
      <trkpt lat="44.25556" lon="3.5269">
        <ele>1118</ele>
        <time>2017-03-03T07:22:46Z</time>
      </trkpt>
      <trkpt lat="44.25572" lon="3.52697">
        <ele>1117</ele>
        <time>2017-03-03T07:24:46Z</time>
      </trkpt>
      <trkpt lat="44.25589" lon="3.52704">
        <ele>1117</ele>
        <time>2017-03-03T07:26:46Z</time>
      </trkpt>
      <trkpt lat="44.25607" lon="3.52715">
        <ele>1115</ele>
        <time>2017-03-03T07:28:46Z</time>
      </trkpt>
      <trkpt lat="44.25624" lon="3.52727">
        <ele>1113</ele>
        <time>2017-03-03T07:30:46Z</time>
      </trkpt>
      <trkpt lat="44.25641" lon="3.52747">
        <ele>1112</ele>
        <time>2017-03-03T07:32:46Z</time>
      </trkpt>
      <trkpt lat="44.2565" lon="3.52756">
        <ele>1111</ele>
        <time>2017-03-03T07:34:46Z</time>
      </trkpt>
      <trkpt lat="44.25666" lon="3.52749">
        <ele>1110</ele>
        <time>2017-03-03T07:36:46Z</time>
      </trkpt>
      <trkpt lat="44.25685" lon="3.52743">
        <ele>1109</ele>
        <time>2017-03-03T07:38:46Z</time>
      </trkpt>
      <trkpt lat="44.25702" lon="3.5274">
        <ele>1109</ele>
        <time>2017-03-03T07:40:46Z</time>
      </trkpt>
      <trkpt lat="44.25719" lon="3.52739">
        <ele>1108</ele>
        <time>2017-03-03T07:42:46Z</time>
      </trkpt>
      <trkpt lat="44.2574" lon="3.52735">
        <ele>1107</ele>
        <time>2017-03-03T07:44:46Z</time>
      </trkpt>
      <trkpt lat="44.25763" lon="3.52732">
        <ele>1107</ele>
        <time>2017-03-03T07:46:46Z</time>
      </trkpt>
      <trkpt lat="44.25783" lon="3.5273">
        <ele>1106</ele>
        <time>2017-03-03T07:48:46Z</time>
      </trkpt>
      <trkpt lat="44.25807" lon="3.52729">
        <ele>1106</ele>
        <time>2017-03-03T07:50:46Z</time>
      </trkpt>
      <trkpt lat="44.25824" lon="3.52729">
        <ele>1106</ele>
        <time>2017-03-03T07:52:46Z</time>
      </trkpt>
      <trkpt lat="44.25839" lon="3.52731">
        <ele>1105</ele>
        <time>2017-03-03T07:54:46Z</time>
      </trkpt>
      <trkpt lat="44.25851" lon="3.52737">
        <ele>1105</ele>
        <time>2017-03-03T07:56:46Z</time>
      </trkpt>
      <trkpt lat="44.2587" lon="3.52746">
        <ele>1105</ele>
        <time>2017-03-03T07:58:46Z</time>
      </trkpt>
      <trkpt lat="44.25887" lon="3.52756">
        <ele>1105</ele>
        <time>2017-03-03T08:00:46Z</time>
      </trkpt>
      <trkpt lat="44.25897" lon="3.5276">
        <ele>1105</ele>
        <time>2017-03-03T08:02:46Z</time>
      </trkpt>
      <trkpt lat="44.25906" lon="3.52761">
        <ele>1105</ele>
        <time>2017-03-03T08:04:46Z</time>
      </trkpt>
      <trkpt lat="44.25916" lon="3.5276">
        <ele>1105</ele>
        <time>2017-03-03T08:06:46Z</time>
      </trkpt>
      <trkpt lat="44.2593" lon="3.52756">
        <ele>1104</ele>
        <time>2017-03-03T08:08:46Z</time>
      </trkpt>
      <trkpt lat="44.25943" lon="3.52755">
        <ele>1104</ele>
        <time>2017-03-03T08:10:46Z</time>
      </trkpt>
      <trkpt lat="44.25967" lon="3.52754">
        <ele>1103</ele>
        <time>2017-03-03T08:12:46Z</time>
      </trkpt>
      <trkpt lat="44.25979" lon="3.52755">
        <ele>1103</ele>
        <time>2017-03-03T08:14:46Z</time>
      </trkpt>
      <trkpt lat="44.25995" lon="3.52755">
        <ele>1102</ele>
        <time>2017-03-03T08:16:46Z</time>
      </trkpt>
      <trkpt lat="44.26028" lon="3.52747">
        <ele>1101</ele>
        <time>2017-03-03T08:18:46Z</time>
      </trkpt>
      <trkpt lat="44.26053" lon="3.52737">
        <ele>1100</ele>
        <time>2017-03-03T08:20:46Z</time>
      </trkpt>
      <trkpt lat="44.26063" lon="3.52735">
        <ele>1100</ele>
        <time>2017-03-03T08:22:46Z</time>
      </trkpt>
      <trkpt lat="44.26075" lon="3.52735">
        <ele>1099</ele>
        <time>2017-03-03T08:24:46Z</time>
      </trkpt>
      <trkpt lat="44.26093" lon="3.52737">
        <ele>1099</ele>
        <time>2017-03-03T08:26:46Z</time>
      </trkpt>
      <trkpt lat="44.26108" lon="3.5274">
        <ele>1100</ele>
        <time>2017-03-03T08:28:46Z</time>
      </trkpt>
      <trkpt lat="44.2612" lon="3.52744">
        <ele>1100</ele>
        <time>2017-03-03T08:30:46Z</time>
      </trkpt>
      <trkpt lat="44.26129" lon="3.52751">
        <ele>1100</ele>
        <time>2017-03-03T08:32:46Z</time>
      </trkpt>
      <trkpt lat="44.26136" lon="3.5276">
        <ele>1100</ele>
        <time>2017-03-03T08:34:46Z</time>
      </trkpt>
      <trkpt lat="44.26141" lon="3.52771">
        <ele>1099</ele>
        <time>2017-03-03T08:36:46Z</time>
      </trkpt>
      <trkpt lat="44.26149" lon="3.52791">
        <ele>1098</ele>
        <time>2017-03-03T08:38:46Z</time>
      </trkpt>
      <trkpt lat="44.26154" lon="3.52801">
        <ele>1097</ele>
        <time>2017-03-03T08:40:46Z</time>
      </trkpt>
      <trkpt lat="44.26176" lon="3.52828">
        <ele>1094</ele>
        <time>2017-03-03T08:42:46Z</time>
      </trkpt>
      <trkpt lat="44.26195" lon="3.52853">
        <ele>1094</ele>
        <time>2017-03-03T08:44:46Z</time>
      </trkpt>
      <trkpt lat="44.26202" lon="3.52863">
        <ele>1094</ele>
        <time>2017-03-03T08:46:46Z</time>
      </trkpt>
      <trkpt lat="44.26208" lon="3.5287">
        <ele>1094</ele>
        <time>2017-03-03T08:48:46Z</time>
      </trkpt>
      <trkpt lat="44.26218" lon="3.5288">
        <ele>1093</ele>
        <time>2017-03-03T08:50:46Z</time>
      </trkpt>
      <trkpt lat="44.26227" lon="3.5289">
        <ele>1092</ele>
        <time>2017-03-03T08:52:46Z</time>
      </trkpt>
      <trkpt lat="44.26234" lon="3.52901">
        <ele>1091</ele>
        <time>2017-03-03T08:54:46Z</time>
      </trkpt>
      <trkpt lat="44.26243" lon="3.52911">
        <ele>1089</ele>
        <time>2017-03-03T08:56:46Z</time>
      </trkpt>
      <trkpt lat="44.26253" lon="3.52919">
        <ele>1088</ele>
        <time>2017-03-03T08:58:46Z</time>
      </trkpt>
      <trkpt lat="44.26259" lon="3.52922">
        <ele>1088</ele>
        <time>2017-03-03T09:00:46Z</time>
      </trkpt>
      <trkpt lat="44.26269" lon="3.52926">
        <ele>1088</ele>
        <time>2017-03-03T09:02:46Z</time>
      </trkpt>
      <trkpt lat="44.26281" lon="3.52931">
        <ele>1088</ele>
        <time>2017-03-03T09:04:46Z</time>
      </trkpt>
      <trkpt lat="44.26293" lon="3.52938">
        <ele>1087</ele>
        <time>2017-03-03T09:06:46Z</time>
      </trkpt>
      <trkpt lat="44.26306" lon="3.52945">
        <ele>1087</ele>
        <time>2017-03-03T09:08:46Z</time>
      </trkpt>
      <trkpt lat="44.26321" lon="3.52956">
        <ele>1086</ele>
        <time>2017-03-03T09:10:46Z</time>
      </trkpt>
      <trkpt lat="44.26349" lon="3.52978">
        <ele>1084</ele>
        <time>2017-03-03T09:12:46Z</time>
      </trkpt>
      <trkpt lat="44.26358" lon="3.52989">
        <ele>1083</ele>
        <time>2017-03-03T09:14:46Z</time>
      </trkpt>
      <trkpt lat="44.26371" lon="3.53013">
        <ele>1082</ele>
        <time>2017-03-03T09:16:46Z</time>
      </trkpt>
      <trkpt lat="44.26377" lon="3.53021">
        <ele>1082</ele>
        <time>2017-03-03T09:18:46Z</time>
      </trkpt>
      <trkpt lat="44.26404" lon="3.53047">
        <ele>1081</ele>
        <time>2017-03-03T09:20:46Z</time>
      </trkpt>
      <trkpt lat="44.26412" lon="3.53053">
        <ele>1080</ele>
        <time>2017-03-03T09:22:46Z</time>
      </trkpt>
      <trkpt lat="44.26418" lon="3.53055">
        <ele>1080</ele>
        <time>2017-03-03T09:24:46Z</time>
      </trkpt>
      <trkpt lat="44.26426" lon="3.53053">
        <ele>1080</ele>
        <time>2017-03-03T09:26:46Z</time>
      </trkpt>
      <trkpt lat="44.26432" lon="3.53048">
        <ele>1080</ele>
        <time>2017-03-03T09:28:46Z</time>
      </trkpt>
      <trkpt lat="44.26442" lon="3.53038">
        <ele>1080</ele>
        <time>2017-03-03T09:30:46Z</time>
      </trkpt>
      <trkpt lat="44.2645" lon="3.53026">
        <ele>1080</ele>
        <time>2017-03-03T09:32:46Z</time>
      </trkpt>
      <trkpt lat="44.26459" lon="3.53019">
        <ele>1080</ele>
        <time>2017-03-03T09:34:46Z</time>
      </trkpt>
      <trkpt lat="44.26467" lon="3.53017">
        <ele>1080</ele>
        <time>2017-03-03T09:36:46Z</time>
      </trkpt>
      <trkpt lat="44.26488" lon="3.53022">
        <ele>1079</ele>
        <time>2017-03-03T09:38:46Z</time>
      </trkpt>
      <trkpt lat="44.26498" lon="3.53023">
        <ele>1079</ele>
        <time>2017-03-03T09:40:46Z</time>
      </trkpt>
      <trkpt lat="44.26508" lon="3.53025">
        <ele>1079</ele>
        <time>2017-03-03T09:42:46Z</time>
      </trkpt>
      <trkpt lat="44.26516" lon="3.53029">
        <ele>1079</ele>
        <time>2017-03-03T09:44:46Z</time>
      </trkpt>
      <trkpt lat="44.26532" lon="3.53045">
        <ele>1080</ele>
        <time>2017-03-03T09:46:46Z</time>
      </trkpt>
      <trkpt lat="44.26602" lon="3.53121">
        <ele>1082</ele>
        <time>2017-03-03T09:48:46Z</time>
      </trkpt>
      <trkpt lat="44.26628" lon="3.53154">
        <ele>1084</ele>
        <time>2017-03-03T09:50:46Z</time>
      </trkpt>
      <trkpt lat="44.26642" lon="3.53173">
        <ele>1085</ele>
        <time>2017-03-03T09:52:46Z</time>
      </trkpt>
      <trkpt lat="44.26651" lon="3.53198">
        <ele>1085</ele>
        <time>2017-03-03T09:54:46Z</time>
      </trkpt>
      <trkpt lat="44.26662" lon="3.53229">
        <ele>1084</ele>
        <time>2017-03-03T09:56:46Z</time>
      </trkpt>
      <trkpt lat="44.26666" lon="3.53249">
        <ele>1084</ele>
        <time>2017-03-03T09:58:46Z</time>
      </trkpt>
      <trkpt lat="44.26669" lon="3.53278">
        <ele>1084</ele>
        <time>2017-03-03T10:00:46Z</time>
      </trkpt>
      <trkpt lat="44.26668" lon="3.53288">
        <ele>1084</ele>
        <time>2017-03-03T10:02:46Z</time>
      </trkpt>
      <trkpt lat="44.26657" lon="3.53327">
        <ele>1083</ele>
        <time>2017-03-03T10:04:46Z</time>
      </trkpt>
      <trkpt lat="44.26668" lon="3.53288">
        <ele>1084</ele>
        <time>2017-03-03T10:06:46Z</time>
      </trkpt>
      <trkpt lat="44.26669" lon="3.53278">
        <ele>1084</ele>
        <time>2017-03-03T10:08:46Z</time>
      </trkpt>
      <trkpt lat="44.26666" lon="3.53249">
        <ele>1084</ele>
        <time>2017-03-03T10:10:46Z</time>
      </trkpt>
      <trkpt lat="44.26662" lon="3.53229">
        <ele>1084</ele>
        <time>2017-03-03T10:12:46Z</time>
      </trkpt>
      <trkpt lat="44.26658" lon="3.53206">
        <ele>1085</ele>
        <time>2017-03-03T10:14:46Z</time>
      </trkpt>
      <trkpt lat="44.26657" lon="3.53187">
        <ele>1085</ele>
        <time>2017-03-03T10:16:46Z</time>
      </trkpt>
      <trkpt lat="44.2666" lon="3.53165">
        <ele>1086</ele>
        <time>2017-03-03T10:18:46Z</time>
      </trkpt>
      <trkpt lat="44.26663" lon="3.53152">
        <ele>1085</ele>
        <time>2017-03-03T10:20:46Z</time>
      </trkpt>
      <trkpt lat="44.26675" lon="3.53132">
        <ele>1086</ele>
        <time>2017-03-03T10:22:46Z</time>
      </trkpt>
      <trkpt lat="44.26703" lon="3.53034">
        <ele>1086</ele>
        <time>2017-03-03T10:24:46Z</time>
      </trkpt>
      <trkpt lat="44.26711" lon="3.53004">
        <ele>1086</ele>
        <time>2017-03-03T10:26:46Z</time>
      </trkpt>
      <trkpt lat="44.26718" lon="3.52952">
        <ele>1086</ele>
        <time>2017-03-03T10:28:46Z</time>
      </trkpt>
      <trkpt lat="44.26722" lon="3.52931">
        <ele>1086</ele>
        <time>2017-03-03T10:30:46Z</time>
      </trkpt>
      <trkpt lat="44.26735" lon="3.52897">
        <ele>1087</ele>
        <time>2017-03-03T10:32:46Z</time>
      </trkpt>
      <trkpt lat="44.26749" lon="3.52856">
        <ele>1088</ele>
        <time>2017-03-03T10:34:46Z</time>
      </trkpt>
      <trkpt lat="44.26757" lon="3.52827">
        <ele>1088</ele>
        <time>2017-03-03T10:36:46Z</time>
      </trkpt>
      <trkpt lat="44.26766" lon="3.52798">
        <ele>1088</ele>
        <time>2017-03-03T10:38:46Z</time>
      </trkpt>
      <trkpt lat="44.26787" lon="3.52741">
        <ele>1088</ele>
        <time>2017-03-03T10:40:46Z</time>
      </trkpt>
      <trkpt lat="44.268" lon="3.52701">
        <ele>1088</ele>
        <time>2017-03-03T10:42:46Z</time>
      </trkpt>
      <trkpt lat="44.26806" lon="3.52664">
        <ele>1087</ele>
        <time>2017-03-03T10:44:46Z</time>
      </trkpt>
      <trkpt lat="44.26819" lon="3.52623">
        <ele>1088</ele>
        <time>2017-03-03T10:46:46Z</time>
      </trkpt>
      <trkpt lat="44.26823" lon="3.52605">
        <ele>1088</ele>
        <time>2017-03-03T10:48:46Z</time>
      </trkpt>
      <trkpt lat="44.26826" lon="3.526">
        <ele>1088</ele>
        <time>2017-03-03T10:50:46Z</time>
      </trkpt>
      <trkpt lat="44.2683" lon="3.52593">
        <ele>1088</ele>
        <time>2017-03-03T10:52:46Z</time>
      </trkpt>
      <trkpt lat="44.26835" lon="3.52575">
        <ele>1088</ele>
        <time>2017-03-03T10:54:46Z</time>
      </trkpt>
      <trkpt lat="44.2684" lon="3.52558">
        <ele>1088</ele>
        <time>2017-03-03T10:56:46Z</time>
      </trkpt>
      <trkpt lat="44.26847" lon="3.52539">
        <ele>1088</ele>
        <time>2017-03-03T10:58:46Z</time>
      </trkpt>
      <trkpt lat="44.26857" lon="3.52518">
        <ele>1089</ele>
        <time>2017-03-03T11:00:46Z</time>
      </trkpt>
      <trkpt lat="44.26866" lon="3.52502">
        <ele>1090</ele>
        <time>2017-03-03T11:02:46Z</time>
      </trkpt>
      <trkpt lat="44.26878" lon="3.52488">
        <ele>1091</ele>
        <time>2017-03-03T11:04:46Z</time>
      </trkpt>
      <trkpt lat="44.26886" lon="3.52476">
        <ele>1091</ele>
        <time>2017-03-03T11:06:46Z</time>
      </trkpt>
      <trkpt lat="44.26895" lon="3.52466">
        <ele>1092</ele>
        <time>2017-03-03T11:08:46Z</time>
      </trkpt>
      <trkpt lat="44.26895" lon="3.52461">
        <ele>1092</ele>
        <time>2017-03-03T11:10:46Z</time>
      </trkpt>
      <trkpt lat="44.26894" lon="3.52451">
        <ele>1092</ele>
        <time>2017-03-03T11:12:46Z</time>
      </trkpt>
      <trkpt lat="44.26893" lon="3.52442">
        <ele>1092</ele>
        <time>2017-03-03T11:14:46Z</time>
      </trkpt>
      <trkpt lat="44.26894" lon="3.52421">
        <ele>1091</ele>
        <time>2017-03-03T11:16:46Z</time>
      </trkpt>
      <trkpt lat="44.26894" lon="3.52404">
        <ele>1091</ele>
        <time>2017-03-03T11:18:46Z</time>
      </trkpt>
      <trkpt lat="44.26895" lon="3.52387">
        <ele>1091</ele>
        <time>2017-03-03T11:20:46Z</time>
      </trkpt>
      <trkpt lat="44.26898" lon="3.52373">
        <ele>1091</ele>
        <time>2017-03-03T11:22:46Z</time>
      </trkpt>
      <trkpt lat="44.26898" lon="3.52366">
        <ele>1091</ele>
        <time>2017-03-03T11:24:46Z</time>
      </trkpt>
      <trkpt lat="44.26894" lon="3.52355">
        <ele>1091</ele>
        <time>2017-03-03T11:26:46Z</time>
      </trkpt>
      <trkpt lat="44.26892" lon="3.52345">
        <ele>1091</ele>
        <time>2017-03-03T11:28:46Z</time>
      </trkpt>
      <trkpt lat="44.26892" lon="3.52326">
        <ele>1091</ele>
        <time>2017-03-03T11:30:46Z</time>
      </trkpt>
      <trkpt lat="44.26894" lon="3.52318">
        <ele>1090</ele>
        <time>2017-03-03T11:32:46Z</time>
      </trkpt>
      <trkpt lat="44.26899" lon="3.52312">
        <ele>1090</ele>
        <time>2017-03-03T11:34:46Z</time>
      </trkpt>
      <trkpt lat="44.26906" lon="3.52307">
        <ele>1089</ele>
        <time>2017-03-03T11:36:46Z</time>
      </trkpt>
      <trkpt lat="44.2691" lon="3.52299">
        <ele>1089</ele>
        <time>2017-03-03T11:38:46Z</time>
      </trkpt>
      <trkpt lat="44.26913" lon="3.52288">
        <ele>1088</ele>
        <time>2017-03-03T11:40:46Z</time>
      </trkpt>
      <trkpt lat="44.26915" lon="3.52272">
        <ele>1087</ele>
        <time>2017-03-03T11:42:46Z</time>
      </trkpt>
      <trkpt lat="44.26914" lon="3.52253">
        <ele>1085</ele>
        <time>2017-03-03T11:44:46Z</time>
      </trkpt>
      <trkpt lat="44.26911" lon="3.52236">
        <ele>1084</ele>
        <time>2017-03-03T11:46:46Z</time>
      </trkpt>
      <trkpt lat="44.26898" lon="3.52176">
        <ele>1080</ele>
        <time>2017-03-03T11:48:46Z</time>
      </trkpt>
      <trkpt lat="44.26895" lon="3.52157">
        <ele>1079</ele>
        <time>2017-03-03T11:50:46Z</time>
      </trkpt>
      <trkpt lat="44.26893" lon="3.52139">
        <ele>1078</ele>
        <time>2017-03-03T11:52:46Z</time>
      </trkpt>
      <trkpt lat="44.2689" lon="3.52119">
        <ele>1077</ele>
        <time>2017-03-03T11:54:46Z</time>
      </trkpt>
      <trkpt lat="44.26886" lon="3.52099">
        <ele>1077</ele>
        <time>2017-03-03T11:56:46Z</time>
      </trkpt>
      <trkpt lat="44.26885" lon="3.52084">
        <ele>1076</ele>
        <time>2017-03-03T11:58:46Z</time>
      </trkpt>
      <trkpt lat="44.26885" lon="3.52072">
        <ele>1075</ele>
        <time>2017-03-03T12:00:46Z</time>
      </trkpt>
      <trkpt lat="44.26886" lon="3.52065">
        <ele>1075</ele>
        <time>2017-03-03T12:02:46Z</time>
      </trkpt>
      <trkpt lat="44.26889" lon="3.5206">
        <ele>1075</ele>
        <time>2017-03-03T12:04:46Z</time>
      </trkpt>
      <trkpt lat="44.26893" lon="3.52059">
        <ele>1074</ele>
        <time>2017-03-03T12:06:46Z</time>
      </trkpt>
      <trkpt lat="44.26898" lon="3.5206">
        <ele>1073</ele>
        <time>2017-03-03T12:08:46Z</time>
      </trkpt>
      <trkpt lat="44.26904" lon="3.52067">
        <ele>1072</ele>
        <time>2017-03-03T12:10:46Z</time>
      </trkpt>
      <trkpt lat="44.26918" lon="3.5209">
        <ele>1069</ele>
        <time>2017-03-03T12:12:46Z</time>
      </trkpt>
      <trkpt lat="44.26956" lon="3.52153">
        <ele>1068</ele>
        <time>2017-03-03T12:14:46Z</time>
      </trkpt>
      <trkpt lat="44.26969" lon="3.52176">
        <ele>1068</ele>
        <time>2017-03-03T12:16:46Z</time>
      </trkpt>
      <trkpt lat="44.26977" lon="3.52189">
        <ele>1068</ele>
        <time>2017-03-03T12:18:46Z</time>
      </trkpt>
      <trkpt lat="44.26983" lon="3.52195">
        <ele>1067</ele>
        <time>2017-03-03T12:20:46Z</time>
      </trkpt>
      <trkpt lat="44.26994" lon="3.52201">
        <ele>1066</ele>
        <time>2017-03-03T12:22:46Z</time>
      </trkpt>
      <trkpt lat="44.2701" lon="3.52209">
        <ele>1065</ele>
        <time>2017-03-03T12:24:46Z</time>
      </trkpt>
      <trkpt lat="44.27022" lon="3.52212">
        <ele>1065</ele>
        <time>2017-03-03T12:26:46Z</time>
      </trkpt>
      <trkpt lat="44.27043" lon="3.52214">
        <ele>1064</ele>
        <time>2017-03-03T12:28:46Z</time>
      </trkpt>
      <trkpt lat="44.27056" lon="3.52216">
        <ele>1063</ele>
        <time>2017-03-03T12:30:46Z</time>
      </trkpt>
      <trkpt lat="44.27064" lon="3.52217">
        <ele>1063</ele>
        <time>2017-03-03T12:32:46Z</time>
      </trkpt>
      <trkpt lat="44.2707" lon="3.52215">
        <ele>1062</ele>
        <time>2017-03-03T12:34:46Z</time>
      </trkpt>
      <trkpt lat="44.27076" lon="3.5221">
        <ele>1061</ele>
        <time>2017-03-03T12:36:46Z</time>
      </trkpt>
      <trkpt lat="44.27084" lon="3.52198">
        <ele>1059</ele>
        <time>2017-03-03T12:38:46Z</time>
      </trkpt>
      <trkpt lat="44.27092" lon="3.52185">
        <ele>1058</ele>
        <time>2017-03-03T12:40:46Z</time>
      </trkpt>
      <trkpt lat="44.27102" lon="3.52175">
        <ele>1057</ele>
        <time>2017-03-03T12:42:46Z</time>
      </trkpt>
      <trkpt lat="44.27114" lon="3.52167">
        <ele>1055</ele>
        <time>2017-03-03T12:44:46Z</time>
      </trkpt>
      <trkpt lat="44.27129" lon="3.52158">
        <ele>1054</ele>
        <time>2017-03-03T12:46:46Z</time>
      </trkpt>
      <trkpt lat="44.27142" lon="3.5215">
        <ele>1052</ele>
        <time>2017-03-03T12:48:46Z</time>
      </trkpt>
      <trkpt lat="44.27145" lon="3.52149">
        <ele>1052</ele>
        <time>2017-03-03T12:50:46Z</time>
      </trkpt>
      <trkpt lat="44.27147" lon="3.52165">
        <ele>1054</ele>
        <time>2017-03-03T12:52:46Z</time>
      </trkpt>
      <trkpt lat="44.27145" lon="3.52149">
        <ele>1052</ele>
        <time>2017-03-03T12:54:46Z</time>
      </trkpt>
      <trkpt lat="44.27151" lon="3.52148">
        <ele>1052</ele>
        <time>2017-03-03T12:56:46Z</time>
      </trkpt>
      <trkpt lat="44.27161" lon="3.52147">
        <ele>1051</ele>
        <time>2017-03-03T12:58:46Z</time>
      </trkpt>
      <trkpt lat="44.27181" lon="3.52148">
        <ele>1051</ele>
        <time>2017-03-03T13:00:46Z</time>
      </trkpt>
      <trkpt lat="44.27189" lon="3.52146">
        <ele>1050</ele>
        <time>2017-03-03T13:02:46Z</time>
      </trkpt>
      <trkpt lat="44.27212" lon="3.52137">
        <ele>1048</ele>
        <time>2017-03-03T13:04:46Z</time>
      </trkpt>
      <trkpt lat="44.27234" lon="3.52129">
        <ele>1046</ele>
        <time>2017-03-03T13:06:46Z</time>
      </trkpt>
      <trkpt lat="44.27244" lon="3.52127">
        <ele>1045</ele>
        <time>2017-03-03T13:08:46Z</time>
      </trkpt>
      <trkpt lat="44.27253" lon="3.52126">
        <ele>1044</ele>
        <time>2017-03-03T13:10:46Z</time>
      </trkpt>
      <trkpt lat="44.27294" lon="3.52131">
        <ele>1042</ele>
        <time>2017-03-03T13:12:46Z</time>
      </trkpt>
      <trkpt lat="44.27308" lon="3.52131">
        <ele>1041</ele>
        <time>2017-03-03T13:14:46Z</time>
      </trkpt>
      <trkpt lat="44.27319" lon="3.5213">
        <ele>1040</ele>
        <time>2017-03-03T13:16:46Z</time>
      </trkpt>
      <trkpt lat="44.27329" lon="3.52126">
        <ele>1038</ele>
        <time>2017-03-03T13:18:46Z</time>
      </trkpt>
      <trkpt lat="44.27335" lon="3.52122">
        <ele>1038</ele>
        <time>2017-03-03T13:20:46Z</time>
      </trkpt>
      <trkpt lat="44.27338" lon="3.52117">
        <ele>1037</ele>
        <time>2017-03-03T13:22:46Z</time>
      </trkpt>
      <trkpt lat="44.27343" lon="3.52102">
        <ele>1035</ele>
        <time>2017-03-03T13:24:46Z</time>
      </trkpt>
      <trkpt lat="44.27348" lon="3.52084">
        <ele>1033</ele>
        <time>2017-03-03T13:26:46Z</time>
      </trkpt>
      <trkpt lat="44.27352" lon="3.52069">
        <ele>1031</ele>
        <time>2017-03-03T13:28:46Z</time>
      </trkpt>
      <trkpt lat="44.2736" lon="3.52052">
        <ele>1030</ele>
        <time>2017-03-03T13:30:46Z</time>
      </trkpt>
      <trkpt lat="44.27366" lon="3.52044">
        <ele>1029</ele>
        <time>2017-03-03T13:32:46Z</time>
      </trkpt>
      <trkpt lat="44.27375" lon="3.52035">
        <ele>1028</ele>
        <time>2017-03-03T13:34:46Z</time>
      </trkpt>
      <trkpt lat="44.27381" lon="3.52028">
        <ele>1027</ele>
        <time>2017-03-03T13:36:46Z</time>
      </trkpt>
      <trkpt lat="44.27386" lon="3.52019">
        <ele>1026</ele>
        <time>2017-03-03T13:38:46Z</time>
      </trkpt>
      <trkpt lat="44.27389" lon="3.52009">
        <ele>1025</ele>
        <time>2017-03-03T13:40:46Z</time>
      </trkpt>
      <trkpt lat="44.27395" lon="3.52001">
        <ele>1024</ele>
        <time>2017-03-03T13:42:46Z</time>
      </trkpt>
      <trkpt lat="44.27408" lon="3.5199">
        <ele>1023</ele>
        <time>2017-03-03T13:44:46Z</time>
      </trkpt>
      <trkpt lat="44.27418" lon="3.5198">
        <ele>1022</ele>
        <time>2017-03-03T13:46:46Z</time>
      </trkpt>
      <trkpt lat="44.27428" lon="3.51969">
        <ele>1021</ele>
        <time>2017-03-03T13:48:46Z</time>
      </trkpt>
      <trkpt lat="44.27439" lon="3.51953">
        <ele>1020</ele>
        <time>2017-03-03T13:50:46Z</time>
      </trkpt>
      <trkpt lat="44.27447" lon="3.51944">
        <ele>1019</ele>
        <time>2017-03-03T13:52:46Z</time>
      </trkpt>
      <trkpt lat="44.27458" lon="3.51934">
        <ele>1019</ele>
        <time>2017-03-03T13:54:46Z</time>
      </trkpt>
      <trkpt lat="44.27459" lon="3.51929">
        <ele>1018</ele>
        <time>2017-03-03T13:56:46Z</time>
      </trkpt>
      <trkpt lat="44.27476" lon="3.51925">
        <ele>1018</ele>
        <time>2017-03-03T13:58:46Z</time>
      </trkpt>
      <trkpt lat="44.27527" lon="3.51896">
        <ele>1015</ele>
        <time>2017-03-03T14:00:46Z</time>
      </trkpt>
      <trkpt lat="44.27586" lon="3.51867">
        <ele>1013</ele>
        <time>2017-03-03T14:02:46Z</time>
      </trkpt>
      <trkpt lat="44.27665" lon="3.51858">
        <ele>1010</ele>
        <time>2017-03-03T14:04:46Z</time>
      </trkpt>
      <trkpt lat="44.27702" lon="3.5184">
        <ele>1008</ele>
        <time>2017-03-03T14:06:46Z</time>
      </trkpt>
      <trkpt lat="44.27752" lon="3.518">
        <ele>1004</ele>
        <time>2017-03-03T14:08:46Z</time>
      </trkpt>
      <trkpt lat="44.27763" lon="3.51795">
        <ele>1003</ele>
        <time>2017-03-03T14:10:46Z</time>
      </trkpt>
      <trkpt lat="44.27783" lon="3.51791">
        <ele>1002</ele>
        <time>2017-03-03T14:12:46Z</time>
      </trkpt>
      <trkpt lat="44.27823" lon="3.51786">
        <ele>999</ele>
        <time>2017-03-03T14:14:46Z</time>
      </trkpt>
      <trkpt lat="44.27861" lon="3.51789">
        <ele>998</ele>
        <time>2017-03-03T14:16:46Z</time>
      </trkpt>
      <trkpt lat="44.27875" lon="3.51788">
        <ele>997</ele>
        <time>2017-03-03T14:18:46Z</time>
      </trkpt>
      <trkpt lat="44.27894" lon="3.51787">
        <ele>996</ele>
        <time>2017-03-03T14:20:46Z</time>
      </trkpt>
      <trkpt lat="44.27908" lon="3.51787">
        <ele>995</ele>
        <time>2017-03-03T14:22:46Z</time>
      </trkpt>
      <trkpt lat="44.27917" lon="3.51789">
        <ele>995</ele>
        <time>2017-03-03T14:24:46Z</time>
      </trkpt>
      <trkpt lat="44.2794" lon="3.51797">
        <ele>994</ele>
        <time>2017-03-03T14:26:46Z</time>
      </trkpt>
      <trkpt lat="44.27967" lon="3.51802">
        <ele>992</ele>
        <time>2017-03-03T14:28:46Z</time>
      </trkpt>
      <trkpt lat="44.27979" lon="3.51807">
        <ele>992</ele>
        <time>2017-03-03T14:30:46Z</time>
      </trkpt>
      <trkpt lat="44.27991" lon="3.51812">
        <ele>991</ele>
        <time>2017-03-03T14:32:46Z</time>
      </trkpt>
      <trkpt lat="44.28016" lon="3.51817">
        <ele>990</ele>
        <time>2017-03-03T14:34:46Z</time>
      </trkpt>
      <trkpt lat="44.28028" lon="3.51821">
        <ele>989</ele>
        <time>2017-03-03T14:36:46Z</time>
      </trkpt>
      <trkpt lat="44.28038" lon="3.51827">
        <ele>989</ele>
        <time>2017-03-03T14:38:46Z</time>
      </trkpt>
      <trkpt lat="44.28047" lon="3.51831">
        <ele>988</ele>
        <time>2017-03-03T14:40:46Z</time>
      </trkpt>
      <trkpt lat="44.28063" lon="3.51833">
        <ele>988</ele>
        <time>2017-03-03T14:42:46Z</time>
      </trkpt>
      <trkpt lat="44.2808" lon="3.51836">
        <ele>987</ele>
        <time>2017-03-03T14:44:46Z</time>
      </trkpt>
      <trkpt lat="44.28097" lon="3.51841">
        <ele>987</ele>
        <time>2017-03-03T14:46:46Z</time>
      </trkpt>
      <trkpt lat="44.28124" lon="3.51846">
        <ele>986</ele>
        <time>2017-03-03T14:48:46Z</time>
      </trkpt>
      <trkpt lat="44.28145" lon="3.51853">
        <ele>985</ele>
        <time>2017-03-03T14:50:46Z</time>
      </trkpt>
      <trkpt lat="44.28174" lon="3.51861">
        <ele>984</ele>
        <time>2017-03-03T14:52:46Z</time>
      </trkpt>
      <trkpt lat="44.28198" lon="3.51867">
        <ele>983</ele>
        <time>2017-03-03T14:54:46Z</time>
      </trkpt>
      <trkpt lat="44.28221" lon="3.51874">
        <ele>983</ele>
        <time>2017-03-03T14:56:46Z</time>
      </trkpt>
      <trkpt lat="44.2824" lon="3.51881">
        <ele>982</ele>
        <time>2017-03-03T14:58:46Z</time>
      </trkpt>
      <trkpt lat="44.28263" lon="3.51892">
        <ele>981</ele>
        <time>2017-03-03T15:00:46Z</time>
      </trkpt>
      <trkpt lat="44.28293" lon="3.51904">
        <ele>980</ele>
        <time>2017-03-03T15:02:46Z</time>
      </trkpt>
      <trkpt lat="44.2832" lon="3.51913">
        <ele>979</ele>
        <time>2017-03-03T15:04:46Z</time>
      </trkpt>
      <trkpt lat="44.28342" lon="3.5192">
        <ele>978</ele>
        <time>2017-03-03T15:06:46Z</time>
      </trkpt>
      <trkpt lat="44.28367" lon="3.51925">
        <ele>977</ele>
        <time>2017-03-03T15:08:46Z</time>
      </trkpt>
      <trkpt lat="44.28405" lon="3.51934">
        <ele>976</ele>
        <time>2017-03-03T15:10:46Z</time>
      </trkpt>
      <trkpt lat="44.28434" lon="3.5194">
        <ele>976</ele>
        <time>2017-03-03T15:12:46Z</time>
      </trkpt>
      <trkpt lat="44.28462" lon="3.51947">
        <ele>975</ele>
        <time>2017-03-03T15:14:46Z</time>
      </trkpt>
      <trkpt lat="44.28475" lon="3.5195">
        <ele>975</ele>
        <time>2017-03-03T15:16:46Z</time>
      </trkpt>
      <trkpt lat="44.28509" lon="3.51953">
        <ele>974</ele>
        <time>2017-03-03T15:18:46Z</time>
      </trkpt>
      <trkpt lat="44.28513" lon="3.51964">
        <ele>974</ele>
        <time>2017-03-03T15:20:46Z</time>
      </trkpt>
      <trkpt lat="44.28519" lon="3.51972">
        <ele>974</ele>
        <time>2017-03-03T15:22:46Z</time>
      </trkpt>
      <trkpt lat="44.2853" lon="3.51979">
        <ele>973</ele>
        <time>2017-03-03T15:24:46Z</time>
      </trkpt>
      <trkpt lat="44.2855" lon="3.51984">
        <ele>972</ele>
        <time>2017-03-03T15:26:46Z</time>
      </trkpt>
      <trkpt lat="44.28575" lon="3.51986">
        <ele>971</ele>
        <time>2017-03-03T15:28:46Z</time>
      </trkpt>
      <trkpt lat="44.28614" lon="3.51992">
        <ele>970</ele>
        <time>2017-03-03T15:30:46Z</time>
      </trkpt>
      <trkpt lat="44.28638" lon="3.51998">
        <ele>970</ele>
        <time>2017-03-03T15:32:46Z</time>
      </trkpt>
      <trkpt lat="44.28681" lon="3.52008">
        <ele>970</ele>
        <time>2017-03-03T15:34:46Z</time>
      </trkpt>
      <trkpt lat="44.28716" lon="3.52017">
        <ele>969</ele>
        <time>2017-03-03T15:36:46Z</time>
      </trkpt>
      <trkpt lat="44.28747" lon="3.52025">
        <ele>968</ele>
        <time>2017-03-03T15:38:46Z</time>
      </trkpt>
      <trkpt lat="44.28773" lon="3.5203">
        <ele>967</ele>
        <time>2017-03-03T15:40:46Z</time>
      </trkpt>
      <trkpt lat="44.28791" lon="3.52033">
        <ele>967</ele>
        <time>2017-03-03T15:42:46Z</time>
      </trkpt>
      <trkpt lat="44.28808" lon="3.52038">
        <ele>967</ele>
        <time>2017-03-03T15:44:46Z</time>
      </trkpt>
      <trkpt lat="44.28816" lon="3.52038">
        <ele>966</ele>
        <time>2017-03-03T15:46:46Z</time>
      </trkpt>
      <trkpt lat="44.28824" lon="3.52036">
        <ele>966</ele>
        <time>2017-03-03T15:48:46Z</time>
      </trkpt>
      <trkpt lat="44.28832" lon="3.52031">
        <ele>966</ele>
        <time>2017-03-03T15:50:46Z</time>
      </trkpt>
      <trkpt lat="44.28839" lon="3.52022">
        <ele>966</ele>
        <time>2017-03-03T15:52:46Z</time>
      </trkpt>
      <trkpt lat="44.28846" lon="3.52005">
        <ele>966</ele>
        <time>2017-03-03T15:54:46Z</time>
      </trkpt>
      <trkpt lat="44.28854" lon="3.51983">
        <ele>966</ele>
        <time>2017-03-03T15:56:46Z</time>
      </trkpt>
      <trkpt lat="44.28862" lon="3.51965">
        <ele>966</ele>
        <time>2017-03-03T15:58:46Z</time>
      </trkpt>
      <trkpt lat="44.28869" lon="3.51954">
        <ele>967</ele>
        <time>2017-03-03T16:00:46Z</time>
      </trkpt>
      <trkpt lat="44.28876" lon="3.51947">
        <ele>966</ele>
        <time>2017-03-03T16:02:46Z</time>
      </trkpt>
      <trkpt lat="44.28885" lon="3.51942">
        <ele>966</ele>
        <time>2017-03-03T16:04:46Z</time>
      </trkpt>
      <trkpt lat="44.28893" lon="3.51941">
        <ele>966</ele>
        <time>2017-03-03T16:06:46Z</time>
      </trkpt>
      <trkpt lat="44.28902" lon="3.51943">
        <ele>966</ele>
        <time>2017-03-03T16:08:46Z</time>
      </trkpt>
      <trkpt lat="44.2892" lon="3.51951">
        <ele>965</ele>
        <time>2017-03-03T16:10:46Z</time>
      </trkpt>
      <trkpt lat="44.28945" lon="3.51963">
        <ele>965</ele>
        <time>2017-03-03T16:12:46Z</time>
      </trkpt>
      <trkpt lat="44.29022" lon="3.51995">
        <ele>964</ele>
        <time>2017-03-03T16:14:46Z</time>
      </trkpt>
      <trkpt lat="44.29063" lon="3.52015">
        <ele>963</ele>
        <time>2017-03-03T16:16:46Z</time>
      </trkpt>
      <trkpt lat="44.29096" lon="3.52029">
        <ele>963</ele>
        <time>2017-03-03T16:18:46Z</time>
      </trkpt>
      <trkpt lat="44.29145" lon="3.52046">
        <ele>962</ele>
        <time>2017-03-03T16:20:46Z</time>
      </trkpt>
      <trkpt lat="44.29193" lon="3.52062">
        <ele>961</ele>
        <time>2017-03-03T16:22:46Z</time>
      </trkpt>
      <trkpt lat="44.2923" lon="3.52074">
        <ele>961</ele>
        <time>2017-03-03T16:24:46Z</time>
      </trkpt>
      <trkpt lat="44.29271" lon="3.52086">
        <ele>961</ele>
        <time>2017-03-03T16:26:46Z</time>
      </trkpt>
      <trkpt lat="44.29308" lon="3.52095">
        <ele>961</ele>
        <time>2017-03-03T16:28:46Z</time>
      </trkpt>
      <trkpt lat="44.29351" lon="3.52105">
        <ele>961</ele>
        <time>2017-03-03T16:30:46Z</time>
      </trkpt>
      <trkpt lat="44.29434" lon="3.52124">
        <ele>964</ele>
        <time>2017-03-03T16:32:46Z</time>
      </trkpt>
      <trkpt lat="44.29443" lon="3.52125">
        <ele>965</ele>
        <time>2017-03-03T16:34:46Z</time>
      </trkpt>
      <trkpt lat="44.29475" lon="3.5212">
        <ele>967</ele>
        <time>2017-03-03T16:36:46Z</time>
      </trkpt>
      <trkpt lat="44.29483" lon="3.52123">
        <ele>967</ele>
        <time>2017-03-03T16:38:46Z</time>
      </trkpt>
      <trkpt lat="44.2949" lon="3.52128">
        <ele>968</ele>
        <time>2017-03-03T16:40:46Z</time>
      </trkpt>
      <trkpt lat="44.295" lon="3.5214">
        <ele>968</ele>
        <time>2017-03-03T16:42:46Z</time>
      </trkpt>
      <trkpt lat="44.29514" lon="3.52157">
        <ele>968</ele>
        <time>2017-03-03T16:44:46Z</time>
      </trkpt>
      <trkpt lat="44.2953" lon="3.52175">
        <ele>969</ele>
        <time>2017-03-03T16:46:46Z</time>
      </trkpt>
      <trkpt lat="44.29544" lon="3.5219">
        <ele>969</ele>
        <time>2017-03-03T16:48:46Z</time>
      </trkpt>
      <trkpt lat="44.29573" lon="3.52213">
        <ele>970</ele>
        <time>2017-03-03T16:50:46Z</time>
      </trkpt>
      <trkpt lat="44.29589" lon="3.52228">
        <ele>970</ele>
        <time>2017-03-03T16:52:46Z</time>
      </trkpt>
      <trkpt lat="44.29598" lon="3.52237">
        <ele>971</ele>
        <time>2017-03-03T16:54:46Z</time>
      </trkpt>
      <trkpt lat="44.29611" lon="3.52256">
        <ele>971</ele>
        <time>2017-03-03T16:56:46Z</time>
      </trkpt>
      <trkpt lat="44.29631" lon="3.52282">
        <ele>972</ele>
        <time>2017-03-03T16:58:46Z</time>
      </trkpt>
      <trkpt lat="44.29654" lon="3.52308">
        <ele>973</ele>
        <time>2017-03-03T17:00:46Z</time>
      </trkpt>
      <trkpt lat="44.29668" lon="3.52326">
        <ele>973</ele>
        <time>2017-03-03T17:02:46Z</time>
      </trkpt>
      <trkpt lat="44.29675" lon="3.52332">
        <ele>973</ele>
        <time>2017-03-03T17:04:46Z</time>
      </trkpt>
      <trkpt lat="44.29686" lon="3.52337">
        <ele>973</ele>
        <time>2017-03-03T17:06:46Z</time>
      </trkpt>
      <trkpt lat="44.29717" lon="3.52353">
        <ele>973</ele>
        <time>2017-03-03T17:08:46Z</time>
      </trkpt>
      <trkpt lat="44.29749" lon="3.52369">
        <ele>972</ele>
        <time>2017-03-03T17:10:46Z</time>
      </trkpt>
      <trkpt lat="44.29763" lon="3.52378">
        <ele>971</ele>
        <time>2017-03-03T17:12:46Z</time>
      </trkpt>
      <trkpt lat="44.29777" lon="3.52385">
        <ele>971</ele>
        <time>2017-03-03T17:14:46Z</time>
      </trkpt>
      <trkpt lat="44.29821" lon="3.52406">
        <ele>969</ele>
        <time>2017-03-03T17:16:46Z</time>
      </trkpt>
      <trkpt lat="44.29876" lon="3.52436">
        <ele>970</ele>
        <time>2017-03-03T17:18:46Z</time>
      </trkpt>
      <trkpt lat="44.29895" lon="3.52445">
        <ele>971</ele>
        <time>2017-03-03T17:20:46Z</time>
      </trkpt>
      <trkpt lat="44.29912" lon="3.52456">
        <ele>971</ele>
        <time>2017-03-03T17:22:46Z</time>
      </trkpt>
      <trkpt lat="44.29921" lon="3.52464">
        <ele>971</ele>
        <time>2017-03-03T17:24:46Z</time>
      </trkpt>
      <trkpt lat="44.29932" lon="3.52478">
        <ele>970</ele>
        <time>2017-03-03T17:26:46Z</time>
      </trkpt>
      <trkpt lat="44.29937" lon="3.5249">
        <ele>969</ele>
        <time>2017-03-03T17:28:46Z</time>
      </trkpt>
      <trkpt lat="44.29943" lon="3.52518">
        <ele>968</ele>
        <time>2017-03-03T17:30:46Z</time>
      </trkpt>
      <trkpt lat="44.29951" lon="3.5254">
        <ele>968</ele>
        <time>2017-03-03T17:32:46Z</time>
      </trkpt>
      <trkpt lat="44.29957" lon="3.5256">
        <ele>968</ele>
        <time>2017-03-03T17:34:46Z</time>
      </trkpt>
      <trkpt lat="44.29958" lon="3.52576">
        <ele>968</ele>
        <time>2017-03-03T17:36:46Z</time>
      </trkpt>
      <trkpt lat="44.29962" lon="3.52628">
        <ele>968</ele>
        <time>2017-03-03T17:38:46Z</time>
      </trkpt>
      <trkpt lat="44.29964" lon="3.52641">
        <ele>968</ele>
        <time>2017-03-03T17:40:46Z</time>
      </trkpt>
      <trkpt lat="44.29967" lon="3.52651">
        <ele>969</ele>
        <time>2017-03-03T17:42:46Z</time>
      </trkpt>
      <trkpt lat="44.29969" lon="3.52654">
        <ele>969</ele>
        <time>2017-03-03T17:44:46Z</time>
      </trkpt>
      <trkpt lat="44.29974" lon="3.52663">
        <ele>970</ele>
        <time>2017-03-03T17:46:46Z</time>
      </trkpt>
      <trkpt lat="44.29978" lon="3.52675">
        <ele>970</ele>
        <time>2017-03-03T17:48:46Z</time>
      </trkpt>
      <trkpt lat="44.2998" lon="3.52687">
        <ele>971</ele>
        <time>2017-03-03T17:50:46Z</time>
      </trkpt>
      <trkpt lat="44.2998" lon="3.52703">
        <ele>971</ele>
        <time>2017-03-03T17:52:46Z</time>
      </trkpt>
      <trkpt lat="44.29981" lon="3.52715">
        <ele>972</ele>
        <time>2017-03-03T17:54:46Z</time>
      </trkpt>
      <trkpt lat="44.29985" lon="3.52726">
        <ele>972</ele>
        <time>2017-03-03T17:56:46Z</time>
      </trkpt>
      <trkpt lat="44.29992" lon="3.52738">
        <ele>974</ele>
        <time>2017-03-03T17:58:46Z</time>
      </trkpt>
      <trkpt lat="44.29998" lon="3.52749">
        <ele>975</ele>
        <time>2017-03-03T18:00:46Z</time>
      </trkpt>
      <trkpt lat="44.30005" lon="3.52753">
        <ele>976</ele>
        <time>2017-03-03T18:02:46Z</time>
      </trkpt>
      <trkpt lat="44.30008" lon="3.52753">
        <ele>976</ele>
        <time>2017-03-03T18:04:46Z</time>
      </trkpt>
      <trkpt lat="44.30012" lon="3.52765">
        <ele>978</ele>
        <time>2017-03-03T18:06:46Z</time>
      </trkpt>
      <trkpt lat="44.30012" lon="3.52789">
        <ele>978</ele>
        <time>2017-03-03T18:08:46Z</time>
      </trkpt>
      <trkpt lat="44.30009" lon="3.52798">
        <ele>978</ele>
        <time>2017-03-03T18:10:46Z</time>
      </trkpt>
      <trkpt lat="44.30005" lon="3.52804">
        <ele>978</ele>
        <time>2017-03-03T18:12:46Z</time>
      </trkpt>
      <trkpt lat="44.29993" lon="3.52825">
        <ele>977</ele>
        <time>2017-03-03T18:14:46Z</time>
      </trkpt>
      <trkpt lat="44.2998" lon="3.52854">
        <ele>976</ele>
        <time>2017-03-03T18:16:46Z</time>
      </trkpt>
      <trkpt lat="44.29968" lon="3.52882">
        <ele>976</ele>
        <time>2017-03-03T18:18:46Z</time>
      </trkpt>
      <trkpt lat="44.29957" lon="3.52899">
        <ele>976</ele>
        <time>2017-03-03T18:20:46Z</time>
      </trkpt>
      <trkpt lat="44.29943" lon="3.5292">
        <ele>976</ele>
        <time>2017-03-03T18:22:46Z</time>
      </trkpt>
      <trkpt lat="44.29937" lon="3.52935">
        <ele>976</ele>
        <time>2017-03-03T18:24:46Z</time>
      </trkpt>
      <trkpt lat="44.29935" lon="3.52951">
        <ele>977</ele>
        <time>2017-03-03T18:26:46Z</time>
      </trkpt>
      <trkpt lat="44.29934" lon="3.52985">
        <ele>978</ele>
        <time>2017-03-03T18:28:46Z</time>
      </trkpt>
      <trkpt lat="44.29931" lon="3.53018">
        <ele>979</ele>
        <time>2017-03-03T18:30:46Z</time>
      </trkpt>
      <trkpt lat="44.29931" lon="3.53028">
        <ele>979</ele>
        <time>2017-03-03T18:32:46Z</time>
      </trkpt>
      <trkpt lat="44.29931" lon="3.53048">
        <ele>979</ele>
        <time>2017-03-03T18:34:46Z</time>
      </trkpt>
      <trkpt lat="44.29937" lon="3.53105">
        <ele>979</ele>
        <time>2017-03-03T18:36:46Z</time>
      </trkpt>
      <trkpt lat="44.29939" lon="3.53123">
        <ele>978</ele>
        <time>2017-03-03T18:38:46Z</time>
      </trkpt>
      <trkpt lat="44.29936" lon="3.53136">
        <ele>978</ele>
        <time>2017-03-03T18:40:46Z</time>
      </trkpt>
      <trkpt lat="44.29932" lon="3.53148">
        <ele>978</ele>
        <time>2017-03-03T18:42:46Z</time>
      </trkpt>
      <trkpt lat="44.29923" lon="3.53166">
        <ele>978</ele>
        <time>2017-03-03T18:44:46Z</time>
      </trkpt>
      <trkpt lat="44.29919" lon="3.53176">
        <ele>979</ele>
        <time>2017-03-03T18:46:46Z</time>
      </trkpt>
      <trkpt lat="44.29918" lon="3.53189">
        <ele>979</ele>
        <time>2017-03-03T18:48:46Z</time>
      </trkpt>
      <trkpt lat="44.29918" lon="3.53205">
        <ele>979</ele>
        <time>2017-03-03T18:50:46Z</time>
      </trkpt>
      <trkpt lat="44.29924" lon="3.53222">
        <ele>979</ele>
        <time>2017-03-03T18:52:46Z</time>
      </trkpt>
      <trkpt lat="44.29957" lon="3.53295">
        <ele>976</ele>
        <time>2017-03-03T18:54:46Z</time>
      </trkpt>
      <trkpt lat="44.29984" lon="3.53367">
        <ele>976</ele>
        <time>2017-03-03T18:56:46Z</time>
      </trkpt>
      <trkpt lat="44.29997" lon="3.53394">
        <ele>975</ele>
        <time>2017-03-03T18:58:46Z</time>
      </trkpt>
      <trkpt lat="44.30015" lon="3.5342">
        <ele>975</ele>
        <time>2017-03-03T19:00:46Z</time>
      </trkpt>
      <trkpt lat="44.30036" lon="3.53445">
        <ele>973</ele>
        <time>2017-03-03T19:02:46Z</time>
      </trkpt>
      <trkpt lat="44.30043" lon="3.53456">
        <ele>973</ele>
        <time>2017-03-03T19:04:46Z</time>
      </trkpt>
      <trkpt lat="44.30048" lon="3.53471">
        <ele>972</ele>
        <time>2017-03-03T19:06:46Z</time>
      </trkpt>
      <trkpt lat="44.30065" lon="3.53527">
        <ele>971</ele>
        <time>2017-03-03T19:08:46Z</time>
      </trkpt>
      <trkpt lat="44.30068" lon="3.53555">
        <ele>971</ele>
        <time>2017-03-03T19:10:46Z</time>
      </trkpt>
      <trkpt lat="44.30072" lon="3.53593">
        <ele>971</ele>
        <time>2017-03-03T19:12:46Z</time>
      </trkpt>
      <trkpt lat="44.30076" lon="3.53621">
        <ele>970</ele>
        <time>2017-03-03T19:14:46Z</time>
      </trkpt>
      <trkpt lat="44.30086" lon="3.53671">
        <ele>969</ele>
        <time>2017-03-03T19:16:46Z</time>
      </trkpt>
      <trkpt lat="44.30088" lon="3.53695">
        <ele>969</ele>
        <time>2017-03-03T19:18:46Z</time>
      </trkpt>
      <trkpt lat="44.30089" lon="3.53721">
        <ele>969</ele>
        <time>2017-03-03T19:20:46Z</time>
      </trkpt>
      <trkpt lat="44.30091" lon="3.53749">
        <ele>968</ele>
        <time>2017-03-03T19:22:46Z</time>
      </trkpt>
      <trkpt lat="44.3009" lon="3.53764">
        <ele>968</ele>
        <time>2017-03-03T19:24:46Z</time>
      </trkpt>
      <trkpt lat="44.30083" lon="3.53824">
        <ele>969</ele>
        <time>2017-03-03T19:26:46Z</time>
      </trkpt>
      <trkpt lat="44.3008" lon="3.53847">
        <ele>969</ele>
        <time>2017-03-03T19:28:46Z</time>
      </trkpt>
      <trkpt lat="44.30079" lon="3.53851">
        <ele>969</ele>
        <time>2017-03-03T19:30:46Z</time>
      </trkpt>
      <trkpt lat="44.30077" lon="3.53857">
        <ele>969</ele>
        <time>2017-03-03T19:32:46Z</time>
      </trkpt>
      <trkpt lat="44.30072" lon="3.53868">
        <ele>969</ele>
        <time>2017-03-03T19:34:46Z</time>
      </trkpt>
      <trkpt lat="44.30066" lon="3.53894">
        <ele>969</ele>
        <time>2017-03-03T19:36:46Z</time>
      </trkpt>
      <trkpt lat="44.30066" lon="3.53906">
        <ele>969</ele>
        <time>2017-03-03T19:38:46Z</time>
      </trkpt>
      <trkpt lat="44.30068" lon="3.53919">
        <ele>969</ele>
        <time>2017-03-03T19:40:46Z</time>
      </trkpt>
      <trkpt lat="44.30075" lon="3.5393">
        <ele>969</ele>
        <time>2017-03-03T19:42:46Z</time>
      </trkpt>
      <trkpt lat="44.30105" lon="3.53961">
        <ele>970</ele>
        <time>2017-03-03T19:44:46Z</time>
      </trkpt>
      <trkpt lat="44.30148" lon="3.54005">
        <ele>971</ele>
        <time>2017-03-03T19:46:46Z</time>
      </trkpt>
      <trkpt lat="44.30164" lon="3.54029">
        <ele>972</ele>
        <time>2017-03-03T19:48:46Z</time>
      </trkpt>
      <trkpt lat="44.302" lon="3.54088">
        <ele>974</ele>
        <time>2017-03-03T19:50:46Z</time>
      </trkpt>
      <trkpt lat="44.30228" lon="3.54139">
        <ele>977</ele>
        <time>2017-03-03T19:52:46Z</time>
      </trkpt>
      <trkpt lat="44.30256" lon="3.54193">
        <ele>978</ele>
        <time>2017-03-03T19:54:46Z</time>
      </trkpt>
      <trkpt lat="44.30264" lon="3.54208">
        <ele>979</ele>
        <time>2017-03-03T19:56:46Z</time>
      </trkpt>
      <trkpt lat="44.30266" lon="3.54219">
        <ele>979</ele>
        <time>2017-03-03T19:58:46Z</time>
      </trkpt>
      <trkpt lat="44.30266" lon="3.54229">
        <ele>980</ele>
        <time>2017-03-03T20:00:46Z</time>
      </trkpt>
      <trkpt lat="44.30263" lon="3.5424">
        <ele>980</ele>
        <time>2017-03-03T20:02:46Z</time>
      </trkpt>
      <trkpt lat="44.30241" lon="3.54303">
        <ele>982</ele>
        <time>2017-03-03T20:04:46Z</time>
      </trkpt>
      <trkpt lat="44.30229" lon="3.54333">
        <ele>984</ele>
        <time>2017-03-03T20:06:46Z</time>
      </trkpt>
      <trkpt lat="44.30223" lon="3.54341">
        <ele>984</ele>
        <time>2017-03-03T20:08:46Z</time>
      </trkpt>
      <trkpt lat="44.30213" lon="3.54354">
        <ele>985</ele>
        <time>2017-03-03T20:10:46Z</time>
      </trkpt>
      <trkpt lat="44.30209" lon="3.54362">
        <ele>985</ele>
        <time>2017-03-03T20:12:46Z</time>
      </trkpt>
      <trkpt lat="44.30207" lon="3.54372">
        <ele>986</ele>
        <time>2017-03-03T20:14:46Z</time>
      </trkpt>
      <trkpt lat="44.30204" lon="3.54413">
        <ele>986</ele>
        <time>2017-03-03T20:16:46Z</time>
      </trkpt>
      <trkpt lat="44.30197" lon="3.54453">
        <ele>988</ele>
        <time>2017-03-03T20:18:46Z</time>
      </trkpt>
      <trkpt lat="44.30194" lon="3.54474">
        <ele>989</ele>
        <time>2017-03-03T20:20:46Z</time>
      </trkpt>
      <trkpt lat="44.30195" lon="3.54495">
        <ele>989</ele>
        <time>2017-03-03T20:22:46Z</time>
      </trkpt>
      <trkpt lat="44.30199" lon="3.54527">
        <ele>989</ele>
        <time>2017-03-03T20:24:46Z</time>
      </trkpt>
      <trkpt lat="44.30197" lon="3.5454">
        <ele>989</ele>
        <time>2017-03-03T20:26:46Z</time>
      </trkpt>
      <trkpt lat="44.30193" lon="3.54553">
        <ele>989</ele>
        <time>2017-03-03T20:28:46Z</time>
      </trkpt>
      <trkpt lat="44.30187" lon="3.54568">
        <ele>989</ele>
        <time>2017-03-03T20:30:46Z</time>
      </trkpt>
      <trkpt lat="44.30186" lon="3.54575">
        <ele>989</ele>
        <time>2017-03-03T20:32:46Z</time>
      </trkpt>
      <trkpt lat="44.30187" lon="3.54584">
        <ele>989</ele>
        <time>2017-03-03T20:34:46Z</time>
      </trkpt>
      <trkpt lat="44.30192" lon="3.54596">
        <ele>989</ele>
        <time>2017-03-03T20:36:46Z</time>
      </trkpt>
      <trkpt lat="44.30233" lon="3.54666">
        <ele>990</ele>
        <time>2017-03-03T20:38:46Z</time>
      </trkpt>
      <trkpt lat="44.30249" lon="3.54689">
        <ele>992</ele>
        <time>2017-03-03T20:40:46Z</time>
      </trkpt>
      <trkpt lat="44.30256" lon="3.54706">
        <ele>993</ele>
        <time>2017-03-03T20:42:46Z</time>
      </trkpt>
      <trkpt lat="44.3026" lon="3.5472">
        <ele>995</ele>
        <time>2017-03-03T20:44:46Z</time>
      </trkpt>
      <trkpt lat="44.30262" lon="3.54728">
        <ele>995</ele>
        <time>2017-03-03T20:46:46Z</time>
      </trkpt>
      <trkpt lat="44.30264" lon="3.54736">
        <ele>996</ele>
        <time>2017-03-03T20:48:46Z</time>
      </trkpt>
      <trkpt lat="44.3027" lon="3.54747">
        <ele>997</ele>
        <time>2017-03-03T20:50:46Z</time>
      </trkpt>
      <trkpt lat="44.3028" lon="3.54756">
        <ele>998</ele>
        <time>2017-03-03T20:52:46Z</time>
      </trkpt>
      <trkpt lat="44.30304" lon="3.54774">
        <ele>1001</ele>
        <time>2017-03-03T20:54:46Z</time>
      </trkpt>
      <trkpt lat="44.30312" lon="3.54777">
        <ele>1002</ele>
        <time>2017-03-03T20:56:46Z</time>
      </trkpt>
      <trkpt lat="44.30342" lon="3.54781">
        <ele>1003</ele>
        <time>2017-03-03T20:58:46Z</time>
      </trkpt>
      <trkpt lat="44.30347" lon="3.54782">
        <ele>1003</ele>
        <time>2017-03-03T21:00:46Z</time>
      </trkpt>
      <trkpt lat="44.30359" lon="3.54789">
        <ele>1004</ele>
        <time>2017-03-03T21:02:46Z</time>
      </trkpt>
      <trkpt lat="44.30368" lon="3.54792">
        <ele>1005</ele>
        <time>2017-03-03T21:04:46Z</time>
      </trkpt>
      <trkpt lat="44.30371" lon="3.54792">
        <ele>1005</ele>
        <time>2017-03-03T21:06:46Z</time>
      </trkpt>
      <trkpt lat="44.30411" lon="3.54772">
        <ele>1004</ele>
        <time>2017-03-03T21:08:46Z</time>
      </trkpt>
      <trkpt lat="44.30419" lon="3.54769">
        <ele>1004</ele>
        <time>2017-03-03T21:10:46Z</time>
      </trkpt>
      <trkpt lat="44.30447" lon="3.54765">
        <ele>1004</ele>
        <time>2017-03-03T21:12:46Z</time>
      </trkpt>
      <trkpt lat="44.30465" lon="3.54758">
        <ele>1003</ele>
        <time>2017-03-03T21:14:46Z</time>
      </trkpt>
      <trkpt lat="44.30473" lon="3.54755">
        <ele>1003</ele>
        <time>2017-03-03T21:16:46Z</time>
      </trkpt>
      <trkpt lat="44.30479" lon="3.54756">
        <ele>1003</ele>
        <time>2017-03-03T21:18:46Z</time>
      </trkpt>
      <trkpt lat="44.30489" lon="3.54761">
        <ele>1003</ele>
        <time>2017-03-03T21:20:46Z</time>
      </trkpt>
      <trkpt lat="44.30501" lon="3.54768">
        <ele>1003</ele>
        <time>2017-03-03T21:22:46Z</time>
      </trkpt>
      <trkpt lat="44.30517" lon="3.54774">
        <ele>1004</ele>
        <time>2017-03-03T21:24:46Z</time>
      </trkpt>
      <trkpt lat="44.30523" lon="3.54776">
        <ele>1004</ele>
        <time>2017-03-03T21:26:46Z</time>
      </trkpt>
      <trkpt lat="44.30528" lon="3.54784">
        <ele>1004</ele>
        <time>2017-03-03T21:28:46Z</time>
      </trkpt>
      <trkpt lat="44.30533" lon="3.54795">
        <ele>1004</ele>
        <time>2017-03-03T21:30:46Z</time>
      </trkpt>
      <trkpt lat="44.30537" lon="3.54805">
        <ele>1003</ele>
        <time>2017-03-03T21:32:46Z</time>
      </trkpt>
      <trkpt lat="44.30542" lon="3.54824">
        <ele>1003</ele>
        <time>2017-03-03T21:34:46Z</time>
      </trkpt>
      <trkpt lat="44.30543" lon="3.54835">
        <ele>1002</ele>
        <time>2017-03-03T21:36:46Z</time>
      </trkpt>
      <trkpt lat="44.30545" lon="3.54855">
        <ele>1003</ele>
        <time>2017-03-03T21:38:46Z</time>
      </trkpt>
      <trkpt lat="44.30547" lon="3.54865">
        <ele>1003</ele>
        <time>2017-03-03T21:40:46Z</time>
      </trkpt>
      <trkpt lat="44.30556" lon="3.54878">
        <ele>1002</ele>
        <time>2017-03-03T21:42:46Z</time>
      </trkpt>
      <trkpt lat="44.30569" lon="3.54891">
        <ele>1001</ele>
        <time>2017-03-03T21:44:46Z</time>
      </trkpt>
      <trkpt lat="44.30585" lon="3.54908">
        <ele>1000</ele>
        <time>2017-03-03T21:46:46Z</time>
      </trkpt>
      <trkpt lat="44.30595" lon="3.54921">
        <ele>999</ele>
        <time>2017-03-03T21:48:46Z</time>
      </trkpt>
      <trkpt lat="44.30603" lon="3.54939">
        <ele>999</ele>
        <time>2017-03-03T21:50:46Z</time>
      </trkpt>
      <trkpt lat="44.30611" lon="3.5496">
        <ele>998</ele>
        <time>2017-03-03T21:52:46Z</time>
      </trkpt>
      <trkpt lat="44.30621" lon="3.54975">
        <ele>998</ele>
        <time>2017-03-03T21:54:46Z</time>
      </trkpt>
      <trkpt lat="44.30631" lon="3.54987">
        <ele>997</ele>
        <time>2017-03-03T21:56:46Z</time>
      </trkpt>
      <trkpt lat="44.30639" lon="3.54991">
        <ele>996</ele>
        <time>2017-03-03T21:58:46Z</time>
      </trkpt>
      <trkpt lat="44.30647" lon="3.54993">
        <ele>996</ele>
        <time>2017-03-03T22:00:46Z</time>
      </trkpt>
      <trkpt lat="44.30668" lon="3.54991">
        <ele>994</ele>
        <time>2017-03-03T22:02:46Z</time>
      </trkpt>
      <trkpt lat="44.30679" lon="3.54991">
        <ele>993</ele>
        <time>2017-03-03T22:04:46Z</time>
      </trkpt>
      <trkpt lat="44.30685" lon="3.54993">
        <ele>993</ele>
        <time>2017-03-03T22:06:46Z</time>
      </trkpt>
      <trkpt lat="44.30692" lon="3.55">
        <ele>992</ele>
        <time>2017-03-03T22:08:46Z</time>
      </trkpt>
      <trkpt lat="44.30702" lon="3.5502">
        <ele>992</ele>
        <time>2017-03-03T22:10:46Z</time>
      </trkpt>
      <trkpt lat="44.30709" lon="3.55027">
        <ele>992</ele>
        <time>2017-03-03T22:12:46Z</time>
      </trkpt>
      <trkpt lat="44.30725" lon="3.55034">
        <ele>991</ele>
        <time>2017-03-03T22:14:46Z</time>
      </trkpt>
      <trkpt lat="44.30744" lon="3.55034">
        <ele>989</ele>
        <time>2017-03-03T22:16:46Z</time>
      </trkpt>
      <trkpt lat="44.30764" lon="3.55038">
        <ele>987</ele>
        <time>2017-03-03T22:18:46Z</time>
      </trkpt>
      <trkpt lat="44.30783" lon="3.55044">
        <ele>985</ele>
        <time>2017-03-03T22:20:46Z</time>
      </trkpt>
      <trkpt lat="44.30803" lon="3.55054">
        <ele>983</ele>
        <time>2017-03-03T22:22:46Z</time>
      </trkpt>
      <trkpt lat="44.30829" lon="3.55074">
        <ele>980</ele>
        <time>2017-03-03T22:24:46Z</time>
      </trkpt>
      <trkpt lat="44.30844" lon="3.55089">
        <ele>980</ele>
        <time>2017-03-03T22:26:46Z</time>
      </trkpt>
      <trkpt lat="44.30866" lon="3.55113">
        <ele>979</ele>
        <time>2017-03-03T22:28:46Z</time>
      </trkpt>
      <trkpt lat="44.30884" lon="3.55132">
        <ele>979</ele>
        <time>2017-03-03T22:30:46Z</time>
      </trkpt>
      <trkpt lat="44.30907" lon="3.55147">
        <ele>978</ele>
        <time>2017-03-03T22:32:46Z</time>
      </trkpt>
      <trkpt lat="44.30922" lon="3.55155">
        <ele>978</ele>
        <time>2017-03-03T22:34:46Z</time>
      </trkpt>
      <trkpt lat="44.30936" lon="3.55168">
        <ele>978</ele>
        <time>2017-03-03T22:36:46Z</time>
      </trkpt>
      <trkpt lat="44.30955" lon="3.55182">
        <ele>978</ele>
        <time>2017-03-03T22:38:46Z</time>
      </trkpt>
      <trkpt lat="44.30982" lon="3.55192">
        <ele>978</ele>
        <time>2017-03-03T22:40:46Z</time>
      </trkpt>
      <trkpt lat="44.30988" lon="3.55199">
        <ele>978</ele>
        <time>2017-03-03T22:42:46Z</time>
      </trkpt>
      <trkpt lat="44.30998" lon="3.55221">
        <ele>979</ele>
        <time>2017-03-03T22:44:46Z</time>
      </trkpt>
      <trkpt lat="44.31007" lon="3.55238">
        <ele>979</ele>
        <time>2017-03-03T22:46:46Z</time>
      </trkpt>
      <trkpt lat="44.31025" lon="3.55258">
        <ele>980</ele>
        <time>2017-03-03T22:48:46Z</time>
      </trkpt>
      <trkpt lat="44.31057" lon="3.55299">
        <ele>981</ele>
        <time>2017-03-03T22:50:46Z</time>
      </trkpt>
      <trkpt lat="44.3107" lon="3.55315">
        <ele>981</ele>
        <time>2017-03-03T22:52:46Z</time>
      </trkpt>
      <trkpt lat="44.31095" lon="3.55336">
        <ele>982</ele>
        <time>2017-03-03T22:54:46Z</time>
      </trkpt>
      <trkpt lat="44.31105" lon="3.55348">
        <ele>983</ele>
        <time>2017-03-03T22:56:46Z</time>
      </trkpt>
      <trkpt lat="44.31116" lon="3.55364">
        <ele>984</ele>
        <time>2017-03-03T22:58:46Z</time>
      </trkpt>
      <trkpt lat="44.31133" lon="3.55387">
        <ele>984</ele>
        <time>2017-03-03T23:00:46Z</time>
      </trkpt>
      <trkpt lat="44.31144" lon="3.55399">
        <ele>985</ele>
        <time>2017-03-03T23:02:46Z</time>
      </trkpt>
      <trkpt lat="44.31165" lon="3.55423">
        <ele>985</ele>
        <time>2017-03-03T23:04:46Z</time>
      </trkpt>
      <trkpt lat="44.31182" lon="3.55447">
        <ele>986</ele>
        <time>2017-03-03T23:06:46Z</time>
      </trkpt>
      <trkpt lat="44.31191" lon="3.55461">
        <ele>987</ele>
        <time>2017-03-03T23:08:46Z</time>
      </trkpt>
      <trkpt lat="44.31197" lon="3.55471">
        <ele>987</ele>
        <time>2017-03-03T23:10:46Z</time>
      </trkpt>
      <trkpt lat="44.31204" lon="3.55477">
        <ele>987</ele>
        <time>2017-03-03T23:12:46Z</time>
      </trkpt>
      <trkpt lat="44.3122" lon="3.55485">
        <ele>987</ele>
        <time>2017-03-03T23:14:46Z</time>
      </trkpt>
      <trkpt lat="44.31236" lon="3.55493">
        <ele>987</ele>
        <time>2017-03-03T23:16:46Z</time>
      </trkpt>
      <trkpt lat="44.3124" lon="3.55497">
        <ele>987</ele>
        <time>2017-03-03T23:18:46Z</time>
      </trkpt>
      <trkpt lat="44.31249" lon="3.55512">
        <ele>987</ele>
        <time>2017-03-03T23:20:46Z</time>
      </trkpt>
      <trkpt lat="44.3125" lon="3.5552">
        <ele>987</ele>
        <time>2017-03-03T23:22:46Z</time>
      </trkpt>
      <trkpt lat="44.31254" lon="3.55536">
        <ele>987</ele>
        <time>2017-03-03T23:24:46Z</time>
      </trkpt>
      <trkpt lat="44.31259" lon="3.55547">
        <ele>987</ele>
        <time>2017-03-03T23:26:46Z</time>
      </trkpt>
      <trkpt lat="44.31265" lon="3.55557">
        <ele>987</ele>
        <time>2017-03-03T23:28:46Z</time>
      </trkpt>
      <trkpt lat="44.31284" lon="3.55589">
        <ele>988</ele>
        <time>2017-03-03T23:30:46Z</time>
      </trkpt>
      <trkpt lat="44.31304" lon="3.55616">
        <ele>989</ele>
        <time>2017-03-03T23:32:46Z</time>
      </trkpt>
      <trkpt lat="44.31314" lon="3.55637">
        <ele>989</ele>
        <time>2017-03-03T23:34:46Z</time>
      </trkpt>
      <trkpt lat="44.31329" lon="3.55676">
        <ele>989</ele>
        <time>2017-03-03T23:36:46Z</time>
      </trkpt>
      <trkpt lat="44.3134" lon="3.55699">
        <ele>989</ele>
        <time>2017-03-03T23:38:46Z</time>
      </trkpt>
      <trkpt lat="44.31354" lon="3.55717">
        <ele>989</ele>
        <time>2017-03-03T23:40:46Z</time>
      </trkpt>
      <trkpt lat="44.31369" lon="3.55731">
        <ele>990</ele>
        <time>2017-03-03T23:42:46Z</time>
      </trkpt>
      <trkpt lat="44.31389" lon="3.55746">
        <ele>992</ele>
        <time>2017-03-03T23:44:46Z</time>
      </trkpt>
      <trkpt lat="44.31415" lon="3.55768">
        <ele>994</ele>
        <time>2017-03-03T23:46:46Z</time>
      </trkpt>
      <trkpt lat="44.31428" lon="3.55784">
        <ele>995</ele>
        <time>2017-03-03T23:48:46Z</time>
      </trkpt>
      <trkpt lat="44.31447" lon="3.55817">
        <ele>995</ele>
        <time>2017-03-03T23:50:46Z</time>
      </trkpt>
      <trkpt lat="44.31461" lon="3.55834">
        <ele>997</ele>
        <time>2017-03-03T23:52:46Z</time>
      </trkpt>
      <trkpt lat="44.31478" lon="3.55863">
        <ele>997</ele>
        <time>2017-03-03T23:54:46Z</time>
      </trkpt>
      <trkpt lat="44.31493" lon="3.55896">
        <ele>996</ele>
        <time>2017-03-03T23:56:46Z</time>
      </trkpt>
      <trkpt lat="44.31502" lon="3.55908">
        <ele>996</ele>
        <time>2017-03-03T23:58:46Z</time>
      </trkpt>
      <trkpt lat="44.31516" lon="3.55926">
        <ele>996</ele>
        <time>2017-03-04T00:00:46Z</time>
      </trkpt>
      <trkpt lat="44.31526" lon="3.55944">
        <ele>995</ele>
        <time>2017-03-04T00:02:46Z</time>
      </trkpt>
      <trkpt lat="44.3154" lon="3.5597">
        <ele>995</ele>
        <time>2017-03-04T00:04:46Z</time>
      </trkpt>
      <trkpt lat="44.31554" lon="3.55985">
        <ele>995</ele>
        <time>2017-03-04T00:06:46Z</time>
      </trkpt>
      <trkpt lat="44.31577" lon="3.56003">
        <ele>996</ele>
        <time>2017-03-04T00:08:46Z</time>
      </trkpt>
      <trkpt lat="44.31596" lon="3.56014">
        <ele>997</ele>
        <time>2017-03-04T00:10:46Z</time>
      </trkpt>
      <trkpt lat="44.31626" lon="3.56026">
        <ele>999</ele>
        <time>2017-03-04T00:12:46Z</time>
      </trkpt>
      <trkpt lat="44.31665" lon="3.56042">
        <ele>1001</ele>
        <time>2017-03-04T00:14:46Z</time>
      </trkpt>
      <trkpt lat="44.31677" lon="3.5605">
        <ele>1001</ele>
        <time>2017-03-04T00:16:46Z</time>
      </trkpt>
      <trkpt lat="44.31722" lon="3.56097">
        <ele>1001</ele>
        <time>2017-03-04T00:18:46Z</time>
      </trkpt>
      <trkpt lat="44.31728" lon="3.56102">
        <ele>1002</ele>
        <time>2017-03-04T00:20:46Z</time>
      </trkpt>
      <trkpt lat="44.31751" lon="3.56119">
        <ele>1004</ele>
        <time>2017-03-04T00:22:46Z</time>
      </trkpt>
      <trkpt lat="44.31775" lon="3.56131">
        <ele>1004</ele>
        <time>2017-03-04T00:24:46Z</time>
      </trkpt>
      <trkpt lat="44.3181" lon="3.56146">
        <ele>1003</ele>
        <time>2017-03-04T00:26:46Z</time>
      </trkpt>
      <trkpt lat="44.31874" lon="3.56178">
        <ele>1004</ele>
        <time>2017-03-04T00:28:46Z</time>
      </trkpt>
      <trkpt lat="44.31901" lon="3.56189">
        <ele>1005</ele>
        <time>2017-03-04T00:30:46Z</time>
      </trkpt>
      <trkpt lat="44.31911" lon="3.56191">
        <ele>1005</ele>
        <time>2017-03-04T00:32:46Z</time>
      </trkpt>
      <trkpt lat="44.31933" lon="3.56193">
        <ele>1005</ele>
        <time>2017-03-04T00:34:46Z</time>
      </trkpt>
      <trkpt lat="44.31959" lon="3.56197">
        <ele>1004</ele>
        <time>2017-03-04T00:36:46Z</time>
      </trkpt>
      <trkpt lat="44.31985" lon="3.56203">
        <ele>1004</ele>
        <time>2017-03-04T00:38:46Z</time>
      </trkpt>
      <trkpt lat="44.32014" lon="3.56213">
        <ele>1004</ele>
        <time>2017-03-04T00:40:46Z</time>
      </trkpt>
      <trkpt lat="44.32031" lon="3.56218">
        <ele>1004</ele>
        <time>2017-03-04T00:42:46Z</time>
      </trkpt>
      <trkpt lat="44.3207" lon="3.56231">
        <ele>1004</ele>
        <time>2017-03-04T00:44:46Z</time>
      </trkpt>
      <trkpt lat="44.321" lon="3.56241">
        <ele>1004</ele>
        <time>2017-03-04T00:46:46Z</time>
      </trkpt>
      <trkpt lat="44.32122" lon="3.56248">
        <ele>1003</ele>
        <time>2017-03-04T00:48:46Z</time>
      </trkpt>
      <trkpt lat="44.32138" lon="3.56253">
        <ele>1002</ele>
        <time>2017-03-04T00:50:46Z</time>
      </trkpt>
      <trkpt lat="44.3215" lon="3.5626">
        <ele>1002</ele>
        <time>2017-03-04T00:52:46Z</time>
      </trkpt>
      <trkpt lat="44.32159" lon="3.56268">
        <ele>1003</ele>
        <time>2017-03-04T00:54:46Z</time>
      </trkpt>
      <trkpt lat="44.32171" lon="3.56278">
        <ele>1003</ele>
        <time>2017-03-04T00:56:46Z</time>
      </trkpt>
      <trkpt lat="44.32229" lon="3.56345">
        <ele>1005</ele>
        <time>2017-03-04T00:58:46Z</time>
      </trkpt>
      <trkpt lat="44.32259" lon="3.56375">
        <ele>1006</ele>
        <time>2017-03-04T01:00:46Z</time>
      </trkpt>
      <trkpt lat="44.32262" lon="3.56382">
        <ele>1007</ele>
        <time>2017-03-04T01:02:46Z</time>
      </trkpt>
      <trkpt lat="44.32267" lon="3.56389">
        <ele>1008</ele>
        <time>2017-03-04T01:04:46Z</time>
      </trkpt>
      <trkpt lat="44.32274" lon="3.56396">
        <ele>1008</ele>
        <time>2017-03-04T01:06:46Z</time>
      </trkpt>
      <trkpt lat="44.32283" lon="3.56407">
        <ele>1009</ele>
        <time>2017-03-04T01:08:46Z</time>
      </trkpt>
      <trkpt lat="44.32286" lon="3.56414">
        <ele>1009</ele>
        <time>2017-03-04T01:10:46Z</time>
      </trkpt>
      <trkpt lat="44.32292" lon="3.56431">
        <ele>1010</ele>
        <time>2017-03-04T01:12:46Z</time>
      </trkpt>
      <trkpt lat="44.32299" lon="3.56455">
        <ele>1011</ele>
        <time>2017-03-04T01:14:46Z</time>
      </trkpt>
      <trkpt lat="44.32303" lon="3.56465">
        <ele>1011</ele>
        <time>2017-03-04T01:16:46Z</time>
      </trkpt>
      <trkpt lat="44.32306" lon="3.56481">
        <ele>1011</ele>
        <time>2017-03-04T01:18:46Z</time>
      </trkpt>
      <trkpt lat="44.32306" lon="3.56489">
        <ele>1012</ele>
        <time>2017-03-04T01:20:46Z</time>
      </trkpt>
      <trkpt lat="44.32305" lon="3.565">
        <ele>1012</ele>
        <time>2017-03-04T01:22:46Z</time>
      </trkpt>
      <trkpt lat="44.32304" lon="3.56517">
        <ele>1013</ele>
        <time>2017-03-04T01:24:46Z</time>
      </trkpt>
      <trkpt lat="44.32305" lon="3.56536">
        <ele>1014</ele>
        <time>2017-03-04T01:26:46Z</time>
      </trkpt>
      <trkpt lat="44.32306" lon="3.56562">
        <ele>1016</ele>
        <time>2017-03-04T01:28:46Z</time>
      </trkpt>
      <trkpt lat="44.32307" lon="3.56585">
        <ele>1017</ele>
        <time>2017-03-04T01:30:46Z</time>
      </trkpt>
      <trkpt lat="44.32314" lon="3.56627">
        <ele>1017</ele>
        <time>2017-03-04T01:32:46Z</time>
      </trkpt>
      <trkpt lat="44.32319" lon="3.56648">
        <ele>1017</ele>
        <time>2017-03-04T01:34:46Z</time>
      </trkpt>
      <trkpt lat="44.32324" lon="3.56664">
        <ele>1018</ele>
        <time>2017-03-04T01:36:46Z</time>
      </trkpt>
      <trkpt lat="44.32325" lon="3.56668">
        <ele>1018</ele>
        <time>2017-03-04T01:38:46Z</time>
      </trkpt>
      <trkpt lat="44.32328" lon="3.56674">
        <ele>1018</ele>
        <time>2017-03-04T01:40:46Z</time>
      </trkpt>
      <trkpt lat="44.32333" lon="3.56681">
        <ele>1018</ele>
        <time>2017-03-04T01:42:46Z</time>
      </trkpt>
      <trkpt lat="44.32342" lon="3.5669">
        <ele>1018</ele>
        <time>2017-03-04T01:44:46Z</time>
      </trkpt>
      <trkpt lat="44.32344" lon="3.56692">
        <ele>1018</ele>
        <time>2017-03-04T01:46:46Z</time>
      </trkpt>
      <trkpt lat="44.32348" lon="3.56702">
        <ele>1018</ele>
        <time>2017-03-04T01:48:46Z</time>
      </trkpt>
      <trkpt lat="44.32354" lon="3.56712">
        <ele>1019</ele>
        <time>2017-03-04T01:50:46Z</time>
      </trkpt>
      <trkpt lat="44.32364" lon="3.5673">
        <ele>1019</ele>
        <time>2017-03-04T01:52:46Z</time>
      </trkpt>
      <trkpt lat="44.32368" lon="3.56741">
        <ele>1019</ele>
        <time>2017-03-04T01:54:46Z</time>
      </trkpt>
      <trkpt lat="44.3237" lon="3.5675">
        <ele>1020</ele>
        <time>2017-03-04T01:56:46Z</time>
      </trkpt>
      <trkpt lat="44.32376" lon="3.56785">
        <ele>1019</ele>
        <time>2017-03-04T01:58:46Z</time>
      </trkpt>
      <trkpt lat="44.32379" lon="3.56803">
        <ele>1019</ele>
        <time>2017-03-04T02:00:46Z</time>
      </trkpt>
      <trkpt lat="44.32386" lon="3.56827">
        <ele>1019</ele>
        <time>2017-03-04T02:02:46Z</time>
      </trkpt>
      <trkpt lat="44.32397" lon="3.56858">
        <ele>1019</ele>
        <time>2017-03-04T02:04:46Z</time>
      </trkpt>
      <trkpt lat="44.32412" lon="3.56909">
        <ele>1019</ele>
        <time>2017-03-04T02:06:46Z</time>
      </trkpt>
      <trkpt lat="44.32418" lon="3.56927">
        <ele>1019</ele>
        <time>2017-03-04T02:08:46Z</time>
      </trkpt>
      <trkpt lat="44.32421" lon="3.56939">
        <ele>1019</ele>
        <time>2017-03-04T02:10:46Z</time>
      </trkpt>
      <trkpt lat="44.32424" lon="3.56959">
        <ele>1019</ele>
        <time>2017-03-04T02:12:46Z</time>
      </trkpt>
      <trkpt lat="44.32431" lon="3.56982">
        <ele>1019</ele>
        <time>2017-03-04T02:14:46Z</time>
      </trkpt>
      <trkpt lat="44.32444" lon="3.5702">
        <ele>1020</ele>
        <time>2017-03-04T02:16:46Z</time>
      </trkpt>
      <trkpt lat="44.32446" lon="3.57028">
        <ele>1020</ele>
        <time>2017-03-04T02:18:46Z</time>
      </trkpt>
      <trkpt lat="44.32444" lon="3.57048">
        <ele>1020</ele>
        <time>2017-03-04T02:20:46Z</time>
      </trkpt>
      <trkpt lat="44.32444" lon="3.57055">
        <ele>1020</ele>
        <time>2017-03-04T02:22:46Z</time>
      </trkpt>
      <trkpt lat="44.32447" lon="3.57064">
        <ele>1020</ele>
        <time>2017-03-04T02:24:46Z</time>
      </trkpt>
      <trkpt lat="44.32451" lon="3.57071">
        <ele>1021</ele>
        <time>2017-03-04T02:26:46Z</time>
      </trkpt>
      <trkpt lat="44.32452" lon="3.57097">
        <ele>1022</ele>
        <time>2017-03-04T02:28:46Z</time>
      </trkpt>
      <trkpt lat="44.32453" lon="3.57106">
        <ele>1022</ele>
        <time>2017-03-04T02:30:46Z</time>
      </trkpt>
      <trkpt lat="44.32455" lon="3.57108">
        <ele>1023</ele>
        <time>2017-03-04T02:32:46Z</time>
      </trkpt>
      <trkpt lat="44.32436" lon="3.57129">
        <ele>1022</ele>
        <time>2017-03-04T02:34:46Z</time>
      </trkpt>
      <trkpt lat="44.3242" lon="3.57145">
        <ele>1021</ele>
        <time>2017-03-04T02:36:46Z</time>
      </trkpt>
      <trkpt lat="44.324" lon="3.57162">
        <ele>1020</ele>
        <time>2017-03-04T02:38:46Z</time>
      </trkpt>
      <trkpt lat="44.32355" lon="3.572">
        <ele>1018</ele>
        <time>2017-03-04T02:40:46Z</time>
      </trkpt>
      <trkpt lat="44.32335" lon="3.57217">
        <ele>1017</ele>
        <time>2017-03-04T02:42:46Z</time>
      </trkpt>
      <trkpt lat="44.32326" lon="3.57226">
        <ele>1018</ele>
        <time>2017-03-04T02:44:46Z</time>
      </trkpt>
      <trkpt lat="44.32321" lon="3.57228">
        <ele>1018</ele>
        <time>2017-03-04T02:46:46Z</time>
      </trkpt>
      <trkpt lat="44.32311" lon="3.57235">
        <ele>1018</ele>
        <time>2017-03-04T02:48:46Z</time>
      </trkpt>
      <trkpt lat="44.32295" lon="3.57248">
        <ele>1018</ele>
        <time>2017-03-04T02:50:46Z</time>
      </trkpt>
      <trkpt lat="44.32276" lon="3.57264">
        <ele>1020</ele>
        <time>2017-03-04T02:52:46Z</time>
      </trkpt>
      <trkpt lat="44.32263" lon="3.57276">
        <ele>1021</ele>
        <time>2017-03-04T02:54:46Z</time>
      </trkpt>
      <trkpt lat="44.32256" lon="3.57283">
        <ele>1021</ele>
        <time>2017-03-04T02:56:46Z</time>
      </trkpt>
      <trkpt lat="44.32246" lon="3.57296">
        <ele>1022</ele>
        <time>2017-03-04T02:58:46Z</time>
      </trkpt>
      <trkpt lat="44.3224" lon="3.57304">
        <ele>1023</ele>
        <time>2017-03-04T03:00:46Z</time>
      </trkpt>
      <trkpt lat="44.32235" lon="3.5731">
        <ele>1024</ele>
        <time>2017-03-04T03:02:46Z</time>
      </trkpt>
      <trkpt lat="44.32231" lon="3.57314">
        <ele>1024</ele>
        <time>2017-03-04T03:04:46Z</time>
      </trkpt>
      <trkpt lat="44.32208" lon="3.57328">
        <ele>1024</ele>
        <time>2017-03-04T03:06:46Z</time>
      </trkpt>
      <trkpt lat="44.32186" lon="3.57336">
        <ele>1023</ele>
        <time>2017-03-04T03:08:46Z</time>
      </trkpt>
      <trkpt lat="44.32147" lon="3.57358">
        <ele>1025</ele>
        <time>2017-03-04T03:10:46Z</time>
      </trkpt>
      <trkpt lat="44.32136" lon="3.57361">
        <ele>1025</ele>
        <time>2017-03-04T03:12:46Z</time>
      </trkpt>
      <trkpt lat="44.32129" lon="3.57366">
        <ele>1026</ele>
        <time>2017-03-04T03:14:46Z</time>
      </trkpt>
      <trkpt lat="44.32124" lon="3.57371">
        <ele>1027</ele>
        <time>2017-03-04T03:16:46Z</time>
      </trkpt>
      <trkpt lat="44.32118" lon="3.57379">
        <ele>1027</ele>
        <time>2017-03-04T03:18:46Z</time>
      </trkpt>
      <trkpt lat="44.32113" lon="3.57389">
        <ele>1028</ele>
        <time>2017-03-04T03:20:46Z</time>
      </trkpt>
      <trkpt lat="44.32109" lon="3.574">
        <ele>1029</ele>
        <time>2017-03-04T03:22:46Z</time>
      </trkpt>
      <trkpt lat="44.32104" lon="3.57417">
        <ele>1030</ele>
        <time>2017-03-04T03:24:46Z</time>
      </trkpt>
      <trkpt lat="44.32099" lon="3.57429">
        <ele>1030</ele>
        <time>2017-03-04T03:26:46Z</time>
      </trkpt>
      <trkpt lat="44.32093" lon="3.5744">
        <ele>1030</ele>
        <time>2017-03-04T03:28:46Z</time>
      </trkpt>
      <trkpt lat="44.32085" lon="3.5745">
        <ele>1030</ele>
        <time>2017-03-04T03:30:46Z</time>
      </trkpt>
      <trkpt lat="44.32074" lon="3.57463">
        <ele>1031</ele>
        <time>2017-03-04T03:32:46Z</time>
      </trkpt>
      <trkpt lat="44.32063" lon="3.5747">
        <ele>1031</ele>
        <time>2017-03-04T03:34:46Z</time>
      </trkpt>
      <trkpt lat="44.32052" lon="3.57475">
        <ele>1032</ele>
        <time>2017-03-04T03:36:46Z</time>
      </trkpt>
      <trkpt lat="44.32028" lon="3.57477">
        <ele>1034</ele>
        <time>2017-03-04T03:38:46Z</time>
      </trkpt>
      <trkpt lat="44.32019" lon="3.57481">
        <ele>1034</ele>
        <time>2017-03-04T03:40:46Z</time>
      </trkpt>
      <trkpt lat="44.32004" lon="3.57487">
        <ele>1035</ele>
        <time>2017-03-04T03:42:46Z</time>
      </trkpt>
      <trkpt lat="44.31992" lon="3.57496">
        <ele>1036</ele>
        <time>2017-03-04T03:44:46Z</time>
      </trkpt>
      <trkpt lat="44.31986" lon="3.575">
        <ele>1036</ele>
        <time>2017-03-04T03:46:46Z</time>
      </trkpt>
      <trkpt lat="44.31974" lon="3.57512">
        <ele>1037</ele>
        <time>2017-03-04T03:48:46Z</time>
      </trkpt>
      <trkpt lat="44.31966" lon="3.57523">
        <ele>1037</ele>
        <time>2017-03-04T03:50:46Z</time>
      </trkpt>
      <trkpt lat="44.31946" lon="3.57553">
        <ele>1038</ele>
        <time>2017-03-04T03:52:46Z</time>
      </trkpt>
      <trkpt lat="44.31941" lon="3.5756">
        <ele>1038</ele>
        <time>2017-03-04T03:54:46Z</time>
      </trkpt>
      <trkpt lat="44.31936" lon="3.57564">
        <ele>1038</ele>
        <time>2017-03-04T03:56:46Z</time>
      </trkpt>
      <trkpt lat="44.31924" lon="3.57572">
        <ele>1038</ele>
        <time>2017-03-04T03:58:46Z</time>
      </trkpt>
      <trkpt lat="44.3192" lon="3.57578">
        <ele>1038</ele>
        <time>2017-03-04T04:00:46Z</time>
      </trkpt>
      <trkpt lat="44.31914" lon="3.57591">
        <ele>1039</ele>
        <time>2017-03-04T04:02:46Z</time>
      </trkpt>
      <trkpt lat="44.31908" lon="3.57601">
        <ele>1039</ele>
        <time>2017-03-04T04:04:46Z</time>
      </trkpt>
      <trkpt lat="44.31901" lon="3.57609">
        <ele>1040</ele>
        <time>2017-03-04T04:06:46Z</time>
      </trkpt>
      <trkpt lat="44.31892" lon="3.57617">
        <ele>1041</ele>
        <time>2017-03-04T04:08:46Z</time>
      </trkpt>
      <trkpt lat="44.31879" lon="3.57632">
        <ele>1043</ele>
        <time>2017-03-04T04:10:46Z</time>
      </trkpt>
      <trkpt lat="44.31867" lon="3.57651">
        <ele>1044</ele>
        <time>2017-03-04T04:12:46Z</time>
      </trkpt>
      <trkpt lat="44.31858" lon="3.57661">
        <ele>1045</ele>
        <time>2017-03-04T04:14:46Z</time>
      </trkpt>
      <trkpt lat="44.31852" lon="3.57673">
        <ele>1045</ele>
        <time>2017-03-04T04:16:46Z</time>
      </trkpt>
      <trkpt lat="44.31846" lon="3.57686">
        <ele>1046</ele>
        <time>2017-03-04T04:18:46Z</time>
      </trkpt>
      <trkpt lat="44.31838" lon="3.57698">
        <ele>1047</ele>
        <time>2017-03-04T04:20:46Z</time>
      </trkpt>
      <trkpt lat="44.31816" lon="3.57736">
        <ele>1048</ele>
        <time>2017-03-04T04:22:46Z</time>
      </trkpt>
      <trkpt lat="44.31805" lon="3.57753">
        <ele>1048</ele>
        <time>2017-03-04T04:24:46Z</time>
      </trkpt>
      <trkpt lat="44.31796" lon="3.57763">
        <ele>1048</ele>
        <time>2017-03-04T04:26:46Z</time>
      </trkpt>
      <trkpt lat="44.31791" lon="3.5777">
        <ele>1048</ele>
        <time>2017-03-04T04:28:46Z</time>
      </trkpt>
      <trkpt lat="44.31788" lon="3.57777">
        <ele>1048</ele>
        <time>2017-03-04T04:30:46Z</time>
      </trkpt>
      <trkpt lat="44.31782" lon="3.57795">
        <ele>1048</ele>
        <time>2017-03-04T04:32:46Z</time>
      </trkpt>
      <trkpt lat="44.31771" lon="3.57824">
        <ele>1047</ele>
        <time>2017-03-04T04:34:46Z</time>
      </trkpt>
      <trkpt lat="44.31758" lon="3.57846">
        <ele>1047</ele>
        <time>2017-03-04T04:36:46Z</time>
      </trkpt>
      <trkpt lat="44.31748" lon="3.57861">
        <ele>1047</ele>
        <time>2017-03-04T04:38:46Z</time>
      </trkpt>
      <trkpt lat="44.3174" lon="3.57869">
        <ele>1046</ele>
        <time>2017-03-04T04:40:46Z</time>
      </trkpt>
      <trkpt lat="44.31735" lon="3.57873">
        <ele>1046</ele>
        <time>2017-03-04T04:42:46Z</time>
      </trkpt>
      <trkpt lat="44.31725" lon="3.57878">
        <ele>1045</ele>
        <time>2017-03-04T04:44:46Z</time>
      </trkpt>
      <trkpt lat="44.31666" lon="3.57904">
        <ele>1042</ele>
        <time>2017-03-04T04:46:46Z</time>
      </trkpt>
      <trkpt lat="44.31652" lon="3.57909">
        <ele>1041</ele>
        <time>2017-03-04T04:48:46Z</time>
      </trkpt>
      <trkpt lat="44.3164" lon="3.5791">
        <ele>1040</ele>
        <time>2017-03-04T04:50:46Z</time>
      </trkpt>
      <trkpt lat="44.31629" lon="3.57909">
        <ele>1039</ele>
        <time>2017-03-04T04:52:46Z</time>
      </trkpt>
      <trkpt lat="44.31596" lon="3.57899">
        <ele>1037</ele>
        <time>2017-03-04T04:54:46Z</time>
      </trkpt>
      <trkpt lat="44.31564" lon="3.57893">
        <ele>1035</ele>
        <time>2017-03-04T04:56:46Z</time>
      </trkpt>
      <trkpt lat="44.31559" lon="3.57894">
        <ele>1035</ele>
        <time>2017-03-04T04:58:46Z</time>
      </trkpt>
      <trkpt lat="44.31552" lon="3.57897">
        <ele>1035</ele>
        <time>2017-03-04T05:00:46Z</time>
      </trkpt>
      <trkpt lat="44.31543" lon="3.57904">
        <ele>1034</ele>
        <time>2017-03-04T05:02:46Z</time>
      </trkpt>
      <trkpt lat="44.31522" lon="3.57915">
        <ele>1034</ele>
        <time>2017-03-04T05:04:46Z</time>
      </trkpt>
      <trkpt lat="44.31515" lon="3.57919">
        <ele>1034</ele>
        <time>2017-03-04T05:06:46Z</time>
      </trkpt>
      <trkpt lat="44.31507" lon="3.57928">
        <ele>1034</ele>
        <time>2017-03-04T05:08:46Z</time>
      </trkpt>
      <trkpt lat="44.31498" lon="3.57937">
        <ele>1034</ele>
        <time>2017-03-04T05:10:46Z</time>
      </trkpt>
      <trkpt lat="44.31485" lon="3.57956">
        <ele>1035</ele>
        <time>2017-03-04T05:12:46Z</time>
      </trkpt>
      <trkpt lat="44.31463" lon="3.57973">
        <ele>1036</ele>
        <time>2017-03-04T05:14:46Z</time>
      </trkpt>
      <trkpt lat="44.31458" lon="3.57978">
        <ele>1037</ele>
        <time>2017-03-04T05:16:46Z</time>
      </trkpt>
      <trkpt lat="44.31451" lon="3.57989">
        <ele>1037</ele>
        <time>2017-03-04T05:18:46Z</time>
      </trkpt>
      <trkpt lat="44.31437" lon="3.58012">
        <ele>1039</ele>
        <time>2017-03-04T05:20:46Z</time>
      </trkpt>
      <trkpt lat="44.31424" lon="3.58029">
        <ele>1041</ele>
        <time>2017-03-04T05:22:46Z</time>
      </trkpt>
      <trkpt lat="44.31416" lon="3.58036">
        <ele>1042</ele>
        <time>2017-03-04T05:24:46Z</time>
      </trkpt>
      <trkpt lat="44.31411" lon="3.58041">
        <ele>1043</ele>
        <time>2017-03-04T05:26:46Z</time>
      </trkpt>
      <trkpt lat="44.31405" lon="3.58051">
        <ele>1044</ele>
        <time>2017-03-04T05:28:46Z</time>
      </trkpt>
      <trkpt lat="44.31403" lon="3.58063">
        <ele>1045</ele>
        <time>2017-03-04T05:30:46Z</time>
      </trkpt>
      <trkpt lat="44.31399" lon="3.5807">
        <ele>1046</ele>
        <time>2017-03-04T05:32:46Z</time>
      </trkpt>
      <trkpt lat="44.31392" lon="3.58078">
        <ele>1046</ele>
        <time>2017-03-04T05:34:46Z</time>
      </trkpt>
      <trkpt lat="44.31358" lon="3.58102">
        <ele>1049</ele>
        <time>2017-03-04T05:36:46Z</time>
      </trkpt>
      <trkpt lat="44.3135" lon="3.58107">
        <ele>1049</ele>
        <time>2017-03-04T05:38:46Z</time>
      </trkpt>
      <trkpt lat="44.31341" lon="3.5811">
        <ele>1050</ele>
        <time>2017-03-04T05:40:46Z</time>
      </trkpt>
      <trkpt lat="44.3132" lon="3.58118">
        <ele>1050</ele>
        <time>2017-03-04T05:42:46Z</time>
      </trkpt>
      <trkpt lat="44.31295" lon="3.58128">
        <ele>1050</ele>
        <time>2017-03-04T05:44:46Z</time>
      </trkpt>
      <trkpt lat="44.31287" lon="3.5813">
        <ele>1051</ele>
        <time>2017-03-04T05:46:46Z</time>
      </trkpt>
      <trkpt lat="44.31276" lon="3.58134">
        <ele>1051</ele>
        <time>2017-03-04T05:48:46Z</time>
      </trkpt>
      <trkpt lat="44.31268" lon="3.58138">
        <ele>1051</ele>
        <time>2017-03-04T05:50:46Z</time>
      </trkpt>
      <trkpt lat="44.31249" lon="3.58151">
        <ele>1052</ele>
        <time>2017-03-04T05:52:46Z</time>
      </trkpt>
      <trkpt lat="44.3123" lon="3.58167">
        <ele>1054</ele>
        <time>2017-03-04T05:54:46Z</time>
      </trkpt>
      <trkpt lat="44.31214" lon="3.58177">
        <ele>1054</ele>
        <time>2017-03-04T05:56:46Z</time>
      </trkpt>
      <trkpt lat="44.31202" lon="3.58181">
        <ele>1055</ele>
        <time>2017-03-04T05:58:46Z</time>
      </trkpt>
      <trkpt lat="44.31185" lon="3.58184">
        <ele>1055</ele>
        <time>2017-03-04T06:00:46Z</time>
      </trkpt>
      <trkpt lat="44.31171" lon="3.58182">
        <ele>1056</ele>
        <time>2017-03-04T06:02:46Z</time>
      </trkpt>
      <trkpt lat="44.31157" lon="3.58178">
        <ele>1057</ele>
        <time>2017-03-04T06:04:46Z</time>
      </trkpt>
      <trkpt lat="44.31141" lon="3.5817">
        <ele>1058</ele>
        <time>2017-03-04T06:06:46Z</time>
      </trkpt>
      <trkpt lat="44.31128" lon="3.58167">
        <ele>1060</ele>
        <time>2017-03-04T06:08:46Z</time>
      </trkpt>
      <trkpt lat="44.31096" lon="3.58162">
        <ele>1063</ele>
        <time>2017-03-04T06:10:46Z</time>
      </trkpt>
      <trkpt lat="44.3107" lon="3.58154">
        <ele>1066</ele>
        <time>2017-03-04T06:12:46Z</time>
      </trkpt>
      <trkpt lat="44.31053" lon="3.58155">
        <ele>1068</ele>
        <time>2017-03-04T06:14:46Z</time>
      </trkpt>
      <trkpt lat="44.31014" lon="3.58164">
        <ele>1073</ele>
        <time>2017-03-04T06:16:46Z</time>
      </trkpt>
      <trkpt lat="44.30973" lon="3.58179">
        <ele>1074</ele>
        <time>2017-03-04T06:18:46Z</time>
      </trkpt>
      <trkpt lat="44.30944" lon="3.5819">
        <ele>1074</ele>
        <time>2017-03-04T06:20:46Z</time>
      </trkpt>
      <trkpt lat="44.3093" lon="3.58193">
        <ele>1074</ele>
        <time>2017-03-04T06:22:46Z</time>
      </trkpt>
      <trkpt lat="44.30921" lon="3.58192">
        <ele>1074</ele>
        <time>2017-03-04T06:24:46Z</time>
      </trkpt>
      <trkpt lat="44.30914" lon="3.58189">
        <ele>1075</ele>
        <time>2017-03-04T06:26:46Z</time>
      </trkpt>
      <trkpt lat="44.3091" lon="3.58184">
        <ele>1075</ele>
        <time>2017-03-04T06:28:46Z</time>
      </trkpt>
      <trkpt lat="44.30897" lon="3.58152">
        <ele>1078</ele>
        <time>2017-03-04T06:30:46Z</time>
      </trkpt>
      <trkpt lat="44.30892" lon="3.58139">
        <ele>1080</ele>
        <time>2017-03-04T06:32:46Z</time>
      </trkpt>
      <trkpt lat="44.30888" lon="3.58134">
        <ele>1080</ele>
        <time>2017-03-04T06:34:46Z</time>
      </trkpt>
      <trkpt lat="44.30883" lon="3.58129">
        <ele>1080</ele>
        <time>2017-03-04T06:36:46Z</time>
      </trkpt>
      <trkpt lat="44.30877" lon="3.58125">
        <ele>1081</ele>
        <time>2017-03-04T06:38:46Z</time>
      </trkpt>
      <trkpt lat="44.3087" lon="3.58123">
        <ele>1080</ele>
        <time>2017-03-04T06:40:46Z</time>
      </trkpt>
      <trkpt lat="44.30851" lon="3.58122">
        <ele>1079</ele>
        <time>2017-03-04T06:42:46Z</time>
      </trkpt>
      <trkpt lat="44.30839" lon="3.58118">
        <ele>1079</ele>
        <time>2017-03-04T06:44:46Z</time>
      </trkpt>
      <trkpt lat="44.30822" lon="3.58111">
        <ele>1080</ele>
        <time>2017-03-04T06:46:46Z</time>
      </trkpt>
      <trkpt lat="44.30803" lon="3.58101">
        <ele>1082</ele>
        <time>2017-03-04T06:48:46Z</time>
      </trkpt>
      <trkpt lat="44.30789" lon="3.58089">
        <ele>1083</ele>
        <time>2017-03-04T06:50:46Z</time>
      </trkpt>
      <trkpt lat="44.30779" lon="3.5808">
        <ele>1084</ele>
        <time>2017-03-04T06:52:46Z</time>
      </trkpt>
      <trkpt lat="44.30773" lon="3.58073">
        <ele>1085</ele>
        <time>2017-03-04T06:54:46Z</time>
      </trkpt>
      <trkpt lat="44.30767" lon="3.58068">
        <ele>1085</ele>
        <time>2017-03-04T06:56:46Z</time>
      </trkpt>
      <trkpt lat="44.30758" lon="3.58066">
        <ele>1085</ele>
        <time>2017-03-04T06:58:46Z</time>
      </trkpt>
      <trkpt lat="44.30745" lon="3.58068">
        <ele>1086</ele>
        <time>2017-03-04T07:00:46Z</time>
      </trkpt>
      <trkpt lat="44.30731" lon="3.58069">
        <ele>1087</ele>
        <time>2017-03-04T07:02:46Z</time>
      </trkpt>
      <trkpt lat="44.30717" lon="3.58065">
        <ele>1088</ele>
        <time>2017-03-04T07:04:46Z</time>
      </trkpt>
      <trkpt lat="44.307" lon="3.58056">
        <ele>1090</ele>
        <time>2017-03-04T07:06:46Z</time>
      </trkpt>
      <trkpt lat="44.30679" lon="3.58045">
        <ele>1093</ele>
        <time>2017-03-04T07:08:46Z</time>
      </trkpt>
      <trkpt lat="44.30664" lon="3.58043">
        <ele>1095</ele>
        <time>2017-03-04T07:10:46Z</time>
      </trkpt>
      <trkpt lat="44.30638" lon="3.58046">
        <ele>1096</ele>
        <time>2017-03-04T07:12:46Z</time>
      </trkpt>
      <trkpt lat="44.3061" lon="3.58045">
        <ele>1097</ele>
        <time>2017-03-04T07:14:46Z</time>
      </trkpt>
      <trkpt lat="44.30584" lon="3.58043">
        <ele>1098</ele>
        <time>2017-03-04T07:16:46Z</time>
      </trkpt>
      <trkpt lat="44.30546" lon="3.5804">
        <ele>1099</ele>
        <time>2017-03-04T07:18:46Z</time>
      </trkpt>
      <trkpt lat="44.30513" lon="3.58042">
        <ele>1100</ele>
        <time>2017-03-04T07:20:46Z</time>
      </trkpt>
      <trkpt lat="44.30488" lon="3.58046">
        <ele>1100</ele>
        <time>2017-03-04T07:22:46Z</time>
      </trkpt>
      <trkpt lat="44.30456" lon="3.5805">
        <ele>1099</ele>
        <time>2017-03-04T07:24:46Z</time>
      </trkpt>
      <trkpt lat="44.30426" lon="3.58056">
        <ele>1098</ele>
        <time>2017-03-04T07:26:46Z</time>
      </trkpt>
      <trkpt lat="44.30418" lon="3.58057">
        <ele>1098</ele>
        <time>2017-03-04T07:28:46Z</time>
      </trkpt>
      <trkpt lat="44.30412" lon="3.58056">
        <ele>1098</ele>
        <time>2017-03-04T07:30:46Z</time>
      </trkpt>
      <trkpt lat="44.30402" lon="3.58051">
        <ele>1098</ele>
        <time>2017-03-04T07:32:46Z</time>
      </trkpt>
      <trkpt lat="44.30389" lon="3.5805">
        <ele>1099</ele>
        <time>2017-03-04T07:34:46Z</time>
      </trkpt>
      <trkpt lat="44.3038" lon="3.58048">
        <ele>1099</ele>
        <time>2017-03-04T07:36:46Z</time>
      </trkpt>
      <trkpt lat="44.30355" lon="3.5804">
        <ele>1101</ele>
        <time>2017-03-04T07:38:46Z</time>
      </trkpt>
      <trkpt lat="44.30337" lon="3.58028">
        <ele>1102</ele>
        <time>2017-03-04T07:40:46Z</time>
      </trkpt>
      <trkpt lat="44.30317" lon="3.58022">
        <ele>1104</ele>
        <time>2017-03-04T07:42:46Z</time>
      </trkpt>
      <trkpt lat="44.30289" lon="3.58014">
        <ele>1105</ele>
        <time>2017-03-04T07:44:46Z</time>
      </trkpt>
      <trkpt lat="44.30265" lon="3.58013">
        <ele>1106</ele>
        <time>2017-03-04T07:46:46Z</time>
      </trkpt>
      <trkpt lat="44.30231" lon="3.58013">
        <ele>1109</ele>
        <time>2017-03-04T07:48:46Z</time>
      </trkpt>
      <trkpt lat="44.30221" lon="3.58015">
        <ele>1110</ele>
        <time>2017-03-04T07:50:46Z</time>
      </trkpt>
      <trkpt lat="44.30213" lon="3.58022">
        <ele>1110</ele>
        <time>2017-03-04T07:52:46Z</time>
      </trkpt>
      <trkpt lat="44.3019" lon="3.58051">
        <ele>1110</ele>
        <time>2017-03-04T07:54:46Z</time>
      </trkpt>
      <trkpt lat="44.30181" lon="3.58061">
        <ele>1110</ele>
        <time>2017-03-04T07:56:46Z</time>
      </trkpt>
      <trkpt lat="44.30169" lon="3.58073">
        <ele>1111</ele>
        <time>2017-03-04T07:58:46Z</time>
      </trkpt>
      <trkpt lat="44.30164" lon="3.5808">
        <ele>1110</ele>
        <time>2017-03-04T08:00:46Z</time>
      </trkpt>
      <trkpt lat="44.30157" lon="3.5809">
        <ele>1110</ele>
        <time>2017-03-04T08:02:46Z</time>
      </trkpt>
      <trkpt lat="44.30152" lon="3.58104">
        <ele>1110</ele>
        <time>2017-03-04T08:04:46Z</time>
      </trkpt>
      <trkpt lat="44.30138" lon="3.58129">
        <ele>1109</ele>
        <time>2017-03-04T08:06:46Z</time>
      </trkpt>
      <trkpt lat="44.30119" lon="3.58162">
        <ele>1107</ele>
        <time>2017-03-04T08:08:46Z</time>
      </trkpt>
      <trkpt lat="44.30102" lon="3.58189">
        <ele>1105</ele>
        <time>2017-03-04T08:10:46Z</time>
      </trkpt>
      <trkpt lat="44.30083" lon="3.58212">
        <ele>1103</ele>
        <time>2017-03-04T08:12:46Z</time>
      </trkpt>
      <trkpt lat="44.30073" lon="3.58222">
        <ele>1101</ele>
        <time>2017-03-04T08:14:46Z</time>
      </trkpt>
      <trkpt lat="44.30066" lon="3.58226">
        <ele>1100</ele>
        <time>2017-03-04T08:16:46Z</time>
      </trkpt>
      <trkpt lat="44.30057" lon="3.58226">
        <ele>1100</ele>
        <time>2017-03-04T08:18:46Z</time>
      </trkpt>
      <trkpt lat="44.30046" lon="3.58226">
        <ele>1099</ele>
        <time>2017-03-04T08:20:46Z</time>
      </trkpt>
      <trkpt lat="44.30035" lon="3.58227">
        <ele>1097</ele>
        <time>2017-03-04T08:22:46Z</time>
      </trkpt>
      <trkpt lat="44.3001" lon="3.5824">
        <ele>1094</ele>
        <time>2017-03-04T08:24:46Z</time>
      </trkpt>
      <trkpt lat="44.29987" lon="3.58253">
        <ele>1091</ele>
        <time>2017-03-04T08:26:46Z</time>
      </trkpt>
      <trkpt lat="44.29968" lon="3.58266">
        <ele>1088</ele>
        <time>2017-03-04T08:28:46Z</time>
      </trkpt>
      <trkpt lat="44.29959" lon="3.58273">
        <ele>1087</ele>
        <time>2017-03-04T08:30:46Z</time>
      </trkpt>
      <trkpt lat="44.29954" lon="3.58274">
        <ele>1086</ele>
        <time>2017-03-04T08:32:46Z</time>
      </trkpt>
      <trkpt lat="44.29946" lon="3.58272">
        <ele>1086</ele>
        <time>2017-03-04T08:34:46Z</time>
      </trkpt>
      <trkpt lat="44.29937" lon="3.58271">
        <ele>1085</ele>
        <time>2017-03-04T08:36:46Z</time>
      </trkpt>
      <trkpt lat="44.2993" lon="3.5827">
        <ele>1084</ele>
        <time>2017-03-04T08:38:46Z</time>
      </trkpt>
      <trkpt lat="44.29919" lon="3.58272">
        <ele>1083</ele>
        <time>2017-03-04T08:40:46Z</time>
      </trkpt>
      <trkpt lat="44.29912" lon="3.5827">
        <ele>1083</ele>
        <time>2017-03-04T08:42:46Z</time>
      </trkpt>
      <trkpt lat="44.29907" lon="3.58264">
        <ele>1083</ele>
        <time>2017-03-04T08:44:46Z</time>
      </trkpt>
      <trkpt lat="44.29904" lon="3.58256">
        <ele>1083</ele>
        <time>2017-03-04T08:46:46Z</time>
      </trkpt>
      <trkpt lat="44.29892" lon="3.58235">
        <ele>1084</ele>
        <time>2017-03-04T08:48:46Z</time>
      </trkpt>
      <trkpt lat="44.29883" lon="3.58208">
        <ele>1085</ele>
        <time>2017-03-04T08:50:46Z</time>
      </trkpt>
      <trkpt lat="44.29877" lon="3.58203">
        <ele>1085</ele>
        <time>2017-03-04T08:52:46Z</time>
      </trkpt>
      <trkpt lat="44.29868" lon="3.58202">
        <ele>1084</ele>
        <time>2017-03-04T08:54:46Z</time>
      </trkpt>
      <trkpt lat="44.2983" lon="3.58199">
        <ele>1083</ele>
        <time>2017-03-04T08:56:46Z</time>
      </trkpt>
      <trkpt lat="44.29788" lon="3.58204">
        <ele>1083</ele>
        <time>2017-03-04T08:58:46Z</time>
      </trkpt>
      <trkpt lat="44.29763" lon="3.58209">
        <ele>1083</ele>
        <time>2017-03-04T09:00:46Z</time>
      </trkpt>
      <trkpt lat="44.2975" lon="3.58219">
        <ele>1083</ele>
        <time>2017-03-04T09:02:46Z</time>
      </trkpt>
      <trkpt lat="44.29743" lon="3.5823">
        <ele>1083</ele>
        <time>2017-03-04T09:04:46Z</time>
      </trkpt>
      <trkpt lat="44.29741" lon="3.5824">
        <ele>1083</ele>
        <time>2017-03-04T09:06:46Z</time>
      </trkpt>
      <trkpt lat="44.29741" lon="3.58252">
        <ele>1082</ele>
        <time>2017-03-04T09:08:46Z</time>
      </trkpt>
      <trkpt lat="44.29742" lon="3.5831">
        <ele>1081</ele>
        <time>2017-03-04T09:10:46Z</time>
      </trkpt>
      <trkpt lat="44.2974" lon="3.58327">
        <ele>1080</ele>
        <time>2017-03-04T09:12:46Z</time>
      </trkpt>
      <trkpt lat="44.29735" lon="3.58338">
        <ele>1080</ele>
        <time>2017-03-04T09:14:46Z</time>
      </trkpt>
      <trkpt lat="44.29729" lon="3.58341">
        <ele>1080</ele>
        <time>2017-03-04T09:16:46Z</time>
      </trkpt>
      <trkpt lat="44.29726" lon="3.5834">
        <ele>1080</ele>
        <time>2017-03-04T09:18:46Z</time>
      </trkpt>
      <trkpt lat="44.29723" lon="3.58336">
        <ele>1080</ele>
        <time>2017-03-04T09:20:46Z</time>
      </trkpt>
      <trkpt lat="44.29708" lon="3.58291">
        <ele>1082</ele>
        <time>2017-03-04T09:22:46Z</time>
      </trkpt>
      <trkpt lat="44.29696" lon="3.58273">
        <ele>1082</ele>
        <time>2017-03-04T09:24:46Z</time>
      </trkpt>
      <trkpt lat="44.29682" lon="3.58261">
        <ele>1083</ele>
        <time>2017-03-04T09:26:46Z</time>
      </trkpt>
      <trkpt lat="44.2967" lon="3.58242">
        <ele>1084</ele>
        <time>2017-03-04T09:28:46Z</time>
      </trkpt>
      <trkpt lat="44.29669" lon="3.58238">
        <ele>1085</ele>
        <time>2017-03-04T09:30:46Z</time>
      </trkpt>
      <trkpt lat="44.29673" lon="3.58234">
        <ele>1085</ele>
        <time>2017-03-04T09:32:46Z</time>
      </trkpt>
      <trkpt lat="44.29669" lon="3.58238">
        <ele>1085</ele>
        <time>2017-03-04T09:34:46Z</time>
      </trkpt>
      <trkpt lat="44.2967" lon="3.58242">
        <ele>1084</ele>
        <time>2017-03-04T09:36:46Z</time>
      </trkpt>
      <trkpt lat="44.29682" lon="3.58261">
        <ele>1083</ele>
        <time>2017-03-04T09:38:46Z</time>
      </trkpt>
      <trkpt lat="44.29682" lon="3.58268">
        <ele>1083</ele>
        <time>2017-03-04T09:40:46Z</time>
      </trkpt>
      <trkpt lat="44.29682" lon="3.58273">
        <ele>1083</ele>
        <time>2017-03-04T09:42:46Z</time>
      </trkpt>
      <trkpt lat="44.29686" lon="3.58286">
        <ele>1082</ele>
        <time>2017-03-04T09:44:46Z</time>
      </trkpt>
      <trkpt lat="44.2969" lon="3.58307">
        <ele>1081</ele>
        <time>2017-03-04T09:46:46Z</time>
      </trkpt>
      <trkpt lat="44.29697" lon="3.58345">
        <ele>1079</ele>
        <time>2017-03-04T09:48:46Z</time>
      </trkpt>
      <trkpt lat="44.29705" lon="3.58389">
        <ele>1077</ele>
        <time>2017-03-04T09:50:46Z</time>
      </trkpt>
      <trkpt lat="44.29707" lon="3.58407">
        <ele>1076</ele>
        <time>2017-03-04T09:52:46Z</time>
      </trkpt>
      <trkpt lat="44.29707" lon="3.5842">
        <ele>1076</ele>
        <time>2017-03-04T09:54:46Z</time>
      </trkpt>
      <trkpt lat="44.29707" lon="3.58432">
        <ele>1076</ele>
        <time>2017-03-04T09:56:46Z</time>
      </trkpt>
      <trkpt lat="44.29707" lon="3.58445">
        <ele>1076</ele>
        <time>2017-03-04T09:58:46Z</time>
      </trkpt>
      <trkpt lat="44.29707" lon="3.58455">
        <ele>1075</ele>
        <time>2017-03-04T10:00:46Z</time>
      </trkpt>
      <trkpt lat="44.29709" lon="3.58468">
        <ele>1075</ele>
        <time>2017-03-04T10:02:46Z</time>
      </trkpt>
      <trkpt lat="44.29715" lon="3.58495">
        <ele>1076</ele>
        <time>2017-03-04T10:04:46Z</time>
      </trkpt>
      <trkpt lat="44.29716" lon="3.58507">
        <ele>1076</ele>
        <time>2017-03-04T10:06:46Z</time>
      </trkpt>
      <trkpt lat="44.29718" lon="3.58539">
        <ele>1077</ele>
        <time>2017-03-04T10:08:46Z</time>
      </trkpt>
      <trkpt lat="44.29718" lon="3.58551">
        <ele>1077</ele>
        <time>2017-03-04T10:10:46Z</time>
      </trkpt>
      <trkpt lat="44.29717" lon="3.5856">
        <ele>1077</ele>
        <time>2017-03-04T10:12:46Z</time>
      </trkpt>
      <trkpt lat="44.29715" lon="3.5857">
        <ele>1077</ele>
        <time>2017-03-04T10:14:46Z</time>
      </trkpt>
      <trkpt lat="44.29711" lon="3.58586">
        <ele>1077</ele>
        <time>2017-03-04T10:16:46Z</time>
      </trkpt>
      <trkpt lat="44.29707" lon="3.58607">
        <ele>1076</ele>
        <time>2017-03-04T10:18:46Z</time>
      </trkpt>
      <trkpt lat="44.29705" lon="3.58617">
        <ele>1076</ele>
        <time>2017-03-04T10:20:46Z</time>
      </trkpt>
      <trkpt lat="44.297" lon="3.58631">
        <ele>1075</ele>
        <time>2017-03-04T10:22:46Z</time>
      </trkpt>
      <trkpt lat="44.29685" lon="3.58667">
        <ele>1071</ele>
        <time>2017-03-04T10:24:46Z</time>
      </trkpt>
      <trkpt lat="44.29672" lon="3.58707">
        <ele>1066</ele>
        <time>2017-03-04T10:26:46Z</time>
      </trkpt>
      <trkpt lat="44.29665" lon="3.58733">
        <ele>1064</ele>
        <time>2017-03-04T10:28:46Z</time>
      </trkpt>
      <trkpt lat="44.29662" lon="3.58749">
        <ele>1062</ele>
        <time>2017-03-04T10:30:46Z</time>
      </trkpt>
      <trkpt lat="44.29664" lon="3.58758">
        <ele>1059</ele>
        <time>2017-03-04T10:32:46Z</time>
      </trkpt>
      <trkpt lat="44.29671" lon="3.58762">
        <ele>1057</ele>
        <time>2017-03-04T10:34:46Z</time>
      </trkpt>
      <trkpt lat="44.29686" lon="3.58758">
        <ele>1057</ele>
        <time>2017-03-04T10:36:46Z</time>
      </trkpt>
      <trkpt lat="44.29691" lon="3.58758">
        <ele>1056</ele>
        <time>2017-03-04T10:38:46Z</time>
      </trkpt>
      <trkpt lat="44.29694" lon="3.58757">
        <ele>1056</ele>
        <time>2017-03-04T10:40:46Z</time>
      </trkpt>
      <trkpt lat="44.29698" lon="3.58754">
        <ele>1057</ele>
        <time>2017-03-04T10:42:46Z</time>
      </trkpt>
      <trkpt lat="44.29719" lon="3.5875">
        <ele>1057</ele>
        <time>2017-03-04T10:44:46Z</time>
      </trkpt>
      <trkpt lat="44.29733" lon="3.58747">
        <ele>1056</ele>
        <time>2017-03-04T10:46:46Z</time>
      </trkpt>
      <trkpt lat="44.29749" lon="3.58741">
        <ele>1056</ele>
        <time>2017-03-04T10:48:46Z</time>
      </trkpt>
      <trkpt lat="44.2977" lon="3.58736">
        <ele>1057</ele>
        <time>2017-03-04T10:50:46Z</time>
      </trkpt>
      <trkpt lat="44.29787" lon="3.58736">
        <ele>1056</ele>
        <time>2017-03-04T10:52:46Z</time>
      </trkpt>
      <trkpt lat="44.29801" lon="3.58737">
        <ele>1055</ele>
        <time>2017-03-04T10:54:46Z</time>
      </trkpt>
      <trkpt lat="44.29808" lon="3.5874">
        <ele>1053</ele>
        <time>2017-03-04T10:56:46Z</time>
      </trkpt>
      <trkpt lat="44.29819" lon="3.58747">
        <ele>1051</ele>
        <time>2017-03-04T10:58:46Z</time>
      </trkpt>
      <trkpt lat="44.29833" lon="3.58759">
        <ele>1045</ele>
        <time>2017-03-04T11:00:46Z</time>
      </trkpt>
      <trkpt lat="44.29845" lon="3.58771">
        <ele>1041</ele>
        <time>2017-03-04T11:02:46Z</time>
      </trkpt>
      <trkpt lat="44.29854" lon="3.5878">
        <ele>1039</ele>
        <time>2017-03-04T11:04:46Z</time>
      </trkpt>
      <trkpt lat="44.29859" lon="3.58783">
        <ele>1039</ele>
        <time>2017-03-04T11:06:46Z</time>
      </trkpt>
      <trkpt lat="44.29863" lon="3.58785">
        <ele>1039</ele>
        <time>2017-03-04T11:08:46Z</time>
      </trkpt>
      <trkpt lat="44.29869" lon="3.58786">
        <ele>1040</ele>
        <time>2017-03-04T11:10:46Z</time>
      </trkpt>
      <trkpt lat="44.2988" lon="3.58792">
        <ele>1040</ele>
        <time>2017-03-04T11:12:46Z</time>
      </trkpt>
      <trkpt lat="44.29883" lon="3.58795">
        <ele>1039</ele>
        <time>2017-03-04T11:14:46Z</time>
      </trkpt>
      <trkpt lat="44.29893" lon="3.58808">
        <ele>1037</ele>
        <time>2017-03-04T11:16:46Z</time>
      </trkpt>
      <trkpt lat="44.29897" lon="3.58819">
        <ele>1034</ele>
        <time>2017-03-04T11:18:46Z</time>
      </trkpt>
      <trkpt lat="44.29899" lon="3.58828">
        <ele>1031</ele>
        <time>2017-03-04T11:20:46Z</time>
      </trkpt>
      <trkpt lat="44.299" lon="3.58833">
        <ele>1029</ele>
        <time>2017-03-04T11:22:46Z</time>
      </trkpt>
      <trkpt lat="44.29899" lon="3.58837">
        <ele>1027</ele>
        <time>2017-03-04T11:24:46Z</time>
      </trkpt>
      <trkpt lat="44.29903" lon="3.58845">
        <ele>1025</ele>
        <time>2017-03-04T11:26:46Z</time>
      </trkpt>
      <trkpt lat="44.29899" lon="3.58837">
        <ele>1027</ele>
        <time>2017-03-04T11:28:46Z</time>
      </trkpt>
      <trkpt lat="44.29896" lon="3.58837">
        <ele>1026</ele>
        <time>2017-03-04T11:30:46Z</time>
      </trkpt>
      <trkpt lat="44.29886" lon="3.58824">
        <ele>1029</ele>
        <time>2017-03-04T11:32:46Z</time>
      </trkpt>
      <trkpt lat="44.29877" lon="3.58817">
        <ele>1029</ele>
        <time>2017-03-04T11:34:46Z</time>
      </trkpt>
      <trkpt lat="44.2987" lon="3.58814">
        <ele>1028</ele>
        <time>2017-03-04T11:36:46Z</time>
      </trkpt>
      <trkpt lat="44.29869" lon="3.58818">
        <ele>1026</ele>
        <time>2017-03-04T11:38:46Z</time>
      </trkpt>
      <trkpt lat="44.29873" lon="3.58826">
        <ele>1024</ele>
        <time>2017-03-04T11:40:46Z</time>
      </trkpt>
      <trkpt lat="44.29877" lon="3.58838">
        <ele>1020</ele>
        <time>2017-03-04T11:42:46Z</time>
      </trkpt>
      <trkpt lat="44.29877" lon="3.58843">
        <ele>1018</ele>
        <time>2017-03-04T11:44:46Z</time>
      </trkpt>
      <trkpt lat="44.29869" lon="3.58838">
        <ele>1018</ele>
        <time>2017-03-04T11:46:46Z</time>
      </trkpt>
      <trkpt lat="44.29863" lon="3.58833">
        <ele>1018</ele>
        <time>2017-03-04T11:48:46Z</time>
      </trkpt>
      <trkpt lat="44.29854" lon="3.58833">
        <ele>1015</ele>
        <time>2017-03-04T11:50:46Z</time>
      </trkpt>
      <trkpt lat="44.29834" lon="3.58833">
        <ele>1009</ele>
        <time>2017-03-04T11:52:46Z</time>
      </trkpt>
      <trkpt lat="44.29821" lon="3.58833">
        <ele>1008</ele>
        <time>2017-03-04T11:54:46Z</time>
      </trkpt>
      <trkpt lat="44.29808" lon="3.58834">
        <ele>1007</ele>
        <time>2017-03-04T11:56:46Z</time>
      </trkpt>
      <trkpt lat="44.29801" lon="3.58836">
        <ele>1005</ele>
        <time>2017-03-04T11:58:46Z</time>
      </trkpt>
      <trkpt lat="44.29799" lon="3.5884">
        <ele>1003</ele>
        <time>2017-03-04T12:00:46Z</time>
      </trkpt>
      <trkpt lat="44.29815" lon="3.58848">
        <ele>1001</ele>
        <time>2017-03-04T12:02:46Z</time>
      </trkpt>
      <trkpt lat="44.2982" lon="3.58852">
        <ele>1000</ele>
        <time>2017-03-04T12:04:46Z</time>
      </trkpt>
      <trkpt lat="44.29829" lon="3.58863">
        <ele>996</ele>
        <time>2017-03-04T12:06:46Z</time>
      </trkpt>
      <trkpt lat="44.29838" lon="3.58873">
        <ele>993</ele>
        <time>2017-03-04T12:08:46Z</time>
      </trkpt>
      <trkpt lat="44.2984" lon="3.58877">
        <ele>992</ele>
        <time>2017-03-04T12:10:46Z</time>
      </trkpt>
      <trkpt lat="44.2984" lon="3.58881">
        <ele>991</ele>
        <time>2017-03-04T12:12:46Z</time>
      </trkpt>
      <trkpt lat="44.29824" lon="3.58877">
        <ele>989</ele>
        <time>2017-03-04T12:14:46Z</time>
      </trkpt>
      <trkpt lat="44.29815" lon="3.58877">
        <ele>988</ele>
        <time>2017-03-04T12:16:46Z</time>
      </trkpt>
      <trkpt lat="44.29801" lon="3.58881">
        <ele>984</ele>
        <time>2017-03-04T12:18:46Z</time>
      </trkpt>
      <trkpt lat="44.29791" lon="3.58886">
        <ele>980</ele>
        <time>2017-03-04T12:20:46Z</time>
      </trkpt>
      <trkpt lat="44.29778" lon="3.5889">
        <ele>976</ele>
        <time>2017-03-04T12:22:46Z</time>
      </trkpt>
      <trkpt lat="44.29763" lon="3.58894">
        <ele>972</ele>
        <time>2017-03-04T12:24:46Z</time>
      </trkpt>
      <trkpt lat="44.29756" lon="3.58895">
        <ele>970</ele>
        <time>2017-03-04T12:26:46Z</time>
      </trkpt>
      <trkpt lat="44.29749" lon="3.58892">
        <ele>971</ele>
        <time>2017-03-04T12:28:46Z</time>
      </trkpt>
      <trkpt lat="44.29741" lon="3.58891">
        <ele>973</ele>
        <time>2017-03-04T12:30:46Z</time>
      </trkpt>
      <trkpt lat="44.29735" lon="3.58892">
        <ele>973</ele>
        <time>2017-03-04T12:32:46Z</time>
      </trkpt>
      <trkpt lat="44.29729" lon="3.58896">
        <ele>972</ele>
        <time>2017-03-04T12:34:46Z</time>
      </trkpt>
      <trkpt lat="44.29725" lon="3.589">
        <ele>970</ele>
        <time>2017-03-04T12:36:46Z</time>
      </trkpt>
      <trkpt lat="44.29721" lon="3.58905">
        <ele>968</ele>
        <time>2017-03-04T12:38:46Z</time>
      </trkpt>
      <trkpt lat="44.29716" lon="3.58924">
        <ele>958</ele>
        <time>2017-03-04T12:40:46Z</time>
      </trkpt>
      <trkpt lat="44.2971" lon="3.58933">
        <ele>954</ele>
        <time>2017-03-04T12:42:46Z</time>
      </trkpt>
      <trkpt lat="44.29704" lon="3.5894">
        <ele>951</ele>
        <time>2017-03-04T12:44:46Z</time>
      </trkpt>
      <trkpt lat="44.29696" lon="3.58943">
        <ele>951</ele>
        <time>2017-03-04T12:46:46Z</time>
      </trkpt>
      <trkpt lat="44.29684" lon="3.58946">
        <ele>950</ele>
        <time>2017-03-04T12:48:46Z</time>
      </trkpt>
      <trkpt lat="44.2967" lon="3.58947">
        <ele>952</ele>
        <time>2017-03-04T12:50:46Z</time>
      </trkpt>
      <trkpt lat="44.29659" lon="3.5895">
        <ele>949</ele>
        <time>2017-03-04T12:52:46Z</time>
      </trkpt>
      <trkpt lat="44.29648" lon="3.58958">
        <ele>943</ele>
        <time>2017-03-04T12:54:46Z</time>
      </trkpt>
      <trkpt lat="44.29644" lon="3.58959">
        <ele>941</ele>
        <time>2017-03-04T12:56:46Z</time>
      </trkpt>
      <trkpt lat="44.29638" lon="3.58955">
        <ele>943</ele>
        <time>2017-03-04T12:58:46Z</time>
      </trkpt>
      <trkpt lat="44.29634" lon="3.5895">
        <ele>945</ele>
        <time>2017-03-04T13:00:46Z</time>
      </trkpt>
      <trkpt lat="44.29632" lon="3.58953">
        <ele>943</ele>
        <time>2017-03-04T13:02:46Z</time>
      </trkpt>
      <trkpt lat="44.29633" lon="3.58961">
        <ele>938</ele>
        <time>2017-03-04T13:04:46Z</time>
      </trkpt>
      <trkpt lat="44.29633" lon="3.58965">
        <ele>936</ele>
        <time>2017-03-04T13:06:46Z</time>
      </trkpt>
      <trkpt lat="44.29628" lon="3.58964">
        <ele>936</ele>
        <time>2017-03-04T13:08:46Z</time>
      </trkpt>
      <trkpt lat="44.29625" lon="3.58958">
        <ele>938</ele>
        <time>2017-03-04T13:10:46Z</time>
      </trkpt>
      <trkpt lat="44.29622" lon="3.58955">
        <ele>940</ele>
        <time>2017-03-04T13:12:46Z</time>
      </trkpt>
      <trkpt lat="44.29622" lon="3.58961">
        <ele>936</ele>
        <time>2017-03-04T13:14:46Z</time>
      </trkpt>
      <trkpt lat="44.29623" lon="3.58966">
        <ele>933</ele>
        <time>2017-03-04T13:16:46Z</time>
      </trkpt>
      <trkpt lat="44.29619" lon="3.58966">
        <ele>933</ele>
        <time>2017-03-04T13:18:46Z</time>
      </trkpt>
      <trkpt lat="44.29616" lon="3.58964">
        <ele>933</ele>
        <time>2017-03-04T13:20:46Z</time>
      </trkpt>
      <trkpt lat="44.29612" lon="3.5897">
        <ele>929</ele>
        <time>2017-03-04T13:22:46Z</time>
      </trkpt>
      <trkpt lat="44.29612" lon="3.58974">
        <ele>927</ele>
        <time>2017-03-04T13:24:46Z</time>
      </trkpt>
      <trkpt lat="44.29613" lon="3.5898">
        <ele>923</ele>
        <time>2017-03-04T13:26:46Z</time>
      </trkpt>
      <trkpt lat="44.29618" lon="3.58987">
        <ele>920</ele>
        <time>2017-03-04T13:28:46Z</time>
      </trkpt>
      <trkpt lat="44.29622" lon="3.58999">
        <ele>914</ele>
        <time>2017-03-04T13:30:46Z</time>
      </trkpt>
      <trkpt lat="44.29623" lon="3.59006">
        <ele>910</ele>
        <time>2017-03-04T13:32:46Z</time>
      </trkpt>
      <trkpt lat="44.2962" lon="3.59006">
        <ele>909</ele>
        <time>2017-03-04T13:34:46Z</time>
      </trkpt>
      <trkpt lat="44.29618" lon="3.59001">
        <ele>912</ele>
        <time>2017-03-04T13:36:46Z</time>
      </trkpt>
      <trkpt lat="44.29614" lon="3.58995">
        <ele>915</ele>
        <time>2017-03-04T13:38:46Z</time>
      </trkpt>
      <trkpt lat="44.29606" lon="3.58988">
        <ele>917</ele>
        <time>2017-03-04T13:40:46Z</time>
      </trkpt>
      <trkpt lat="44.29598" lon="3.58985">
        <ele>917</ele>
        <time>2017-03-04T13:42:46Z</time>
      </trkpt>
      <trkpt lat="44.29581" lon="3.58987">
        <ele>912</ele>
        <time>2017-03-04T13:44:46Z</time>
      </trkpt>
      <trkpt lat="44.29562" lon="3.58987">
        <ele>908</ele>
        <time>2017-03-04T13:46:46Z</time>
      </trkpt>
      <trkpt lat="44.29554" lon="3.58985">
        <ele>908</ele>
        <time>2017-03-04T13:48:46Z</time>
      </trkpt>
      <trkpt lat="44.29546" lon="3.58984">
        <ele>907</ele>
        <time>2017-03-04T13:50:46Z</time>
      </trkpt>
      <trkpt lat="44.29543" lon="3.58985">
        <ele>905</ele>
        <time>2017-03-04T13:52:46Z</time>
      </trkpt>
      <trkpt lat="44.29543" lon="3.58991">
        <ele>902</ele>
        <time>2017-03-04T13:54:46Z</time>
      </trkpt>
      <trkpt lat="44.29547" lon="3.58995">
        <ele>900</ele>
        <time>2017-03-04T13:56:46Z</time>
      </trkpt>
      <trkpt lat="44.29553" lon="3.58999">
        <ele>899</ele>
        <time>2017-03-04T13:58:46Z</time>
      </trkpt>
      <trkpt lat="44.29561" lon="3.59002">
        <ele>899</ele>
        <time>2017-03-04T14:00:46Z</time>
      </trkpt>
      <trkpt lat="44.2957" lon="3.59007">
        <ele>898</ele>
        <time>2017-03-04T14:02:46Z</time>
      </trkpt>
      <trkpt lat="44.29578" lon="3.59009">
        <ele>898</ele>
        <time>2017-03-04T14:04:46Z</time>
      </trkpt>
      <trkpt lat="44.29581" lon="3.59012">
        <ele>897</ele>
        <time>2017-03-04T14:06:46Z</time>
      </trkpt>
      <trkpt lat="44.29576" lon="3.59018">
        <ele>892</ele>
        <time>2017-03-04T14:08:46Z</time>
      </trkpt>
      <trkpt lat="44.29565" lon="3.59021">
        <ele>888</ele>
        <time>2017-03-04T14:10:46Z</time>
      </trkpt>
      <trkpt lat="44.29553" lon="3.5902">
        <ele>886</ele>
        <time>2017-03-04T14:12:46Z</time>
      </trkpt>
      <trkpt lat="44.29544" lon="3.59018">
        <ele>885</ele>
        <time>2017-03-04T14:14:46Z</time>
      </trkpt>
      <trkpt lat="44.29537" lon="3.5902">
        <ele>882</ele>
        <time>2017-03-04T14:16:46Z</time>
      </trkpt>
      <trkpt lat="44.29525" lon="3.59024">
        <ele>878</ele>
        <time>2017-03-04T14:18:46Z</time>
      </trkpt>
      <trkpt lat="44.29515" lon="3.5903">
        <ele>872</ele>
        <time>2017-03-04T14:20:46Z</time>
      </trkpt>
      <trkpt lat="44.29508" lon="3.59036">
        <ele>867</ele>
        <time>2017-03-04T14:22:46Z</time>
      </trkpt>
      <trkpt lat="44.29498" lon="3.59038">
        <ele>864</ele>
        <time>2017-03-04T14:24:46Z</time>
      </trkpt>
      <trkpt lat="44.29488" lon="3.5904">
        <ele>861</ele>
        <time>2017-03-04T14:26:46Z</time>
      </trkpt>
      <trkpt lat="44.29477" lon="3.5904">
        <ele>859</ele>
        <time>2017-03-04T14:28:46Z</time>
      </trkpt>
      <trkpt lat="44.29465" lon="3.59041">
        <ele>857</ele>
        <time>2017-03-04T14:30:46Z</time>
      </trkpt>
      <trkpt lat="44.29447" lon="3.59045">
        <ele>852</ele>
        <time>2017-03-04T14:32:46Z</time>
      </trkpt>
      <trkpt lat="44.29431" lon="3.59052">
        <ele>846</ele>
        <time>2017-03-04T14:34:46Z</time>
      </trkpt>
      <trkpt lat="44.29414" lon="3.59054">
        <ele>842</ele>
        <time>2017-03-04T14:36:46Z</time>
      </trkpt>
      <trkpt lat="44.2939" lon="3.59059">
        <ele>833</ele>
        <time>2017-03-04T14:38:46Z</time>
      </trkpt>
      <trkpt lat="44.29389" lon="3.5906">
        <ele>832</ele>
        <time>2017-03-04T14:40:46Z</time>
      </trkpt>
      <trkpt lat="44.29388" lon="3.59063">
        <ele>830</ele>
        <time>2017-03-04T14:42:46Z</time>
      </trkpt>
      <trkpt lat="44.2939" lon="3.59069">
        <ele>828</ele>
        <time>2017-03-04T14:44:46Z</time>
      </trkpt>
      <trkpt lat="44.29392" lon="3.59073">
        <ele>827</ele>
        <time>2017-03-04T14:46:46Z</time>
      </trkpt>
      <trkpt lat="44.29396" lon="3.59075">
        <ele>827</ele>
        <time>2017-03-04T14:48:46Z</time>
      </trkpt>
      <trkpt lat="44.29402" lon="3.59078">
        <ele>827</ele>
        <time>2017-03-04T14:50:46Z</time>
      </trkpt>
      <trkpt lat="44.29413" lon="3.59081">
        <ele>828</ele>
        <time>2017-03-04T14:52:46Z</time>
      </trkpt>
      <trkpt lat="44.29416" lon="3.59083">
        <ele>828</ele>
        <time>2017-03-04T14:54:46Z</time>
      </trkpt>
      <trkpt lat="44.29414" lon="3.59087">
        <ele>827</ele>
        <time>2017-03-04T14:56:46Z</time>
      </trkpt>
      <trkpt lat="44.29409" lon="3.5909">
        <ele>825</ele>
        <time>2017-03-04T14:58:46Z</time>
      </trkpt>
      <trkpt lat="44.29396" lon="3.59095">
        <ele>821</ele>
        <time>2017-03-04T15:00:46Z</time>
      </trkpt>
      <trkpt lat="44.29386" lon="3.59098">
        <ele>819</ele>
        <time>2017-03-04T15:02:46Z</time>
      </trkpt>
      <trkpt lat="44.29392" lon="3.59103">
        <ele>819</ele>
        <time>2017-03-04T15:04:46Z</time>
      </trkpt>
      <trkpt lat="44.29402" lon="3.59107">
        <ele>820</ele>
        <time>2017-03-04T15:06:46Z</time>
      </trkpt>
      <trkpt lat="44.29406" lon="3.59111">
        <ele>820</ele>
        <time>2017-03-04T15:08:46Z</time>
      </trkpt>
      <trkpt lat="44.29421" lon="3.59126">
        <ele>818</ele>
        <time>2017-03-04T15:10:46Z</time>
      </trkpt>
      <trkpt lat="44.2944" lon="3.5915">
        <ele>812</ele>
        <time>2017-03-04T15:12:46Z</time>
      </trkpt>
      <trkpt lat="44.29446" lon="3.59161">
        <ele>809</ele>
        <time>2017-03-04T15:14:46Z</time>
      </trkpt>
      <trkpt lat="44.29455" lon="3.59178">
        <ele>804</ele>
        <time>2017-03-04T15:16:46Z</time>
      </trkpt>
      <trkpt lat="44.29473" lon="3.59175">
        <ele>804</ele>
        <time>2017-03-04T15:18:46Z</time>
      </trkpt>
      <trkpt lat="44.29482" lon="3.59172">
        <ele>804</ele>
        <time>2017-03-04T15:20:46Z</time>
      </trkpt>
      <trkpt lat="44.29487" lon="3.5917">
        <ele>804</ele>
        <time>2017-03-04T15:22:46Z</time>
      </trkpt>
      <trkpt lat="44.29513" lon="3.59146">
        <ele>815</ele>
        <time>2017-03-04T15:24:46Z</time>
      </trkpt>
      <trkpt lat="44.29523" lon="3.59137">
        <ele>820</ele>
        <time>2017-03-04T15:26:46Z</time>
      </trkpt>
      <trkpt lat="44.29528" lon="3.59135">
        <ele>821</ele>
        <time>2017-03-04T15:28:46Z</time>
      </trkpt>
      <trkpt lat="44.29537" lon="3.59137">
        <ele>822</ele>
        <time>2017-03-04T15:30:46Z</time>
      </trkpt>
      <trkpt lat="44.29546" lon="3.5914">
        <ele>822</ele>
        <time>2017-03-04T15:32:46Z</time>
      </trkpt>
      <trkpt lat="44.2956" lon="3.59153">
        <ele>818</ele>
        <time>2017-03-04T15:34:46Z</time>
      </trkpt>
      <trkpt lat="44.29583" lon="3.59178">
        <ele>810</ele>
        <time>2017-03-04T15:36:46Z</time>
      </trkpt>
      <trkpt lat="44.29598" lon="3.59198">
        <ele>803</ele>
        <time>2017-03-04T15:38:46Z</time>
      </trkpt>
      <trkpt lat="44.29606" lon="3.59206">
        <ele>800</ele>
        <time>2017-03-04T15:40:46Z</time>
      </trkpt>
      <trkpt lat="44.29611" lon="3.59211">
        <ele>798</ele>
        <time>2017-03-04T15:42:46Z</time>
      </trkpt>
      <trkpt lat="44.29618" lon="3.59213">
        <ele>798</ele>
        <time>2017-03-04T15:44:46Z</time>
      </trkpt>
      <trkpt lat="44.29632" lon="3.59213">
        <ele>798</ele>
        <time>2017-03-04T15:46:46Z</time>
      </trkpt>
      <trkpt lat="44.2965" lon="3.59208">
        <ele>801</ele>
        <time>2017-03-04T15:48:46Z</time>
      </trkpt>
      <trkpt lat="44.29668" lon="3.59202">
        <ele>804</ele>
        <time>2017-03-04T15:50:46Z</time>
      </trkpt>
      <trkpt lat="44.29694" lon="3.59196">
        <ele>806</ele>
        <time>2017-03-04T15:52:46Z</time>
      </trkpt>
      <trkpt lat="44.29704" lon="3.59198">
        <ele>806</ele>
        <time>2017-03-04T15:54:46Z</time>
      </trkpt>
      <trkpt lat="44.29713" lon="3.59201">
        <ele>805</ele>
        <time>2017-03-04T15:56:46Z</time>
      </trkpt>
      <trkpt lat="44.29744" lon="3.59224">
        <ele>797</ele>
        <time>2017-03-04T15:58:46Z</time>
      </trkpt>
      <trkpt lat="44.29761" lon="3.59241">
        <ele>795</ele>
        <time>2017-03-04T16:00:46Z</time>
      </trkpt>
      <trkpt lat="44.29778" lon="3.59256">
        <ele>798</ele>
        <time>2017-03-04T16:02:46Z</time>
      </trkpt>
      <trkpt lat="44.29787" lon="3.59267">
        <ele>799</ele>
        <time>2017-03-04T16:04:46Z</time>
      </trkpt>
      <trkpt lat="44.29795" lon="3.59273">
        <ele>800</ele>
        <time>2017-03-04T16:06:46Z</time>
      </trkpt>
      <trkpt lat="44.29807" lon="3.59282">
        <ele>802</ele>
        <time>2017-03-04T16:08:46Z</time>
      </trkpt>
      <trkpt lat="44.29811" lon="3.59288">
        <ele>802</ele>
        <time>2017-03-04T16:10:46Z</time>
      </trkpt>
      <trkpt lat="44.29816" lon="3.59301">
        <ele>800</ele>
        <time>2017-03-04T16:12:46Z</time>
      </trkpt>
      <trkpt lat="44.29824" lon="3.59317">
        <ele>798</ele>
        <time>2017-03-04T16:14:46Z</time>
      </trkpt>
      <trkpt lat="44.29837" lon="3.59339">
        <ele>796</ele>
        <time>2017-03-04T16:16:46Z</time>
      </trkpt>
      <trkpt lat="44.29847" lon="3.5936">
        <ele>792</ele>
        <time>2017-03-04T16:18:46Z</time>
      </trkpt>
      <trkpt lat="44.29851" lon="3.59367">
        <ele>791</ele>
        <time>2017-03-04T16:20:46Z</time>
      </trkpt>
      <trkpt lat="44.29877" lon="3.59395">
        <ele>788</ele>
        <time>2017-03-04T16:22:46Z</time>
      </trkpt>
      <trkpt lat="44.29884" lon="3.59401">
        <ele>788</ele>
        <time>2017-03-04T16:24:46Z</time>
      </trkpt>
      <trkpt lat="44.29891" lon="3.59405">
        <ele>787</ele>
        <time>2017-03-04T16:26:46Z</time>
      </trkpt>
      <trkpt lat="44.299" lon="3.59407">
        <ele>788</ele>
        <time>2017-03-04T16:28:46Z</time>
      </trkpt>
      <trkpt lat="44.2993" lon="3.59406">
        <ele>790</ele>
        <time>2017-03-04T16:30:46Z</time>
      </trkpt>
      <trkpt lat="44.29944" lon="3.59407">
        <ele>789</ele>
        <time>2017-03-04T16:32:46Z</time>
      </trkpt>
      <trkpt lat="44.29956" lon="3.59408">
        <ele>788</ele>
        <time>2017-03-04T16:34:46Z</time>
      </trkpt>
      <trkpt lat="44.29971" lon="3.59414">
        <ele>785</ele>
        <time>2017-03-04T16:36:46Z</time>
      </trkpt>
      <trkpt lat="44.29988" lon="3.59419">
        <ele>782</ele>
        <time>2017-03-04T16:38:46Z</time>
      </trkpt>
      <trkpt lat="44.29996" lon="3.5942">
        <ele>782</ele>
        <time>2017-03-04T16:40:46Z</time>
      </trkpt>
      <trkpt lat="44.30003" lon="3.59419">
        <ele>781</ele>
        <time>2017-03-04T16:42:46Z</time>
      </trkpt>
      <trkpt lat="44.30013" lon="3.59414">
        <ele>781</ele>
        <time>2017-03-04T16:44:46Z</time>
      </trkpt>
      <trkpt lat="44.30024" lon="3.59407">
        <ele>782</ele>
        <time>2017-03-04T16:46:46Z</time>
      </trkpt>
      <trkpt lat="44.30071" lon="3.59378">
        <ele>783</ele>
        <time>2017-03-04T16:48:46Z</time>
      </trkpt>
      <trkpt lat="44.30083" lon="3.59366">
        <ele>783</ele>
        <time>2017-03-04T16:50:46Z</time>
      </trkpt>
      <trkpt lat="44.30091" lon="3.59358">
        <ele>782</ele>
        <time>2017-03-04T16:52:46Z</time>
      </trkpt>
      <trkpt lat="44.30099" lon="3.59348">
        <ele>782</ele>
        <time>2017-03-04T16:54:46Z</time>
      </trkpt>
      <trkpt lat="44.30105" lon="3.59338">
        <ele>782</ele>
        <time>2017-03-04T16:56:46Z</time>
      </trkpt>
      <trkpt lat="44.30109" lon="3.5933">
        <ele>782</ele>
        <time>2017-03-04T16:58:46Z</time>
      </trkpt>
      <trkpt lat="44.30114" lon="3.59313">
        <ele>783</ele>
        <time>2017-03-04T17:00:46Z</time>
      </trkpt>
      <trkpt lat="44.30118" lon="3.593">
        <ele>784</ele>
        <time>2017-03-04T17:02:46Z</time>
      </trkpt>
      <trkpt lat="44.30123" lon="3.59293">
        <ele>782</ele>
        <time>2017-03-04T17:04:46Z</time>
      </trkpt>
      <trkpt lat="44.30126" lon="3.59285">
        <ele>782</ele>
        <time>2017-03-04T17:06:46Z</time>
      </trkpt>
      <trkpt lat="44.30127" lon="3.59266">
        <ele>785</ele>
        <time>2017-03-04T17:08:46Z</time>
      </trkpt>
      <trkpt lat="44.30127" lon="3.59253">
        <ele>787</ele>
        <time>2017-03-04T17:10:46Z</time>
      </trkpt>
      <trkpt lat="44.30127" lon="3.59246">
        <ele>788</ele>
        <time>2017-03-04T17:12:46Z</time>
      </trkpt>
      <trkpt lat="44.30129" lon="3.5924">
        <ele>788</ele>
        <time>2017-03-04T17:14:46Z</time>
      </trkpt>
      <trkpt lat="44.30132" lon="3.59234">
        <ele>788</ele>
        <time>2017-03-04T17:16:46Z</time>
      </trkpt>
      <trkpt lat="44.30138" lon="3.59229">
        <ele>785</ele>
        <time>2017-03-04T17:18:46Z</time>
      </trkpt>
      <trkpt lat="44.30145" lon="3.59224">
        <ele>782</ele>
        <time>2017-03-04T17:20:46Z</time>
      </trkpt>
      <trkpt lat="44.30151" lon="3.59213">
        <ele>781</ele>
        <time>2017-03-04T17:22:46Z</time>
      </trkpt>
      <trkpt lat="44.30157" lon="3.59206">
        <ele>779</ele>
        <time>2017-03-04T17:24:46Z</time>
      </trkpt>
      <trkpt lat="44.30164" lon="3.592">
        <ele>776</ele>
        <time>2017-03-04T17:26:46Z</time>
      </trkpt>
      <trkpt lat="44.30171" lon="3.59193">
        <ele>775</ele>
        <time>2017-03-04T17:28:46Z</time>
      </trkpt>
      <trkpt lat="44.30187" lon="3.59178">
        <ele>773</ele>
        <time>2017-03-04T17:30:46Z</time>
      </trkpt>
      <trkpt lat="44.30199" lon="3.59167">
        <ele>773</ele>
        <time>2017-03-04T17:32:46Z</time>
      </trkpt>
      <trkpt lat="44.30206" lon="3.59163">
        <ele>772</ele>
        <time>2017-03-04T17:34:46Z</time>
      </trkpt>
      <trkpt lat="44.30214" lon="3.59161">
        <ele>771</ele>
        <time>2017-03-04T17:36:46Z</time>
      </trkpt>
      <trkpt lat="44.30224" lon="3.59159">
        <ele>769</ele>
        <time>2017-03-04T17:38:46Z</time>
      </trkpt>
      <trkpt lat="44.3024" lon="3.59159">
        <ele>764</ele>
        <time>2017-03-04T17:40:46Z</time>
      </trkpt>
      <trkpt lat="44.30257" lon="3.5916">
        <ele>759</ele>
        <time>2017-03-04T17:42:46Z</time>
      </trkpt>
      <trkpt lat="44.30267" lon="3.59159">
        <ele>756</ele>
        <time>2017-03-04T17:44:46Z</time>
      </trkpt>
      <trkpt lat="44.30272" lon="3.59156">
        <ele>756</ele>
        <time>2017-03-04T17:46:46Z</time>
      </trkpt>
      <trkpt lat="44.3028" lon="3.59149">
        <ele>756</ele>
        <time>2017-03-04T17:48:46Z</time>
      </trkpt>
      <trkpt lat="44.30304" lon="3.5912">
        <ele>757</ele>
        <time>2017-03-04T17:50:46Z</time>
      </trkpt>
      <trkpt lat="44.30317" lon="3.59108">
        <ele>755</ele>
        <time>2017-03-04T17:52:46Z</time>
      </trkpt>
      <trkpt lat="44.30334" lon="3.59091">
        <ele>753</ele>
        <time>2017-03-04T17:54:46Z</time>
      </trkpt>
      <trkpt lat="44.30349" lon="3.59075">
        <ele>754</ele>
        <time>2017-03-04T17:56:46Z</time>
      </trkpt>
      <trkpt lat="44.30362" lon="3.59065">
        <ele>753</ele>
        <time>2017-03-04T17:58:46Z</time>
      </trkpt>
      <trkpt lat="44.30387" lon="3.59042">
        <ele>754</ele>
        <time>2017-03-04T18:00:46Z</time>
      </trkpt>
      <trkpt lat="44.30399" lon="3.59029">
        <ele>755</ele>
        <time>2017-03-04T18:02:46Z</time>
      </trkpt>
      <trkpt lat="44.30404" lon="3.59025">
        <ele>755</ele>
        <time>2017-03-04T18:04:46Z</time>
      </trkpt>
      <trkpt lat="44.30413" lon="3.59022">
        <ele>754</ele>
        <time>2017-03-04T18:06:46Z</time>
      </trkpt>
      <trkpt lat="44.30421" lon="3.5902">
        <ele>755</ele>
        <time>2017-03-04T18:08:46Z</time>
      </trkpt>
      <trkpt lat="44.30429" lon="3.5902">
        <ele>756</ele>
        <time>2017-03-04T18:10:46Z</time>
      </trkpt>
      <trkpt lat="44.30439" lon="3.59023">
        <ele>757</ele>
        <time>2017-03-04T18:12:46Z</time>
      </trkpt>
      <trkpt lat="44.30443" lon="3.59024">
        <ele>757</ele>
        <time>2017-03-04T18:14:46Z</time>
      </trkpt>
      <trkpt lat="44.3045" lon="3.5903">
        <ele>756</ele>
        <time>2017-03-04T18:16:46Z</time>
      </trkpt>
      <trkpt lat="44.30456" lon="3.59034">
        <ele>756</ele>
        <time>2017-03-04T18:18:46Z</time>
      </trkpt>
      <trkpt lat="44.30464" lon="3.59037">
        <ele>756</ele>
        <time>2017-03-04T18:20:46Z</time>
      </trkpt>
      <trkpt lat="44.30465" lon="3.59032">
        <ele>758</ele>
        <time>2017-03-04T18:22:46Z</time>
      </trkpt>
      <trkpt lat="44.30464" lon="3.59037">
        <ele>756</ele>
        <time>2017-03-04T18:24:46Z</time>
      </trkpt>
      <trkpt lat="44.30456" lon="3.59034">
        <ele>756</ele>
        <time>2017-03-04T18:26:46Z</time>
      </trkpt>
      <trkpt lat="44.3045" lon="3.5903">
        <ele>756</ele>
        <time>2017-03-04T18:28:46Z</time>
      </trkpt>
      <trkpt lat="44.30443" lon="3.59024">
        <ele>757</ele>
        <time>2017-03-04T18:30:46Z</time>
      </trkpt>
      <trkpt lat="44.30439" lon="3.59023">
        <ele>757</ele>
        <time>2017-03-04T18:32:46Z</time>
      </trkpt>
      <trkpt lat="44.30443" lon="3.59025">
        <ele>757</ele>
        <time>2017-03-04T18:34:46Z</time>
      </trkpt>
      <trkpt lat="44.3045" lon="3.59034">
        <ele>755</ele>
        <time>2017-03-04T18:36:46Z</time>
      </trkpt>
      <trkpt lat="44.30456" lon="3.59037">
        <ele>755</ele>
        <time>2017-03-04T18:38:46Z</time>
      </trkpt>
      <trkpt lat="44.30459" lon="3.59037">
        <ele>755</ele>
        <time>2017-03-04T18:40:46Z</time>
      </trkpt>
      <trkpt lat="44.30463" lon="3.5904">
        <ele>755</ele>
        <time>2017-03-04T18:42:46Z</time>
      </trkpt>
      <trkpt lat="44.30467" lon="3.59043">
        <ele>755</ele>
        <time>2017-03-04T18:44:46Z</time>
      </trkpt>
      <trkpt lat="44.3047" lon="3.59046">
        <ele>754</ele>
        <time>2017-03-04T18:46:46Z</time>
      </trkpt>
      <trkpt lat="44.30472" lon="3.59051">
        <ele>753</ele>
        <time>2017-03-04T18:48:46Z</time>
      </trkpt>
      <trkpt lat="44.30478" lon="3.59056">
        <ele>752</ele>
        <time>2017-03-04T18:50:46Z</time>
      </trkpt>
      <trkpt lat="44.30483" lon="3.59059">
        <ele>752</ele>
        <time>2017-03-04T18:52:46Z</time>
      </trkpt>
      <trkpt lat="44.30484" lon="3.59062">
        <ele>751</ele>
        <time>2017-03-04T18:54:46Z</time>
      </trkpt>
      <trkpt lat="44.30484" lon="3.59067">
        <ele>750</ele>
        <time>2017-03-04T18:56:46Z</time>
      </trkpt>
      <trkpt lat="44.30486" lon="3.59073">
        <ele>748</ele>
        <time>2017-03-04T18:58:46Z</time>
      </trkpt>
      <trkpt lat="44.30493" lon="3.59086">
        <ele>745</ele>
        <time>2017-03-04T19:00:46Z</time>
      </trkpt>
      <trkpt lat="44.30499" lon="3.59093">
        <ele>744</ele>
        <time>2017-03-04T19:02:46Z</time>
      </trkpt>
      <trkpt lat="44.30507" lon="3.59102">
        <ele>745</ele>
        <time>2017-03-04T19:04:46Z</time>
      </trkpt>
      <trkpt lat="44.30512" lon="3.5911">
        <ele>745</ele>
        <time>2017-03-04T19:06:46Z</time>
      </trkpt>
      <trkpt lat="44.30521" lon="3.59119">
        <ele>746</ele>
        <time>2017-03-04T19:08:46Z</time>
      </trkpt>
      <trkpt lat="44.30526" lon="3.59124">
        <ele>747</ele>
        <time>2017-03-04T19:10:46Z</time>
      </trkpt>
      <trkpt lat="44.30528" lon="3.5913">
        <ele>746</ele>
        <time>2017-03-04T19:12:46Z</time>
      </trkpt>
      <trkpt lat="44.30534" lon="3.5915">
        <ele>742</ele>
        <time>2017-03-04T19:14:46Z</time>
      </trkpt>
      <trkpt lat="44.30541" lon="3.5916">
        <ele>742</ele>
        <time>2017-03-04T19:16:46Z</time>
      </trkpt>
      <trkpt lat="44.30546" lon="3.5917">
        <ele>741</ele>
        <time>2017-03-04T19:18:46Z</time>
      </trkpt>
      <trkpt lat="44.30556" lon="3.59189">
        <ele>741</ele>
        <time>2017-03-04T19:20:46Z</time>
      </trkpt>
      <trkpt lat="44.30566" lon="3.59201">
        <ele>742</ele>
        <time>2017-03-04T19:22:46Z</time>
      </trkpt>
      <trkpt lat="44.3057" lon="3.59209">
        <ele>742</ele>
        <time>2017-03-04T19:24:46Z</time>
      </trkpt>
      <trkpt lat="44.30573" lon="3.59206">
        <ele>744</ele>
        <time>2017-03-04T19:26:46Z</time>
      </trkpt>
      <trkpt lat="44.3057" lon="3.59209">
        <ele>742</ele>
        <time>2017-03-04T19:28:46Z</time>
      </trkpt>
      <trkpt lat="44.3058" lon="3.59221">
        <ele>744</ele>
        <time>2017-03-04T19:30:46Z</time>
      </trkpt>
      <trkpt lat="44.30596" lon="3.59244">
        <ele>743</ele>
        <time>2017-03-04T19:32:46Z</time>
      </trkpt>
      <trkpt lat="44.30599" lon="3.59249">
        <ele>742</ele>
        <time>2017-03-04T19:34:46Z</time>
      </trkpt>
      <trkpt lat="44.30605" lon="3.5926">
        <ele>741</ele>
        <time>2017-03-04T19:36:46Z</time>
      </trkpt>
      <trkpt lat="44.30616" lon="3.59279">
        <ele>739</ele>
        <time>2017-03-04T19:38:46Z</time>
      </trkpt>
      <trkpt lat="44.30628" lon="3.593">
        <ele>737</ele>
        <time>2017-03-04T19:40:46Z</time>
      </trkpt>
      <trkpt lat="44.3064" lon="3.59321">
        <ele>735</ele>
        <time>2017-03-04T19:42:46Z</time>
      </trkpt>
      <trkpt lat="44.30642" lon="3.59322">
        <ele>735</ele>
        <time>2017-03-04T19:44:46Z</time>
      </trkpt>
      <trkpt lat="44.30649" lon="3.59323">
        <ele>737</ele>
        <time>2017-03-04T19:46:46Z</time>
      </trkpt>
      <trkpt lat="44.30678" lon="3.59316">
        <ele>742</ele>
        <time>2017-03-04T19:48:46Z</time>
      </trkpt>
      <trkpt lat="44.30691" lon="3.59311">
        <ele>742</ele>
        <time>2017-03-04T19:50:46Z</time>
      </trkpt>
      <trkpt lat="44.307" lon="3.59309">
        <ele>742</ele>
        <time>2017-03-04T19:52:46Z</time>
      </trkpt>
      <trkpt lat="44.30712" lon="3.59309">
        <ele>741</ele>
        <time>2017-03-04T19:54:46Z</time>
      </trkpt>
      <trkpt lat="44.30749" lon="3.59309">
        <ele>738</ele>
        <time>2017-03-04T19:56:46Z</time>
      </trkpt>
      <trkpt lat="44.30775" lon="3.59312">
        <ele>731</ele>
        <time>2017-03-04T19:58:46Z</time>
      </trkpt>
      <trkpt lat="44.30808" lon="3.59318">
        <ele>722</ele>
        <time>2017-03-04T20:00:46Z</time>
      </trkpt>
      <trkpt lat="44.30817" lon="3.59317">
        <ele>720</ele>
        <time>2017-03-04T20:02:46Z</time>
      </trkpt>
      <trkpt lat="44.3082" lon="3.59315">
        <ele>720</ele>
        <time>2017-03-04T20:04:46Z</time>
      </trkpt>
      <trkpt lat="44.30823" lon="3.59316">
        <ele>719</ele>
        <time>2017-03-04T20:06:46Z</time>
      </trkpt>
      <trkpt lat="44.30822" lon="3.5932">
        <ele>718</ele>
        <time>2017-03-04T20:08:46Z</time>
      </trkpt>
      <trkpt lat="44.30818" lon="3.59327">
        <ele>718</ele>
        <time>2017-03-04T20:10:46Z</time>
      </trkpt>
      <trkpt lat="44.30812" lon="3.59334">
        <ele>718</ele>
        <time>2017-03-04T20:12:46Z</time>
      </trkpt>
      <trkpt lat="44.30808" lon="3.59338">
        <ele>718</ele>
        <time>2017-03-04T20:14:46Z</time>
      </trkpt>
      <trkpt lat="44.308" lon="3.59339">
        <ele>720</ele>
        <time>2017-03-04T20:16:46Z</time>
      </trkpt>
      <trkpt lat="44.30798" lon="3.59343">
        <ele>719</ele>
        <time>2017-03-04T20:18:46Z</time>
      </trkpt>
      <trkpt lat="44.30804" lon="3.59346">
        <ele>717</ele>
        <time>2017-03-04T20:20:46Z</time>
      </trkpt>
      <trkpt lat="44.30829" lon="3.59343">
        <ele>713</ele>
        <time>2017-03-04T20:22:46Z</time>
      </trkpt>
      <trkpt lat="44.30835" lon="3.59339">
        <ele>712</ele>
        <time>2017-03-04T20:24:46Z</time>
      </trkpt>
      <trkpt lat="44.30841" lon="3.59336">
        <ele>710</ele>
        <time>2017-03-04T20:26:46Z</time>
      </trkpt>
      <trkpt lat="44.30846" lon="3.59332">
        <ele>709</ele>
        <time>2017-03-04T20:28:46Z</time>
      </trkpt>
      <trkpt lat="44.30848" lon="3.59331">
        <ele>708</ele>
        <time>2017-03-04T20:30:46Z</time>
      </trkpt>
      <trkpt lat="44.3085" lon="3.59336">
        <ele>706</ele>
        <time>2017-03-04T20:32:46Z</time>
      </trkpt>
      <trkpt lat="44.3085" lon="3.59341">
        <ele>705</ele>
        <time>2017-03-04T20:34:46Z</time>
      </trkpt>
      <trkpt lat="44.30849" lon="3.59349">
        <ele>704</ele>
        <time>2017-03-04T20:36:46Z</time>
      </trkpt>
      <trkpt lat="44.30848" lon="3.59358">
        <ele>703</ele>
        <time>2017-03-04T20:38:46Z</time>
      </trkpt>
      <trkpt lat="44.30845" lon="3.59365">
        <ele>703</ele>
        <time>2017-03-04T20:40:46Z</time>
      </trkpt>
      <trkpt lat="44.30841" lon="3.59372">
        <ele>703</ele>
        <time>2017-03-04T20:42:46Z</time>
      </trkpt>
      <trkpt lat="44.30835" lon="3.59379">
        <ele>704</ele>
        <time>2017-03-04T20:44:46Z</time>
      </trkpt>
      <trkpt lat="44.30822" lon="3.59388">
        <ele>704</ele>
        <time>2017-03-04T20:46:46Z</time>
      </trkpt>
      <trkpt lat="44.30802" lon="3.59398">
        <ele>703</ele>
        <time>2017-03-04T20:48:46Z</time>
      </trkpt>
      <trkpt lat="44.30798" lon="3.594">
        <ele>703</ele>
        <time>2017-03-04T20:50:46Z</time>
      </trkpt>
      <trkpt lat="44.30796" lon="3.59403">
        <ele>702</ele>
        <time>2017-03-04T20:52:46Z</time>
      </trkpt>
      <trkpt lat="44.30805" lon="3.59408">
        <ele>700</ele>
        <time>2017-03-04T20:54:46Z</time>
      </trkpt>
      <trkpt lat="44.30822" lon="3.59412">
        <ele>698</ele>
        <time>2017-03-04T20:56:46Z</time>
      </trkpt>
      <trkpt lat="44.30832" lon="3.59411">
        <ele>698</ele>
        <time>2017-03-04T20:58:46Z</time>
      </trkpt>
      <trkpt lat="44.30848" lon="3.59407">
        <ele>693</ele>
        <time>2017-03-04T21:00:46Z</time>
      </trkpt>
      <trkpt lat="44.30875" lon="3.59393">
        <ele>685</ele>
        <time>2017-03-04T21:02:46Z</time>
      </trkpt>
      <trkpt lat="44.30884" lon="3.5939">
        <ele>682</ele>
        <time>2017-03-04T21:04:46Z</time>
      </trkpt>
      <trkpt lat="44.3089" lon="3.59384">
        <ele>681</ele>
        <time>2017-03-04T21:06:46Z</time>
      </trkpt>
      <trkpt lat="44.30892" lon="3.59388">
        <ele>679</ele>
        <time>2017-03-04T21:08:46Z</time>
      </trkpt>
      <trkpt lat="44.30889" lon="3.59398">
        <ele>679</ele>
        <time>2017-03-04T21:10:46Z</time>
      </trkpt>
      <trkpt lat="44.30884" lon="3.59405">
        <ele>679</ele>
        <time>2017-03-04T21:12:46Z</time>
      </trkpt>
      <trkpt lat="44.30878" lon="3.59413">
        <ele>680</ele>
        <time>2017-03-04T21:14:46Z</time>
      </trkpt>
      <trkpt lat="44.30866" lon="3.59423">
        <ele>682</ele>
        <time>2017-03-04T21:16:46Z</time>
      </trkpt>
      <trkpt lat="44.30866" lon="3.59428">
        <ele>680</ele>
        <time>2017-03-04T21:18:46Z</time>
      </trkpt>
      <trkpt lat="44.30871" lon="3.59428">
        <ele>678</ele>
        <time>2017-03-04T21:20:46Z</time>
      </trkpt>
      <trkpt lat="44.3088" lon="3.59422">
        <ele>677</ele>
        <time>2017-03-04T21:22:46Z</time>
      </trkpt>
      <trkpt lat="44.30893" lon="3.59415">
        <ele>674</ele>
        <time>2017-03-04T21:24:46Z</time>
      </trkpt>
      <trkpt lat="44.30904" lon="3.59405">
        <ele>672</ele>
        <time>2017-03-04T21:26:46Z</time>
      </trkpt>
      <trkpt lat="44.30909" lon="3.59398">
        <ele>671</ele>
        <time>2017-03-04T21:28:46Z</time>
      </trkpt>
      <trkpt lat="44.30912" lon="3.59391">
        <ele>671</ele>
        <time>2017-03-04T21:30:46Z</time>
      </trkpt>
      <trkpt lat="44.30914" lon="3.59383">
        <ele>671</ele>
        <time>2017-03-04T21:32:46Z</time>
      </trkpt>
      <trkpt lat="44.30916" lon="3.59374">
        <ele>671</ele>
        <time>2017-03-04T21:34:46Z</time>
      </trkpt>
      <trkpt lat="44.3092" lon="3.59375">
        <ele>670</ele>
        <time>2017-03-04T21:36:46Z</time>
      </trkpt>
      <trkpt lat="44.30919" lon="3.59395">
        <ele>667</ele>
        <time>2017-03-04T21:38:46Z</time>
      </trkpt>
      <trkpt lat="44.30918" lon="3.59422">
        <ele>663</ele>
        <time>2017-03-04T21:40:46Z</time>
      </trkpt>
      <trkpt lat="44.30916" lon="3.59428">
        <ele>662</ele>
        <time>2017-03-04T21:42:46Z</time>
      </trkpt>
      <trkpt lat="44.30915" lon="3.59433">
        <ele>661</ele>
        <time>2017-03-04T21:44:46Z</time>
      </trkpt>
      <trkpt lat="44.30908" lon="3.59443">
        <ele>661</ele>
        <time>2017-03-04T21:46:46Z</time>
      </trkpt>
      <trkpt lat="44.30913" lon="3.59446">
        <ele>658</ele>
        <time>2017-03-04T21:48:46Z</time>
      </trkpt>
      <trkpt lat="44.30919" lon="3.59443">
        <ele>657</ele>
        <time>2017-03-04T21:50:46Z</time>
      </trkpt>
      <trkpt lat="44.30929" lon="3.59435">
        <ele>655</ele>
        <time>2017-03-04T21:52:46Z</time>
      </trkpt>
      <trkpt lat="44.30947" lon="3.59406">
        <ele>654</ele>
        <time>2017-03-04T21:54:46Z</time>
      </trkpt>
      <trkpt lat="44.30952" lon="3.59396">
        <ele>654</ele>
        <time>2017-03-04T21:56:46Z</time>
      </trkpt>
      <trkpt lat="44.30957" lon="3.59384">
        <ele>654</ele>
        <time>2017-03-04T21:58:46Z</time>
      </trkpt>
      <trkpt lat="44.30962" lon="3.5937">
        <ele>654</ele>
        <time>2017-03-04T22:00:46Z</time>
      </trkpt>
      <trkpt lat="44.30966" lon="3.59344">
        <ele>657</ele>
        <time>2017-03-04T22:02:46Z</time>
      </trkpt>
      <trkpt lat="44.30967" lon="3.59337">
        <ele>658</ele>
        <time>2017-03-04T22:04:46Z</time>
      </trkpt>
      <trkpt lat="44.30969" lon="3.59332">
        <ele>658</ele>
        <time>2017-03-04T22:06:46Z</time>
      </trkpt>
      <trkpt lat="44.30972" lon="3.59324">
        <ele>659</ele>
        <time>2017-03-04T22:08:46Z</time>
      </trkpt>
      <trkpt lat="44.30974" lon="3.59322">
        <ele>659</ele>
        <time>2017-03-04T22:10:46Z</time>
      </trkpt>
      <trkpt lat="44.30977" lon="3.59324">
        <ele>658</ele>
        <time>2017-03-04T22:12:46Z</time>
      </trkpt>
      <trkpt lat="44.30978" lon="3.59344">
        <ele>653</ele>
        <time>2017-03-04T22:14:46Z</time>
      </trkpt>
      <trkpt lat="44.30978" lon="3.5937">
        <ele>648</ele>
        <time>2017-03-04T22:16:46Z</time>
      </trkpt>
      <trkpt lat="44.30995" lon="3.59357">
        <ele>644</ele>
        <time>2017-03-04T22:18:46Z</time>
      </trkpt>
      <trkpt lat="44.31" lon="3.59381">
        <ele>637</ele>
        <time>2017-03-04T22:20:46Z</time>
      </trkpt>
      <trkpt lat="44.31008" lon="3.594">
        <ele>635</ele>
        <time>2017-03-04T22:22:46Z</time>
      </trkpt>
      <trkpt lat="44.31014" lon="3.59414">
        <ele>632</ele>
        <time>2017-03-04T22:24:46Z</time>
      </trkpt>
      <trkpt lat="44.31026" lon="3.5941">
        <ele>635</ele>
        <time>2017-03-04T22:26:46Z</time>
      </trkpt>
      <trkpt lat="44.31037" lon="3.59409">
        <ele>636</ele>
        <time>2017-03-04T22:28:46Z</time>
      </trkpt>
      <trkpt lat="44.31046" lon="3.5941">
        <ele>637</ele>
        <time>2017-03-04T22:30:46Z</time>
      </trkpt>
      <trkpt lat="44.31059" lon="3.59415">
        <ele>638</ele>
        <time>2017-03-04T22:32:46Z</time>
      </trkpt>
      <trkpt lat="44.31106" lon="3.5945">
        <ele>630</ele>
        <time>2017-03-04T22:34:46Z</time>
      </trkpt>
      <trkpt lat="44.31113" lon="3.59456">
        <ele>628</ele>
        <time>2017-03-04T22:36:46Z</time>
      </trkpt>
      <trkpt lat="44.31121" lon="3.59462">
        <ele>627</ele>
        <time>2017-03-04T22:38:46Z</time>
      </trkpt>
      <trkpt lat="44.31126" lon="3.59461">
        <ele>627</ele>
        <time>2017-03-04T22:40:46Z</time>
      </trkpt>
      <trkpt lat="44.31133" lon="3.59458">
        <ele>628</ele>
        <time>2017-03-04T22:42:46Z</time>
      </trkpt>
      <trkpt lat="44.31138" lon="3.59456">
        <ele>628</ele>
        <time>2017-03-04T22:44:46Z</time>
      </trkpt>
      <trkpt lat="44.31206" lon="3.5935">
        <ele>657</ele>
        <time>2017-03-04T22:46:46Z</time>
      </trkpt>
      <trkpt lat="44.31219" lon="3.59389">
        <ele>647</ele>
        <time>2017-03-04T22:48:46Z</time>
      </trkpt>
      <trkpt lat="44.31231" lon="3.59415">
        <ele>642</ele>
        <time>2017-03-04T22:50:46Z</time>
      </trkpt>
      <trkpt lat="44.31247" lon="3.59446">
        <ele>634</ele>
        <time>2017-03-04T22:52:46Z</time>
      </trkpt>
      <trkpt lat="44.31289" lon="3.59489">
        <ele>632</ele>
        <time>2017-03-04T22:54:46Z</time>
      </trkpt>
      <trkpt lat="44.31298" lon="3.59509">
        <ele>629</ele>
        <time>2017-03-04T22:56:46Z</time>
      </trkpt>
      <trkpt lat="44.31334" lon="3.59535">
        <ele>631</ele>
        <time>2017-03-04T22:58:46Z</time>
      </trkpt>
      <trkpt lat="44.31353" lon="3.5955">
        <ele>627</ele>
        <time>2017-03-04T23:00:46Z</time>
      </trkpt>
      <trkpt lat="44.31436" lon="3.59614">
        <ele>609</ele>
        <time>2017-03-04T23:02:46Z</time>
      </trkpt>
      <trkpt lat="44.31466" lon="3.59634">
        <ele>602</ele>
        <time>2017-03-04T23:04:46Z</time>
      </trkpt>
      <trkpt lat="44.31483" lon="3.59624">
        <ele>606</ele>
        <time>2017-03-04T23:06:46Z</time>
      </trkpt>
      <trkpt lat="44.31501" lon="3.59666">
        <ele>594</ele>
        <time>2017-03-04T23:08:46Z</time>
      </trkpt>
      <trkpt lat="44.31507" lon="3.59692">
        <ele>587</ele>
        <time>2017-03-04T23:10:46Z</time>
      </trkpt>
      <trkpt lat="44.31531" lon="3.59709">
        <ele>584</ele>
        <time>2017-03-04T23:12:46Z</time>
      </trkpt>
      <trkpt lat="44.31559" lon="3.59714">
        <ele>584</ele>
        <time>2017-03-04T23:14:46Z</time>
      </trkpt>
      <trkpt lat="44.31571" lon="3.59725">
        <ele>582</ele>
        <time>2017-03-04T23:16:46Z</time>
      </trkpt>
      <trkpt lat="44.31574" lon="3.59729">
        <ele>581</ele>
        <time>2017-03-04T23:18:46Z</time>
      </trkpt>
      <trkpt lat="44.31578" lon="3.59737">
        <ele>579</ele>
        <time>2017-03-04T23:20:46Z</time>
      </trkpt>
      <trkpt lat="44.31582" lon="3.59747">
        <ele>577</ele>
        <time>2017-03-04T23:22:46Z</time>
      </trkpt>
      <trkpt lat="44.31584" lon="3.59751">
        <ele>576</ele>
        <time>2017-03-04T23:24:46Z</time>
      </trkpt>
      <trkpt lat="44.31585" lon="3.59755">
        <ele>574</ele>
        <time>2017-03-04T23:26:46Z</time>
      </trkpt>
      <trkpt lat="44.31596" lon="3.59768">
        <ele>570</ele>
        <time>2017-03-04T23:28:46Z</time>
      </trkpt>
      <trkpt lat="44.31608" lon="3.59776">
        <ele>568</ele>
        <time>2017-03-04T23:30:46Z</time>
      </trkpt>
      <trkpt lat="44.31628" lon="3.59784">
        <ele>565</ele>
        <time>2017-03-04T23:32:46Z</time>
      </trkpt>
      <trkpt lat="44.31635" lon="3.59789">
        <ele>563</ele>
        <time>2017-03-04T23:34:46Z</time>
      </trkpt>
      <trkpt lat="44.31642" lon="3.59795">
        <ele>561</ele>
        <time>2017-03-04T23:36:46Z</time>
      </trkpt>
      <trkpt lat="44.31648" lon="3.59797">
        <ele>560</ele>
        <time>2017-03-04T23:38:46Z</time>
      </trkpt>
      <trkpt lat="44.31653" lon="3.598">
        <ele>559</ele>
        <time>2017-03-04T23:40:46Z</time>
      </trkpt>
      <trkpt lat="44.31659" lon="3.59809">
        <ele>557</ele>
        <time>2017-03-04T23:42:46Z</time>
      </trkpt>
      <trkpt lat="44.31687" lon="3.59809">
        <ele>555</ele>
        <time>2017-03-04T23:44:46Z</time>
      </trkpt>
      <trkpt lat="44.31732" lon="3.59805">
        <ele>554</ele>
        <time>2017-03-04T23:46:46Z</time>
      </trkpt>
      <trkpt lat="44.31775" lon="3.59802">
        <ele>552</ele>
        <time>2017-03-04T23:48:46Z</time>
      </trkpt>
      <trkpt lat="44.31809" lon="3.59797">
        <ele>550</ele>
        <time>2017-03-04T23:50:46Z</time>
      </trkpt>
      <trkpt lat="44.31855" lon="3.59785">
        <ele>549</ele>
        <time>2017-03-04T23:52:46Z</time>
      </trkpt>
      <trkpt lat="44.3186" lon="3.59783">
        <ele>549</ele>
        <time>2017-03-04T23:54:46Z</time>
      </trkpt>
      <trkpt lat="44.3187" lon="3.59782">
        <ele>549</ele>
        <time>2017-03-04T23:56:46Z</time>
      </trkpt>
      <trkpt lat="44.31882" lon="3.5979">
        <ele>548</ele>
        <time>2017-03-04T23:58:46Z</time>
      </trkpt>
      <trkpt lat="44.31883" lon="3.59795">
        <ele>548</ele>
        <time>2017-03-05T00:00:46Z</time>
      </trkpt>
      <trkpt lat="44.31885" lon="3.59799">
        <ele>548</ele>
        <time>2017-03-05T00:02:46Z</time>
      </trkpt>
      <trkpt lat="44.31889" lon="3.59801">
        <ele>548</ele>
        <time>2017-03-05T00:04:46Z</time>
      </trkpt>
      <trkpt lat="44.31892" lon="3.59801">
        <ele>548</ele>
        <time>2017-03-05T00:06:46Z</time>
      </trkpt>
      <trkpt lat="44.31895" lon="3.598">
        <ele>548</ele>
        <time>2017-03-05T00:08:46Z</time>
      </trkpt>
      <trkpt lat="44.31899" lon="3.59796">
        <ele>548</ele>
        <time>2017-03-05T00:10:46Z</time>
      </trkpt>
      <trkpt lat="44.319" lon="3.59789">
        <ele>548</ele>
        <time>2017-03-05T00:12:46Z</time>
      </trkpt>
      <trkpt lat="44.31906" lon="3.5978">
        <ele>548</ele>
        <time>2017-03-05T00:14:46Z</time>
      </trkpt>
      <trkpt lat="44.31909" lon="3.59776">
        <ele>548</ele>
        <time>2017-03-05T00:16:46Z</time>
      </trkpt>
      <trkpt lat="44.31911" lon="3.59772">
        <ele>548</ele>
        <time>2017-03-05T00:18:46Z</time>
      </trkpt>
      <trkpt lat="44.31916" lon="3.59769">
        <ele>548</ele>
        <time>2017-03-05T00:20:46Z</time>
      </trkpt>
      <trkpt lat="44.31935" lon="3.59763">
        <ele>548</ele>
        <time>2017-03-05T00:22:46Z</time>
      </trkpt>
      <trkpt lat="44.31981" lon="3.59748">
        <ele>549</ele>
        <time>2017-03-05T00:24:46Z</time>
      </trkpt>
      <trkpt lat="44.31994" lon="3.5974">
        <ele>549</ele>
        <time>2017-03-05T00:26:46Z</time>
      </trkpt>
      <trkpt lat="44.32021" lon="3.59721">
        <ele>550</ele>
        <time>2017-03-05T00:28:46Z</time>
      </trkpt>
      <trkpt lat="44.32053" lon="3.59702">
        <ele>549</ele>
        <time>2017-03-05T00:30:46Z</time>
      </trkpt>
      <trkpt lat="44.32078" lon="3.59686">
        <ele>549</ele>
        <time>2017-03-05T00:32:46Z</time>
      </trkpt>
      <trkpt lat="44.32088" lon="3.59679">
        <ele>549</ele>
        <time>2017-03-05T00:34:46Z</time>
      </trkpt>
      <trkpt lat="44.32101" lon="3.5967">
        <ele>549</ele>
        <time>2017-03-05T00:36:46Z</time>
      </trkpt>
      <trkpt lat="44.32112" lon="3.59662">
        <ele>549</ele>
        <time>2017-03-05T00:38:46Z</time>
      </trkpt>
      <trkpt lat="44.32124" lon="3.59657">
        <ele>550</ele>
        <time>2017-03-05T00:40:46Z</time>
      </trkpt>
      <trkpt lat="44.32209" lon="3.59645">
        <ele>549</ele>
        <time>2017-03-05T00:42:46Z</time>
      </trkpt>
      <trkpt lat="44.3224" lon="3.59638">
        <ele>548</ele>
        <time>2017-03-05T00:44:46Z</time>
      </trkpt>
      <trkpt lat="44.32287" lon="3.59625">
        <ele>548</ele>
        <time>2017-03-05T00:46:46Z</time>
      </trkpt>
      <trkpt lat="44.3232" lon="3.5962">
        <ele>548</ele>
        <time>2017-03-05T00:48:46Z</time>
      </trkpt>
      <trkpt lat="44.32323" lon="3.59619">
        <ele>548</ele>
        <time>2017-03-05T00:50:46Z</time>
      </trkpt>
      <trkpt lat="44.32328" lon="3.59618">
        <ele>548</ele>
        <time>2017-03-05T00:52:46Z</time>
      </trkpt>
      <trkpt lat="44.32333" lon="3.59615">
        <ele>548</ele>
        <time>2017-03-05T00:54:46Z</time>
      </trkpt>
      <trkpt lat="44.32342" lon="3.59609">
        <ele>548</ele>
        <time>2017-03-05T00:56:46Z</time>
      </trkpt>
      <trkpt lat="44.32378" lon="3.59579">
        <ele>548</ele>
        <time>2017-03-05T00:58:46Z</time>
      </trkpt>
      <trkpt lat="44.32383" lon="3.59576">
        <ele>548</ele>
        <time>2017-03-05T01:00:46Z</time>
      </trkpt>
      <trkpt lat="44.3241" lon="3.59556">
        <ele>548</ele>
        <time>2017-03-05T01:02:46Z</time>
      </trkpt>
      <trkpt lat="44.32453" lon="3.59521">
        <ele>548</ele>
        <time>2017-03-05T01:04:46Z</time>
      </trkpt>
      <trkpt lat="44.32462" lon="3.59515">
        <ele>548</ele>
        <time>2017-03-05T01:06:46Z</time>
      </trkpt>
      <trkpt lat="44.32479" lon="3.59501">
        <ele>548</ele>
        <time>2017-03-05T01:08:46Z</time>
      </trkpt>
      <trkpt lat="44.32477" lon="3.59483">
        <ele>548</ele>
        <time>2017-03-05T01:10:46Z</time>
      </trkpt>
      <trkpt lat="44.32475" lon="3.59476">
        <ele>548</ele>
        <time>2017-03-05T01:12:46Z</time>
      </trkpt>
      <trkpt lat="44.32461" lon="3.59441">
        <ele>549</ele>
        <time>2017-03-05T01:14:46Z</time>
      </trkpt>
      <trkpt lat="44.32459" lon="3.59432">
        <ele>549</ele>
        <time>2017-03-05T01:16:46Z</time>
      </trkpt>
      <trkpt lat="44.32473" lon="3.59419">
        <ele>549</ele>
        <time>2017-03-05T01:18:46Z</time>
      </trkpt>
      <trkpt lat="44.32487" lon="3.594">
        <ele>549</ele>
        <time>2017-03-05T01:20:46Z</time>
      </trkpt>
      <trkpt lat="44.32483" lon="3.59395">
        <ele>550</ele>
        <time>2017-03-05T01:22:46Z</time>
      </trkpt>
    </trkseg>
  </trk>
</gpx>